<?xml version="1.0" encoding="UTF-8" standalone="no" ?>
<gpx xmlns="http://www.topografix.com/GPX/1/1" xmlns:xsi="http://www.w3.org/2001/XMLSchema-instance" xsi:schemaLocation="http://www.topografix.com/GPX/1/1 http://www.topografix.com/GPX/1/1/gpx.xsd" version="1.1" creator="VisuGPX - https://www.visugpx.com">
  <metadata>
    <name>Saint Sauveur en Diois</name>
  </metadata>
  <trk>
    <name><![CDATA[Saint Sauveur en Diois_1]]></name>
    <trkseg>
      <trkpt lat="44.68002" lon="5.15692">
        <ele>375</ele>
        <time>2026-09-02T16:53:21.717Z</time>
      </trkpt>
      <trkpt lat="44.68006" lon="5.15691">
        <ele>378</ele>
        <time>2026-09-02T16:53:22.717Z</time>
      </trkpt>
      <trkpt lat="44.68008" lon="5.15691">
        <ele>378</ele>
        <time>2026-09-02T16:53:23.717Z</time>
      </trkpt>
      <trkpt lat="44.68005" lon="5.157">
        <ele>380</ele>
        <time>2026-09-02T16:53:24.717Z</time>
      </trkpt>
      <trkpt lat="44.68002" lon="5.15691">
        <ele>379</ele>
        <time>2026-09-02T16:53:25.717Z</time>
      </trkpt>
      <trkpt lat="44.67997" lon="5.15691">
        <ele>374</ele>
        <time>2026-09-02T16:53:26.717Z</time>
      </trkpt>
      <trkpt lat="44.68002" lon="5.15696">
        <ele>377</ele>
        <time>2026-09-02T16:53:27.717Z</time>
      </trkpt>
      <trkpt lat="44.68006" lon="5.15716">
        <ele>379</ele>
        <time>2026-09-02T16:53:28.717Z</time>
      </trkpt>
      <trkpt lat="44.68003" lon="5.15691">
        <ele>376</ele>
        <time>2026-09-02T16:53:29.717Z</time>
      </trkpt>
      <trkpt lat="44.68004" lon="5.15697">
        <ele>377</ele>
        <time>2026-09-02T16:53:30.717Z</time>
      </trkpt>
      <trkpt lat="44.68004" lon="5.15695">
        <ele>378</ele>
        <time>2026-09-02T16:53:31.717Z</time>
      </trkpt>
      <trkpt lat="44.68001" lon="5.15693">
        <ele>382</ele>
        <time>2026-09-02T16:53:32.717Z</time>
      </trkpt>
      <trkpt lat="44.68003" lon="5.15693">
        <ele>377</ele>
        <time>2026-09-02T16:53:33.717Z</time>
      </trkpt>
      <trkpt lat="44.68003" lon="5.1569">
        <ele>378</ele>
        <time>2026-09-02T16:53:34.717Z</time>
      </trkpt>
      <trkpt lat="44.68002" lon="5.15688">
        <ele>379</ele>
        <time>2026-09-02T16:53:35.717Z</time>
      </trkpt>
      <trkpt lat="44.68" lon="5.15702">
        <ele>379</ele>
        <time>2026-09-02T16:53:36.717Z</time>
      </trkpt>
      <trkpt lat="44.67999" lon="5.15702">
        <ele>381</ele>
        <time>2026-09-02T16:53:37.717Z</time>
      </trkpt>
      <trkpt lat="44.67999" lon="5.15702">
        <ele>381</ele>
        <time>2026-09-02T16:53:38.717Z</time>
      </trkpt>
      <trkpt lat="44.68" lon="5.15701">
        <ele>379</ele>
        <time>2026-09-02T16:53:39.717Z</time>
      </trkpt>
      <trkpt lat="44.68001" lon="5.15698">
        <ele>379</ele>
        <time>2026-09-02T16:53:40.717Z</time>
      </trkpt>
      <trkpt lat="44.68" lon="5.15703">
        <ele>381</ele>
        <time>2026-09-02T16:53:41.717Z</time>
      </trkpt>
      <trkpt lat="44.67999" lon="5.15707">
        <ele>382</ele>
        <time>2026-09-02T16:53:42.717Z</time>
      </trkpt>
      <trkpt lat="44.68" lon="5.15704">
        <ele>380</ele>
        <time>2026-09-02T16:53:43.717Z</time>
      </trkpt>
      <trkpt lat="44.68001" lon="5.15699">
        <ele>377</ele>
        <time>2026-09-02T16:53:44.717Z</time>
      </trkpt>
      <trkpt lat="44.68003" lon="5.15694">
        <ele>375</ele>
        <time>2026-09-02T16:53:45.717Z</time>
      </trkpt>
      <trkpt lat="44.68" lon="5.15704">
        <ele>383</ele>
        <time>2026-09-02T16:53:46.717Z</time>
      </trkpt>
      <trkpt lat="44.68" lon="5.15702">
        <ele>386</ele>
        <time>2026-09-02T16:53:47.717Z</time>
      </trkpt>
      <trkpt lat="44.67999" lon="5.15695">
        <ele>375</ele>
        <time>2026-09-02T16:53:48.717Z</time>
      </trkpt>
      <trkpt lat="44.67998" lon="5.15698">
        <ele>385</ele>
        <time>2026-09-02T16:53:49.717Z</time>
      </trkpt>
      <trkpt lat="44.67997" lon="5.15696">
        <ele>379</ele>
        <time>2026-09-02T16:53:50.717Z</time>
      </trkpt>
      <trkpt lat="44.67997" lon="5.15699">
        <ele>383</ele>
        <time>2026-09-02T16:53:51.717Z</time>
      </trkpt>
      <trkpt lat="44.67997" lon="5.15702">
        <ele>391</ele>
        <time>2026-09-02T16:53:52.717Z</time>
      </trkpt>
      <trkpt lat="44.67995" lon="5.157">
        <ele>387</ele>
        <time>2026-09-02T16:53:53.717Z</time>
      </trkpt>
      <trkpt lat="44.67995" lon="5.157">
        <ele>387</ele>
        <time>2026-09-02T16:53:54.717Z</time>
      </trkpt>
      <trkpt lat="44.67994" lon="5.15701">
        <ele>386</ele>
        <time>2026-09-02T16:53:55.717Z</time>
      </trkpt>
      <trkpt lat="44.67993" lon="5.15701">
        <ele>386</ele>
        <time>2026-09-02T16:53:56.717Z</time>
      </trkpt>
      <trkpt lat="44.67992" lon="5.15702">
        <ele>386</ele>
        <time>2026-09-02T16:53:57.717Z</time>
      </trkpt>
      <trkpt lat="44.67991" lon="5.15702">
        <ele>386</ele>
        <time>2026-09-02T16:53:58.717Z</time>
      </trkpt>
      <trkpt lat="44.6799" lon="5.15702">
        <ele>386</ele>
        <time>2026-09-02T16:53:59.717Z</time>
      </trkpt>
      <trkpt lat="44.67989" lon="5.15702">
        <ele>385</ele>
        <time>2026-09-02T16:54:00.717Z</time>
      </trkpt>
      <trkpt lat="44.67988" lon="5.15703">
        <ele>385</ele>
        <time>2026-09-02T16:54:01.717Z</time>
      </trkpt>
      <trkpt lat="44.67987" lon="5.15703">
        <ele>385</ele>
        <time>2026-09-02T16:54:02.717Z</time>
      </trkpt>
      <trkpt lat="44.67986" lon="5.15703">
        <ele>384</ele>
        <time>2026-09-02T16:54:03.717Z</time>
      </trkpt>
      <trkpt lat="44.67985" lon="5.15704">
        <ele>384</ele>
        <time>2026-09-02T16:54:04.717Z</time>
      </trkpt>
      <trkpt lat="44.67984" lon="5.15704">
        <ele>384</ele>
        <time>2026-09-02T16:54:05.717Z</time>
      </trkpt>
      <trkpt lat="44.67983" lon="5.15705">
        <ele>384</ele>
        <time>2026-09-02T16:54:06.717Z</time>
      </trkpt>
      <trkpt lat="44.67982" lon="5.15705">
        <ele>383</ele>
        <time>2026-09-02T16:54:07.717Z</time>
      </trkpt>
      <trkpt lat="44.67982" lon="5.15705">
        <ele>383</ele>
        <time>2026-09-02T16:54:08.717Z</time>
      </trkpt>
      <trkpt lat="44.67981" lon="5.15705">
        <ele>384</ele>
        <time>2026-09-02T16:54:09.717Z</time>
      </trkpt>
      <trkpt lat="44.6798" lon="5.15706">
        <ele>384</ele>
        <time>2026-09-02T16:54:10.717Z</time>
      </trkpt>
      <trkpt lat="44.67979" lon="5.15707">
        <ele>384</ele>
        <time>2026-09-02T16:54:11.717Z</time>
      </trkpt>
      <trkpt lat="44.67978" lon="5.15708">
        <ele>384</ele>
        <time>2026-09-02T16:54:12.717Z</time>
      </trkpt>
      <trkpt lat="44.67978" lon="5.15708">
        <ele>385</ele>
        <time>2026-09-02T16:54:13.717Z</time>
      </trkpt>
      <trkpt lat="44.67977" lon="5.15709">
        <ele>385</ele>
        <time>2026-09-02T16:54:14.717Z</time>
      </trkpt>
      <trkpt lat="44.67976" lon="5.1571">
        <ele>385</ele>
        <time>2026-09-02T16:54:15.717Z</time>
      </trkpt>
      <trkpt lat="44.67975" lon="5.15711">
        <ele>385</ele>
        <time>2026-09-02T16:54:16.717Z</time>
      </trkpt>
      <trkpt lat="44.67974" lon="5.15711">
        <ele>385</ele>
        <time>2026-09-02T16:54:17.717Z</time>
      </trkpt>
      <trkpt lat="44.67973" lon="5.15712">
        <ele>385</ele>
        <time>2026-09-02T16:54:18.717Z</time>
      </trkpt>
      <trkpt lat="44.67972" lon="5.15713">
        <ele>386</ele>
        <time>2026-09-02T16:54:19.717Z</time>
      </trkpt>
      <trkpt lat="44.67971" lon="5.15714">
        <ele>386</ele>
        <time>2026-09-02T16:54:20.717Z</time>
      </trkpt>
      <trkpt lat="44.6797" lon="5.15714">
        <ele>386</ele>
        <time>2026-09-02T16:54:21.717Z</time>
      </trkpt>
      <trkpt lat="44.67969" lon="5.15715">
        <ele>386</ele>
        <time>2026-09-02T16:54:22.717Z</time>
      </trkpt>
      <trkpt lat="44.67967" lon="5.15716">
        <ele>386</ele>
        <time>2026-09-02T16:54:23.717Z</time>
      </trkpt>
      <trkpt lat="44.67966" lon="5.15716">
        <ele>387</ele>
        <time>2026-09-02T16:54:24.717Z</time>
      </trkpt>
      <trkpt lat="44.67965" lon="5.15717">
        <ele>387</ele>
        <time>2026-09-02T16:54:25.717Z</time>
      </trkpt>
      <trkpt lat="44.67964" lon="5.15717">
        <ele>387</ele>
        <time>2026-09-02T16:54:26.717Z</time>
      </trkpt>
      <trkpt lat="44.67963" lon="5.15718">
        <ele>387</ele>
        <time>2026-09-02T16:54:27.717Z</time>
      </trkpt>
      <trkpt lat="44.67962" lon="5.15718">
        <ele>387</ele>
        <time>2026-09-02T16:54:28.717Z</time>
      </trkpt>
      <trkpt lat="44.67961" lon="5.15719">
        <ele>388</ele>
        <time>2026-09-02T16:54:29.717Z</time>
      </trkpt>
      <trkpt lat="44.67961" lon="5.15719">
        <ele>388</ele>
        <time>2026-09-02T16:54:30.717Z</time>
      </trkpt>
      <trkpt lat="44.67961" lon="5.15719">
        <ele>388</ele>
        <time>2026-09-02T16:54:31.717Z</time>
      </trkpt>
      <trkpt lat="44.67961" lon="5.15719">
        <ele>388</ele>
        <time>2026-09-02T16:54:32.717Z</time>
      </trkpt>
      <trkpt lat="44.67961" lon="5.1572">
        <ele>388</ele>
        <time>2026-09-02T16:54:33.717Z</time>
      </trkpt>
      <trkpt lat="44.6796" lon="5.1572">
        <ele>389</ele>
        <time>2026-09-02T16:54:34.717Z</time>
      </trkpt>
      <trkpt lat="44.67959" lon="5.15721">
        <ele>389</ele>
        <time>2026-09-02T16:54:35.717Z</time>
      </trkpt>
      <trkpt lat="44.67958" lon="5.15721">
        <ele>389</ele>
        <time>2026-09-02T16:54:36.717Z</time>
      </trkpt>
      <trkpt lat="44.67958" lon="5.15721">
        <ele>389</ele>
        <time>2026-09-02T16:54:37.717Z</time>
      </trkpt>
      <trkpt lat="44.67957" lon="5.15722">
        <ele>389</ele>
        <time>2026-09-02T16:54:38.717Z</time>
      </trkpt>
      <trkpt lat="44.67956" lon="5.15722">
        <ele>389</ele>
        <time>2026-09-02T16:54:39.717Z</time>
      </trkpt>
      <trkpt lat="44.67955" lon="5.15722">
        <ele>389</ele>
        <time>2026-09-02T16:54:40.717Z</time>
      </trkpt>
      <trkpt lat="44.67954" lon="5.15723">
        <ele>389</ele>
        <time>2026-09-02T16:54:41.717Z</time>
      </trkpt>
      <trkpt lat="44.67953" lon="5.15723">
        <ele>390</ele>
        <time>2026-09-02T16:54:42.717Z</time>
      </trkpt>
      <trkpt lat="44.67952" lon="5.15724">
        <ele>390</ele>
        <time>2026-09-02T16:54:43.717Z</time>
      </trkpt>
      <trkpt lat="44.67951" lon="5.15724">
        <ele>390</ele>
        <time>2026-09-02T16:54:44.717Z</time>
      </trkpt>
      <trkpt lat="44.6795" lon="5.15725">
        <ele>390</ele>
        <time>2026-09-02T16:54:45.717Z</time>
      </trkpt>
      <trkpt lat="44.67949" lon="5.15725">
        <ele>390</ele>
        <time>2026-09-02T16:54:46.717Z</time>
      </trkpt>
      <trkpt lat="44.67948" lon="5.15726">
        <ele>390</ele>
        <time>2026-09-02T16:54:47.717Z</time>
      </trkpt>
      <trkpt lat="44.67948" lon="5.15726">
        <ele>390</ele>
        <time>2026-09-02T16:54:48.717Z</time>
      </trkpt>
      <trkpt lat="44.67947" lon="5.15727">
        <ele>390</ele>
        <time>2026-09-02T16:54:49.717Z</time>
      </trkpt>
      <trkpt lat="44.67945" lon="5.15727">
        <ele>390</ele>
        <time>2026-09-02T16:54:50.717Z</time>
      </trkpt>
      <trkpt lat="44.67944" lon="5.15728">
        <ele>390</ele>
        <time>2026-09-02T16:54:51.717Z</time>
      </trkpt>
      <trkpt lat="44.67943" lon="5.15728">
        <ele>390</ele>
        <time>2026-09-02T16:54:52.717Z</time>
      </trkpt>
      <trkpt lat="44.67942" lon="5.15729">
        <ele>391</ele>
        <time>2026-09-02T16:54:53.717Z</time>
      </trkpt>
      <trkpt lat="44.67942" lon="5.15729">
        <ele>391</ele>
        <time>2026-09-02T16:54:54.717Z</time>
      </trkpt>
      <trkpt lat="44.67941" lon="5.1573">
        <ele>391</ele>
        <time>2026-09-02T16:54:55.717Z</time>
      </trkpt>
      <trkpt lat="44.6794" lon="5.1573">
        <ele>391</ele>
        <time>2026-09-02T16:54:56.717Z</time>
      </trkpt>
      <trkpt lat="44.67939" lon="5.1573">
        <ele>391</ele>
        <time>2026-09-02T16:54:57.717Z</time>
      </trkpt>
      <trkpt lat="44.67938" lon="5.15731">
        <ele>391</ele>
        <time>2026-09-02T16:54:58.717Z</time>
      </trkpt>
      <trkpt lat="44.67937" lon="5.15731">
        <ele>391</ele>
        <time>2026-09-02T16:54:59.717Z</time>
      </trkpt>
      <trkpt lat="44.67936" lon="5.15731">
        <ele>391</ele>
        <time>2026-09-02T16:55:00.717Z</time>
      </trkpt>
      <trkpt lat="44.67935" lon="5.15731">
        <ele>391</ele>
        <time>2026-09-02T16:55:01.717Z</time>
      </trkpt>
      <trkpt lat="44.67934" lon="5.15732">
        <ele>391</ele>
        <time>2026-09-02T16:55:02.717Z</time>
      </trkpt>
      <trkpt lat="44.67933" lon="5.15732">
        <ele>391</ele>
        <time>2026-09-02T16:55:03.717Z</time>
      </trkpt>
      <trkpt lat="44.67932" lon="5.15733">
        <ele>392</ele>
        <time>2026-09-02T16:55:04.717Z</time>
      </trkpt>
      <trkpt lat="44.67931" lon="5.15733">
        <ele>392</ele>
        <time>2026-09-02T16:55:05.717Z</time>
      </trkpt>
      <trkpt lat="44.67931" lon="5.15733">
        <ele>392</ele>
        <time>2026-09-02T16:55:06.717Z</time>
      </trkpt>
      <trkpt lat="44.6793" lon="5.15733">
        <ele>392</ele>
        <time>2026-09-02T16:55:07.717Z</time>
      </trkpt>
      <trkpt lat="44.67929" lon="5.15734">
        <ele>392</ele>
        <time>2026-09-02T16:55:08.717Z</time>
      </trkpt>
      <trkpt lat="44.67929" lon="5.15734">
        <ele>392</ele>
        <time>2026-09-02T16:55:09.717Z</time>
      </trkpt>
      <trkpt lat="44.67928" lon="5.15734">
        <ele>392</ele>
        <time>2026-09-02T16:55:10.717Z</time>
      </trkpt>
      <trkpt lat="44.67927" lon="5.15734">
        <ele>392</ele>
        <time>2026-09-02T16:55:11.717Z</time>
      </trkpt>
      <trkpt lat="44.67926" lon="5.15735">
        <ele>392</ele>
        <time>2026-09-02T16:55:12.717Z</time>
      </trkpt>
      <trkpt lat="44.67925" lon="5.15735">
        <ele>392</ele>
        <time>2026-09-02T16:55:13.717Z</time>
      </trkpt>
      <trkpt lat="44.67924" lon="5.15736">
        <ele>393</ele>
        <time>2026-09-02T16:55:14.717Z</time>
      </trkpt>
      <trkpt lat="44.67923" lon="5.15736">
        <ele>393</ele>
        <time>2026-09-02T16:55:15.717Z</time>
      </trkpt>
      <trkpt lat="44.67922" lon="5.15737">
        <ele>393</ele>
        <time>2026-09-02T16:55:16.717Z</time>
      </trkpt>
      <trkpt lat="44.67921" lon="5.15737">
        <ele>393</ele>
        <time>2026-09-02T16:55:17.717Z</time>
      </trkpt>
      <trkpt lat="44.67921" lon="5.15738">
        <ele>393</ele>
        <time>2026-09-02T16:55:18.717Z</time>
      </trkpt>
      <trkpt lat="44.6792" lon="5.15738">
        <ele>393</ele>
        <time>2026-09-02T16:55:19.717Z</time>
      </trkpt>
      <trkpt lat="44.6792" lon="5.15738">
        <ele>393</ele>
        <time>2026-09-02T16:55:20.717Z</time>
      </trkpt>
      <trkpt lat="44.67919" lon="5.15738">
        <ele>393</ele>
        <time>2026-09-02T16:55:21.717Z</time>
      </trkpt>
      <trkpt lat="44.67918" lon="5.15738">
        <ele>393</ele>
        <time>2026-09-02T16:55:22.717Z</time>
      </trkpt>
      <trkpt lat="44.67917" lon="5.15739">
        <ele>393</ele>
        <time>2026-09-02T16:55:23.717Z</time>
      </trkpt>
      <trkpt lat="44.67916" lon="5.15739">
        <ele>393</ele>
        <time>2026-09-02T16:55:24.717Z</time>
      </trkpt>
      <trkpt lat="44.67915" lon="5.15739">
        <ele>393</ele>
        <time>2026-09-02T16:55:25.717Z</time>
      </trkpt>
      <trkpt lat="44.67914" lon="5.15739">
        <ele>393</ele>
        <time>2026-09-02T16:55:26.717Z</time>
      </trkpt>
      <trkpt lat="44.67913" lon="5.15739">
        <ele>393</ele>
        <time>2026-09-02T16:55:27.717Z</time>
      </trkpt>
      <trkpt lat="44.67912" lon="5.15739">
        <ele>393</ele>
        <time>2026-09-02T16:55:28.717Z</time>
      </trkpt>
      <trkpt lat="44.67911" lon="5.1574">
        <ele>393</ele>
        <time>2026-09-02T16:55:29.717Z</time>
      </trkpt>
      <trkpt lat="44.6791" lon="5.1574">
        <ele>393</ele>
        <time>2026-09-02T16:55:30.717Z</time>
      </trkpt>
      <trkpt lat="44.67909" lon="5.1574">
        <ele>393</ele>
        <time>2026-09-02T16:55:31.717Z</time>
      </trkpt>
      <trkpt lat="44.67908" lon="5.1574">
        <ele>393</ele>
        <time>2026-09-02T16:55:32.717Z</time>
      </trkpt>
      <trkpt lat="44.67908" lon="5.1574">
        <ele>393</ele>
        <time>2026-09-02T16:55:33.717Z</time>
      </trkpt>
      <trkpt lat="44.67907" lon="5.1574">
        <ele>393</ele>
        <time>2026-09-02T16:55:34.717Z</time>
      </trkpt>
      <trkpt lat="44.67906" lon="5.1574">
        <ele>393</ele>
        <time>2026-09-02T16:55:35.717Z</time>
      </trkpt>
      <trkpt lat="44.67905" lon="5.1574">
        <ele>393</ele>
        <time>2026-09-02T16:55:36.717Z</time>
      </trkpt>
      <trkpt lat="44.67904" lon="5.1574">
        <ele>393</ele>
        <time>2026-09-02T16:55:37.717Z</time>
      </trkpt>
      <trkpt lat="44.67903" lon="5.1574">
        <ele>393</ele>
        <time>2026-09-02T16:55:38.717Z</time>
      </trkpt>
      <trkpt lat="44.67902" lon="5.1574">
        <ele>393</ele>
        <time>2026-09-02T16:55:39.717Z</time>
      </trkpt>
      <trkpt lat="44.67901" lon="5.1574">
        <ele>393</ele>
        <time>2026-09-02T16:55:40.717Z</time>
      </trkpt>
      <trkpt lat="44.67899" lon="5.1574">
        <ele>393</ele>
        <time>2026-09-02T16:55:41.717Z</time>
      </trkpt>
      <trkpt lat="44.67898" lon="5.15741">
        <ele>394</ele>
        <time>2026-09-02T16:55:42.717Z</time>
      </trkpt>
      <trkpt lat="44.67897" lon="5.15741">
        <ele>394</ele>
        <time>2026-09-02T16:55:43.717Z</time>
      </trkpt>
      <trkpt lat="44.67896" lon="5.15742">
        <ele>394</ele>
        <time>2026-09-02T16:55:44.717Z</time>
      </trkpt>
      <trkpt lat="44.67895" lon="5.15742">
        <ele>394</ele>
        <time>2026-09-02T16:55:45.717Z</time>
      </trkpt>
      <trkpt lat="44.67894" lon="5.15743">
        <ele>394</ele>
        <time>2026-09-02T16:55:46.717Z</time>
      </trkpt>
      <trkpt lat="44.67893" lon="5.15744">
        <ele>394</ele>
        <time>2026-09-02T16:55:47.717Z</time>
      </trkpt>
      <trkpt lat="44.67892" lon="5.15744">
        <ele>394</ele>
        <time>2026-09-02T16:55:48.717Z</time>
      </trkpt>
      <trkpt lat="44.67891" lon="5.15744">
        <ele>395</ele>
        <time>2026-09-02T16:55:49.717Z</time>
      </trkpt>
      <trkpt lat="44.6789" lon="5.15745">
        <ele>395</ele>
        <time>2026-09-02T16:55:50.717Z</time>
      </trkpt>
      <trkpt lat="44.67889" lon="5.15745">
        <ele>395</ele>
        <time>2026-09-02T16:55:51.717Z</time>
      </trkpt>
      <trkpt lat="44.67888" lon="5.15746">
        <ele>395</ele>
        <time>2026-09-02T16:55:52.717Z</time>
      </trkpt>
      <trkpt lat="44.67887" lon="5.15746">
        <ele>395</ele>
        <time>2026-09-02T16:55:53.717Z</time>
      </trkpt>
      <trkpt lat="44.67886" lon="5.15746">
        <ele>395</ele>
        <time>2026-09-02T16:55:54.717Z</time>
      </trkpt>
      <trkpt lat="44.67885" lon="5.15747">
        <ele>395</ele>
        <time>2026-09-02T16:55:55.717Z</time>
      </trkpt>
      <trkpt lat="44.67884" lon="5.15747">
        <ele>395</ele>
        <time>2026-09-02T16:55:56.717Z</time>
      </trkpt>
      <trkpt lat="44.67883" lon="5.15747">
        <ele>396</ele>
        <time>2026-09-02T16:55:57.717Z</time>
      </trkpt>
      <trkpt lat="44.67883" lon="5.15748">
        <ele>396</ele>
        <time>2026-09-02T16:55:58.717Z</time>
      </trkpt>
      <trkpt lat="44.67882" lon="5.15748">
        <ele>396</ele>
        <time>2026-09-02T16:55:59.717Z</time>
      </trkpt>
      <trkpt lat="44.67881" lon="5.15748">
        <ele>396</ele>
        <time>2026-09-02T16:56:00.717Z</time>
      </trkpt>
      <trkpt lat="44.6788" lon="5.15748">
        <ele>396</ele>
        <time>2026-09-02T16:56:01.717Z</time>
      </trkpt>
      <trkpt lat="44.67879" lon="5.15748">
        <ele>396</ele>
        <time>2026-09-02T16:56:02.717Z</time>
      </trkpt>
      <trkpt lat="44.67879" lon="5.15749">
        <ele>397</ele>
        <time>2026-09-02T16:56:03.717Z</time>
      </trkpt>
      <trkpt lat="44.67878" lon="5.15749">
        <ele>397</ele>
        <time>2026-09-02T16:56:04.717Z</time>
      </trkpt>
      <trkpt lat="44.67877" lon="5.15749">
        <ele>397</ele>
        <time>2026-09-02T16:56:05.717Z</time>
      </trkpt>
      <trkpt lat="44.67876" lon="5.15749">
        <ele>397</ele>
        <time>2026-09-02T16:56:06.717Z</time>
      </trkpt>
      <trkpt lat="44.67875" lon="5.15749">
        <ele>397</ele>
        <time>2026-09-02T16:56:07.717Z</time>
      </trkpt>
      <trkpt lat="44.67874" lon="5.15749">
        <ele>397</ele>
        <time>2026-09-02T16:56:08.717Z</time>
      </trkpt>
      <trkpt lat="44.67873" lon="5.15749">
        <ele>397</ele>
        <time>2026-09-02T16:56:09.717Z</time>
      </trkpt>
      <trkpt lat="44.67872" lon="5.15749">
        <ele>397</ele>
        <time>2026-09-02T16:56:10.717Z</time>
      </trkpt>
      <trkpt lat="44.67871" lon="5.15749">
        <ele>398</ele>
        <time>2026-09-02T16:56:11.717Z</time>
      </trkpt>
      <trkpt lat="44.6787" lon="5.15749">
        <ele>398</ele>
        <time>2026-09-02T16:56:12.717Z</time>
      </trkpt>
      <trkpt lat="44.67869" lon="5.15749">
        <ele>398</ele>
        <time>2026-09-02T16:56:13.717Z</time>
      </trkpt>
      <trkpt lat="44.67869" lon="5.15749">
        <ele>398</ele>
        <time>2026-09-02T16:56:14.717Z</time>
      </trkpt>
      <trkpt lat="44.67868" lon="5.15749">
        <ele>398</ele>
        <time>2026-09-02T16:56:15.717Z</time>
      </trkpt>
      <trkpt lat="44.67867" lon="5.15749">
        <ele>398</ele>
        <time>2026-09-02T16:56:16.717Z</time>
      </trkpt>
      <trkpt lat="44.67866" lon="5.15748">
        <ele>398</ele>
        <time>2026-09-02T16:56:17.717Z</time>
      </trkpt>
      <trkpt lat="44.67865" lon="5.15748">
        <ele>398</ele>
        <time>2026-09-02T16:56:18.717Z</time>
      </trkpt>
      <trkpt lat="44.67864" lon="5.15747">
        <ele>398</ele>
        <time>2026-09-02T16:56:19.717Z</time>
      </trkpt>
      <trkpt lat="44.67863" lon="5.15747">
        <ele>399</ele>
        <time>2026-09-02T16:56:20.717Z</time>
      </trkpt>
      <trkpt lat="44.67862" lon="5.15747">
        <ele>399</ele>
        <time>2026-09-02T16:56:21.717Z</time>
      </trkpt>
      <trkpt lat="44.67861" lon="5.15747">
        <ele>399</ele>
        <time>2026-09-02T16:56:22.717Z</time>
      </trkpt>
      <trkpt lat="44.6786" lon="5.15746">
        <ele>399</ele>
        <time>2026-09-02T16:56:23.717Z</time>
      </trkpt>
      <trkpt lat="44.67859" lon="5.15747">
        <ele>399</ele>
        <time>2026-09-02T16:56:24.717Z</time>
      </trkpt>
      <trkpt lat="44.67859" lon="5.15747">
        <ele>399</ele>
        <time>2026-09-02T16:56:25.717Z</time>
      </trkpt>
      <trkpt lat="44.67858" lon="5.15746">
        <ele>399</ele>
        <time>2026-09-02T16:56:26.717Z</time>
      </trkpt>
      <trkpt lat="44.67857" lon="5.15746">
        <ele>399</ele>
        <time>2026-09-02T16:56:27.717Z</time>
      </trkpt>
      <trkpt lat="44.67856" lon="5.15745">
        <ele>399</ele>
        <time>2026-09-02T16:56:28.717Z</time>
      </trkpt>
      <trkpt lat="44.67855" lon="5.15744">
        <ele>399</ele>
        <time>2026-09-02T16:56:29.717Z</time>
      </trkpt>
      <trkpt lat="44.67854" lon="5.15744">
        <ele>399</ele>
        <time>2026-09-02T16:56:30.717Z</time>
      </trkpt>
      <trkpt lat="44.67853" lon="5.15743">
        <ele>399</ele>
        <time>2026-09-02T16:56:31.717Z</time>
      </trkpt>
      <trkpt lat="44.67852" lon="5.15742">
        <ele>399</ele>
        <time>2026-09-02T16:56:32.717Z</time>
      </trkpt>
      <trkpt lat="44.67851" lon="5.15742">
        <ele>400</ele>
        <time>2026-09-02T16:56:33.717Z</time>
      </trkpt>
      <trkpt lat="44.67851" lon="5.15741">
        <ele>400</ele>
        <time>2026-09-02T16:56:34.717Z</time>
      </trkpt>
      <trkpt lat="44.6785" lon="5.1574">
        <ele>400</ele>
        <time>2026-09-02T16:56:35.717Z</time>
      </trkpt>
      <trkpt lat="44.67849" lon="5.15739">
        <ele>400</ele>
        <time>2026-09-02T16:56:36.717Z</time>
      </trkpt>
      <trkpt lat="44.67848" lon="5.15738">
        <ele>400</ele>
        <time>2026-09-02T16:56:37.717Z</time>
      </trkpt>
      <trkpt lat="44.67848" lon="5.15738">
        <ele>400</ele>
        <time>2026-09-02T16:56:38.717Z</time>
      </trkpt>
      <trkpt lat="44.67847" lon="5.15738">
        <ele>400</ele>
        <time>2026-09-02T16:56:39.717Z</time>
      </trkpt>
      <trkpt lat="44.67847" lon="5.15738">
        <ele>400</ele>
        <time>2026-09-02T16:56:40.717Z</time>
      </trkpt>
      <trkpt lat="44.67847" lon="5.15738">
        <ele>400</ele>
        <time>2026-09-02T16:56:41.717Z</time>
      </trkpt>
      <trkpt lat="44.67847" lon="5.15738">
        <ele>400</ele>
        <time>2026-09-02T16:56:42.717Z</time>
      </trkpt>
      <trkpt lat="44.67846" lon="5.15736">
        <ele>400</ele>
        <time>2026-09-02T16:56:46.019Z</time>
      </trkpt>
      <trkpt lat="44.67846" lon="5.15735">
        <ele>400</ele>
        <time>2026-09-02T16:56:47.019Z</time>
      </trkpt>
      <trkpt lat="44.67845" lon="5.15734">
        <ele>400</ele>
        <time>2026-09-02T16:56:48.019Z</time>
      </trkpt>
      <trkpt lat="44.67844" lon="5.15733">
        <ele>400</ele>
        <time>2026-09-02T16:56:49.019Z</time>
      </trkpt>
      <trkpt lat="44.67843" lon="5.15732">
        <ele>400</ele>
        <time>2026-09-02T16:56:50.019Z</time>
      </trkpt>
      <trkpt lat="44.67843" lon="5.15731">
        <ele>400</ele>
        <time>2026-09-02T16:56:51.019Z</time>
      </trkpt>
      <trkpt lat="44.67842" lon="5.1573">
        <ele>400</ele>
        <time>2026-09-02T16:56:52.019Z</time>
      </trkpt>
      <trkpt lat="44.67841" lon="5.15729">
        <ele>400</ele>
        <time>2026-09-02T16:56:53.019Z</time>
      </trkpt>
      <trkpt lat="44.6784" lon="5.15728">
        <ele>400</ele>
        <time>2026-09-02T16:56:54.019Z</time>
      </trkpt>
      <trkpt lat="44.6784" lon="5.15727">
        <ele>400</ele>
        <time>2026-09-02T16:56:55.019Z</time>
      </trkpt>
      <trkpt lat="44.67839" lon="5.15726">
        <ele>400</ele>
        <time>2026-09-02T16:56:56.019Z</time>
      </trkpt>
      <trkpt lat="44.67838" lon="5.15725">
        <ele>400</ele>
        <time>2026-09-02T16:56:57.019Z</time>
      </trkpt>
      <trkpt lat="44.67838" lon="5.15724">
        <ele>400</ele>
        <time>2026-09-02T16:56:58.019Z</time>
      </trkpt>
      <trkpt lat="44.67837" lon="5.15723">
        <ele>400</ele>
        <time>2026-09-02T16:56:59.019Z</time>
      </trkpt>
      <trkpt lat="44.67836" lon="5.15722">
        <ele>400</ele>
        <time>2026-09-02T16:57:00.019Z</time>
      </trkpt>
      <trkpt lat="44.67835" lon="5.15721">
        <ele>400</ele>
        <time>2026-09-02T16:57:01.019Z</time>
      </trkpt>
      <trkpt lat="44.67834" lon="5.1572">
        <ele>400</ele>
        <time>2026-09-02T16:57:02.019Z</time>
      </trkpt>
      <trkpt lat="44.67833" lon="5.15719">
        <ele>400</ele>
        <time>2026-09-02T16:57:03.019Z</time>
      </trkpt>
      <trkpt lat="44.67832" lon="5.15718">
        <ele>400</ele>
        <time>2026-09-02T16:57:04.019Z</time>
      </trkpt>
      <trkpt lat="44.67831" lon="5.15717">
        <ele>400</ele>
        <time>2026-09-02T16:57:05.019Z</time>
      </trkpt>
      <trkpt lat="44.6783" lon="5.15717">
        <ele>400</ele>
        <time>2026-09-02T16:57:06.019Z</time>
      </trkpt>
      <trkpt lat="44.67829" lon="5.15716">
        <ele>400</ele>
        <time>2026-09-02T16:57:07.019Z</time>
      </trkpt>
      <trkpt lat="44.67829" lon="5.15715">
        <ele>400</ele>
        <time>2026-09-02T16:57:08.019Z</time>
      </trkpt>
      <trkpt lat="44.67828" lon="5.15715">
        <ele>400</ele>
        <time>2026-09-02T16:57:09.019Z</time>
      </trkpt>
      <trkpt lat="44.67826" lon="5.15714">
        <ele>400</ele>
        <time>2026-09-02T16:57:10.019Z</time>
      </trkpt>
      <trkpt lat="44.67825" lon="5.15713">
        <ele>400</ele>
        <time>2026-09-02T16:57:11.019Z</time>
      </trkpt>
      <trkpt lat="44.67824" lon="5.15713">
        <ele>400</ele>
        <time>2026-09-02T16:57:12.019Z</time>
      </trkpt>
      <trkpt lat="44.67823" lon="5.15712">
        <ele>400</ele>
        <time>2026-09-02T16:57:13.019Z</time>
      </trkpt>
      <trkpt lat="44.67822" lon="5.15711">
        <ele>400</ele>
        <time>2026-09-02T16:57:14.019Z</time>
      </trkpt>
      <trkpt lat="44.67821" lon="5.15711">
        <ele>400</ele>
        <time>2026-09-02T16:57:15.019Z</time>
      </trkpt>
      <trkpt lat="44.6782" lon="5.1571">
        <ele>401</ele>
        <time>2026-09-02T16:57:16.019Z</time>
      </trkpt>
      <trkpt lat="44.67819" lon="5.1571">
        <ele>401</ele>
        <time>2026-09-02T16:57:17.019Z</time>
      </trkpt>
      <trkpt lat="44.67818" lon="5.1571">
        <ele>401</ele>
        <time>2026-09-02T16:57:18.019Z</time>
      </trkpt>
      <trkpt lat="44.67817" lon="5.1571">
        <ele>401</ele>
        <time>2026-09-02T16:57:19.019Z</time>
      </trkpt>
      <trkpt lat="44.67816" lon="5.15709">
        <ele>401</ele>
        <time>2026-09-02T16:57:20.019Z</time>
      </trkpt>
      <trkpt lat="44.67815" lon="5.1571">
        <ele>401</ele>
        <time>2026-09-02T16:57:21.019Z</time>
      </trkpt>
      <trkpt lat="44.67814" lon="5.1571">
        <ele>401</ele>
        <time>2026-09-02T16:57:22.019Z</time>
      </trkpt>
      <trkpt lat="44.67813" lon="5.1571">
        <ele>401</ele>
        <time>2026-09-02T16:57:23.019Z</time>
      </trkpt>
      <trkpt lat="44.67812" lon="5.1571">
        <ele>401</ele>
        <time>2026-09-02T16:57:24.019Z</time>
      </trkpt>
      <trkpt lat="44.67811" lon="5.1571">
        <ele>401</ele>
        <time>2026-09-02T16:57:25.019Z</time>
      </trkpt>
      <trkpt lat="44.6781" lon="5.15711">
        <ele>402</ele>
        <time>2026-09-02T16:57:26.019Z</time>
      </trkpt>
      <trkpt lat="44.67809" lon="5.15711">
        <ele>402</ele>
        <time>2026-09-02T16:57:27.019Z</time>
      </trkpt>
      <trkpt lat="44.67808" lon="5.15711">
        <ele>402</ele>
        <time>2026-09-02T16:57:28.019Z</time>
      </trkpt>
      <trkpt lat="44.67807" lon="5.15711">
        <ele>402</ele>
        <time>2026-09-02T16:57:29.019Z</time>
      </trkpt>
      <trkpt lat="44.67806" lon="5.15711">
        <ele>402</ele>
        <time>2026-09-02T16:57:30.019Z</time>
      </trkpt>
      <trkpt lat="44.67805" lon="5.15711">
        <ele>403</ele>
        <time>2026-09-02T16:57:31.019Z</time>
      </trkpt>
      <trkpt lat="44.67804" lon="5.15711">
        <ele>403</ele>
        <time>2026-09-02T16:57:32.019Z</time>
      </trkpt>
      <trkpt lat="44.67803" lon="5.15712">
        <ele>403</ele>
        <time>2026-09-02T16:57:33.019Z</time>
      </trkpt>
      <trkpt lat="44.67802" lon="5.15712">
        <ele>403</ele>
        <time>2026-09-02T16:57:34.019Z</time>
      </trkpt>
      <trkpt lat="44.67801" lon="5.15712">
        <ele>404</ele>
        <time>2026-09-02T16:57:35.019Z</time>
      </trkpt>
      <trkpt lat="44.678" lon="5.15712">
        <ele>404</ele>
        <time>2026-09-02T16:57:36.019Z</time>
      </trkpt>
      <trkpt lat="44.67799" lon="5.15713">
        <ele>404</ele>
        <time>2026-09-02T16:57:37.019Z</time>
      </trkpt>
      <trkpt lat="44.67799" lon="5.15713">
        <ele>405</ele>
        <time>2026-09-02T16:57:38.019Z</time>
      </trkpt>
      <trkpt lat="44.67798" lon="5.15713">
        <ele>405</ele>
        <time>2026-09-02T16:57:39.019Z</time>
      </trkpt>
      <trkpt lat="44.67797" lon="5.15713">
        <ele>405</ele>
        <time>2026-09-02T16:57:40.019Z</time>
      </trkpt>
      <trkpt lat="44.67796" lon="5.15713">
        <ele>405</ele>
        <time>2026-09-02T16:57:41.019Z</time>
      </trkpt>
      <trkpt lat="44.67795" lon="5.15713">
        <ele>406</ele>
        <time>2026-09-02T16:57:42.019Z</time>
      </trkpt>
      <trkpt lat="44.67794" lon="5.15713">
        <ele>406</ele>
        <time>2026-09-02T16:57:43.019Z</time>
      </trkpt>
      <trkpt lat="44.67793" lon="5.15713">
        <ele>406</ele>
        <time>2026-09-02T16:57:44.019Z</time>
      </trkpt>
      <trkpt lat="44.67792" lon="5.15713">
        <ele>406</ele>
        <time>2026-09-02T16:57:45.019Z</time>
      </trkpt>
      <trkpt lat="44.67791" lon="5.15713">
        <ele>407</ele>
        <time>2026-09-02T16:57:46.019Z</time>
      </trkpt>
      <trkpt lat="44.6779" lon="5.15713">
        <ele>407</ele>
        <time>2026-09-02T16:57:47.019Z</time>
      </trkpt>
      <trkpt lat="44.67789" lon="5.15712">
        <ele>407</ele>
        <time>2026-09-02T16:57:48.019Z</time>
      </trkpt>
      <trkpt lat="44.67788" lon="5.15712">
        <ele>407</ele>
        <time>2026-09-02T16:57:49.019Z</time>
      </trkpt>
      <trkpt lat="44.67788" lon="5.15712">
        <ele>408</ele>
        <time>2026-09-02T16:57:50.019Z</time>
      </trkpt>
      <trkpt lat="44.67787" lon="5.15711">
        <ele>408</ele>
        <time>2026-09-02T16:57:51.019Z</time>
      </trkpt>
      <trkpt lat="44.67786" lon="5.15711">
        <ele>408</ele>
        <time>2026-09-02T16:57:52.019Z</time>
      </trkpt>
      <trkpt lat="44.67785" lon="5.1571">
        <ele>408</ele>
        <time>2026-09-02T16:57:53.019Z</time>
      </trkpt>
      <trkpt lat="44.67784" lon="5.1571">
        <ele>408</ele>
        <time>2026-09-02T16:57:54.019Z</time>
      </trkpt>
      <trkpt lat="44.67783" lon="5.15709">
        <ele>408</ele>
        <time>2026-09-02T16:57:55.019Z</time>
      </trkpt>
      <trkpt lat="44.67782" lon="5.15709">
        <ele>408</ele>
        <time>2026-09-02T16:57:56.019Z</time>
      </trkpt>
      <trkpt lat="44.67781" lon="5.15708">
        <ele>409</ele>
        <time>2026-09-02T16:57:57.019Z</time>
      </trkpt>
      <trkpt lat="44.6778" lon="5.15707">
        <ele>409</ele>
        <time>2026-09-02T16:57:58.019Z</time>
      </trkpt>
      <trkpt lat="44.67779" lon="5.15707">
        <ele>409</ele>
        <time>2026-09-02T16:57:59.019Z</time>
      </trkpt>
      <trkpt lat="44.67779" lon="5.15707">
        <ele>409</ele>
        <time>2026-09-02T16:58:00.019Z</time>
      </trkpt>
      <trkpt lat="44.67778" lon="5.15706">
        <ele>409</ele>
        <time>2026-09-02T16:58:01.019Z</time>
      </trkpt>
      <trkpt lat="44.67777" lon="5.15705">
        <ele>409</ele>
        <time>2026-09-02T16:58:02.019Z</time>
      </trkpt>
      <trkpt lat="44.67776" lon="5.15705">
        <ele>409</ele>
        <time>2026-09-02T16:58:03.019Z</time>
      </trkpt>
      <trkpt lat="44.67775" lon="5.15704">
        <ele>409</ele>
        <time>2026-09-02T16:58:04.019Z</time>
      </trkpt>
      <trkpt lat="44.67774" lon="5.15703">
        <ele>409</ele>
        <time>2026-09-02T16:58:05.019Z</time>
      </trkpt>
      <trkpt lat="44.67774" lon="5.15702">
        <ele>409</ele>
        <time>2026-09-02T16:58:06.019Z</time>
      </trkpt>
      <trkpt lat="44.67773" lon="5.15702">
        <ele>409</ele>
        <time>2026-09-02T16:58:07.019Z</time>
      </trkpt>
      <trkpt lat="44.67772" lon="5.15701">
        <ele>409</ele>
        <time>2026-09-02T16:58:08.019Z</time>
      </trkpt>
      <trkpt lat="44.67771" lon="5.157">
        <ele>409</ele>
        <time>2026-09-02T16:58:09.019Z</time>
      </trkpt>
      <trkpt lat="44.6777" lon="5.15699">
        <ele>409</ele>
        <time>2026-09-02T16:58:10.019Z</time>
      </trkpt>
      <trkpt lat="44.67769" lon="5.15699">
        <ele>409</ele>
        <time>2026-09-02T16:58:11.019Z</time>
      </trkpt>
      <trkpt lat="44.67768" lon="5.15698">
        <ele>409</ele>
        <time>2026-09-02T16:58:12.019Z</time>
      </trkpt>
      <trkpt lat="44.67767" lon="5.15697">
        <ele>409</ele>
        <time>2026-09-02T16:58:13.019Z</time>
      </trkpt>
      <trkpt lat="44.67766" lon="5.15696">
        <ele>409</ele>
        <time>2026-09-02T16:58:14.019Z</time>
      </trkpt>
      <trkpt lat="44.67766" lon="5.15695">
        <ele>409</ele>
        <time>2026-09-02T16:58:15.019Z</time>
      </trkpt>
      <trkpt lat="44.67765" lon="5.15695">
        <ele>409</ele>
        <time>2026-09-02T16:58:16.019Z</time>
      </trkpt>
      <trkpt lat="44.67764" lon="5.15694">
        <ele>409</ele>
        <time>2026-09-02T16:58:17.019Z</time>
      </trkpt>
      <trkpt lat="44.67763" lon="5.15693">
        <ele>409</ele>
        <time>2026-09-02T16:58:18.019Z</time>
      </trkpt>
      <trkpt lat="44.67763" lon="5.15692">
        <ele>409</ele>
        <time>2026-09-02T16:58:19.019Z</time>
      </trkpt>
      <trkpt lat="44.67762" lon="5.15691">
        <ele>409</ele>
        <time>2026-09-02T16:58:20.019Z</time>
      </trkpt>
      <trkpt lat="44.67761" lon="5.15691">
        <ele>409</ele>
        <time>2026-09-02T16:58:21.019Z</time>
      </trkpt>
      <trkpt lat="44.6776" lon="5.1569">
        <ele>409</ele>
        <time>2026-09-02T16:58:22.019Z</time>
      </trkpt>
      <trkpt lat="44.67759" lon="5.15689">
        <ele>409</ele>
        <time>2026-09-02T16:58:23.019Z</time>
      </trkpt>
      <trkpt lat="44.67759" lon="5.15688">
        <ele>409</ele>
        <time>2026-09-02T16:58:24.019Z</time>
      </trkpt>
      <trkpt lat="44.67758" lon="5.15687">
        <ele>409</ele>
        <time>2026-09-02T16:58:25.019Z</time>
      </trkpt>
      <trkpt lat="44.67757" lon="5.15686">
        <ele>409</ele>
        <time>2026-09-02T16:58:26.019Z</time>
      </trkpt>
      <trkpt lat="44.67756" lon="5.15685">
        <ele>409</ele>
        <time>2026-09-02T16:58:27.019Z</time>
      </trkpt>
      <trkpt lat="44.67755" lon="5.15684">
        <ele>409</ele>
        <time>2026-09-02T16:58:28.019Z</time>
      </trkpt>
      <trkpt lat="44.67754" lon="5.15683">
        <ele>409</ele>
        <time>2026-09-02T16:58:29.019Z</time>
      </trkpt>
      <trkpt lat="44.67754" lon="5.15683">
        <ele>409</ele>
        <time>2026-09-02T16:58:30.019Z</time>
      </trkpt>
      <trkpt lat="44.67753" lon="5.15682">
        <ele>409</ele>
        <time>2026-09-02T16:58:31.019Z</time>
      </trkpt>
      <trkpt lat="44.67752" lon="5.15681">
        <ele>409</ele>
        <time>2026-09-02T16:58:32.019Z</time>
      </trkpt>
      <trkpt lat="44.67751" lon="5.1568">
        <ele>409</ele>
        <time>2026-09-02T16:58:33.019Z</time>
      </trkpt>
      <trkpt lat="44.6775" lon="5.15679">
        <ele>409</ele>
        <time>2026-09-02T16:58:34.019Z</time>
      </trkpt>
      <trkpt lat="44.6775" lon="5.15678">
        <ele>409</ele>
        <time>2026-09-02T16:58:35.019Z</time>
      </trkpt>
      <trkpt lat="44.67749" lon="5.15678">
        <ele>409</ele>
        <time>2026-09-02T16:58:36.019Z</time>
      </trkpt>
      <trkpt lat="44.67748" lon="5.15677">
        <ele>409</ele>
        <time>2026-09-02T16:58:37.019Z</time>
      </trkpt>
      <trkpt lat="44.67747" lon="5.15676">
        <ele>409</ele>
        <time>2026-09-02T16:58:38.019Z</time>
      </trkpt>
      <trkpt lat="44.67747" lon="5.15675">
        <ele>409</ele>
        <time>2026-09-02T16:58:39.019Z</time>
      </trkpt>
      <trkpt lat="44.67746" lon="5.15675">
        <ele>409</ele>
        <time>2026-09-02T16:58:40.019Z</time>
      </trkpt>
      <trkpt lat="44.67745" lon="5.15674">
        <ele>409</ele>
        <time>2026-09-02T16:58:41.019Z</time>
      </trkpt>
      <trkpt lat="44.67744" lon="5.15673">
        <ele>409</ele>
        <time>2026-09-02T16:58:42.019Z</time>
      </trkpt>
      <trkpt lat="44.67744" lon="5.15672">
        <ele>409</ele>
        <time>2026-09-02T16:58:43.019Z</time>
      </trkpt>
      <trkpt lat="44.67743" lon="5.15672">
        <ele>409</ele>
        <time>2026-09-02T16:58:44.019Z</time>
      </trkpt>
      <trkpt lat="44.67742" lon="5.15671">
        <ele>409</ele>
        <time>2026-09-02T16:58:45.019Z</time>
      </trkpt>
      <trkpt lat="44.67741" lon="5.1567">
        <ele>409</ele>
        <time>2026-09-02T16:58:46.019Z</time>
      </trkpt>
      <trkpt lat="44.6774" lon="5.15669">
        <ele>409</ele>
        <time>2026-09-02T16:58:47.019Z</time>
      </trkpt>
      <trkpt lat="44.67739" lon="5.15669">
        <ele>409</ele>
        <time>2026-09-02T16:58:48.019Z</time>
      </trkpt>
      <trkpt lat="44.67738" lon="5.15668">
        <ele>409</ele>
        <time>2026-09-02T16:58:49.019Z</time>
      </trkpt>
      <trkpt lat="44.67738" lon="5.15667">
        <ele>409</ele>
        <time>2026-09-02T16:58:50.019Z</time>
      </trkpt>
      <trkpt lat="44.67737" lon="5.15666">
        <ele>410</ele>
        <time>2026-09-02T16:58:51.019Z</time>
      </trkpt>
      <trkpt lat="44.67736" lon="5.15666">
        <ele>410</ele>
        <time>2026-09-02T16:58:52.019Z</time>
      </trkpt>
      <trkpt lat="44.67735" lon="5.15665">
        <ele>410</ele>
        <time>2026-09-02T16:58:53.019Z</time>
      </trkpt>
      <trkpt lat="44.67734" lon="5.15664">
        <ele>410</ele>
        <time>2026-09-02T16:58:54.019Z</time>
      </trkpt>
      <trkpt lat="44.67734" lon="5.15664">
        <ele>410</ele>
        <time>2026-09-02T16:58:55.019Z</time>
      </trkpt>
      <trkpt lat="44.67733" lon="5.15663">
        <ele>410</ele>
        <time>2026-09-02T16:58:56.019Z</time>
      </trkpt>
      <trkpt lat="44.67732" lon="5.15662">
        <ele>410</ele>
        <time>2026-09-02T16:58:57.019Z</time>
      </trkpt>
      <trkpt lat="44.67731" lon="5.15661">
        <ele>410</ele>
        <time>2026-09-02T16:58:58.019Z</time>
      </trkpt>
      <trkpt lat="44.6773" lon="5.15661">
        <ele>410</ele>
        <time>2026-09-02T16:58:59.019Z</time>
      </trkpt>
      <trkpt lat="44.67729" lon="5.1566">
        <ele>410</ele>
        <time>2026-09-02T16:59:00.019Z</time>
      </trkpt>
      <trkpt lat="44.67728" lon="5.15659">
        <ele>410</ele>
        <time>2026-09-02T16:59:01.019Z</time>
      </trkpt>
      <trkpt lat="44.67727" lon="5.15659">
        <ele>410</ele>
        <time>2026-09-02T16:59:02.019Z</time>
      </trkpt>
      <trkpt lat="44.67726" lon="5.15658">
        <ele>410</ele>
        <time>2026-09-02T16:59:03.019Z</time>
      </trkpt>
      <trkpt lat="44.67725" lon="5.15657">
        <ele>410</ele>
        <time>2026-09-02T16:59:04.019Z</time>
      </trkpt>
      <trkpt lat="44.67724" lon="5.15656">
        <ele>410</ele>
        <time>2026-09-02T16:59:05.019Z</time>
      </trkpt>
      <trkpt lat="44.67723" lon="5.15656">
        <ele>410</ele>
        <time>2026-09-02T16:59:06.019Z</time>
      </trkpt>
      <trkpt lat="44.67722" lon="5.15655">
        <ele>410</ele>
        <time>2026-09-02T16:59:07.019Z</time>
      </trkpt>
      <trkpt lat="44.67722" lon="5.15654">
        <ele>410</ele>
        <time>2026-09-02T16:59:08.019Z</time>
      </trkpt>
      <trkpt lat="44.67721" lon="5.15653">
        <ele>410</ele>
        <time>2026-09-02T16:59:09.019Z</time>
      </trkpt>
      <trkpt lat="44.6772" lon="5.15652">
        <ele>410</ele>
        <time>2026-09-02T16:59:10.019Z</time>
      </trkpt>
      <trkpt lat="44.67719" lon="5.15652">
        <ele>410</ele>
        <time>2026-09-02T16:59:11.019Z</time>
      </trkpt>
      <trkpt lat="44.67718" lon="5.15651">
        <ele>410</ele>
        <time>2026-09-02T16:59:12.019Z</time>
      </trkpt>
      <trkpt lat="44.67717" lon="5.1565">
        <ele>410</ele>
        <time>2026-09-02T16:59:13.019Z</time>
      </trkpt>
      <trkpt lat="44.67716" lon="5.1565">
        <ele>410</ele>
        <time>2026-09-02T16:59:14.019Z</time>
      </trkpt>
      <trkpt lat="44.67715" lon="5.15649">
        <ele>410</ele>
        <time>2026-09-02T16:59:15.019Z</time>
      </trkpt>
      <trkpt lat="44.67714" lon="5.15648">
        <ele>411</ele>
        <time>2026-09-02T16:59:16.019Z</time>
      </trkpt>
      <trkpt lat="44.67713" lon="5.15647">
        <ele>411</ele>
        <time>2026-09-02T16:59:17.019Z</time>
      </trkpt>
      <trkpt lat="44.67712" lon="5.15647">
        <ele>411</ele>
        <time>2026-09-02T16:59:18.019Z</time>
      </trkpt>
      <trkpt lat="44.67711" lon="5.15646">
        <ele>411</ele>
        <time>2026-09-02T16:59:19.019Z</time>
      </trkpt>
      <trkpt lat="44.6771" lon="5.15645">
        <ele>411</ele>
        <time>2026-09-02T16:59:20.019Z</time>
      </trkpt>
      <trkpt lat="44.6771" lon="5.15645">
        <ele>411</ele>
        <time>2026-09-02T16:59:21.019Z</time>
      </trkpt>
      <trkpt lat="44.67709" lon="5.15644">
        <ele>412</ele>
        <time>2026-09-02T16:59:22.019Z</time>
      </trkpt>
      <trkpt lat="44.67708" lon="5.15643">
        <ele>412</ele>
        <time>2026-09-02T16:59:23.019Z</time>
      </trkpt>
      <trkpt lat="44.67707" lon="5.15642">
        <ele>412</ele>
        <time>2026-09-02T16:59:24.019Z</time>
      </trkpt>
      <trkpt lat="44.67706" lon="5.15642">
        <ele>412</ele>
        <time>2026-09-02T16:59:25.019Z</time>
      </trkpt>
      <trkpt lat="44.67705" lon="5.15641">
        <ele>412</ele>
        <time>2026-09-02T16:59:26.019Z</time>
      </trkpt>
      <trkpt lat="44.67704" lon="5.1564">
        <ele>412</ele>
        <time>2026-09-02T16:59:27.019Z</time>
      </trkpt>
      <trkpt lat="44.67703" lon="5.1564">
        <ele>413</ele>
        <time>2026-09-02T16:59:28.019Z</time>
      </trkpt>
      <trkpt lat="44.67702" lon="5.15639">
        <ele>413</ele>
        <time>2026-09-02T16:59:29.019Z</time>
      </trkpt>
      <trkpt lat="44.67701" lon="5.15638">
        <ele>413</ele>
        <time>2026-09-02T16:59:30.019Z</time>
      </trkpt>
      <trkpt lat="44.677" lon="5.15637">
        <ele>413</ele>
        <time>2026-09-02T16:59:31.019Z</time>
      </trkpt>
      <trkpt lat="44.67699" lon="5.15637">
        <ele>413</ele>
        <time>2026-09-02T16:59:32.019Z</time>
      </trkpt>
      <trkpt lat="44.67698" lon="5.15636">
        <ele>413</ele>
        <time>2026-09-02T16:59:33.019Z</time>
      </trkpt>
      <trkpt lat="44.67698" lon="5.15635">
        <ele>413</ele>
        <time>2026-09-02T16:59:34.019Z</time>
      </trkpt>
      <trkpt lat="44.67696" lon="5.15634">
        <ele>413</ele>
        <time>2026-09-02T16:59:35.019Z</time>
      </trkpt>
      <trkpt lat="44.67695" lon="5.15634">
        <ele>413</ele>
        <time>2026-09-02T16:59:36.019Z</time>
      </trkpt>
      <trkpt lat="44.67694" lon="5.15633">
        <ele>413</ele>
        <time>2026-09-02T16:59:37.019Z</time>
      </trkpt>
      <trkpt lat="44.67693" lon="5.15632">
        <ele>413</ele>
        <time>2026-09-02T16:59:38.019Z</time>
      </trkpt>
      <trkpt lat="44.67692" lon="5.15631">
        <ele>413</ele>
        <time>2026-09-02T16:59:39.019Z</time>
      </trkpt>
      <trkpt lat="44.67691" lon="5.15631">
        <ele>413</ele>
        <time>2026-09-02T16:59:40.019Z</time>
      </trkpt>
      <trkpt lat="44.6769" lon="5.1563">
        <ele>414</ele>
        <time>2026-09-02T16:59:41.019Z</time>
      </trkpt>
      <trkpt lat="44.67689" lon="5.15629">
        <ele>414</ele>
        <time>2026-09-02T16:59:42.019Z</time>
      </trkpt>
      <trkpt lat="44.67688" lon="5.15629">
        <ele>414</ele>
        <time>2026-09-02T16:59:43.019Z</time>
      </trkpt>
      <trkpt lat="44.67687" lon="5.15629">
        <ele>414</ele>
        <time>2026-09-02T16:59:44.019Z</time>
      </trkpt>
      <trkpt lat="44.67686" lon="5.15628">
        <ele>414</ele>
        <time>2026-09-02T16:59:45.019Z</time>
      </trkpt>
      <trkpt lat="44.67685" lon="5.15628">
        <ele>414</ele>
        <time>2026-09-02T16:59:46.019Z</time>
      </trkpt>
      <trkpt lat="44.67684" lon="5.15627">
        <ele>414</ele>
        <time>2026-09-02T16:59:47.019Z</time>
      </trkpt>
      <trkpt lat="44.67683" lon="5.15627">
        <ele>414</ele>
        <time>2026-09-02T16:59:48.019Z</time>
      </trkpt>
      <trkpt lat="44.67681" lon="5.15627">
        <ele>414</ele>
        <time>2026-09-02T16:59:49.019Z</time>
      </trkpt>
      <trkpt lat="44.6768" lon="5.15627">
        <ele>414</ele>
        <time>2026-09-02T16:59:50.019Z</time>
      </trkpt>
      <trkpt lat="44.67679" lon="5.15627">
        <ele>414</ele>
        <time>2026-09-02T16:59:51.019Z</time>
      </trkpt>
      <trkpt lat="44.67678" lon="5.15627">
        <ele>414</ele>
        <time>2026-09-02T16:59:52.019Z</time>
      </trkpt>
      <trkpt lat="44.67677" lon="5.15627">
        <ele>414</ele>
        <time>2026-09-02T16:59:53.019Z</time>
      </trkpt>
      <trkpt lat="44.67676" lon="5.15627">
        <ele>414</ele>
        <time>2026-09-02T16:59:54.019Z</time>
      </trkpt>
      <trkpt lat="44.67675" lon="5.15626">
        <ele>414</ele>
        <time>2026-09-02T16:59:55.019Z</time>
      </trkpt>
      <trkpt lat="44.67674" lon="5.15627">
        <ele>414</ele>
        <time>2026-09-02T16:59:56.019Z</time>
      </trkpt>
      <trkpt lat="44.67673" lon="5.15627">
        <ele>414</ele>
        <time>2026-09-02T16:59:57.019Z</time>
      </trkpt>
      <trkpt lat="44.67672" lon="5.15627">
        <ele>414</ele>
        <time>2026-09-02T16:59:58.019Z</time>
      </trkpt>
      <trkpt lat="44.67671" lon="5.15627">
        <ele>414</ele>
        <time>2026-09-02T16:59:59.019Z</time>
      </trkpt>
      <trkpt lat="44.67669" lon="5.15627">
        <ele>414</ele>
        <time>2026-09-02T17:00:00.019Z</time>
      </trkpt>
      <trkpt lat="44.67668" lon="5.15627">
        <ele>414</ele>
        <time>2026-09-02T17:00:01.019Z</time>
      </trkpt>
      <trkpt lat="44.67667" lon="5.15627">
        <ele>414</ele>
        <time>2026-09-02T17:00:02.019Z</time>
      </trkpt>
      <trkpt lat="44.67666" lon="5.15627">
        <ele>414</ele>
        <time>2026-09-02T17:00:03.019Z</time>
      </trkpt>
      <trkpt lat="44.67665" lon="5.15627">
        <ele>414</ele>
        <time>2026-09-02T17:00:04.019Z</time>
      </trkpt>
      <trkpt lat="44.67664" lon="5.15627">
        <ele>414</ele>
        <time>2026-09-02T17:00:05.019Z</time>
      </trkpt>
      <trkpt lat="44.67663" lon="5.15627">
        <ele>414</ele>
        <time>2026-09-02T17:00:06.019Z</time>
      </trkpt>
      <trkpt lat="44.67662" lon="5.15627">
        <ele>414</ele>
        <time>2026-09-02T17:00:07.019Z</time>
      </trkpt>
      <trkpt lat="44.6766" lon="5.15627">
        <ele>414</ele>
        <time>2026-09-02T17:00:08.019Z</time>
      </trkpt>
      <trkpt lat="44.67659" lon="5.15627">
        <ele>414</ele>
        <time>2026-09-02T17:00:09.019Z</time>
      </trkpt>
      <trkpt lat="44.67658" lon="5.15627">
        <ele>414</ele>
        <time>2026-09-02T17:00:10.019Z</time>
      </trkpt>
      <trkpt lat="44.67657" lon="5.15627">
        <ele>414</ele>
        <time>2026-09-02T17:00:11.019Z</time>
      </trkpt>
      <trkpt lat="44.67656" lon="5.15627">
        <ele>414</ele>
        <time>2026-09-02T17:00:12.019Z</time>
      </trkpt>
      <trkpt lat="44.67655" lon="5.15627">
        <ele>414</ele>
        <time>2026-09-02T17:00:13.019Z</time>
      </trkpt>
      <trkpt lat="44.67654" lon="5.15628">
        <ele>414</ele>
        <time>2026-09-02T17:00:14.019Z</time>
      </trkpt>
      <trkpt lat="44.67653" lon="5.15628">
        <ele>414</ele>
        <time>2026-09-02T17:00:15.019Z</time>
      </trkpt>
      <trkpt lat="44.67652" lon="5.15628">
        <ele>414</ele>
        <time>2026-09-02T17:00:16.019Z</time>
      </trkpt>
      <trkpt lat="44.67651" lon="5.15628">
        <ele>414</ele>
        <time>2026-09-02T17:00:17.019Z</time>
      </trkpt>
      <trkpt lat="44.6765" lon="5.15628">
        <ele>414</ele>
        <time>2026-09-02T17:00:18.019Z</time>
      </trkpt>
      <trkpt lat="44.67649" lon="5.15629">
        <ele>414</ele>
        <time>2026-09-02T17:00:19.019Z</time>
      </trkpt>
      <trkpt lat="44.67648" lon="5.15629">
        <ele>414</ele>
        <time>2026-09-02T17:00:20.019Z</time>
      </trkpt>
      <trkpt lat="44.67647" lon="5.15629">
        <ele>414</ele>
        <time>2026-09-02T17:00:21.019Z</time>
      </trkpt>
      <trkpt lat="44.67646" lon="5.15629">
        <ele>414</ele>
        <time>2026-09-02T17:00:22.019Z</time>
      </trkpt>
      <trkpt lat="44.67645" lon="5.15629">
        <ele>414</ele>
        <time>2026-09-02T17:00:23.019Z</time>
      </trkpt>
      <trkpt lat="44.67644" lon="5.15629">
        <ele>414</ele>
        <time>2026-09-02T17:00:24.019Z</time>
      </trkpt>
      <trkpt lat="44.67642" lon="5.15629">
        <ele>414</ele>
        <time>2026-09-02T17:00:25.019Z</time>
      </trkpt>
      <trkpt lat="44.67641" lon="5.15629">
        <ele>414</ele>
        <time>2026-09-02T17:00:26.019Z</time>
      </trkpt>
      <trkpt lat="44.6764" lon="5.15629">
        <ele>414</ele>
        <time>2026-09-02T17:00:27.019Z</time>
      </trkpt>
      <trkpt lat="44.67639" lon="5.15629">
        <ele>414</ele>
        <time>2026-09-02T17:00:28.019Z</time>
      </trkpt>
      <trkpt lat="44.67638" lon="5.15629">
        <ele>414</ele>
        <time>2026-09-02T17:00:29.019Z</time>
      </trkpt>
      <trkpt lat="44.67637" lon="5.15629">
        <ele>414</ele>
        <time>2026-09-02T17:00:30.019Z</time>
      </trkpt>
      <trkpt lat="44.67636" lon="5.1563">
        <ele>414</ele>
        <time>2026-09-02T17:00:31.019Z</time>
      </trkpt>
      <trkpt lat="44.67635" lon="5.1563">
        <ele>415</ele>
        <time>2026-09-02T17:00:32.019Z</time>
      </trkpt>
      <trkpt lat="44.67634" lon="5.1563">
        <ele>415</ele>
        <time>2026-09-02T17:00:33.019Z</time>
      </trkpt>
      <trkpt lat="44.67633" lon="5.1563">
        <ele>415</ele>
        <time>2026-09-02T17:00:34.019Z</time>
      </trkpt>
      <trkpt lat="44.67632" lon="5.1563">
        <ele>415</ele>
        <time>2026-09-02T17:00:35.019Z</time>
      </trkpt>
      <trkpt lat="44.67631" lon="5.15631">
        <ele>415</ele>
        <time>2026-09-02T17:00:36.019Z</time>
      </trkpt>
      <trkpt lat="44.6763" lon="5.15631">
        <ele>415</ele>
        <time>2026-09-02T17:00:37.019Z</time>
      </trkpt>
      <trkpt lat="44.67629" lon="5.15631">
        <ele>415</ele>
        <time>2026-09-02T17:00:38.019Z</time>
      </trkpt>
      <trkpt lat="44.67629" lon="5.15631">
        <ele>415</ele>
        <time>2026-09-02T17:00:39.019Z</time>
      </trkpt>
      <trkpt lat="44.67629" lon="5.15631">
        <ele>415</ele>
        <time>2026-09-02T17:00:40.019Z</time>
      </trkpt>
      <trkpt lat="44.67628" lon="5.15632">
        <ele>415</ele>
        <time>2026-09-02T17:00:41.019Z</time>
      </trkpt>
      <trkpt lat="44.67627" lon="5.15632">
        <ele>415</ele>
        <time>2026-09-02T17:00:42.019Z</time>
      </trkpt>
      <trkpt lat="44.67626" lon="5.15633">
        <ele>415</ele>
        <time>2026-09-02T17:00:43.019Z</time>
      </trkpt>
      <trkpt lat="44.67625" lon="5.15633">
        <ele>415</ele>
        <time>2026-09-02T17:00:44.019Z</time>
      </trkpt>
      <trkpt lat="44.67624" lon="5.15633">
        <ele>415</ele>
        <time>2026-09-02T17:00:45.019Z</time>
      </trkpt>
      <trkpt lat="44.67624" lon="5.15633">
        <ele>415</ele>
        <time>2026-09-02T17:00:46.019Z</time>
      </trkpt>
      <trkpt lat="44.67624" lon="5.15633">
        <ele>415</ele>
        <time>2026-09-02T17:00:47.019Z</time>
      </trkpt>
      <trkpt lat="44.67624" lon="5.15633">
        <ele>415</ele>
        <time>2026-09-02T17:00:48.019Z</time>
      </trkpt>
      <trkpt lat="44.67624" lon="5.15633">
        <ele>416</ele>
        <time>2026-09-02T17:00:49.019Z</time>
      </trkpt>
      <trkpt lat="44.67622" lon="5.15634">
        <ele>416</ele>
        <time>2026-09-02T17:00:52.321Z</time>
      </trkpt>
      <trkpt lat="44.67621" lon="5.15634">
        <ele>416</ele>
        <time>2026-09-02T17:00:53.321Z</time>
      </trkpt>
      <trkpt lat="44.67619" lon="5.15634">
        <ele>416</ele>
        <time>2026-09-02T17:00:54.321Z</time>
      </trkpt>
      <trkpt lat="44.67618" lon="5.15635">
        <ele>416</ele>
        <time>2026-09-02T17:00:55.321Z</time>
      </trkpt>
      <trkpt lat="44.67617" lon="5.15635">
        <ele>416</ele>
        <time>2026-09-02T17:00:56.321Z</time>
      </trkpt>
      <trkpt lat="44.67616" lon="5.15635">
        <ele>416</ele>
        <time>2026-09-02T17:00:57.321Z</time>
      </trkpt>
      <trkpt lat="44.67615" lon="5.15636">
        <ele>416</ele>
        <time>2026-09-02T17:00:58.321Z</time>
      </trkpt>
      <trkpt lat="44.67614" lon="5.15636">
        <ele>416</ele>
        <time>2026-09-02T17:00:59.321Z</time>
      </trkpt>
      <trkpt lat="44.67613" lon="5.15636">
        <ele>416</ele>
        <time>2026-09-02T17:01:00.321Z</time>
      </trkpt>
      <trkpt lat="44.67612" lon="5.15636">
        <ele>416</ele>
        <time>2026-09-02T17:01:01.321Z</time>
      </trkpt>
      <trkpt lat="44.67611" lon="5.15636">
        <ele>416</ele>
        <time>2026-09-02T17:01:02.321Z</time>
      </trkpt>
      <trkpt lat="44.6761" lon="5.15636">
        <ele>416</ele>
        <time>2026-09-02T17:01:03.321Z</time>
      </trkpt>
      <trkpt lat="44.67609" lon="5.15636">
        <ele>416</ele>
        <time>2026-09-02T17:01:04.321Z</time>
      </trkpt>
      <trkpt lat="44.67608" lon="5.15637">
        <ele>416</ele>
        <time>2026-09-02T17:01:05.321Z</time>
      </trkpt>
      <trkpt lat="44.67607" lon="5.15637">
        <ele>416</ele>
        <time>2026-09-02T17:01:06.321Z</time>
      </trkpt>
      <trkpt lat="44.67607" lon="5.15637">
        <ele>416</ele>
        <time>2026-09-02T17:01:07.321Z</time>
      </trkpt>
      <trkpt lat="44.67606" lon="5.15637">
        <ele>416</ele>
        <time>2026-09-02T17:01:08.321Z</time>
      </trkpt>
      <trkpt lat="44.67605" lon="5.15637">
        <ele>417</ele>
        <time>2026-09-02T17:01:09.321Z</time>
      </trkpt>
      <trkpt lat="44.67604" lon="5.15637">
        <ele>417</ele>
        <time>2026-09-02T17:01:10.321Z</time>
      </trkpt>
      <trkpt lat="44.67602" lon="5.15637">
        <ele>417</ele>
        <time>2026-09-02T17:01:11.321Z</time>
      </trkpt>
      <trkpt lat="44.67601" lon="5.15637">
        <ele>417</ele>
        <time>2026-09-02T17:01:12.321Z</time>
      </trkpt>
      <trkpt lat="44.676" lon="5.15637">
        <ele>417</ele>
        <time>2026-09-02T17:01:13.321Z</time>
      </trkpt>
      <trkpt lat="44.67599" lon="5.15637">
        <ele>417</ele>
        <time>2026-09-02T17:01:14.321Z</time>
      </trkpt>
      <trkpt lat="44.67598" lon="5.15638">
        <ele>417</ele>
        <time>2026-09-02T17:01:15.321Z</time>
      </trkpt>
      <trkpt lat="44.67597" lon="5.15638">
        <ele>417</ele>
        <time>2026-09-02T17:01:16.321Z</time>
      </trkpt>
      <trkpt lat="44.67596" lon="5.15638">
        <ele>417</ele>
        <time>2026-09-02T17:01:17.321Z</time>
      </trkpt>
      <trkpt lat="44.67595" lon="5.15638">
        <ele>417</ele>
        <time>2026-09-02T17:01:18.321Z</time>
      </trkpt>
      <trkpt lat="44.67594" lon="5.15638">
        <ele>417</ele>
        <time>2026-09-02T17:01:19.321Z</time>
      </trkpt>
      <trkpt lat="44.67593" lon="5.15638">
        <ele>418</ele>
        <time>2026-09-02T17:01:20.321Z</time>
      </trkpt>
      <trkpt lat="44.67592" lon="5.15638">
        <ele>418</ele>
        <time>2026-09-02T17:01:21.321Z</time>
      </trkpt>
      <trkpt lat="44.67591" lon="5.15638">
        <ele>418</ele>
        <time>2026-09-02T17:01:22.321Z</time>
      </trkpt>
      <trkpt lat="44.6759" lon="5.15638">
        <ele>418</ele>
        <time>2026-09-02T17:01:23.321Z</time>
      </trkpt>
      <trkpt lat="44.67589" lon="5.15639">
        <ele>418</ele>
        <time>2026-09-02T17:01:24.321Z</time>
      </trkpt>
      <trkpt lat="44.67588" lon="5.15639">
        <ele>418</ele>
        <time>2026-09-02T17:01:25.321Z</time>
      </trkpt>
      <trkpt lat="44.67587" lon="5.15639">
        <ele>418</ele>
        <time>2026-09-02T17:01:26.321Z</time>
      </trkpt>
      <trkpt lat="44.67586" lon="5.15639">
        <ele>419</ele>
        <time>2026-09-02T17:01:27.321Z</time>
      </trkpt>
      <trkpt lat="44.67585" lon="5.15639">
        <ele>419</ele>
        <time>2026-09-02T17:01:28.321Z</time>
      </trkpt>
      <trkpt lat="44.67585" lon="5.15639">
        <ele>419</ele>
        <time>2026-09-02T17:01:29.321Z</time>
      </trkpt>
      <trkpt lat="44.67585" lon="5.15639">
        <ele>419</ele>
        <time>2026-09-02T17:01:30.321Z</time>
      </trkpt>
      <trkpt lat="44.67585" lon="5.15639">
        <ele>419</ele>
        <time>2026-09-02T17:01:31.321Z</time>
      </trkpt>
      <trkpt lat="44.67584" lon="5.15639">
        <ele>419</ele>
        <time>2026-09-02T17:01:32.321Z</time>
      </trkpt>
      <trkpt lat="44.67583" lon="5.15639">
        <ele>419</ele>
        <time>2026-09-02T17:01:33.321Z</time>
      </trkpt>
      <trkpt lat="44.67582" lon="5.15639">
        <ele>419</ele>
        <time>2026-09-02T17:01:34.321Z</time>
      </trkpt>
      <trkpt lat="44.67581" lon="5.15639">
        <ele>419</ele>
        <time>2026-09-02T17:01:35.321Z</time>
      </trkpt>
      <trkpt lat="44.6758" lon="5.15639">
        <ele>419</ele>
        <time>2026-09-02T17:01:36.321Z</time>
      </trkpt>
      <trkpt lat="44.67579" lon="5.15639">
        <ele>420</ele>
        <time>2026-09-02T17:01:37.321Z</time>
      </trkpt>
      <trkpt lat="44.67578" lon="5.15639">
        <ele>420</ele>
        <time>2026-09-02T17:01:38.321Z</time>
      </trkpt>
      <trkpt lat="44.67578" lon="5.15639">
        <ele>420</ele>
        <time>2026-09-02T17:01:39.321Z</time>
      </trkpt>
      <trkpt lat="44.67577" lon="5.15639">
        <ele>420</ele>
        <time>2026-09-02T17:01:40.321Z</time>
      </trkpt>
      <trkpt lat="44.67576" lon="5.15639">
        <ele>420</ele>
        <time>2026-09-02T17:01:41.321Z</time>
      </trkpt>
      <trkpt lat="44.67575" lon="5.15639">
        <ele>420</ele>
        <time>2026-09-02T17:01:42.321Z</time>
      </trkpt>
      <trkpt lat="44.67574" lon="5.15639">
        <ele>420</ele>
        <time>2026-09-02T17:01:43.321Z</time>
      </trkpt>
      <trkpt lat="44.67573" lon="5.15639">
        <ele>421</ele>
        <time>2026-09-02T17:01:44.321Z</time>
      </trkpt>
      <trkpt lat="44.67572" lon="5.15638">
        <ele>421</ele>
        <time>2026-09-02T17:01:45.321Z</time>
      </trkpt>
      <trkpt lat="44.67571" lon="5.15638">
        <ele>421</ele>
        <time>2026-09-02T17:01:46.321Z</time>
      </trkpt>
      <trkpt lat="44.6757" lon="5.15638">
        <ele>421</ele>
        <time>2026-09-02T17:01:47.321Z</time>
      </trkpt>
      <trkpt lat="44.67569" lon="5.15638">
        <ele>421</ele>
        <time>2026-09-02T17:01:48.321Z</time>
      </trkpt>
      <trkpt lat="44.67568" lon="5.15638">
        <ele>421</ele>
        <time>2026-09-02T17:01:49.321Z</time>
      </trkpt>
      <trkpt lat="44.67567" lon="5.15638">
        <ele>421</ele>
        <time>2026-09-02T17:01:50.321Z</time>
      </trkpt>
      <trkpt lat="44.67566" lon="5.15638">
        <ele>422</ele>
        <time>2026-09-02T17:01:51.321Z</time>
      </trkpt>
      <trkpt lat="44.67566" lon="5.15638">
        <ele>422</ele>
        <time>2026-09-02T17:01:52.321Z</time>
      </trkpt>
      <trkpt lat="44.67565" lon="5.15638">
        <ele>422</ele>
        <time>2026-09-02T17:01:53.321Z</time>
      </trkpt>
      <trkpt lat="44.67564" lon="5.15637">
        <ele>422</ele>
        <time>2026-09-02T17:01:54.321Z</time>
      </trkpt>
      <trkpt lat="44.67563" lon="5.15637">
        <ele>422</ele>
        <time>2026-09-02T17:01:55.321Z</time>
      </trkpt>
      <trkpt lat="44.67562" lon="5.15637">
        <ele>422</ele>
        <time>2026-09-02T17:01:56.321Z</time>
      </trkpt>
      <trkpt lat="44.67561" lon="5.15637">
        <ele>422</ele>
        <time>2026-09-02T17:01:57.321Z</time>
      </trkpt>
      <trkpt lat="44.6756" lon="5.15636">
        <ele>423</ele>
        <time>2026-09-02T17:01:58.321Z</time>
      </trkpt>
      <trkpt lat="44.67559" lon="5.15636">
        <ele>423</ele>
        <time>2026-09-02T17:01:59.321Z</time>
      </trkpt>
      <trkpt lat="44.67558" lon="5.15636">
        <ele>423</ele>
        <time>2026-09-02T17:02:00.321Z</time>
      </trkpt>
      <trkpt lat="44.67558" lon="5.15636">
        <ele>423</ele>
        <time>2026-09-02T17:02:01.321Z</time>
      </trkpt>
      <trkpt lat="44.67557" lon="5.15636">
        <ele>423</ele>
        <time>2026-09-02T17:02:02.321Z</time>
      </trkpt>
      <trkpt lat="44.67556" lon="5.15635">
        <ele>423</ele>
        <time>2026-09-02T17:02:03.321Z</time>
      </trkpt>
      <trkpt lat="44.67555" lon="5.15635">
        <ele>423</ele>
        <time>2026-09-02T17:02:04.321Z</time>
      </trkpt>
      <trkpt lat="44.67554" lon="5.15635">
        <ele>423</ele>
        <time>2026-09-02T17:02:05.321Z</time>
      </trkpt>
      <trkpt lat="44.67553" lon="5.15634">
        <ele>423</ele>
        <time>2026-09-02T17:02:06.321Z</time>
      </trkpt>
      <trkpt lat="44.67553" lon="5.15634">
        <ele>423</ele>
        <time>2026-09-02T17:02:07.321Z</time>
      </trkpt>
      <trkpt lat="44.67552" lon="5.15633">
        <ele>423</ele>
        <time>2026-09-02T17:02:08.321Z</time>
      </trkpt>
      <trkpt lat="44.67551" lon="5.15633">
        <ele>423</ele>
        <time>2026-09-02T17:02:09.321Z</time>
      </trkpt>
      <trkpt lat="44.6755" lon="5.15632">
        <ele>423</ele>
        <time>2026-09-02T17:02:10.321Z</time>
      </trkpt>
      <trkpt lat="44.67549" lon="5.15631">
        <ele>423</ele>
        <time>2026-09-02T17:02:11.321Z</time>
      </trkpt>
      <trkpt lat="44.67548" lon="5.1563">
        <ele>424</ele>
        <time>2026-09-02T17:02:12.321Z</time>
      </trkpt>
      <trkpt lat="44.67548" lon="5.15629">
        <ele>424</ele>
        <time>2026-09-02T17:02:13.321Z</time>
      </trkpt>
      <trkpt lat="44.67547" lon="5.15628">
        <ele>424</ele>
        <time>2026-09-02T17:02:14.321Z</time>
      </trkpt>
      <trkpt lat="44.67546" lon="5.15627">
        <ele>424</ele>
        <time>2026-09-02T17:02:15.321Z</time>
      </trkpt>
      <trkpt lat="44.67546" lon="5.15626">
        <ele>424</ele>
        <time>2026-09-02T17:02:16.321Z</time>
      </trkpt>
      <trkpt lat="44.67545" lon="5.15626">
        <ele>424</ele>
        <time>2026-09-02T17:02:17.321Z</time>
      </trkpt>
      <trkpt lat="44.67544" lon="5.15625">
        <ele>424</ele>
        <time>2026-09-02T17:02:18.321Z</time>
      </trkpt>
      <trkpt lat="44.67544" lon="5.15623">
        <ele>424</ele>
        <time>2026-09-02T17:02:19.321Z</time>
      </trkpt>
      <trkpt lat="44.67544" lon="5.15621">
        <ele>424</ele>
        <time>2026-09-02T17:02:20.321Z</time>
      </trkpt>
      <trkpt lat="44.67544" lon="5.1562">
        <ele>424</ele>
        <time>2026-09-02T17:02:21.321Z</time>
      </trkpt>
      <trkpt lat="44.67543" lon="5.15618">
        <ele>424</ele>
        <time>2026-09-02T17:02:22.321Z</time>
      </trkpt>
      <trkpt lat="44.67543" lon="5.15617">
        <ele>424</ele>
        <time>2026-09-02T17:02:23.321Z</time>
      </trkpt>
      <trkpt lat="44.67543" lon="5.15615">
        <ele>424</ele>
        <time>2026-09-02T17:02:24.321Z</time>
      </trkpt>
      <trkpt lat="44.67542" lon="5.15614">
        <ele>424</ele>
        <time>2026-09-02T17:02:25.321Z</time>
      </trkpt>
      <trkpt lat="44.67542" lon="5.15612">
        <ele>424</ele>
        <time>2026-09-02T17:02:26.321Z</time>
      </trkpt>
      <trkpt lat="44.67541" lon="5.15611">
        <ele>424</ele>
        <time>2026-09-02T17:02:27.321Z</time>
      </trkpt>
      <trkpt lat="44.67541" lon="5.1561">
        <ele>424</ele>
        <time>2026-09-02T17:02:28.321Z</time>
      </trkpt>
      <trkpt lat="44.67541" lon="5.15608">
        <ele>424</ele>
        <time>2026-09-02T17:02:29.321Z</time>
      </trkpt>
      <trkpt lat="44.67541" lon="5.15607">
        <ele>424</ele>
        <time>2026-09-02T17:02:30.321Z</time>
      </trkpt>
      <trkpt lat="44.67541" lon="5.15605">
        <ele>424</ele>
        <time>2026-09-02T17:02:31.321Z</time>
      </trkpt>
      <trkpt lat="44.6754" lon="5.15604">
        <ele>424</ele>
        <time>2026-09-02T17:02:32.321Z</time>
      </trkpt>
      <trkpt lat="44.6754" lon="5.15602">
        <ele>424</ele>
        <time>2026-09-02T17:02:33.321Z</time>
      </trkpt>
      <trkpt lat="44.6754" lon="5.15601">
        <ele>424</ele>
        <time>2026-09-02T17:02:34.321Z</time>
      </trkpt>
      <trkpt lat="44.67539" lon="5.156">
        <ele>424</ele>
        <time>2026-09-02T17:02:35.321Z</time>
      </trkpt>
      <trkpt lat="44.67539" lon="5.15599">
        <ele>424</ele>
        <time>2026-09-02T17:02:36.321Z</time>
      </trkpt>
      <trkpt lat="44.67539" lon="5.15597">
        <ele>424</ele>
        <time>2026-09-02T17:02:37.321Z</time>
      </trkpt>
      <trkpt lat="44.67538" lon="5.15596">
        <ele>424</ele>
        <time>2026-09-02T17:02:38.321Z</time>
      </trkpt>
      <trkpt lat="44.67538" lon="5.15594">
        <ele>424</ele>
        <time>2026-09-02T17:02:39.321Z</time>
      </trkpt>
      <trkpt lat="44.67538" lon="5.15593">
        <ele>424</ele>
        <time>2026-09-02T17:02:40.321Z</time>
      </trkpt>
      <trkpt lat="44.67538" lon="5.15591">
        <ele>424</ele>
        <time>2026-09-02T17:02:41.321Z</time>
      </trkpt>
      <trkpt lat="44.67538" lon="5.1559">
        <ele>424</ele>
        <time>2026-09-02T17:02:42.321Z</time>
      </trkpt>
      <trkpt lat="44.67538" lon="5.15589">
        <ele>424</ele>
        <time>2026-09-02T17:02:43.321Z</time>
      </trkpt>
      <trkpt lat="44.67538" lon="5.15587">
        <ele>425</ele>
        <time>2026-09-02T17:02:44.321Z</time>
      </trkpt>
      <trkpt lat="44.67538" lon="5.15586">
        <ele>425</ele>
        <time>2026-09-02T17:02:45.321Z</time>
      </trkpt>
      <trkpt lat="44.67538" lon="5.15584">
        <ele>425</ele>
        <time>2026-09-02T17:02:46.321Z</time>
      </trkpt>
      <trkpt lat="44.67539" lon="5.15583">
        <ele>425</ele>
        <time>2026-09-02T17:02:47.321Z</time>
      </trkpt>
      <trkpt lat="44.67539" lon="5.15581">
        <ele>425</ele>
        <time>2026-09-02T17:02:48.321Z</time>
      </trkpt>
      <trkpt lat="44.67539" lon="5.1558">
        <ele>425</ele>
        <time>2026-09-02T17:02:49.321Z</time>
      </trkpt>
      <trkpt lat="44.6754" lon="5.15578">
        <ele>424</ele>
        <time>2026-09-02T17:02:50.321Z</time>
      </trkpt>
      <trkpt lat="44.6754" lon="5.15577">
        <ele>424</ele>
        <time>2026-09-02T17:02:51.321Z</time>
      </trkpt>
      <trkpt lat="44.6754" lon="5.15576">
        <ele>424</ele>
        <time>2026-09-02T17:02:52.321Z</time>
      </trkpt>
      <trkpt lat="44.6754" lon="5.15575">
        <ele>424</ele>
        <time>2026-09-02T17:02:53.321Z</time>
      </trkpt>
      <trkpt lat="44.6754" lon="5.15574">
        <ele>424</ele>
        <time>2026-09-02T17:02:54.321Z</time>
      </trkpt>
      <trkpt lat="44.67541" lon="5.15572">
        <ele>424</ele>
        <time>2026-09-02T17:02:55.321Z</time>
      </trkpt>
      <trkpt lat="44.67541" lon="5.1557">
        <ele>424</ele>
        <time>2026-09-02T17:02:56.321Z</time>
      </trkpt>
      <trkpt lat="44.67541" lon="5.15569">
        <ele>424</ele>
        <time>2026-09-02T17:02:57.321Z</time>
      </trkpt>
      <trkpt lat="44.67541" lon="5.15567">
        <ele>424</ele>
        <time>2026-09-02T17:02:58.321Z</time>
      </trkpt>
      <trkpt lat="44.67542" lon="5.15565">
        <ele>424</ele>
        <time>2026-09-02T17:02:59.321Z</time>
      </trkpt>
      <trkpt lat="44.67542" lon="5.15564">
        <ele>424</ele>
        <time>2026-09-02T17:03:00.321Z</time>
      </trkpt>
      <trkpt lat="44.67542" lon="5.15563">
        <ele>424</ele>
        <time>2026-09-02T17:03:01.321Z</time>
      </trkpt>
      <trkpt lat="44.67543" lon="5.15561">
        <ele>424</ele>
        <time>2026-09-02T17:03:02.321Z</time>
      </trkpt>
      <trkpt lat="44.67543" lon="5.1556">
        <ele>425</ele>
        <time>2026-09-02T17:03:03.321Z</time>
      </trkpt>
      <trkpt lat="44.67543" lon="5.15559">
        <ele>425</ele>
        <time>2026-09-02T17:03:04.321Z</time>
      </trkpt>
      <trkpt lat="44.67543" lon="5.15557">
        <ele>425</ele>
        <time>2026-09-02T17:03:05.321Z</time>
      </trkpt>
      <trkpt lat="44.67544" lon="5.15556">
        <ele>425</ele>
        <time>2026-09-02T17:03:06.321Z</time>
      </trkpt>
      <trkpt lat="44.67543" lon="5.15554">
        <ele>425</ele>
        <time>2026-09-02T17:03:07.321Z</time>
      </trkpt>
      <trkpt lat="44.67543" lon="5.15553">
        <ele>426</ele>
        <time>2026-09-02T17:03:08.321Z</time>
      </trkpt>
      <trkpt lat="44.67544" lon="5.15551">
        <ele>426</ele>
        <time>2026-09-02T17:03:09.321Z</time>
      </trkpt>
      <trkpt lat="44.67544" lon="5.15551">
        <ele>426</ele>
        <time>2026-09-02T17:03:10.321Z</time>
      </trkpt>
      <trkpt lat="44.67544" lon="5.1555">
        <ele>426</ele>
        <time>2026-09-02T17:03:11.321Z</time>
      </trkpt>
      <trkpt lat="44.67544" lon="5.1555">
        <ele>426</ele>
        <time>2026-09-02T17:03:12.321Z</time>
      </trkpt>
      <trkpt lat="44.67544" lon="5.15551">
        <ele>426</ele>
        <time>2026-09-02T17:03:13.321Z</time>
      </trkpt>
      <trkpt lat="44.67546" lon="5.15549">
        <ele>426</ele>
        <time>2026-09-02T17:03:16.644Z</time>
      </trkpt>
      <trkpt lat="44.67546" lon="5.15548">
        <ele>426</ele>
        <time>2026-09-02T17:03:17.644Z</time>
      </trkpt>
      <trkpt lat="44.67547" lon="5.15547">
        <ele>426</ele>
        <time>2026-09-02T17:03:18.644Z</time>
      </trkpt>
      <trkpt lat="44.67547" lon="5.15545">
        <ele>426</ele>
        <time>2026-09-02T17:03:19.644Z</time>
      </trkpt>
      <trkpt lat="44.67547" lon="5.15544">
        <ele>426</ele>
        <time>2026-09-02T17:03:20.644Z</time>
      </trkpt>
      <trkpt lat="44.67547" lon="5.15542">
        <ele>426</ele>
        <time>2026-09-02T17:03:21.644Z</time>
      </trkpt>
      <trkpt lat="44.67547" lon="5.15541">
        <ele>427</ele>
        <time>2026-09-02T17:03:22.644Z</time>
      </trkpt>
      <trkpt lat="44.67547" lon="5.1554">
        <ele>427</ele>
        <time>2026-09-02T17:03:23.644Z</time>
      </trkpt>
      <trkpt lat="44.67547" lon="5.15538">
        <ele>427</ele>
        <time>2026-09-02T17:03:24.644Z</time>
      </trkpt>
      <trkpt lat="44.67547" lon="5.15537">
        <ele>427</ele>
        <time>2026-09-02T17:03:25.644Z</time>
      </trkpt>
      <trkpt lat="44.67548" lon="5.15536">
        <ele>427</ele>
        <time>2026-09-02T17:03:26.644Z</time>
      </trkpt>
      <trkpt lat="44.67548" lon="5.15534">
        <ele>427</ele>
        <time>2026-09-02T17:03:27.644Z</time>
      </trkpt>
      <trkpt lat="44.67548" lon="5.15533">
        <ele>427</ele>
        <time>2026-09-02T17:03:28.644Z</time>
      </trkpt>
      <trkpt lat="44.67548" lon="5.15532">
        <ele>427</ele>
        <time>2026-09-02T17:03:29.644Z</time>
      </trkpt>
      <trkpt lat="44.67548" lon="5.1553">
        <ele>427</ele>
        <time>2026-09-02T17:03:30.644Z</time>
      </trkpt>
      <trkpt lat="44.67548" lon="5.15529">
        <ele>427</ele>
        <time>2026-09-02T17:03:31.644Z</time>
      </trkpt>
      <trkpt lat="44.67547" lon="5.15528">
        <ele>427</ele>
        <time>2026-09-02T17:03:32.644Z</time>
      </trkpt>
      <trkpt lat="44.67548" lon="5.15527">
        <ele>427</ele>
        <time>2026-09-02T17:03:33.644Z</time>
      </trkpt>
      <trkpt lat="44.67548" lon="5.15526">
        <ele>427</ele>
        <time>2026-09-02T17:03:34.644Z</time>
      </trkpt>
      <trkpt lat="44.67548" lon="5.15525">
        <ele>427</ele>
        <time>2026-09-02T17:03:35.644Z</time>
      </trkpt>
      <trkpt lat="44.67548" lon="5.15524">
        <ele>427</ele>
        <time>2026-09-02T17:03:36.644Z</time>
      </trkpt>
      <trkpt lat="44.67547" lon="5.15522">
        <ele>427</ele>
        <time>2026-09-02T17:03:37.644Z</time>
      </trkpt>
      <trkpt lat="44.67547" lon="5.15521">
        <ele>427</ele>
        <time>2026-09-02T17:03:38.644Z</time>
      </trkpt>
      <trkpt lat="44.67547" lon="5.15519">
        <ele>428</ele>
        <time>2026-09-02T17:03:39.644Z</time>
      </trkpt>
      <trkpt lat="44.67547" lon="5.15518">
        <ele>428</ele>
        <time>2026-09-02T17:03:40.644Z</time>
      </trkpt>
      <trkpt lat="44.67546" lon="5.15517">
        <ele>428</ele>
        <time>2026-09-02T17:03:41.644Z</time>
      </trkpt>
      <trkpt lat="44.67546" lon="5.15515">
        <ele>428</ele>
        <time>2026-09-02T17:03:42.644Z</time>
      </trkpt>
      <trkpt lat="44.67545" lon="5.15514">
        <ele>428</ele>
        <time>2026-09-02T17:03:43.644Z</time>
      </trkpt>
      <trkpt lat="44.67545" lon="5.15512">
        <ele>428</ele>
        <time>2026-09-02T17:03:44.644Z</time>
      </trkpt>
      <trkpt lat="44.67545" lon="5.15511">
        <ele>428</ele>
        <time>2026-09-02T17:03:45.644Z</time>
      </trkpt>
      <trkpt lat="44.67545" lon="5.15509">
        <ele>428</ele>
        <time>2026-09-02T17:03:46.644Z</time>
      </trkpt>
      <trkpt lat="44.67544" lon="5.15508">
        <ele>428</ele>
        <time>2026-09-02T17:03:47.644Z</time>
      </trkpt>
      <trkpt lat="44.67544" lon="5.15507">
        <ele>428</ele>
        <time>2026-09-02T17:03:48.644Z</time>
      </trkpt>
      <trkpt lat="44.67544" lon="5.15505">
        <ele>428</ele>
        <time>2026-09-02T17:03:49.644Z</time>
      </trkpt>
      <trkpt lat="44.67544" lon="5.15504">
        <ele>428</ele>
        <time>2026-09-02T17:03:50.644Z</time>
      </trkpt>
      <trkpt lat="44.67543" lon="5.15502">
        <ele>428</ele>
        <time>2026-09-02T17:03:51.644Z</time>
      </trkpt>
      <trkpt lat="44.67543" lon="5.155">
        <ele>429</ele>
        <time>2026-09-02T17:03:52.644Z</time>
      </trkpt>
      <trkpt lat="44.67543" lon="5.15499">
        <ele>429</ele>
        <time>2026-09-02T17:03:53.644Z</time>
      </trkpt>
      <trkpt lat="44.67543" lon="5.15498">
        <ele>429</ele>
        <time>2026-09-02T17:03:54.644Z</time>
      </trkpt>
      <trkpt lat="44.67542" lon="5.15496">
        <ele>429</ele>
        <time>2026-09-02T17:03:55.644Z</time>
      </trkpt>
      <trkpt lat="44.67542" lon="5.15495">
        <ele>429</ele>
        <time>2026-09-02T17:03:56.644Z</time>
      </trkpt>
      <trkpt lat="44.67542" lon="5.15493">
        <ele>429</ele>
        <time>2026-09-02T17:03:57.644Z</time>
      </trkpt>
      <trkpt lat="44.67542" lon="5.15492">
        <ele>429</ele>
        <time>2026-09-02T17:03:58.644Z</time>
      </trkpt>
      <trkpt lat="44.67542" lon="5.1549">
        <ele>429</ele>
        <time>2026-09-02T17:03:59.644Z</time>
      </trkpt>
      <trkpt lat="44.67543" lon="5.15489">
        <ele>429</ele>
        <time>2026-09-02T17:04:00.644Z</time>
      </trkpt>
      <trkpt lat="44.67542" lon="5.15488">
        <ele>429</ele>
        <time>2026-09-02T17:04:01.644Z</time>
      </trkpt>
      <trkpt lat="44.67542" lon="5.15486">
        <ele>429</ele>
        <time>2026-09-02T17:04:02.644Z</time>
      </trkpt>
      <trkpt lat="44.67543" lon="5.15485">
        <ele>429</ele>
        <time>2026-09-02T17:04:03.644Z</time>
      </trkpt>
      <trkpt lat="44.67543" lon="5.15484">
        <ele>429</ele>
        <time>2026-09-02T17:04:04.644Z</time>
      </trkpt>
      <trkpt lat="44.67543" lon="5.15482">
        <ele>429</ele>
        <time>2026-09-02T17:04:05.644Z</time>
      </trkpt>
      <trkpt lat="44.67543" lon="5.15481">
        <ele>429</ele>
        <time>2026-09-02T17:04:06.644Z</time>
      </trkpt>
      <trkpt lat="44.67543" lon="5.15479">
        <ele>430</ele>
        <time>2026-09-02T17:04:07.644Z</time>
      </trkpt>
      <trkpt lat="44.67543" lon="5.15478">
        <ele>430</ele>
        <time>2026-09-02T17:04:08.644Z</time>
      </trkpt>
      <trkpt lat="44.67543" lon="5.15476">
        <ele>430</ele>
        <time>2026-09-02T17:04:09.644Z</time>
      </trkpt>
      <trkpt lat="44.67544" lon="5.15475">
        <ele>430</ele>
        <time>2026-09-02T17:04:10.644Z</time>
      </trkpt>
      <trkpt lat="44.67544" lon="5.15473">
        <ele>430</ele>
        <time>2026-09-02T17:04:11.644Z</time>
      </trkpt>
      <trkpt lat="44.67544" lon="5.15472">
        <ele>430</ele>
        <time>2026-09-02T17:04:12.644Z</time>
      </trkpt>
      <trkpt lat="44.67544" lon="5.15471">
        <ele>430</ele>
        <time>2026-09-02T17:04:13.644Z</time>
      </trkpt>
      <trkpt lat="44.67544" lon="5.1547">
        <ele>430</ele>
        <time>2026-09-02T17:04:14.644Z</time>
      </trkpt>
      <trkpt lat="44.67544" lon="5.15469">
        <ele>430</ele>
        <time>2026-09-02T17:04:15.644Z</time>
      </trkpt>
      <trkpt lat="44.67544" lon="5.15468">
        <ele>430</ele>
        <time>2026-09-02T17:04:16.644Z</time>
      </trkpt>
      <trkpt lat="44.67544" lon="5.15467">
        <ele>430</ele>
        <time>2026-09-02T17:04:17.644Z</time>
      </trkpt>
      <trkpt lat="44.67544" lon="5.15466">
        <ele>430</ele>
        <time>2026-09-02T17:04:18.644Z</time>
      </trkpt>
      <trkpt lat="44.67544" lon="5.15466">
        <ele>430</ele>
        <time>2026-09-02T17:04:19.644Z</time>
      </trkpt>
      <trkpt lat="44.67544" lon="5.15466">
        <ele>430</ele>
        <time>2026-09-02T17:04:20.644Z</time>
      </trkpt>
      <trkpt lat="44.67544" lon="5.15466">
        <ele>431</ele>
        <time>2026-09-02T17:04:21.644Z</time>
      </trkpt>
      <trkpt lat="44.67542" lon="5.15466">
        <ele>431</ele>
        <time>2026-09-02T17:04:30.651Z</time>
      </trkpt>
      <trkpt lat="44.67542" lon="5.15465">
        <ele>432</ele>
        <time>2026-09-02T17:04:31.651Z</time>
      </trkpt>
      <trkpt lat="44.67541" lon="5.15465">
        <ele>432</ele>
        <time>2026-09-02T17:04:32.651Z</time>
      </trkpt>
      <trkpt lat="44.6754" lon="5.15465">
        <ele>432</ele>
        <time>2026-09-02T17:04:33.651Z</time>
      </trkpt>
      <trkpt lat="44.67539" lon="5.15465">
        <ele>432</ele>
        <time>2026-09-02T17:04:34.651Z</time>
      </trkpt>
      <trkpt lat="44.67538" lon="5.15465">
        <ele>433</ele>
        <time>2026-09-02T17:04:35.651Z</time>
      </trkpt>
      <trkpt lat="44.67538" lon="5.15464">
        <ele>433</ele>
        <time>2026-09-02T17:04:36.651Z</time>
      </trkpt>
      <trkpt lat="44.67538" lon="5.15464">
        <ele>433</ele>
        <time>2026-09-02T17:04:37.651Z</time>
      </trkpt>
      <trkpt lat="44.67538" lon="5.15464">
        <ele>433</ele>
        <time>2026-09-02T17:04:38.651Z</time>
      </trkpt>
      <trkpt lat="44.67538" lon="5.15464">
        <ele>434</ele>
        <time>2026-09-02T17:04:39.651Z</time>
      </trkpt>
      <trkpt lat="44.67538" lon="5.15466">
        <ele>435</ele>
        <time>2026-09-02T17:05:09.658Z</time>
      </trkpt>
      <trkpt lat="44.67538" lon="5.15467">
        <ele>435</ele>
        <time>2026-09-02T17:05:10.658Z</time>
      </trkpt>
      <trkpt lat="44.67538" lon="5.15468">
        <ele>435</ele>
        <time>2026-09-02T17:05:11.658Z</time>
      </trkpt>
      <trkpt lat="44.67537" lon="5.15469">
        <ele>435</ele>
        <time>2026-09-02T17:05:12.658Z</time>
      </trkpt>
      <trkpt lat="44.67537" lon="5.1547">
        <ele>435</ele>
        <time>2026-09-02T17:05:13.658Z</time>
      </trkpt>
      <trkpt lat="44.67537" lon="5.1547">
        <ele>435</ele>
        <time>2026-09-02T17:05:14.658Z</time>
      </trkpt>
      <trkpt lat="44.67537" lon="5.15471">
        <ele>435</ele>
        <time>2026-09-02T17:05:15.658Z</time>
      </trkpt>
      <trkpt lat="44.67537" lon="5.15472">
        <ele>435</ele>
        <time>2026-09-02T17:05:16.658Z</time>
      </trkpt>
      <trkpt lat="44.67537" lon="5.15473">
        <ele>435</ele>
        <time>2026-09-02T17:05:17.658Z</time>
      </trkpt>
      <trkpt lat="44.67537" lon="5.15474">
        <ele>435</ele>
        <time>2026-09-02T17:05:18.658Z</time>
      </trkpt>
      <trkpt lat="44.67536" lon="5.15473">
        <ele>435</ele>
        <time>2026-09-02T17:05:19.658Z</time>
      </trkpt>
      <trkpt lat="44.67536" lon="5.15473">
        <ele>435</ele>
        <time>2026-09-02T17:05:20.658Z</time>
      </trkpt>
      <trkpt lat="44.67537" lon="5.15474">
        <ele>435</ele>
        <time>2026-09-02T17:05:21.658Z</time>
      </trkpt>
      <trkpt lat="44.67537" lon="5.15475">
        <ele>435</ele>
        <time>2026-09-02T17:05:25.670Z</time>
      </trkpt>
      <trkpt lat="44.67537" lon="5.15476">
        <ele>435</ele>
        <time>2026-09-02T17:05:26.670Z</time>
      </trkpt>
      <trkpt lat="44.67537" lon="5.15477">
        <ele>435</ele>
        <time>2026-09-02T17:05:27.670Z</time>
      </trkpt>
      <trkpt lat="44.67537" lon="5.15479">
        <ele>435</ele>
        <time>2026-09-02T17:05:28.670Z</time>
      </trkpt>
      <trkpt lat="44.67537" lon="5.1548">
        <ele>435</ele>
        <time>2026-09-02T17:05:29.670Z</time>
      </trkpt>
      <trkpt lat="44.67537" lon="5.15482">
        <ele>435</ele>
        <time>2026-09-02T17:05:30.670Z</time>
      </trkpt>
      <trkpt lat="44.67537" lon="5.15483">
        <ele>435</ele>
        <time>2026-09-02T17:05:31.670Z</time>
      </trkpt>
      <trkpt lat="44.67536" lon="5.15484">
        <ele>435</ele>
        <time>2026-09-02T17:05:32.670Z</time>
      </trkpt>
      <trkpt lat="44.67536" lon="5.15485">
        <ele>435</ele>
        <time>2026-09-02T17:05:33.670Z</time>
      </trkpt>
      <trkpt lat="44.67536" lon="5.15487">
        <ele>434</ele>
        <time>2026-09-02T17:05:34.670Z</time>
      </trkpt>
      <trkpt lat="44.67536" lon="5.15488">
        <ele>434</ele>
        <time>2026-09-02T17:05:35.670Z</time>
      </trkpt>
      <trkpt lat="44.67536" lon="5.15489">
        <ele>434</ele>
        <time>2026-09-02T17:05:36.670Z</time>
      </trkpt>
      <trkpt lat="44.67536" lon="5.1549">
        <ele>434</ele>
        <time>2026-09-02T17:05:37.670Z</time>
      </trkpt>
      <trkpt lat="44.67535" lon="5.15492">
        <ele>435</ele>
        <time>2026-09-02T17:05:38.670Z</time>
      </trkpt>
      <trkpt lat="44.67535" lon="5.15493">
        <ele>435</ele>
        <time>2026-09-02T17:05:39.670Z</time>
      </trkpt>
      <trkpt lat="44.67535" lon="5.15494">
        <ele>435</ele>
        <time>2026-09-02T17:05:40.670Z</time>
      </trkpt>
      <trkpt lat="44.67534" lon="5.15495">
        <ele>435</ele>
        <time>2026-09-02T17:05:41.670Z</time>
      </trkpt>
      <trkpt lat="44.67534" lon="5.15497">
        <ele>435</ele>
        <time>2026-09-02T17:05:42.670Z</time>
      </trkpt>
      <trkpt lat="44.67534" lon="5.15498">
        <ele>435</ele>
        <time>2026-09-02T17:05:43.670Z</time>
      </trkpt>
      <trkpt lat="44.67533" lon="5.15499">
        <ele>435</ele>
        <time>2026-09-02T17:05:44.670Z</time>
      </trkpt>
      <trkpt lat="44.67533" lon="5.15501">
        <ele>435</ele>
        <time>2026-09-02T17:05:45.670Z</time>
      </trkpt>
      <trkpt lat="44.67532" lon="5.15502">
        <ele>435</ele>
        <time>2026-09-02T17:05:46.670Z</time>
      </trkpt>
      <trkpt lat="44.67532" lon="5.15504">
        <ele>435</ele>
        <time>2026-09-02T17:05:47.670Z</time>
      </trkpt>
      <trkpt lat="44.67532" lon="5.15505">
        <ele>435</ele>
        <time>2026-09-02T17:05:48.670Z</time>
      </trkpt>
      <trkpt lat="44.67531" lon="5.15507">
        <ele>436</ele>
        <time>2026-09-02T17:05:49.670Z</time>
      </trkpt>
      <trkpt lat="44.67531" lon="5.15509">
        <ele>436</ele>
        <time>2026-09-02T17:05:50.670Z</time>
      </trkpt>
      <trkpt lat="44.67531" lon="5.1551">
        <ele>436</ele>
        <time>2026-09-02T17:05:51.670Z</time>
      </trkpt>
      <trkpt lat="44.6753" lon="5.15512">
        <ele>436</ele>
        <time>2026-09-02T17:05:52.670Z</time>
      </trkpt>
      <trkpt lat="44.6753" lon="5.15513">
        <ele>436</ele>
        <time>2026-09-02T17:05:53.670Z</time>
      </trkpt>
      <trkpt lat="44.6753" lon="5.15514">
        <ele>436</ele>
        <time>2026-09-02T17:05:54.670Z</time>
      </trkpt>
      <trkpt lat="44.67529" lon="5.15516">
        <ele>436</ele>
        <time>2026-09-02T17:05:55.670Z</time>
      </trkpt>
      <trkpt lat="44.67529" lon="5.15517">
        <ele>436</ele>
        <time>2026-09-02T17:05:56.670Z</time>
      </trkpt>
      <trkpt lat="44.67528" lon="5.15519">
        <ele>436</ele>
        <time>2026-09-02T17:05:57.670Z</time>
      </trkpt>
      <trkpt lat="44.67528" lon="5.1552">
        <ele>436</ele>
        <time>2026-09-02T17:05:58.670Z</time>
      </trkpt>
      <trkpt lat="44.67528" lon="5.15522">
        <ele>436</ele>
        <time>2026-09-02T17:05:59.670Z</time>
      </trkpt>
      <trkpt lat="44.67527" lon="5.15523">
        <ele>436</ele>
        <time>2026-09-02T17:06:00.670Z</time>
      </trkpt>
      <trkpt lat="44.67526" lon="5.15524">
        <ele>436</ele>
        <time>2026-09-02T17:06:01.670Z</time>
      </trkpt>
      <trkpt lat="44.67526" lon="5.15526">
        <ele>436</ele>
        <time>2026-09-02T17:06:02.670Z</time>
      </trkpt>
      <trkpt lat="44.67526" lon="5.15527">
        <ele>436</ele>
        <time>2026-09-02T17:06:03.670Z</time>
      </trkpt>
      <trkpt lat="44.67525" lon="5.15529">
        <ele>436</ele>
        <time>2026-09-02T17:06:04.670Z</time>
      </trkpt>
      <trkpt lat="44.67525" lon="5.1553">
        <ele>436</ele>
        <time>2026-09-02T17:06:05.670Z</time>
      </trkpt>
      <trkpt lat="44.67524" lon="5.15531">
        <ele>436</ele>
        <time>2026-09-02T17:06:06.670Z</time>
      </trkpt>
      <trkpt lat="44.67524" lon="5.15533">
        <ele>436</ele>
        <time>2026-09-02T17:06:07.670Z</time>
      </trkpt>
      <trkpt lat="44.67523" lon="5.15534">
        <ele>436</ele>
        <time>2026-09-02T17:06:08.670Z</time>
      </trkpt>
      <trkpt lat="44.67523" lon="5.15535">
        <ele>436</ele>
        <time>2026-09-02T17:06:09.670Z</time>
      </trkpt>
      <trkpt lat="44.67523" lon="5.15536">
        <ele>436</ele>
        <time>2026-09-02T17:06:10.670Z</time>
      </trkpt>
      <trkpt lat="44.67522" lon="5.15537">
        <ele>436</ele>
        <time>2026-09-02T17:06:11.670Z</time>
      </trkpt>
      <trkpt lat="44.67522" lon="5.15539">
        <ele>436</ele>
        <time>2026-09-02T17:06:12.670Z</time>
      </trkpt>
      <trkpt lat="44.67521" lon="5.1554">
        <ele>436</ele>
        <time>2026-09-02T17:06:13.670Z</time>
      </trkpt>
      <trkpt lat="44.6752" lon="5.1554">
        <ele>437</ele>
        <time>2026-09-02T17:06:14.670Z</time>
      </trkpt>
      <trkpt lat="44.6752" lon="5.15542">
        <ele>437</ele>
        <time>2026-09-02T17:06:15.670Z</time>
      </trkpt>
      <trkpt lat="44.67519" lon="5.15543">
        <ele>437</ele>
        <time>2026-09-02T17:06:16.670Z</time>
      </trkpt>
      <trkpt lat="44.67518" lon="5.15544">
        <ele>437</ele>
        <time>2026-09-02T17:06:17.670Z</time>
      </trkpt>
      <trkpt lat="44.67518" lon="5.15545">
        <ele>437</ele>
        <time>2026-09-02T17:06:18.670Z</time>
      </trkpt>
      <trkpt lat="44.67517" lon="5.15546">
        <ele>437</ele>
        <time>2026-09-02T17:06:19.670Z</time>
      </trkpt>
      <trkpt lat="44.67516" lon="5.15546">
        <ele>437</ele>
        <time>2026-09-02T17:06:20.670Z</time>
      </trkpt>
      <trkpt lat="44.67515" lon="5.15547">
        <ele>438</ele>
        <time>2026-09-02T17:06:21.670Z</time>
      </trkpt>
      <trkpt lat="44.67514" lon="5.15549">
        <ele>438</ele>
        <time>2026-09-02T17:06:22.670Z</time>
      </trkpt>
      <trkpt lat="44.67513" lon="5.1555">
        <ele>438</ele>
        <time>2026-09-02T17:06:23.670Z</time>
      </trkpt>
      <trkpt lat="44.67513" lon="5.15551">
        <ele>438</ele>
        <time>2026-09-02T17:06:24.670Z</time>
      </trkpt>
      <trkpt lat="44.67512" lon="5.15552">
        <ele>438</ele>
        <time>2026-09-02T17:06:25.670Z</time>
      </trkpt>
      <trkpt lat="44.67511" lon="5.15553">
        <ele>438</ele>
        <time>2026-09-02T17:06:26.670Z</time>
      </trkpt>
      <trkpt lat="44.6751" lon="5.15555">
        <ele>438</ele>
        <time>2026-09-02T17:06:27.670Z</time>
      </trkpt>
      <trkpt lat="44.6751" lon="5.15556">
        <ele>438</ele>
        <time>2026-09-02T17:06:28.670Z</time>
      </trkpt>
      <trkpt lat="44.67509" lon="5.15557">
        <ele>439</ele>
        <time>2026-09-02T17:06:29.670Z</time>
      </trkpt>
      <trkpt lat="44.67508" lon="5.15557">
        <ele>439</ele>
        <time>2026-09-02T17:06:30.670Z</time>
      </trkpt>
      <trkpt lat="44.67507" lon="5.15558">
        <ele>439</ele>
        <time>2026-09-02T17:06:31.670Z</time>
      </trkpt>
      <trkpt lat="44.67506" lon="5.15559">
        <ele>439</ele>
        <time>2026-09-02T17:06:32.670Z</time>
      </trkpt>
      <trkpt lat="44.67505" lon="5.15559">
        <ele>439</ele>
        <time>2026-09-02T17:06:33.670Z</time>
      </trkpt>
      <trkpt lat="44.67504" lon="5.1556">
        <ele>439</ele>
        <time>2026-09-02T17:06:34.670Z</time>
      </trkpt>
      <trkpt lat="44.67503" lon="5.15561">
        <ele>439</ele>
        <time>2026-09-02T17:06:35.670Z</time>
      </trkpt>
      <trkpt lat="44.67503" lon="5.15561">
        <ele>439</ele>
        <time>2026-09-02T17:06:36.670Z</time>
      </trkpt>
      <trkpt lat="44.67502" lon="5.15562">
        <ele>439</ele>
        <time>2026-09-02T17:06:37.670Z</time>
      </trkpt>
      <trkpt lat="44.67501" lon="5.15563">
        <ele>439</ele>
        <time>2026-09-02T17:06:38.670Z</time>
      </trkpt>
      <trkpt lat="44.67501" lon="5.15563">
        <ele>440</ele>
        <time>2026-09-02T17:06:39.670Z</time>
      </trkpt>
      <trkpt lat="44.675" lon="5.15564">
        <ele>440</ele>
        <time>2026-09-02T17:06:40.670Z</time>
      </trkpt>
      <trkpt lat="44.67499" lon="5.15564">
        <ele>440</ele>
        <time>2026-09-02T17:06:41.670Z</time>
      </trkpt>
      <trkpt lat="44.67499" lon="5.15564">
        <ele>440</ele>
        <time>2026-09-02T17:06:42.670Z</time>
      </trkpt>
      <trkpt lat="44.67498" lon="5.15565">
        <ele>440</ele>
        <time>2026-09-02T17:06:43.670Z</time>
      </trkpt>
      <trkpt lat="44.67497" lon="5.15566">
        <ele>440</ele>
        <time>2026-09-02T17:06:44.670Z</time>
      </trkpt>
      <trkpt lat="44.67496" lon="5.15566">
        <ele>441</ele>
        <time>2026-09-02T17:06:45.670Z</time>
      </trkpt>
      <trkpt lat="44.67495" lon="5.15567">
        <ele>441</ele>
        <time>2026-09-02T17:06:46.670Z</time>
      </trkpt>
      <trkpt lat="44.67495" lon="5.15567">
        <ele>441</ele>
        <time>2026-09-02T17:06:47.670Z</time>
      </trkpt>
      <trkpt lat="44.67494" lon="5.15568">
        <ele>441</ele>
        <time>2026-09-02T17:06:48.670Z</time>
      </trkpt>
      <trkpt lat="44.67493" lon="5.15568">
        <ele>441</ele>
        <time>2026-09-02T17:06:49.670Z</time>
      </trkpt>
      <trkpt lat="44.67492" lon="5.15569">
        <ele>441</ele>
        <time>2026-09-02T17:06:50.670Z</time>
      </trkpt>
      <trkpt lat="44.67491" lon="5.15569">
        <ele>441</ele>
        <time>2026-09-02T17:06:51.670Z</time>
      </trkpt>
      <trkpt lat="44.6749" lon="5.1557">
        <ele>441</ele>
        <time>2026-09-02T17:06:52.670Z</time>
      </trkpt>
      <trkpt lat="44.67489" lon="5.1557">
        <ele>441</ele>
        <time>2026-09-02T17:06:53.670Z</time>
      </trkpt>
      <trkpt lat="44.67488" lon="5.1557">
        <ele>441</ele>
        <time>2026-09-02T17:06:54.670Z</time>
      </trkpt>
      <trkpt lat="44.67487" lon="5.1557">
        <ele>441</ele>
        <time>2026-09-02T17:06:55.670Z</time>
      </trkpt>
      <trkpt lat="44.67486" lon="5.15571">
        <ele>441</ele>
        <time>2026-09-02T17:06:56.670Z</time>
      </trkpt>
      <trkpt lat="44.67486" lon="5.15571">
        <ele>441</ele>
        <time>2026-09-02T17:06:57.670Z</time>
      </trkpt>
      <trkpt lat="44.67485" lon="5.15572">
        <ele>441</ele>
        <time>2026-09-02T17:06:58.670Z</time>
      </trkpt>
      <trkpt lat="44.67484" lon="5.15572">
        <ele>441</ele>
        <time>2026-09-02T17:06:59.670Z</time>
      </trkpt>
      <trkpt lat="44.67483" lon="5.15573">
        <ele>441</ele>
        <time>2026-09-02T17:07:00.670Z</time>
      </trkpt>
      <trkpt lat="44.67482" lon="5.15573">
        <ele>441</ele>
        <time>2026-09-02T17:07:01.670Z</time>
      </trkpt>
      <trkpt lat="44.67481" lon="5.15573">
        <ele>441</ele>
        <time>2026-09-02T17:07:02.670Z</time>
      </trkpt>
      <trkpt lat="44.6748" lon="5.15573">
        <ele>441</ele>
        <time>2026-09-02T17:07:03.670Z</time>
      </trkpt>
      <trkpt lat="44.67479" lon="5.15573">
        <ele>441</ele>
        <time>2026-09-02T17:07:04.670Z</time>
      </trkpt>
      <trkpt lat="44.67478" lon="5.15573">
        <ele>441</ele>
        <time>2026-09-02T17:07:05.670Z</time>
      </trkpt>
      <trkpt lat="44.67477" lon="5.15573">
        <ele>441</ele>
        <time>2026-09-02T17:07:06.670Z</time>
      </trkpt>
      <trkpt lat="44.67476" lon="5.15573">
        <ele>441</ele>
        <time>2026-09-02T17:07:07.670Z</time>
      </trkpt>
      <trkpt lat="44.67475" lon="5.15573">
        <ele>441</ele>
        <time>2026-09-02T17:07:08.670Z</time>
      </trkpt>
      <trkpt lat="44.67474" lon="5.15573">
        <ele>441</ele>
        <time>2026-09-02T17:07:09.670Z</time>
      </trkpt>
      <trkpt lat="44.67473" lon="5.15572">
        <ele>441</ele>
        <time>2026-09-02T17:07:10.670Z</time>
      </trkpt>
      <trkpt lat="44.67472" lon="5.15572">
        <ele>441</ele>
        <time>2026-09-02T17:07:11.670Z</time>
      </trkpt>
      <trkpt lat="44.67471" lon="5.15572">
        <ele>441</ele>
        <time>2026-09-02T17:07:12.670Z</time>
      </trkpt>
      <trkpt lat="44.6747" lon="5.15572">
        <ele>441</ele>
        <time>2026-09-02T17:07:13.670Z</time>
      </trkpt>
      <trkpt lat="44.6747" lon="5.15572">
        <ele>441</ele>
        <time>2026-09-02T17:07:14.670Z</time>
      </trkpt>
      <trkpt lat="44.67469" lon="5.15571">
        <ele>441</ele>
        <time>2026-09-02T17:07:15.670Z</time>
      </trkpt>
      <trkpt lat="44.67468" lon="5.15571">
        <ele>441</ele>
        <time>2026-09-02T17:07:16.670Z</time>
      </trkpt>
      <trkpt lat="44.67467" lon="5.15571">
        <ele>442</ele>
        <time>2026-09-02T17:07:17.670Z</time>
      </trkpt>
      <trkpt lat="44.67467" lon="5.15571">
        <ele>442</ele>
        <time>2026-09-02T17:07:18.670Z</time>
      </trkpt>
      <trkpt lat="44.67466" lon="5.15571">
        <ele>442</ele>
        <time>2026-09-02T17:07:19.670Z</time>
      </trkpt>
      <trkpt lat="44.67465" lon="5.15571">
        <ele>443</ele>
        <time>2026-09-02T17:07:20.670Z</time>
      </trkpt>
      <trkpt lat="44.67464" lon="5.15571">
        <ele>443</ele>
        <time>2026-09-02T17:07:21.670Z</time>
      </trkpt>
      <trkpt lat="44.67462" lon="5.15571">
        <ele>443</ele>
        <time>2026-09-02T17:07:22.670Z</time>
      </trkpt>
      <trkpt lat="44.67461" lon="5.15571">
        <ele>443</ele>
        <time>2026-09-02T17:07:23.670Z</time>
      </trkpt>
      <trkpt lat="44.6746" lon="5.15571">
        <ele>443</ele>
        <time>2026-09-02T17:07:24.670Z</time>
      </trkpt>
      <trkpt lat="44.67459" lon="5.15571">
        <ele>443</ele>
        <time>2026-09-02T17:07:25.670Z</time>
      </trkpt>
      <trkpt lat="44.67458" lon="5.15571">
        <ele>444</ele>
        <time>2026-09-02T17:07:26.670Z</time>
      </trkpt>
      <trkpt lat="44.67457" lon="5.1557">
        <ele>444</ele>
        <time>2026-09-02T17:07:27.670Z</time>
      </trkpt>
      <trkpt lat="44.67456" lon="5.1557">
        <ele>444</ele>
        <time>2026-09-02T17:07:28.670Z</time>
      </trkpt>
      <trkpt lat="44.67455" lon="5.1557">
        <ele>445</ele>
        <time>2026-09-02T17:07:29.670Z</time>
      </trkpt>
      <trkpt lat="44.67454" lon="5.1557">
        <ele>445</ele>
        <time>2026-09-02T17:07:30.670Z</time>
      </trkpt>
      <trkpt lat="44.67453" lon="5.1557">
        <ele>445</ele>
        <time>2026-09-02T17:07:31.670Z</time>
      </trkpt>
      <trkpt lat="44.67452" lon="5.1557">
        <ele>445</ele>
        <time>2026-09-02T17:07:32.670Z</time>
      </trkpt>
      <trkpt lat="44.67451" lon="5.1557">
        <ele>446</ele>
        <time>2026-09-02T17:07:33.670Z</time>
      </trkpt>
      <trkpt lat="44.6745" lon="5.15569">
        <ele>446</ele>
        <time>2026-09-02T17:07:34.670Z</time>
      </trkpt>
      <trkpt lat="44.67449" lon="5.15569">
        <ele>446</ele>
        <time>2026-09-02T17:07:35.670Z</time>
      </trkpt>
      <trkpt lat="44.67448" lon="5.15568">
        <ele>446</ele>
        <time>2026-09-02T17:07:36.670Z</time>
      </trkpt>
      <trkpt lat="44.67448" lon="5.15568">
        <ele>446</ele>
        <time>2026-09-02T17:07:37.670Z</time>
      </trkpt>
      <trkpt lat="44.67447" lon="5.15567">
        <ele>447</ele>
        <time>2026-09-02T17:07:38.670Z</time>
      </trkpt>
      <trkpt lat="44.67447" lon="5.15567">
        <ele>447</ele>
        <time>2026-09-02T17:07:39.670Z</time>
      </trkpt>
      <trkpt lat="44.67446" lon="5.15563">
        <ele>447</ele>
        <time>2026-09-02T17:07:40.670Z</time>
      </trkpt>
      <trkpt lat="44.67446" lon="5.15562">
        <ele>447</ele>
        <time>2026-09-02T17:07:41.670Z</time>
      </trkpt>
      <trkpt lat="44.67446" lon="5.15561">
        <ele>447</ele>
        <time>2026-09-02T17:07:42.670Z</time>
      </trkpt>
      <trkpt lat="44.67446" lon="5.1556">
        <ele>447</ele>
        <time>2026-09-02T17:07:43.670Z</time>
      </trkpt>
      <trkpt lat="44.67446" lon="5.1556">
        <ele>447</ele>
        <time>2026-09-02T17:07:44.670Z</time>
      </trkpt>
      <trkpt lat="44.67446" lon="5.15558">
        <ele>447</ele>
        <time>2026-09-02T17:07:45.670Z</time>
      </trkpt>
      <trkpt lat="44.67447" lon="5.15557">
        <ele>447</ele>
        <time>2026-09-02T17:07:46.670Z</time>
      </trkpt>
      <trkpt lat="44.67447" lon="5.15556">
        <ele>447</ele>
        <time>2026-09-02T17:07:47.670Z</time>
      </trkpt>
      <trkpt lat="44.67449" lon="5.15556">
        <ele>447</ele>
        <time>2026-09-02T17:07:48.670Z</time>
      </trkpt>
      <trkpt lat="44.6745" lon="5.15555">
        <ele>447</ele>
        <time>2026-09-02T17:07:49.670Z</time>
      </trkpt>
      <trkpt lat="44.67451" lon="5.15554">
        <ele>447</ele>
        <time>2026-09-02T17:07:50.670Z</time>
      </trkpt>
      <trkpt lat="44.67452" lon="5.15555">
        <ele>447</ele>
        <time>2026-09-02T17:07:51.670Z</time>
      </trkpt>
      <trkpt lat="44.67453" lon="5.15554">
        <ele>447</ele>
        <time>2026-09-02T17:07:52.670Z</time>
      </trkpt>
      <trkpt lat="44.67456" lon="5.15554">
        <ele>447</ele>
        <time>2026-09-02T17:07:53.670Z</time>
      </trkpt>
      <trkpt lat="44.67457" lon="5.15554">
        <ele>447</ele>
        <time>2026-09-02T17:07:54.670Z</time>
      </trkpt>
      <trkpt lat="44.67457" lon="5.15554">
        <ele>447</ele>
        <time>2026-09-02T17:07:55.670Z</time>
      </trkpt>
      <trkpt lat="44.67458" lon="5.15554">
        <ele>447</ele>
        <time>2026-09-02T17:07:56.670Z</time>
      </trkpt>
      <trkpt lat="44.67459" lon="5.15554">
        <ele>447</ele>
        <time>2026-09-02T17:07:57.670Z</time>
      </trkpt>
      <trkpt lat="44.67461" lon="5.15554">
        <ele>447</ele>
        <time>2026-09-02T17:07:58.670Z</time>
      </trkpt>
      <trkpt lat="44.67462" lon="5.15555">
        <ele>447</ele>
        <time>2026-09-02T17:07:59.670Z</time>
      </trkpt>
      <trkpt lat="44.67463" lon="5.15555">
        <ele>448</ele>
        <time>2026-09-02T17:08:00.670Z</time>
      </trkpt>
      <trkpt lat="44.67464" lon="5.15555">
        <ele>448</ele>
        <time>2026-09-02T17:08:01.670Z</time>
      </trkpt>
      <trkpt lat="44.67465" lon="5.15555">
        <ele>448</ele>
        <time>2026-09-02T17:08:02.670Z</time>
      </trkpt>
      <trkpt lat="44.67466" lon="5.15555">
        <ele>448</ele>
        <time>2026-09-02T17:08:03.670Z</time>
      </trkpt>
      <trkpt lat="44.67467" lon="5.15555">
        <ele>448</ele>
        <time>2026-09-02T17:08:04.670Z</time>
      </trkpt>
      <trkpt lat="44.67469" lon="5.15555">
        <ele>448</ele>
        <time>2026-09-02T17:08:05.670Z</time>
      </trkpt>
      <trkpt lat="44.6747" lon="5.15556">
        <ele>448</ele>
        <time>2026-09-02T17:08:06.670Z</time>
      </trkpt>
      <trkpt lat="44.67471" lon="5.15556">
        <ele>448</ele>
        <time>2026-09-02T17:08:07.670Z</time>
      </trkpt>
      <trkpt lat="44.67472" lon="5.15556">
        <ele>448</ele>
        <time>2026-09-02T17:08:08.670Z</time>
      </trkpt>
      <trkpt lat="44.67474" lon="5.15557">
        <ele>448</ele>
        <time>2026-09-02T17:08:09.670Z</time>
      </trkpt>
      <trkpt lat="44.67476" lon="5.15557">
        <ele>449</ele>
        <time>2026-09-02T17:08:10.670Z</time>
      </trkpt>
      <trkpt lat="44.67477" lon="5.15557">
        <ele>449</ele>
        <time>2026-09-02T17:08:11.670Z</time>
      </trkpt>
      <trkpt lat="44.67477" lon="5.15557">
        <ele>449</ele>
        <time>2026-09-02T17:08:12.670Z</time>
      </trkpt>
      <trkpt lat="44.67478" lon="5.15556">
        <ele>449</ele>
        <time>2026-09-02T17:08:13.670Z</time>
      </trkpt>
      <trkpt lat="44.67479" lon="5.15556">
        <ele>449</ele>
        <time>2026-09-02T17:08:14.670Z</time>
      </trkpt>
      <trkpt lat="44.6748" lon="5.15556">
        <ele>449</ele>
        <time>2026-09-02T17:08:15.670Z</time>
      </trkpt>
      <trkpt lat="44.67481" lon="5.15555">
        <ele>449</ele>
        <time>2026-09-02T17:08:16.670Z</time>
      </trkpt>
      <trkpt lat="44.67482" lon="5.15555">
        <ele>449</ele>
        <time>2026-09-02T17:08:17.670Z</time>
      </trkpt>
      <trkpt lat="44.67482" lon="5.15554">
        <ele>449</ele>
        <time>2026-09-02T17:08:18.670Z</time>
      </trkpt>
      <trkpt lat="44.67482" lon="5.15554">
        <ele>449</ele>
        <time>2026-09-02T17:08:19.670Z</time>
      </trkpt>
      <trkpt lat="44.67484" lon="5.15552">
        <ele>449</ele>
        <time>2026-09-02T17:08:20.670Z</time>
      </trkpt>
      <trkpt lat="44.67484" lon="5.15552">
        <ele>449</ele>
        <time>2026-09-02T17:08:21.670Z</time>
      </trkpt>
      <trkpt lat="44.67484" lon="5.15552">
        <ele>449</ele>
        <time>2026-09-02T17:08:22.670Z</time>
      </trkpt>
      <trkpt lat="44.67485" lon="5.15551">
        <ele>449</ele>
        <time>2026-09-02T17:08:23.670Z</time>
      </trkpt>
      <trkpt lat="44.67486" lon="5.1555">
        <ele>449</ele>
        <time>2026-09-02T17:08:24.670Z</time>
      </trkpt>
      <trkpt lat="44.67487" lon="5.15549">
        <ele>449</ele>
        <time>2026-09-02T17:08:25.670Z</time>
      </trkpt>
      <trkpt lat="44.67487" lon="5.15548">
        <ele>449</ele>
        <time>2026-09-02T17:08:26.670Z</time>
      </trkpt>
      <trkpt lat="44.67488" lon="5.15547">
        <ele>449</ele>
        <time>2026-09-02T17:08:27.670Z</time>
      </trkpt>
      <trkpt lat="44.67489" lon="5.15545">
        <ele>449</ele>
        <time>2026-09-02T17:08:28.670Z</time>
      </trkpt>
      <trkpt lat="44.6749" lon="5.15544">
        <ele>449</ele>
        <time>2026-09-02T17:08:29.670Z</time>
      </trkpt>
      <trkpt lat="44.6749" lon="5.15543">
        <ele>449</ele>
        <time>2026-09-02T17:08:30.670Z</time>
      </trkpt>
      <trkpt lat="44.67491" lon="5.15542">
        <ele>449</ele>
        <time>2026-09-02T17:08:31.670Z</time>
      </trkpt>
      <trkpt lat="44.67492" lon="5.15541">
        <ele>449</ele>
        <time>2026-09-02T17:08:32.670Z</time>
      </trkpt>
      <trkpt lat="44.67493" lon="5.1554">
        <ele>449</ele>
        <time>2026-09-02T17:08:33.670Z</time>
      </trkpt>
      <trkpt lat="44.67493" lon="5.15539">
        <ele>449</ele>
        <time>2026-09-02T17:08:34.670Z</time>
      </trkpt>
      <trkpt lat="44.67494" lon="5.15537">
        <ele>448</ele>
        <time>2026-09-02T17:08:35.670Z</time>
      </trkpt>
      <trkpt lat="44.67494" lon="5.15536">
        <ele>449</ele>
        <time>2026-09-02T17:08:36.670Z</time>
      </trkpt>
      <trkpt lat="44.67495" lon="5.15535">
        <ele>448</ele>
        <time>2026-09-02T17:08:37.670Z</time>
      </trkpt>
      <trkpt lat="44.67495" lon="5.15534">
        <ele>448</ele>
        <time>2026-09-02T17:08:38.670Z</time>
      </trkpt>
      <trkpt lat="44.67496" lon="5.15533">
        <ele>448</ele>
        <time>2026-09-02T17:08:39.670Z</time>
      </trkpt>
      <trkpt lat="44.67496" lon="5.15531">
        <ele>448</ele>
        <time>2026-09-02T17:08:40.670Z</time>
      </trkpt>
      <trkpt lat="44.67496" lon="5.1553">
        <ele>448</ele>
        <time>2026-09-02T17:08:41.670Z</time>
      </trkpt>
      <trkpt lat="44.67497" lon="5.15529">
        <ele>448</ele>
        <time>2026-09-02T17:08:42.670Z</time>
      </trkpt>
      <trkpt lat="44.67497" lon="5.15527">
        <ele>448</ele>
        <time>2026-09-02T17:08:43.670Z</time>
      </trkpt>
      <trkpt lat="44.67497" lon="5.15526">
        <ele>448</ele>
        <time>2026-09-02T17:08:44.670Z</time>
      </trkpt>
      <trkpt lat="44.67496" lon="5.15524">
        <ele>448</ele>
        <time>2026-09-02T17:08:45.670Z</time>
      </trkpt>
      <trkpt lat="44.67496" lon="5.15523">
        <ele>448</ele>
        <time>2026-09-02T17:08:46.670Z</time>
      </trkpt>
      <trkpt lat="44.67495" lon="5.15522">
        <ele>448</ele>
        <time>2026-09-02T17:08:47.670Z</time>
      </trkpt>
      <trkpt lat="44.67494" lon="5.15521">
        <ele>448</ele>
        <time>2026-09-02T17:08:48.670Z</time>
      </trkpt>
      <trkpt lat="44.67493" lon="5.15521">
        <ele>448</ele>
        <time>2026-09-02T17:08:49.670Z</time>
      </trkpt>
      <trkpt lat="44.67492" lon="5.15521">
        <ele>448</ele>
        <time>2026-09-02T17:08:50.670Z</time>
      </trkpt>
      <trkpt lat="44.67492" lon="5.15522">
        <ele>448</ele>
        <time>2026-09-02T17:08:51.670Z</time>
      </trkpt>
      <trkpt lat="44.67491" lon="5.15524">
        <ele>449</ele>
        <time>2026-09-02T17:08:52.670Z</time>
      </trkpt>
      <trkpt lat="44.6749" lon="5.15524">
        <ele>449</ele>
        <time>2026-09-02T17:08:53.670Z</time>
      </trkpt>
      <trkpt lat="44.6749" lon="5.15525">
        <ele>449</ele>
        <time>2026-09-02T17:08:54.670Z</time>
      </trkpt>
      <trkpt lat="44.67489" lon="5.15526">
        <ele>449</ele>
        <time>2026-09-02T17:08:55.670Z</time>
      </trkpt>
      <trkpt lat="44.67489" lon="5.15526">
        <ele>449</ele>
        <time>2026-09-02T17:08:56.670Z</time>
      </trkpt>
      <trkpt lat="44.67488" lon="5.15527">
        <ele>449</ele>
        <time>2026-09-02T17:08:57.670Z</time>
      </trkpt>
      <trkpt lat="44.67488" lon="5.15528">
        <ele>448</ele>
        <time>2026-09-02T17:08:58.670Z</time>
      </trkpt>
      <trkpt lat="44.67487" lon="5.15529">
        <ele>448</ele>
        <time>2026-09-02T17:08:59.670Z</time>
      </trkpt>
      <trkpt lat="44.67487" lon="5.1553">
        <ele>448</ele>
        <time>2026-09-02T17:09:00.670Z</time>
      </trkpt>
      <trkpt lat="44.67487" lon="5.1553">
        <ele>448</ele>
        <time>2026-09-02T17:09:01.670Z</time>
      </trkpt>
      <trkpt lat="44.67487" lon="5.1553">
        <ele>448</ele>
        <time>2026-09-02T17:09:02.670Z</time>
      </trkpt>
      <trkpt lat="44.67487" lon="5.1553">
        <ele>448</ele>
        <time>2026-09-02T17:09:03.670Z</time>
      </trkpt>
      <trkpt lat="44.67487" lon="5.15532">
        <ele>448</ele>
        <time>2026-09-02T17:09:13.684Z</time>
      </trkpt>
      <trkpt lat="44.67486" lon="5.15533">
        <ele>449</ele>
        <time>2026-09-02T17:09:14.684Z</time>
      </trkpt>
      <trkpt lat="44.67486" lon="5.15533">
        <ele>449</ele>
        <time>2026-09-02T17:09:15.684Z</time>
      </trkpt>
      <trkpt lat="44.67485" lon="5.15533">
        <ele>449</ele>
        <time>2026-09-02T17:09:16.684Z</time>
      </trkpt>
      <trkpt lat="44.67485" lon="5.15534">
        <ele>449</ele>
        <time>2026-09-02T17:09:17.684Z</time>
      </trkpt>
      <trkpt lat="44.67484" lon="5.15535">
        <ele>449</ele>
        <time>2026-09-02T17:09:18.684Z</time>
      </trkpt>
      <trkpt lat="44.67483" lon="5.15536">
        <ele>449</ele>
        <time>2026-09-02T17:09:19.684Z</time>
      </trkpt>
      <trkpt lat="44.67483" lon="5.15537">
        <ele>449</ele>
        <time>2026-09-02T17:09:20.684Z</time>
      </trkpt>
      <trkpt lat="44.67482" lon="5.15537">
        <ele>449</ele>
        <time>2026-09-02T17:09:21.684Z</time>
      </trkpt>
      <trkpt lat="44.67481" lon="5.15539">
        <ele>449</ele>
        <time>2026-09-02T17:09:22.684Z</time>
      </trkpt>
      <trkpt lat="44.67481" lon="5.15539">
        <ele>449</ele>
        <time>2026-09-02T17:09:23.684Z</time>
      </trkpt>
      <trkpt lat="44.6748" lon="5.1554">
        <ele>449</ele>
        <time>2026-09-02T17:09:24.684Z</time>
      </trkpt>
      <trkpt lat="44.6748" lon="5.1554">
        <ele>449</ele>
        <time>2026-09-02T17:09:25.684Z</time>
      </trkpt>
      <trkpt lat="44.67479" lon="5.15541">
        <ele>449</ele>
        <time>2026-09-02T17:09:26.684Z</time>
      </trkpt>
      <trkpt lat="44.67478" lon="5.15541">
        <ele>449</ele>
        <time>2026-09-02T17:09:27.684Z</time>
      </trkpt>
      <trkpt lat="44.67477" lon="5.15542">
        <ele>449</ele>
        <time>2026-09-02T17:09:28.684Z</time>
      </trkpt>
      <trkpt lat="44.67476" lon="5.15542">
        <ele>449</ele>
        <time>2026-09-02T17:09:29.684Z</time>
      </trkpt>
      <trkpt lat="44.67476" lon="5.15542">
        <ele>450</ele>
        <time>2026-09-02T17:09:30.684Z</time>
      </trkpt>
      <trkpt lat="44.67475" lon="5.15543">
        <ele>450</ele>
        <time>2026-09-02T17:09:31.684Z</time>
      </trkpt>
      <trkpt lat="44.67474" lon="5.15543">
        <ele>450</ele>
        <time>2026-09-02T17:09:32.684Z</time>
      </trkpt>
      <trkpt lat="44.67473" lon="5.15543">
        <ele>450</ele>
        <time>2026-09-02T17:09:33.684Z</time>
      </trkpt>
      <trkpt lat="44.67472" lon="5.15543">
        <ele>450</ele>
        <time>2026-09-02T17:09:34.684Z</time>
      </trkpt>
      <trkpt lat="44.67471" lon="5.15543">
        <ele>450</ele>
        <time>2026-09-02T17:09:35.684Z</time>
      </trkpt>
      <trkpt lat="44.6747" lon="5.15543">
        <ele>450</ele>
        <time>2026-09-02T17:09:36.684Z</time>
      </trkpt>
      <trkpt lat="44.67469" lon="5.15543">
        <ele>450</ele>
        <time>2026-09-02T17:09:37.684Z</time>
      </trkpt>
      <trkpt lat="44.67467" lon="5.15543">
        <ele>450</ele>
        <time>2026-09-02T17:09:38.684Z</time>
      </trkpt>
      <trkpt lat="44.67466" lon="5.15543">
        <ele>451</ele>
        <time>2026-09-02T17:09:39.684Z</time>
      </trkpt>
      <trkpt lat="44.67465" lon="5.15542">
        <ele>451</ele>
        <time>2026-09-02T17:09:40.684Z</time>
      </trkpt>
      <trkpt lat="44.67464" lon="5.15542">
        <ele>451</ele>
        <time>2026-09-02T17:09:41.684Z</time>
      </trkpt>
      <trkpt lat="44.67463" lon="5.15542">
        <ele>451</ele>
        <time>2026-09-02T17:09:42.684Z</time>
      </trkpt>
      <trkpt lat="44.67462" lon="5.15541">
        <ele>451</ele>
        <time>2026-09-02T17:09:43.684Z</time>
      </trkpt>
      <trkpt lat="44.67461" lon="5.15541">
        <ele>452</ele>
        <time>2026-09-02T17:09:44.684Z</time>
      </trkpt>
      <trkpt lat="44.6746" lon="5.1554">
        <ele>452</ele>
        <time>2026-09-02T17:09:45.684Z</time>
      </trkpt>
      <trkpt lat="44.67459" lon="5.1554">
        <ele>452</ele>
        <time>2026-09-02T17:09:46.684Z</time>
      </trkpt>
      <trkpt lat="44.67458" lon="5.15539">
        <ele>452</ele>
        <time>2026-09-02T17:09:47.684Z</time>
      </trkpt>
      <trkpt lat="44.67457" lon="5.15539">
        <ele>452</ele>
        <time>2026-09-02T17:09:48.684Z</time>
      </trkpt>
      <trkpt lat="44.67456" lon="5.15538">
        <ele>452</ele>
        <time>2026-09-02T17:09:49.684Z</time>
      </trkpt>
      <trkpt lat="44.67456" lon="5.15538">
        <ele>452</ele>
        <time>2026-09-02T17:09:50.684Z</time>
      </trkpt>
      <trkpt lat="44.67456" lon="5.15539">
        <ele>452</ele>
        <time>2026-09-02T17:09:51.684Z</time>
      </trkpt>
      <trkpt lat="44.67456" lon="5.15538">
        <ele>452</ele>
        <time>2026-09-02T17:09:52.684Z</time>
      </trkpt>
      <trkpt lat="44.67455" lon="5.15538">
        <ele>452</ele>
        <time>2026-09-02T17:09:57.791Z</time>
      </trkpt>
      <trkpt lat="44.67454" lon="5.15538">
        <ele>452</ele>
        <time>2026-09-02T17:09:58.791Z</time>
      </trkpt>
      <trkpt lat="44.67453" lon="5.15537">
        <ele>452</ele>
        <time>2026-09-02T17:09:59.791Z</time>
      </trkpt>
      <trkpt lat="44.67453" lon="5.15536">
        <ele>452</ele>
        <time>2026-09-02T17:10:00.791Z</time>
      </trkpt>
      <trkpt lat="44.67452" lon="5.15535">
        <ele>452</ele>
        <time>2026-09-02T17:10:01.791Z</time>
      </trkpt>
      <trkpt lat="44.67451" lon="5.15534">
        <ele>452</ele>
        <time>2026-09-02T17:10:02.791Z</time>
      </trkpt>
      <trkpt lat="44.6745" lon="5.15533">
        <ele>452</ele>
        <time>2026-09-02T17:10:03.791Z</time>
      </trkpt>
      <trkpt lat="44.67449" lon="5.15532">
        <ele>452</ele>
        <time>2026-09-02T17:10:04.791Z</time>
      </trkpt>
      <trkpt lat="44.67448" lon="5.15532">
        <ele>452</ele>
        <time>2026-09-02T17:10:05.791Z</time>
      </trkpt>
      <trkpt lat="44.67447" lon="5.15531">
        <ele>453</ele>
        <time>2026-09-02T17:10:06.791Z</time>
      </trkpt>
      <trkpt lat="44.67446" lon="5.1553">
        <ele>453</ele>
        <time>2026-09-02T17:10:07.791Z</time>
      </trkpt>
      <trkpt lat="44.67445" lon="5.1553">
        <ele>453</ele>
        <time>2026-09-02T17:10:08.791Z</time>
      </trkpt>
      <trkpt lat="44.67444" lon="5.15529">
        <ele>453</ele>
        <time>2026-09-02T17:10:09.791Z</time>
      </trkpt>
      <trkpt lat="44.67443" lon="5.15529">
        <ele>453</ele>
        <time>2026-09-02T17:10:10.791Z</time>
      </trkpt>
      <trkpt lat="44.67443" lon="5.15528">
        <ele>453</ele>
        <time>2026-09-02T17:10:11.791Z</time>
      </trkpt>
      <trkpt lat="44.67442" lon="5.15528">
        <ele>453</ele>
        <time>2026-09-02T17:10:12.791Z</time>
      </trkpt>
      <trkpt lat="44.67441" lon="5.15527">
        <ele>453</ele>
        <time>2026-09-02T17:10:13.791Z</time>
      </trkpt>
      <trkpt lat="44.6744" lon="5.15527">
        <ele>453</ele>
        <time>2026-09-02T17:10:14.791Z</time>
      </trkpt>
      <trkpt lat="44.67439" lon="5.15526">
        <ele>452</ele>
        <time>2026-09-02T17:10:15.791Z</time>
      </trkpt>
      <trkpt lat="44.67438" lon="5.15526">
        <ele>452</ele>
        <time>2026-09-02T17:10:16.791Z</time>
      </trkpt>
      <trkpt lat="44.67437" lon="5.15525">
        <ele>452</ele>
        <time>2026-09-02T17:10:17.791Z</time>
      </trkpt>
      <trkpt lat="44.67436" lon="5.15524">
        <ele>452</ele>
        <time>2026-09-02T17:10:18.791Z</time>
      </trkpt>
      <trkpt lat="44.67435" lon="5.15524">
        <ele>452</ele>
        <time>2026-09-02T17:10:19.791Z</time>
      </trkpt>
      <trkpt lat="44.67434" lon="5.15523">
        <ele>452</ele>
        <time>2026-09-02T17:10:20.791Z</time>
      </trkpt>
      <trkpt lat="44.67433" lon="5.15523">
        <ele>453</ele>
        <time>2026-09-02T17:10:21.791Z</time>
      </trkpt>
      <trkpt lat="44.67432" lon="5.15522">
        <ele>453</ele>
        <time>2026-09-02T17:10:22.791Z</time>
      </trkpt>
      <trkpt lat="44.67431" lon="5.15522">
        <ele>453</ele>
        <time>2026-09-02T17:10:23.791Z</time>
      </trkpt>
      <trkpt lat="44.67429" lon="5.15522">
        <ele>453</ele>
        <time>2026-09-02T17:10:24.791Z</time>
      </trkpt>
      <trkpt lat="44.67428" lon="5.15521">
        <ele>453</ele>
        <time>2026-09-02T17:10:25.791Z</time>
      </trkpt>
      <trkpt lat="44.67427" lon="5.15521">
        <ele>453</ele>
        <time>2026-09-02T17:10:26.791Z</time>
      </trkpt>
      <trkpt lat="44.67426" lon="5.1552">
        <ele>453</ele>
        <time>2026-09-02T17:10:27.791Z</time>
      </trkpt>
      <trkpt lat="44.67425" lon="5.15519">
        <ele>453</ele>
        <time>2026-09-02T17:10:28.791Z</time>
      </trkpt>
      <trkpt lat="44.67423" lon="5.15519">
        <ele>453</ele>
        <time>2026-09-02T17:10:29.791Z</time>
      </trkpt>
      <trkpt lat="44.67422" lon="5.15518">
        <ele>453</ele>
        <time>2026-09-02T17:10:30.791Z</time>
      </trkpt>
      <trkpt lat="44.67421" lon="5.15518">
        <ele>453</ele>
        <time>2026-09-02T17:10:31.791Z</time>
      </trkpt>
      <trkpt lat="44.6742" lon="5.15517">
        <ele>453</ele>
        <time>2026-09-02T17:10:32.791Z</time>
      </trkpt>
      <trkpt lat="44.67419" lon="5.15517">
        <ele>454</ele>
        <time>2026-09-02T17:10:33.791Z</time>
      </trkpt>
      <trkpt lat="44.67418" lon="5.15516">
        <ele>454</ele>
        <time>2026-09-02T17:10:34.791Z</time>
      </trkpt>
      <trkpt lat="44.67417" lon="5.15516">
        <ele>454</ele>
        <time>2026-09-02T17:10:35.791Z</time>
      </trkpt>
      <trkpt lat="44.67416" lon="5.15516">
        <ele>454</ele>
        <time>2026-09-02T17:10:36.791Z</time>
      </trkpt>
      <trkpt lat="44.67414" lon="5.15515">
        <ele>454</ele>
        <time>2026-09-02T17:10:37.791Z</time>
      </trkpt>
      <trkpt lat="44.67413" lon="5.15515">
        <ele>454</ele>
        <time>2026-09-02T17:10:38.791Z</time>
      </trkpt>
      <trkpt lat="44.67412" lon="5.15514">
        <ele>454</ele>
        <time>2026-09-02T17:10:39.791Z</time>
      </trkpt>
      <trkpt lat="44.67411" lon="5.15514">
        <ele>454</ele>
        <time>2026-09-02T17:10:40.791Z</time>
      </trkpt>
      <trkpt lat="44.6741" lon="5.15514">
        <ele>454</ele>
        <time>2026-09-02T17:10:41.791Z</time>
      </trkpt>
      <trkpt lat="44.67409" lon="5.15514">
        <ele>454</ele>
        <time>2026-09-02T17:10:42.791Z</time>
      </trkpt>
      <trkpt lat="44.67408" lon="5.15513">
        <ele>455</ele>
        <time>2026-09-02T17:10:43.791Z</time>
      </trkpt>
      <trkpt lat="44.67407" lon="5.15512">
        <ele>455</ele>
        <time>2026-09-02T17:10:44.791Z</time>
      </trkpt>
      <trkpt lat="44.67406" lon="5.15512">
        <ele>455</ele>
        <time>2026-09-02T17:10:45.791Z</time>
      </trkpt>
      <trkpt lat="44.67406" lon="5.15512">
        <ele>455</ele>
        <time>2026-09-02T17:10:46.791Z</time>
      </trkpt>
      <trkpt lat="44.67405" lon="5.15512">
        <ele>455</ele>
        <time>2026-09-02T17:10:47.791Z</time>
      </trkpt>
      <trkpt lat="44.67404" lon="5.15512">
        <ele>455</ele>
        <time>2026-09-02T17:10:48.791Z</time>
      </trkpt>
      <trkpt lat="44.67403" lon="5.15512">
        <ele>455</ele>
        <time>2026-09-02T17:10:49.791Z</time>
      </trkpt>
      <trkpt lat="44.67402" lon="5.15512">
        <ele>455</ele>
        <time>2026-09-02T17:10:50.791Z</time>
      </trkpt>
      <trkpt lat="44.67401" lon="5.15512">
        <ele>455</ele>
        <time>2026-09-02T17:10:51.791Z</time>
      </trkpt>
      <trkpt lat="44.674" lon="5.15512">
        <ele>455</ele>
        <time>2026-09-02T17:10:52.791Z</time>
      </trkpt>
      <trkpt lat="44.67399" lon="5.15512">
        <ele>455</ele>
        <time>2026-09-02T17:10:53.791Z</time>
      </trkpt>
      <trkpt lat="44.67398" lon="5.15512">
        <ele>455</ele>
        <time>2026-09-02T17:10:54.791Z</time>
      </trkpt>
      <trkpt lat="44.67397" lon="5.15513">
        <ele>455</ele>
        <time>2026-09-02T17:10:55.791Z</time>
      </trkpt>
      <trkpt lat="44.67396" lon="5.15513">
        <ele>455</ele>
        <time>2026-09-02T17:10:56.791Z</time>
      </trkpt>
      <trkpt lat="44.67395" lon="5.15513">
        <ele>455</ele>
        <time>2026-09-02T17:10:57.791Z</time>
      </trkpt>
      <trkpt lat="44.67394" lon="5.15514">
        <ele>455</ele>
        <time>2026-09-02T17:10:58.791Z</time>
      </trkpt>
      <trkpt lat="44.67393" lon="5.15514">
        <ele>455</ele>
        <time>2026-09-02T17:10:59.791Z</time>
      </trkpt>
      <trkpt lat="44.67392" lon="5.15515">
        <ele>455</ele>
        <time>2026-09-02T17:11:00.791Z</time>
      </trkpt>
      <trkpt lat="44.67391" lon="5.15515">
        <ele>455</ele>
        <time>2026-09-02T17:11:01.791Z</time>
      </trkpt>
      <trkpt lat="44.6739" lon="5.15515">
        <ele>455</ele>
        <time>2026-09-02T17:11:02.791Z</time>
      </trkpt>
      <trkpt lat="44.67389" lon="5.15516">
        <ele>455</ele>
        <time>2026-09-02T17:11:03.791Z</time>
      </trkpt>
      <trkpt lat="44.67388" lon="5.15516">
        <ele>455</ele>
        <time>2026-09-02T17:11:04.791Z</time>
      </trkpt>
      <trkpt lat="44.67388" lon="5.15516">
        <ele>455</ele>
        <time>2026-09-02T17:11:05.791Z</time>
      </trkpt>
      <trkpt lat="44.67388" lon="5.15516">
        <ele>455</ele>
        <time>2026-09-02T17:11:06.791Z</time>
      </trkpt>
      <trkpt lat="44.67387" lon="5.15517">
        <ele>455</ele>
        <time>2026-09-02T17:11:07.791Z</time>
      </trkpt>
      <trkpt lat="44.67386" lon="5.15517">
        <ele>456</ele>
        <time>2026-09-02T17:11:08.791Z</time>
      </trkpt>
      <trkpt lat="44.67386" lon="5.15517">
        <ele>456</ele>
        <time>2026-09-02T17:11:09.791Z</time>
      </trkpt>
      <trkpt lat="44.67385" lon="5.15518">
        <ele>456</ele>
        <time>2026-09-02T17:11:10.791Z</time>
      </trkpt>
      <trkpt lat="44.67384" lon="5.15518">
        <ele>456</ele>
        <time>2026-09-02T17:11:11.791Z</time>
      </trkpt>
      <trkpt lat="44.67383" lon="5.15519">
        <ele>456</ele>
        <time>2026-09-02T17:11:12.791Z</time>
      </trkpt>
      <trkpt lat="44.67382" lon="5.15519">
        <ele>456</ele>
        <time>2026-09-02T17:11:13.791Z</time>
      </trkpt>
      <trkpt lat="44.67381" lon="5.1552">
        <ele>456</ele>
        <time>2026-09-02T17:11:14.791Z</time>
      </trkpt>
      <trkpt lat="44.67381" lon="5.15521">
        <ele>456</ele>
        <time>2026-09-02T17:11:15.791Z</time>
      </trkpt>
      <trkpt lat="44.6738" lon="5.15522">
        <ele>457</ele>
        <time>2026-09-02T17:11:16.791Z</time>
      </trkpt>
      <trkpt lat="44.67379" lon="5.15523">
        <ele>457</ele>
        <time>2026-09-02T17:11:17.791Z</time>
      </trkpt>
      <trkpt lat="44.67379" lon="5.15524">
        <ele>457</ele>
        <time>2026-09-02T17:11:18.791Z</time>
      </trkpt>
      <trkpt lat="44.67378" lon="5.15524">
        <ele>457</ele>
        <time>2026-09-02T17:11:19.791Z</time>
      </trkpt>
      <trkpt lat="44.67377" lon="5.15525">
        <ele>457</ele>
        <time>2026-09-02T17:11:20.791Z</time>
      </trkpt>
      <trkpt lat="44.67376" lon="5.15525">
        <ele>457</ele>
        <time>2026-09-02T17:11:21.791Z</time>
      </trkpt>
      <trkpt lat="44.67375" lon="5.15526">
        <ele>457</ele>
        <time>2026-09-02T17:11:22.791Z</time>
      </trkpt>
      <trkpt lat="44.67374" lon="5.15526">
        <ele>457</ele>
        <time>2026-09-02T17:11:23.791Z</time>
      </trkpt>
      <trkpt lat="44.67374" lon="5.15527">
        <ele>457</ele>
        <time>2026-09-02T17:11:24.791Z</time>
      </trkpt>
      <trkpt lat="44.67373" lon="5.15528">
        <ele>458</ele>
        <time>2026-09-02T17:11:25.791Z</time>
      </trkpt>
      <trkpt lat="44.67372" lon="5.15529">
        <ele>458</ele>
        <time>2026-09-02T17:11:26.791Z</time>
      </trkpt>
      <trkpt lat="44.67371" lon="5.1553">
        <ele>458</ele>
        <time>2026-09-02T17:11:27.791Z</time>
      </trkpt>
      <trkpt lat="44.67371" lon="5.15531">
        <ele>458</ele>
        <time>2026-09-02T17:11:28.791Z</time>
      </trkpt>
      <trkpt lat="44.6737" lon="5.15532">
        <ele>458</ele>
        <time>2026-09-02T17:11:29.791Z</time>
      </trkpt>
      <trkpt lat="44.67369" lon="5.15534">
        <ele>458</ele>
        <time>2026-09-02T17:11:30.791Z</time>
      </trkpt>
      <trkpt lat="44.67368" lon="5.15535">
        <ele>458</ele>
        <time>2026-09-02T17:11:31.791Z</time>
      </trkpt>
      <trkpt lat="44.67367" lon="5.15536">
        <ele>458</ele>
        <time>2026-09-02T17:11:32.791Z</time>
      </trkpt>
      <trkpt lat="44.67367" lon="5.15537">
        <ele>458</ele>
        <time>2026-09-02T17:11:33.791Z</time>
      </trkpt>
      <trkpt lat="44.67366" lon="5.15538">
        <ele>458</ele>
        <time>2026-09-02T17:11:34.791Z</time>
      </trkpt>
      <trkpt lat="44.67365" lon="5.15539">
        <ele>458</ele>
        <time>2026-09-02T17:11:35.791Z</time>
      </trkpt>
      <trkpt lat="44.67364" lon="5.1554">
        <ele>458</ele>
        <time>2026-09-02T17:11:36.791Z</time>
      </trkpt>
      <trkpt lat="44.67363" lon="5.15541">
        <ele>458</ele>
        <time>2026-09-02T17:11:37.791Z</time>
      </trkpt>
      <trkpt lat="44.67362" lon="5.15542">
        <ele>458</ele>
        <time>2026-09-02T17:11:38.791Z</time>
      </trkpt>
      <trkpt lat="44.67361" lon="5.15543">
        <ele>458</ele>
        <time>2026-09-02T17:11:39.791Z</time>
      </trkpt>
      <trkpt lat="44.67361" lon="5.15543">
        <ele>458</ele>
        <time>2026-09-02T17:11:40.791Z</time>
      </trkpt>
      <trkpt lat="44.6736" lon="5.15544">
        <ele>458</ele>
        <time>2026-09-02T17:11:41.791Z</time>
      </trkpt>
      <trkpt lat="44.67358" lon="5.15545">
        <ele>458</ele>
        <time>2026-09-02T17:11:42.791Z</time>
      </trkpt>
      <trkpt lat="44.67358" lon="5.15546">
        <ele>458</ele>
        <time>2026-09-02T17:11:43.791Z</time>
      </trkpt>
      <trkpt lat="44.67357" lon="5.15546">
        <ele>458</ele>
        <time>2026-09-02T17:11:44.791Z</time>
      </trkpt>
      <trkpt lat="44.67356" lon="5.15547">
        <ele>458</ele>
        <time>2026-09-02T17:11:45.791Z</time>
      </trkpt>
      <trkpt lat="44.67355" lon="5.15548">
        <ele>458</ele>
        <time>2026-09-02T17:11:46.791Z</time>
      </trkpt>
      <trkpt lat="44.67354" lon="5.15549">
        <ele>458</ele>
        <time>2026-09-02T17:11:47.791Z</time>
      </trkpt>
      <trkpt lat="44.67353" lon="5.1555">
        <ele>459</ele>
        <time>2026-09-02T17:11:48.791Z</time>
      </trkpt>
      <trkpt lat="44.67352" lon="5.1555">
        <ele>459</ele>
        <time>2026-09-02T17:11:49.791Z</time>
      </trkpt>
      <trkpt lat="44.67351" lon="5.15551">
        <ele>459</ele>
        <time>2026-09-02T17:11:50.791Z</time>
      </trkpt>
      <trkpt lat="44.6735" lon="5.15551">
        <ele>459</ele>
        <time>2026-09-02T17:11:51.791Z</time>
      </trkpt>
      <trkpt lat="44.67349" lon="5.15552">
        <ele>459</ele>
        <time>2026-09-02T17:11:52.791Z</time>
      </trkpt>
      <trkpt lat="44.67348" lon="5.15552">
        <ele>459</ele>
        <time>2026-09-02T17:11:53.791Z</time>
      </trkpt>
      <trkpt lat="44.67347" lon="5.15552">
        <ele>459</ele>
        <time>2026-09-02T17:11:54.791Z</time>
      </trkpt>
      <trkpt lat="44.67346" lon="5.15552">
        <ele>459</ele>
        <time>2026-09-02T17:11:55.791Z</time>
      </trkpt>
      <trkpt lat="44.67345" lon="5.15552">
        <ele>460</ele>
        <time>2026-09-02T17:11:56.791Z</time>
      </trkpt>
      <trkpt lat="44.67343" lon="5.15552">
        <ele>460</ele>
        <time>2026-09-02T17:11:57.791Z</time>
      </trkpt>
      <trkpt lat="44.67342" lon="5.15552">
        <ele>460</ele>
        <time>2026-09-02T17:11:58.791Z</time>
      </trkpt>
      <trkpt lat="44.67341" lon="5.15553">
        <ele>461</ele>
        <time>2026-09-02T17:11:59.791Z</time>
      </trkpt>
      <trkpt lat="44.6734" lon="5.15553">
        <ele>461</ele>
        <time>2026-09-02T17:12:00.791Z</time>
      </trkpt>
      <trkpt lat="44.67339" lon="5.15553">
        <ele>461</ele>
        <time>2026-09-02T17:12:01.791Z</time>
      </trkpt>
      <trkpt lat="44.67338" lon="5.15553">
        <ele>461</ele>
        <time>2026-09-02T17:12:02.791Z</time>
      </trkpt>
      <trkpt lat="44.67337" lon="5.15553">
        <ele>461</ele>
        <time>2026-09-02T17:12:03.791Z</time>
      </trkpt>
      <trkpt lat="44.67336" lon="5.15553">
        <ele>461</ele>
        <time>2026-09-02T17:12:04.791Z</time>
      </trkpt>
      <trkpt lat="44.67335" lon="5.15553">
        <ele>462</ele>
        <time>2026-09-02T17:12:05.791Z</time>
      </trkpt>
      <trkpt lat="44.67334" lon="5.15554">
        <ele>462</ele>
        <time>2026-09-02T17:12:06.791Z</time>
      </trkpt>
      <trkpt lat="44.67333" lon="5.15555">
        <ele>462</ele>
        <time>2026-09-02T17:12:07.791Z</time>
      </trkpt>
      <trkpt lat="44.67332" lon="5.15556">
        <ele>462</ele>
        <time>2026-09-02T17:12:08.791Z</time>
      </trkpt>
      <trkpt lat="44.67331" lon="5.15557">
        <ele>462</ele>
        <time>2026-09-02T17:12:09.791Z</time>
      </trkpt>
      <trkpt lat="44.6733" lon="5.15557">
        <ele>462</ele>
        <time>2026-09-02T17:12:10.791Z</time>
      </trkpt>
      <trkpt lat="44.67329" lon="5.15559">
        <ele>462</ele>
        <time>2026-09-02T17:12:11.791Z</time>
      </trkpt>
      <trkpt lat="44.67328" lon="5.1556">
        <ele>462</ele>
        <time>2026-09-02T17:12:12.791Z</time>
      </trkpt>
      <trkpt lat="44.67328" lon="5.15561">
        <ele>463</ele>
        <time>2026-09-02T17:12:13.791Z</time>
      </trkpt>
      <trkpt lat="44.67327" lon="5.15563">
        <ele>463</ele>
        <time>2026-09-02T17:12:14.791Z</time>
      </trkpt>
      <trkpt lat="44.67327" lon="5.15563">
        <ele>463</ele>
        <time>2026-09-02T17:12:15.791Z</time>
      </trkpt>
      <trkpt lat="44.67327" lon="5.15564">
        <ele>463</ele>
        <time>2026-09-02T17:12:16.791Z</time>
      </trkpt>
      <trkpt lat="44.67327" lon="5.15564">
        <ele>463</ele>
        <time>2026-09-02T17:12:17.791Z</time>
      </trkpt>
      <trkpt lat="44.67327" lon="5.15564">
        <ele>463</ele>
        <time>2026-09-02T17:12:18.791Z</time>
      </trkpt>
      <trkpt lat="44.67327" lon="5.15567">
        <ele>464</ele>
        <time>2026-09-02T17:12:33.804Z</time>
      </trkpt>
      <trkpt lat="44.67327" lon="5.15567">
        <ele>464</ele>
        <time>2026-09-02T17:12:34.804Z</time>
      </trkpt>
      <trkpt lat="44.67327" lon="5.15569">
        <ele>465</ele>
        <time>2026-09-02T17:12:38.801Z</time>
      </trkpt>
      <trkpt lat="44.67327" lon="5.1557">
        <ele>465</ele>
        <time>2026-09-02T17:12:39.801Z</time>
      </trkpt>
      <trkpt lat="44.67327" lon="5.15571">
        <ele>465</ele>
        <time>2026-09-02T17:12:40.801Z</time>
      </trkpt>
      <trkpt lat="44.67326" lon="5.15572">
        <ele>465</ele>
        <time>2026-09-02T17:12:41.801Z</time>
      </trkpt>
      <trkpt lat="44.67326" lon="5.15573">
        <ele>466</ele>
        <time>2026-09-02T17:12:42.801Z</time>
      </trkpt>
      <trkpt lat="44.67326" lon="5.15574">
        <ele>466</ele>
        <time>2026-09-02T17:12:43.801Z</time>
      </trkpt>
      <trkpt lat="44.67325" lon="5.15575">
        <ele>466</ele>
        <time>2026-09-02T17:12:44.801Z</time>
      </trkpt>
      <trkpt lat="44.67325" lon="5.15577">
        <ele>466</ele>
        <time>2026-09-02T17:12:45.801Z</time>
      </trkpt>
      <trkpt lat="44.67325" lon="5.15578">
        <ele>466</ele>
        <time>2026-09-02T17:12:46.801Z</time>
      </trkpt>
      <trkpt lat="44.67326" lon="5.15579">
        <ele>466</ele>
        <time>2026-09-02T17:12:47.801Z</time>
      </trkpt>
      <trkpt lat="44.67325" lon="5.15581">
        <ele>466</ele>
        <time>2026-09-02T17:12:48.801Z</time>
      </trkpt>
      <trkpt lat="44.67325" lon="5.15582">
        <ele>466</ele>
        <time>2026-09-02T17:12:49.801Z</time>
      </trkpt>
      <trkpt lat="44.67325" lon="5.15583">
        <ele>466</ele>
        <time>2026-09-02T17:12:50.801Z</time>
      </trkpt>
      <trkpt lat="44.67325" lon="5.15584">
        <ele>466</ele>
        <time>2026-09-02T17:12:51.801Z</time>
      </trkpt>
      <trkpt lat="44.67325" lon="5.15586">
        <ele>466</ele>
        <time>2026-09-02T17:12:52.801Z</time>
      </trkpt>
      <trkpt lat="44.67324" lon="5.15587">
        <ele>466</ele>
        <time>2026-09-02T17:12:53.801Z</time>
      </trkpt>
      <trkpt lat="44.67325" lon="5.15588">
        <ele>467</ele>
        <time>2026-09-02T17:12:54.801Z</time>
      </trkpt>
      <trkpt lat="44.67325" lon="5.1559">
        <ele>467</ele>
        <time>2026-09-02T17:12:55.801Z</time>
      </trkpt>
      <trkpt lat="44.67324" lon="5.15591">
        <ele>467</ele>
        <time>2026-09-02T17:12:56.801Z</time>
      </trkpt>
      <trkpt lat="44.67324" lon="5.15593">
        <ele>467</ele>
        <time>2026-09-02T17:12:57.801Z</time>
      </trkpt>
      <trkpt lat="44.67325" lon="5.15594">
        <ele>467</ele>
        <time>2026-09-02T17:12:58.801Z</time>
      </trkpt>
      <trkpt lat="44.67325" lon="5.15596">
        <ele>467</ele>
        <time>2026-09-02T17:12:59.801Z</time>
      </trkpt>
      <trkpt lat="44.67325" lon="5.15598">
        <ele>467</ele>
        <time>2026-09-02T17:13:00.801Z</time>
      </trkpt>
      <trkpt lat="44.67325" lon="5.15599">
        <ele>467</ele>
        <time>2026-09-02T17:13:01.801Z</time>
      </trkpt>
      <trkpt lat="44.67325" lon="5.15601">
        <ele>467</ele>
        <time>2026-09-02T17:13:02.801Z</time>
      </trkpt>
      <trkpt lat="44.67325" lon="5.15603">
        <ele>467</ele>
        <time>2026-09-02T17:13:03.801Z</time>
      </trkpt>
      <trkpt lat="44.67325" lon="5.15605">
        <ele>467</ele>
        <time>2026-09-02T17:13:04.801Z</time>
      </trkpt>
      <trkpt lat="44.67325" lon="5.15606">
        <ele>468</ele>
        <time>2026-09-02T17:13:05.801Z</time>
      </trkpt>
      <trkpt lat="44.67326" lon="5.15608">
        <ele>468</ele>
        <time>2026-09-02T17:13:06.801Z</time>
      </trkpt>
      <trkpt lat="44.67326" lon="5.15609">
        <ele>468</ele>
        <time>2026-09-02T17:13:07.801Z</time>
      </trkpt>
      <trkpt lat="44.67326" lon="5.15611">
        <ele>468</ele>
        <time>2026-09-02T17:13:08.801Z</time>
      </trkpt>
      <trkpt lat="44.67327" lon="5.15614">
        <ele>468</ele>
        <time>2026-09-02T17:13:09.801Z</time>
      </trkpt>
      <trkpt lat="44.67327" lon="5.15615">
        <ele>468</ele>
        <time>2026-09-02T17:13:10.801Z</time>
      </trkpt>
      <trkpt lat="44.67327" lon="5.15617">
        <ele>468</ele>
        <time>2026-09-02T17:13:11.801Z</time>
      </trkpt>
      <trkpt lat="44.67328" lon="5.15619">
        <ele>468</ele>
        <time>2026-09-02T17:13:12.801Z</time>
      </trkpt>
      <trkpt lat="44.67328" lon="5.15621">
        <ele>468</ele>
        <time>2026-09-02T17:13:13.801Z</time>
      </trkpt>
      <trkpt lat="44.67329" lon="5.15623">
        <ele>468</ele>
        <time>2026-09-02T17:13:14.801Z</time>
      </trkpt>
      <trkpt lat="44.67329" lon="5.15624">
        <ele>468</ele>
        <time>2026-09-02T17:13:15.801Z</time>
      </trkpt>
      <trkpt lat="44.6733" lon="5.15626">
        <ele>468</ele>
        <time>2026-09-02T17:13:16.801Z</time>
      </trkpt>
      <trkpt lat="44.6733" lon="5.15628">
        <ele>468</ele>
        <time>2026-09-02T17:13:17.801Z</time>
      </trkpt>
      <trkpt lat="44.67331" lon="5.1563">
        <ele>468</ele>
        <time>2026-09-02T17:13:18.801Z</time>
      </trkpt>
      <trkpt lat="44.67331" lon="5.15631">
        <ele>468</ele>
        <time>2026-09-02T17:13:19.801Z</time>
      </trkpt>
      <trkpt lat="44.67332" lon="5.15633">
        <ele>468</ele>
        <time>2026-09-02T17:13:20.801Z</time>
      </trkpt>
      <trkpt lat="44.67332" lon="5.15634">
        <ele>468</ele>
        <time>2026-09-02T17:13:21.801Z</time>
      </trkpt>
      <trkpt lat="44.67333" lon="5.15635">
        <ele>468</ele>
        <time>2026-09-02T17:13:22.801Z</time>
      </trkpt>
      <trkpt lat="44.67334" lon="5.15636">
        <ele>468</ele>
        <time>2026-09-02T17:13:23.801Z</time>
      </trkpt>
      <trkpt lat="44.67334" lon="5.15637">
        <ele>468</ele>
        <time>2026-09-02T17:13:24.801Z</time>
      </trkpt>
      <trkpt lat="44.67334" lon="5.15637">
        <ele>468</ele>
        <time>2026-09-02T17:13:25.801Z</time>
      </trkpt>
      <trkpt lat="44.67335" lon="5.15638">
        <ele>468</ele>
        <time>2026-09-02T17:13:26.801Z</time>
      </trkpt>
      <trkpt lat="44.67335" lon="5.15639">
        <ele>468</ele>
        <time>2026-09-02T17:13:27.801Z</time>
      </trkpt>
      <trkpt lat="44.67336" lon="5.1564">
        <ele>468</ele>
        <time>2026-09-02T17:13:28.801Z</time>
      </trkpt>
      <trkpt lat="44.67336" lon="5.15642">
        <ele>468</ele>
        <time>2026-09-02T17:13:29.801Z</time>
      </trkpt>
      <trkpt lat="44.67337" lon="5.15643">
        <ele>468</ele>
        <time>2026-09-02T17:13:30.801Z</time>
      </trkpt>
      <trkpt lat="44.67337" lon="5.15645">
        <ele>468</ele>
        <time>2026-09-02T17:13:31.801Z</time>
      </trkpt>
      <trkpt lat="44.67337" lon="5.15647">
        <ele>468</ele>
        <time>2026-09-02T17:13:32.801Z</time>
      </trkpt>
      <trkpt lat="44.67337" lon="5.15648">
        <ele>468</ele>
        <time>2026-09-02T17:13:33.801Z</time>
      </trkpt>
      <trkpt lat="44.67337" lon="5.15649">
        <ele>468</ele>
        <time>2026-09-02T17:13:34.801Z</time>
      </trkpt>
      <trkpt lat="44.67337" lon="5.1565">
        <ele>468</ele>
        <time>2026-09-02T17:13:35.801Z</time>
      </trkpt>
      <trkpt lat="44.67337" lon="5.15651">
        <ele>468</ele>
        <time>2026-09-02T17:13:36.801Z</time>
      </trkpt>
      <trkpt lat="44.67337" lon="5.15651">
        <ele>468</ele>
        <time>2026-09-02T17:13:37.801Z</time>
      </trkpt>
      <trkpt lat="44.67338" lon="5.15651">
        <ele>468</ele>
        <time>2026-09-02T17:13:38.801Z</time>
      </trkpt>
      <trkpt lat="44.67338" lon="5.15651">
        <ele>468</ele>
        <time>2026-09-02T17:13:39.801Z</time>
      </trkpt>
      <trkpt lat="44.67338" lon="5.15654">
        <ele>468</ele>
        <time>2026-09-02T17:13:43.085Z</time>
      </trkpt>
      <trkpt lat="44.67339" lon="5.15656">
        <ele>468</ele>
        <time>2026-09-02T17:13:44.085Z</time>
      </trkpt>
      <trkpt lat="44.67339" lon="5.15657">
        <ele>468</ele>
        <time>2026-09-02T17:13:45.085Z</time>
      </trkpt>
      <trkpt lat="44.67339" lon="5.15659">
        <ele>468</ele>
        <time>2026-09-02T17:13:46.085Z</time>
      </trkpt>
      <trkpt lat="44.67339" lon="5.1566">
        <ele>469</ele>
        <time>2026-09-02T17:13:47.085Z</time>
      </trkpt>
      <trkpt lat="44.6734" lon="5.15662">
        <ele>469</ele>
        <time>2026-09-02T17:13:48.085Z</time>
      </trkpt>
      <trkpt lat="44.6734" lon="5.15663">
        <ele>469</ele>
        <time>2026-09-02T17:13:49.085Z</time>
      </trkpt>
      <trkpt lat="44.6734" lon="5.15664">
        <ele>469</ele>
        <time>2026-09-02T17:13:50.085Z</time>
      </trkpt>
      <trkpt lat="44.6734" lon="5.15666">
        <ele>469</ele>
        <time>2026-09-02T17:13:51.085Z</time>
      </trkpt>
      <trkpt lat="44.6734" lon="5.15667">
        <ele>469</ele>
        <time>2026-09-02T17:13:52.085Z</time>
      </trkpt>
      <trkpt lat="44.6734" lon="5.15668">
        <ele>469</ele>
        <time>2026-09-02T17:13:53.085Z</time>
      </trkpt>
      <trkpt lat="44.6734" lon="5.15669">
        <ele>469</ele>
        <time>2026-09-02T17:13:54.085Z</time>
      </trkpt>
      <trkpt lat="44.6734" lon="5.15671">
        <ele>469</ele>
        <time>2026-09-02T17:13:55.085Z</time>
      </trkpt>
      <trkpt lat="44.6734" lon="5.15672">
        <ele>469</ele>
        <time>2026-09-02T17:13:56.085Z</time>
      </trkpt>
      <trkpt lat="44.67341" lon="5.15673">
        <ele>469</ele>
        <time>2026-09-02T17:13:57.085Z</time>
      </trkpt>
      <trkpt lat="44.67341" lon="5.15675">
        <ele>469</ele>
        <time>2026-09-02T17:13:58.085Z</time>
      </trkpt>
      <trkpt lat="44.67341" lon="5.15677">
        <ele>469</ele>
        <time>2026-09-02T17:13:59.085Z</time>
      </trkpt>
      <trkpt lat="44.67341" lon="5.15678">
        <ele>469</ele>
        <time>2026-09-02T17:14:00.085Z</time>
      </trkpt>
      <trkpt lat="44.67341" lon="5.15679">
        <ele>469</ele>
        <time>2026-09-02T17:14:01.085Z</time>
      </trkpt>
      <trkpt lat="44.67341" lon="5.15681">
        <ele>469</ele>
        <time>2026-09-02T17:14:02.085Z</time>
      </trkpt>
      <trkpt lat="44.67341" lon="5.15682">
        <ele>469</ele>
        <time>2026-09-02T17:14:03.085Z</time>
      </trkpt>
      <trkpt lat="44.67341" lon="5.15684">
        <ele>469</ele>
        <time>2026-09-02T17:14:04.085Z</time>
      </trkpt>
      <trkpt lat="44.67341" lon="5.15685">
        <ele>469</ele>
        <time>2026-09-02T17:14:05.085Z</time>
      </trkpt>
      <trkpt lat="44.67341" lon="5.15686">
        <ele>469</ele>
        <time>2026-09-02T17:14:06.085Z</time>
      </trkpt>
      <trkpt lat="44.67341" lon="5.15687">
        <ele>469</ele>
        <time>2026-09-02T17:14:07.085Z</time>
      </trkpt>
      <trkpt lat="44.67341" lon="5.15689">
        <ele>469</ele>
        <time>2026-09-02T17:14:08.085Z</time>
      </trkpt>
      <trkpt lat="44.67341" lon="5.1569">
        <ele>469</ele>
        <time>2026-09-02T17:14:09.085Z</time>
      </trkpt>
      <trkpt lat="44.67342" lon="5.15692">
        <ele>469</ele>
        <time>2026-09-02T17:14:10.085Z</time>
      </trkpt>
      <trkpt lat="44.67342" lon="5.15694">
        <ele>469</ele>
        <time>2026-09-02T17:14:11.085Z</time>
      </trkpt>
      <trkpt lat="44.67342" lon="5.15695">
        <ele>470</ele>
        <time>2026-09-02T17:14:12.085Z</time>
      </trkpt>
      <trkpt lat="44.67342" lon="5.15696">
        <ele>470</ele>
        <time>2026-09-02T17:14:13.085Z</time>
      </trkpt>
      <trkpt lat="44.67342" lon="5.15698">
        <ele>470</ele>
        <time>2026-09-02T17:14:14.085Z</time>
      </trkpt>
      <trkpt lat="44.67342" lon="5.157">
        <ele>470</ele>
        <time>2026-09-02T17:14:15.085Z</time>
      </trkpt>
      <trkpt lat="44.67343" lon="5.15701">
        <ele>470</ele>
        <time>2026-09-02T17:14:16.085Z</time>
      </trkpt>
      <trkpt lat="44.67343" lon="5.15702">
        <ele>470</ele>
        <time>2026-09-02T17:14:17.085Z</time>
      </trkpt>
      <trkpt lat="44.67344" lon="5.15704">
        <ele>470</ele>
        <time>2026-09-02T17:14:18.085Z</time>
      </trkpt>
      <trkpt lat="44.67344" lon="5.15705">
        <ele>470</ele>
        <time>2026-09-02T17:14:19.085Z</time>
      </trkpt>
      <trkpt lat="44.67344" lon="5.15707">
        <ele>470</ele>
        <time>2026-09-02T17:14:20.085Z</time>
      </trkpt>
      <trkpt lat="44.67344" lon="5.15708">
        <ele>470</ele>
        <time>2026-09-02T17:14:21.085Z</time>
      </trkpt>
      <trkpt lat="44.67345" lon="5.1571">
        <ele>470</ele>
        <time>2026-09-02T17:14:22.085Z</time>
      </trkpt>
      <trkpt lat="44.67345" lon="5.15712">
        <ele>470</ele>
        <time>2026-09-02T17:14:23.085Z</time>
      </trkpt>
      <trkpt lat="44.67346" lon="5.15713">
        <ele>470</ele>
        <time>2026-09-02T17:14:24.085Z</time>
      </trkpt>
      <trkpt lat="44.67346" lon="5.15714">
        <ele>470</ele>
        <time>2026-09-02T17:14:25.085Z</time>
      </trkpt>
      <trkpt lat="44.67347" lon="5.15716">
        <ele>470</ele>
        <time>2026-09-02T17:14:26.085Z</time>
      </trkpt>
      <trkpt lat="44.67347" lon="5.15717">
        <ele>470</ele>
        <time>2026-09-02T17:14:27.085Z</time>
      </trkpt>
      <trkpt lat="44.67347" lon="5.15718">
        <ele>470</ele>
        <time>2026-09-02T17:14:28.085Z</time>
      </trkpt>
      <trkpt lat="44.67347" lon="5.1572">
        <ele>470</ele>
        <time>2026-09-02T17:14:29.085Z</time>
      </trkpt>
      <trkpt lat="44.67347" lon="5.15721">
        <ele>470</ele>
        <time>2026-09-02T17:14:30.085Z</time>
      </trkpt>
      <trkpt lat="44.67348" lon="5.15722">
        <ele>470</ele>
        <time>2026-09-02T17:14:31.085Z</time>
      </trkpt>
      <trkpt lat="44.67348" lon="5.15723">
        <ele>470</ele>
        <time>2026-09-02T17:14:32.085Z</time>
      </trkpt>
      <trkpt lat="44.67348" lon="5.15724">
        <ele>470</ele>
        <time>2026-09-02T17:14:33.085Z</time>
      </trkpt>
      <trkpt lat="44.67348" lon="5.15726">
        <ele>470</ele>
        <time>2026-09-02T17:14:34.085Z</time>
      </trkpt>
      <trkpt lat="44.67348" lon="5.15728">
        <ele>470</ele>
        <time>2026-09-02T17:14:35.085Z</time>
      </trkpt>
      <trkpt lat="44.67348" lon="5.15729">
        <ele>470</ele>
        <time>2026-09-02T17:14:36.085Z</time>
      </trkpt>
      <trkpt lat="44.67347" lon="5.1573">
        <ele>470</ele>
        <time>2026-09-02T17:14:37.085Z</time>
      </trkpt>
      <trkpt lat="44.67346" lon="5.15732">
        <ele>470</ele>
        <time>2026-09-02T17:14:38.085Z</time>
      </trkpt>
      <trkpt lat="44.67345" lon="5.15733">
        <ele>470</ele>
        <time>2026-09-02T17:14:39.085Z</time>
      </trkpt>
      <trkpt lat="44.67345" lon="5.15733">
        <ele>470</ele>
        <time>2026-09-02T17:14:40.085Z</time>
      </trkpt>
      <trkpt lat="44.67344" lon="5.15733">
        <ele>470</ele>
        <time>2026-09-02T17:14:41.085Z</time>
      </trkpt>
      <trkpt lat="44.67343" lon="5.15733">
        <ele>470</ele>
        <time>2026-09-02T17:14:42.085Z</time>
      </trkpt>
      <trkpt lat="44.67342" lon="5.15733">
        <ele>471</ele>
        <time>2026-09-02T17:14:43.085Z</time>
      </trkpt>
      <trkpt lat="44.67341" lon="5.15732">
        <ele>471</ele>
        <time>2026-09-02T17:14:44.085Z</time>
      </trkpt>
      <trkpt lat="44.67341" lon="5.15731">
        <ele>471</ele>
        <time>2026-09-02T17:14:45.085Z</time>
      </trkpt>
      <trkpt lat="44.6734" lon="5.1573">
        <ele>471</ele>
        <time>2026-09-02T17:14:46.085Z</time>
      </trkpt>
      <trkpt lat="44.67339" lon="5.15729">
        <ele>472</ele>
        <time>2026-09-02T17:14:47.085Z</time>
      </trkpt>
      <trkpt lat="44.67339" lon="5.15728">
        <ele>472</ele>
        <time>2026-09-02T17:14:48.085Z</time>
      </trkpt>
      <trkpt lat="44.67338" lon="5.15727">
        <ele>472</ele>
        <time>2026-09-02T17:14:49.085Z</time>
      </trkpt>
      <trkpt lat="44.67338" lon="5.15726">
        <ele>472</ele>
        <time>2026-09-02T17:14:50.085Z</time>
      </trkpt>
      <trkpt lat="44.67338" lon="5.15725">
        <ele>472</ele>
        <time>2026-09-02T17:14:51.085Z</time>
      </trkpt>
      <trkpt lat="44.67337" lon="5.15724">
        <ele>472</ele>
        <time>2026-09-02T17:14:52.085Z</time>
      </trkpt>
      <trkpt lat="44.67337" lon="5.15723">
        <ele>472</ele>
        <time>2026-09-02T17:14:53.085Z</time>
      </trkpt>
      <trkpt lat="44.67336" lon="5.15722">
        <ele>472</ele>
        <time>2026-09-02T17:14:54.085Z</time>
      </trkpt>
      <trkpt lat="44.67336" lon="5.15721">
        <ele>472</ele>
        <time>2026-09-02T17:14:55.085Z</time>
      </trkpt>
      <trkpt lat="44.67335" lon="5.15721">
        <ele>472</ele>
        <time>2026-09-02T17:14:56.085Z</time>
      </trkpt>
      <trkpt lat="44.67335" lon="5.1572">
        <ele>473</ele>
        <time>2026-09-02T17:14:57.085Z</time>
      </trkpt>
      <trkpt lat="44.67335" lon="5.1572">
        <ele>473</ele>
        <time>2026-09-02T17:14:58.085Z</time>
      </trkpt>
      <trkpt lat="44.67335" lon="5.1572">
        <ele>473</ele>
        <time>2026-09-02T17:14:59.085Z</time>
      </trkpt>
      <trkpt lat="44.67335" lon="5.15719">
        <ele>473</ele>
        <time>2026-09-02T17:15:00.085Z</time>
      </trkpt>
      <trkpt lat="44.67334" lon="5.15719">
        <ele>473</ele>
        <time>2026-09-02T17:15:01.085Z</time>
      </trkpt>
      <trkpt lat="44.67334" lon="5.15718">
        <ele>473</ele>
        <time>2026-09-02T17:15:02.085Z</time>
      </trkpt>
      <trkpt lat="44.67334" lon="5.15717">
        <ele>473</ele>
        <time>2026-09-02T17:15:03.085Z</time>
      </trkpt>
      <trkpt lat="44.67333" lon="5.15716">
        <ele>473</ele>
        <time>2026-09-02T17:15:04.085Z</time>
      </trkpt>
      <trkpt lat="44.67332" lon="5.15714">
        <ele>473</ele>
        <time>2026-09-02T17:15:05.085Z</time>
      </trkpt>
      <trkpt lat="44.67332" lon="5.15713">
        <ele>473</ele>
        <time>2026-09-02T17:15:06.085Z</time>
      </trkpt>
      <trkpt lat="44.67331" lon="5.15712">
        <ele>473</ele>
        <time>2026-09-02T17:15:07.085Z</time>
      </trkpt>
      <trkpt lat="44.6733" lon="5.15712">
        <ele>473</ele>
        <time>2026-09-02T17:15:08.085Z</time>
      </trkpt>
      <trkpt lat="44.6733" lon="5.1571">
        <ele>473</ele>
        <time>2026-09-02T17:15:09.085Z</time>
      </trkpt>
      <trkpt lat="44.67329" lon="5.1571">
        <ele>473</ele>
        <time>2026-09-02T17:15:10.085Z</time>
      </trkpt>
      <trkpt lat="44.67329" lon="5.15709">
        <ele>473</ele>
        <time>2026-09-02T17:15:11.085Z</time>
      </trkpt>
      <trkpt lat="44.67328" lon="5.15708">
        <ele>473</ele>
        <time>2026-09-02T17:15:12.085Z</time>
      </trkpt>
      <trkpt lat="44.67327" lon="5.15706">
        <ele>473</ele>
        <time>2026-09-02T17:15:13.085Z</time>
      </trkpt>
      <trkpt lat="44.67326" lon="5.15706">
        <ele>473</ele>
        <time>2026-09-02T17:15:14.085Z</time>
      </trkpt>
      <trkpt lat="44.67324" lon="5.15704">
        <ele>473</ele>
        <time>2026-09-02T17:15:15.085Z</time>
      </trkpt>
      <trkpt lat="44.67323" lon="5.15703">
        <ele>473</ele>
        <time>2026-09-02T17:15:16.085Z</time>
      </trkpt>
      <trkpt lat="44.67323" lon="5.15702">
        <ele>473</ele>
        <time>2026-09-02T17:15:17.085Z</time>
      </trkpt>
      <trkpt lat="44.67322" lon="5.15701">
        <ele>473</ele>
        <time>2026-09-02T17:15:18.085Z</time>
      </trkpt>
      <trkpt lat="44.67321" lon="5.157">
        <ele>473</ele>
        <time>2026-09-02T17:15:19.085Z</time>
      </trkpt>
      <trkpt lat="44.6732" lon="5.15699">
        <ele>473</ele>
        <time>2026-09-02T17:15:20.085Z</time>
      </trkpt>
      <trkpt lat="44.67319" lon="5.15698">
        <ele>473</ele>
        <time>2026-09-02T17:15:21.085Z</time>
      </trkpt>
      <trkpt lat="44.67319" lon="5.15697">
        <ele>473</ele>
        <time>2026-09-02T17:15:22.085Z</time>
      </trkpt>
      <trkpt lat="44.67318" lon="5.15696">
        <ele>473</ele>
        <time>2026-09-02T17:15:23.085Z</time>
      </trkpt>
      <trkpt lat="44.67317" lon="5.15695">
        <ele>473</ele>
        <time>2026-09-02T17:15:24.085Z</time>
      </trkpt>
      <trkpt lat="44.67317" lon="5.15694">
        <ele>473</ele>
        <time>2026-09-02T17:15:25.085Z</time>
      </trkpt>
      <trkpt lat="44.67316" lon="5.15693">
        <ele>473</ele>
        <time>2026-09-02T17:15:26.085Z</time>
      </trkpt>
      <trkpt lat="44.67316" lon="5.15692">
        <ele>473</ele>
        <time>2026-09-02T17:15:27.085Z</time>
      </trkpt>
      <trkpt lat="44.67315" lon="5.15691">
        <ele>473</ele>
        <time>2026-09-02T17:15:28.085Z</time>
      </trkpt>
      <trkpt lat="44.67315" lon="5.1569">
        <ele>473</ele>
        <time>2026-09-02T17:15:29.085Z</time>
      </trkpt>
      <trkpt lat="44.67314" lon="5.15689">
        <ele>474</ele>
        <time>2026-09-02T17:15:30.085Z</time>
      </trkpt>
      <trkpt lat="44.67314" lon="5.15687">
        <ele>474</ele>
        <time>2026-09-02T17:15:31.085Z</time>
      </trkpt>
      <trkpt lat="44.67313" lon="5.15686">
        <ele>474</ele>
        <time>2026-09-02T17:15:32.085Z</time>
      </trkpt>
      <trkpt lat="44.67312" lon="5.15685">
        <ele>474</ele>
        <time>2026-09-02T17:15:33.085Z</time>
      </trkpt>
      <trkpt lat="44.67311" lon="5.15683">
        <ele>474</ele>
        <time>2026-09-02T17:15:34.085Z</time>
      </trkpt>
      <trkpt lat="44.67311" lon="5.15682">
        <ele>474</ele>
        <time>2026-09-02T17:15:35.085Z</time>
      </trkpt>
      <trkpt lat="44.67311" lon="5.1568">
        <ele>474</ele>
        <time>2026-09-02T17:15:36.085Z</time>
      </trkpt>
      <trkpt lat="44.6731" lon="5.15679">
        <ele>474</ele>
        <time>2026-09-02T17:15:37.085Z</time>
      </trkpt>
      <trkpt lat="44.6731" lon="5.15678">
        <ele>474</ele>
        <time>2026-09-02T17:15:38.085Z</time>
      </trkpt>
      <trkpt lat="44.67309" lon="5.15678">
        <ele>474</ele>
        <time>2026-09-02T17:15:39.085Z</time>
      </trkpt>
      <trkpt lat="44.67309" lon="5.15676">
        <ele>474</ele>
        <time>2026-09-02T17:15:40.085Z</time>
      </trkpt>
      <trkpt lat="44.67308" lon="5.15675">
        <ele>474</ele>
        <time>2026-09-02T17:15:41.085Z</time>
      </trkpt>
      <trkpt lat="44.67307" lon="5.15674">
        <ele>474</ele>
        <time>2026-09-02T17:15:42.085Z</time>
      </trkpt>
      <trkpt lat="44.67306" lon="5.15673">
        <ele>474</ele>
        <time>2026-09-02T17:15:43.085Z</time>
      </trkpt>
      <trkpt lat="44.67305" lon="5.15672">
        <ele>474</ele>
        <time>2026-09-02T17:15:44.085Z</time>
      </trkpt>
      <trkpt lat="44.67305" lon="5.15671">
        <ele>475</ele>
        <time>2026-09-02T17:15:45.085Z</time>
      </trkpt>
      <trkpt lat="44.67304" lon="5.1567">
        <ele>475</ele>
        <time>2026-09-02T17:15:46.085Z</time>
      </trkpt>
      <trkpt lat="44.67303" lon="5.15669">
        <ele>475</ele>
        <time>2026-09-02T17:15:47.085Z</time>
      </trkpt>
      <trkpt lat="44.67302" lon="5.15668">
        <ele>475</ele>
        <time>2026-09-02T17:15:48.085Z</time>
      </trkpt>
      <trkpt lat="44.67301" lon="5.15667">
        <ele>475</ele>
        <time>2026-09-02T17:15:49.085Z</time>
      </trkpt>
      <trkpt lat="44.673" lon="5.15665">
        <ele>475</ele>
        <time>2026-09-02T17:15:50.085Z</time>
      </trkpt>
      <trkpt lat="44.67299" lon="5.15664">
        <ele>475</ele>
        <time>2026-09-02T17:15:51.085Z</time>
      </trkpt>
      <trkpt lat="44.67299" lon="5.15663">
        <ele>475</ele>
        <time>2026-09-02T17:15:52.085Z</time>
      </trkpt>
      <trkpt lat="44.67298" lon="5.15663">
        <ele>475</ele>
        <time>2026-09-02T17:15:53.085Z</time>
      </trkpt>
      <trkpt lat="44.67297" lon="5.15662">
        <ele>475</ele>
        <time>2026-09-02T17:15:54.085Z</time>
      </trkpt>
      <trkpt lat="44.67296" lon="5.15661">
        <ele>475</ele>
        <time>2026-09-02T17:15:55.085Z</time>
      </trkpt>
      <trkpt lat="44.67296" lon="5.1566">
        <ele>475</ele>
        <time>2026-09-02T17:15:56.085Z</time>
      </trkpt>
      <trkpt lat="44.67295" lon="5.15659">
        <ele>475</ele>
        <time>2026-09-02T17:15:57.085Z</time>
      </trkpt>
      <trkpt lat="44.67293" lon="5.15658">
        <ele>475</ele>
        <time>2026-09-02T17:15:58.085Z</time>
      </trkpt>
      <trkpt lat="44.67292" lon="5.15657">
        <ele>475</ele>
        <time>2026-09-02T17:15:59.085Z</time>
      </trkpt>
      <trkpt lat="44.67291" lon="5.15656">
        <ele>475</ele>
        <time>2026-09-02T17:16:00.085Z</time>
      </trkpt>
      <trkpt lat="44.6729" lon="5.15655">
        <ele>475</ele>
        <time>2026-09-02T17:16:01.085Z</time>
      </trkpt>
      <trkpt lat="44.67289" lon="5.15654">
        <ele>475</ele>
        <time>2026-09-02T17:16:02.085Z</time>
      </trkpt>
      <trkpt lat="44.67289" lon="5.15653">
        <ele>475</ele>
        <time>2026-09-02T17:16:03.085Z</time>
      </trkpt>
      <trkpt lat="44.67288" lon="5.15652">
        <ele>475</ele>
        <time>2026-09-02T17:16:04.085Z</time>
      </trkpt>
      <trkpt lat="44.67287" lon="5.15651">
        <ele>475</ele>
        <time>2026-09-02T17:16:05.085Z</time>
      </trkpt>
      <trkpt lat="44.67286" lon="5.15651">
        <ele>475</ele>
        <time>2026-09-02T17:16:06.085Z</time>
      </trkpt>
      <trkpt lat="44.67286" lon="5.1565">
        <ele>476</ele>
        <time>2026-09-02T17:16:07.085Z</time>
      </trkpt>
      <trkpt lat="44.67285" lon="5.15649">
        <ele>476</ele>
        <time>2026-09-02T17:16:08.085Z</time>
      </trkpt>
      <trkpt lat="44.67284" lon="5.15648">
        <ele>476</ele>
        <time>2026-09-02T17:16:09.085Z</time>
      </trkpt>
      <trkpt lat="44.67283" lon="5.15647">
        <ele>476</ele>
        <time>2026-09-02T17:16:10.085Z</time>
      </trkpt>
      <trkpt lat="44.67283" lon="5.15646">
        <ele>476</ele>
        <time>2026-09-02T17:16:11.085Z</time>
      </trkpt>
      <trkpt lat="44.67282" lon="5.15645">
        <ele>476</ele>
        <time>2026-09-02T17:16:12.085Z</time>
      </trkpt>
      <trkpt lat="44.67281" lon="5.15644">
        <ele>477</ele>
        <time>2026-09-02T17:16:13.085Z</time>
      </trkpt>
      <trkpt lat="44.6728" lon="5.15643">
        <ele>477</ele>
        <time>2026-09-02T17:16:14.085Z</time>
      </trkpt>
      <trkpt lat="44.67279" lon="5.15643">
        <ele>477</ele>
        <time>2026-09-02T17:16:15.085Z</time>
      </trkpt>
      <trkpt lat="44.67278" lon="5.15642">
        <ele>477</ele>
        <time>2026-09-02T17:16:16.085Z</time>
      </trkpt>
      <trkpt lat="44.67278" lon="5.15641">
        <ele>477</ele>
        <time>2026-09-02T17:16:17.085Z</time>
      </trkpt>
      <trkpt lat="44.67277" lon="5.15641">
        <ele>477</ele>
        <time>2026-09-02T17:16:18.085Z</time>
      </trkpt>
      <trkpt lat="44.67277" lon="5.1564">
        <ele>478</ele>
        <time>2026-09-02T17:16:19.085Z</time>
      </trkpt>
      <trkpt lat="44.67276" lon="5.15639">
        <ele>478</ele>
        <time>2026-09-02T17:16:20.085Z</time>
      </trkpt>
      <trkpt lat="44.67275" lon="5.15639">
        <ele>478</ele>
        <time>2026-09-02T17:16:21.085Z</time>
      </trkpt>
      <trkpt lat="44.67274" lon="5.15638">
        <ele>478</ele>
        <time>2026-09-02T17:16:22.085Z</time>
      </trkpt>
      <trkpt lat="44.67274" lon="5.15637">
        <ele>478</ele>
        <time>2026-09-02T17:16:23.085Z</time>
      </trkpt>
      <trkpt lat="44.67273" lon="5.15636">
        <ele>479</ele>
        <time>2026-09-02T17:16:24.085Z</time>
      </trkpt>
      <trkpt lat="44.67273" lon="5.15636">
        <ele>479</ele>
        <time>2026-09-02T17:16:25.085Z</time>
      </trkpt>
      <trkpt lat="44.67272" lon="5.15635">
        <ele>479</ele>
        <time>2026-09-02T17:16:26.085Z</time>
      </trkpt>
      <trkpt lat="44.67271" lon="5.15634">
        <ele>479</ele>
        <time>2026-09-02T17:16:27.085Z</time>
      </trkpt>
      <trkpt lat="44.6727" lon="5.15634">
        <ele>479</ele>
        <time>2026-09-02T17:16:28.085Z</time>
      </trkpt>
      <trkpt lat="44.67269" lon="5.15633">
        <ele>479</ele>
        <time>2026-09-02T17:16:29.085Z</time>
      </trkpt>
      <trkpt lat="44.67268" lon="5.15632">
        <ele>479</ele>
        <time>2026-09-02T17:16:30.085Z</time>
      </trkpt>
      <trkpt lat="44.67268" lon="5.15632">
        <ele>479</ele>
        <time>2026-09-02T17:16:31.085Z</time>
      </trkpt>
      <trkpt lat="44.67267" lon="5.15631">
        <ele>479</ele>
        <time>2026-09-02T17:16:32.085Z</time>
      </trkpt>
      <trkpt lat="44.67267" lon="5.15632">
        <ele>479</ele>
        <time>2026-09-02T17:16:33.085Z</time>
      </trkpt>
      <trkpt lat="44.67267" lon="5.15632">
        <ele>479</ele>
        <time>2026-09-02T17:16:34.085Z</time>
      </trkpt>
      <trkpt lat="44.67267" lon="5.15632">
        <ele>479</ele>
        <time>2026-09-02T17:16:35.085Z</time>
      </trkpt>
      <trkpt lat="44.67267" lon="5.15632">
        <ele>480</ele>
        <time>2026-09-02T17:16:36.085Z</time>
      </trkpt>
      <trkpt lat="44.67266" lon="5.15631">
        <ele>480</ele>
        <time>2026-09-02T17:16:40.084Z</time>
      </trkpt>
      <trkpt lat="44.67266" lon="5.15631">
        <ele>480</ele>
        <time>2026-09-02T17:16:41.084Z</time>
      </trkpt>
      <trkpt lat="44.67265" lon="5.1563">
        <ele>480</ele>
        <time>2026-09-02T17:16:42.084Z</time>
      </trkpt>
      <trkpt lat="44.67265" lon="5.1563">
        <ele>480</ele>
        <time>2026-09-02T17:16:43.084Z</time>
      </trkpt>
      <trkpt lat="44.67264" lon="5.1563">
        <ele>480</ele>
        <time>2026-09-02T17:16:44.084Z</time>
      </trkpt>
      <trkpt lat="44.67264" lon="5.1563">
        <ele>480</ele>
        <time>2026-09-02T17:16:45.084Z</time>
      </trkpt>
      <trkpt lat="44.67263" lon="5.1563">
        <ele>480</ele>
        <time>2026-09-02T17:16:46.084Z</time>
      </trkpt>
      <trkpt lat="44.67262" lon="5.15629">
        <ele>483</ele>
        <time>2026-09-02T17:17:38.092Z</time>
      </trkpt>
      <trkpt lat="44.67262" lon="5.15629">
        <ele>483</ele>
        <time>2026-09-02T17:17:39.092Z</time>
      </trkpt>
      <trkpt lat="44.67261" lon="5.15629">
        <ele>484</ele>
        <time>2026-09-02T17:17:40.092Z</time>
      </trkpt>
      <trkpt lat="44.6726" lon="5.15628">
        <ele>484</ele>
        <time>2026-09-02T17:17:41.092Z</time>
      </trkpt>
      <trkpt lat="44.6726" lon="5.15627">
        <ele>484</ele>
        <time>2026-09-02T17:17:42.092Z</time>
      </trkpt>
      <trkpt lat="44.67259" lon="5.15626">
        <ele>484</ele>
        <time>2026-09-02T17:17:43.092Z</time>
      </trkpt>
      <trkpt lat="44.67259" lon="5.15626">
        <ele>484</ele>
        <time>2026-09-02T17:17:44.092Z</time>
      </trkpt>
      <trkpt lat="44.67259" lon="5.15626">
        <ele>484</ele>
        <time>2026-09-02T17:17:45.092Z</time>
      </trkpt>
      <trkpt lat="44.67258" lon="5.15625">
        <ele>484</ele>
        <time>2026-09-02T17:17:46.092Z</time>
      </trkpt>
      <trkpt lat="44.67258" lon="5.15624">
        <ele>484</ele>
        <time>2026-09-02T17:17:47.092Z</time>
      </trkpt>
      <trkpt lat="44.67257" lon="5.15623">
        <ele>484</ele>
        <time>2026-09-02T17:17:48.092Z</time>
      </trkpt>
      <trkpt lat="44.67257" lon="5.15622">
        <ele>484</ele>
        <time>2026-09-02T17:17:49.092Z</time>
      </trkpt>
      <trkpt lat="44.67256" lon="5.1562">
        <ele>484</ele>
        <time>2026-09-02T17:17:50.092Z</time>
      </trkpt>
      <trkpt lat="44.67256" lon="5.15619">
        <ele>484</ele>
        <time>2026-09-02T17:17:51.092Z</time>
      </trkpt>
      <trkpt lat="44.67256" lon="5.15618">
        <ele>484</ele>
        <time>2026-09-02T17:17:52.092Z</time>
      </trkpt>
      <trkpt lat="44.67255" lon="5.15616">
        <ele>484</ele>
        <time>2026-09-02T17:17:53.092Z</time>
      </trkpt>
      <trkpt lat="44.67255" lon="5.15615">
        <ele>484</ele>
        <time>2026-09-02T17:17:54.092Z</time>
      </trkpt>
      <trkpt lat="44.67255" lon="5.15614">
        <ele>484</ele>
        <time>2026-09-02T17:17:55.092Z</time>
      </trkpt>
      <trkpt lat="44.67255" lon="5.15612">
        <ele>484</ele>
        <time>2026-09-02T17:17:56.092Z</time>
      </trkpt>
      <trkpt lat="44.67255" lon="5.15611">
        <ele>484</ele>
        <time>2026-09-02T17:17:57.092Z</time>
      </trkpt>
      <trkpt lat="44.67255" lon="5.1561">
        <ele>484</ele>
        <time>2026-09-02T17:17:58.092Z</time>
      </trkpt>
      <trkpt lat="44.67255" lon="5.15609">
        <ele>484</ele>
        <time>2026-09-02T17:17:59.092Z</time>
      </trkpt>
      <trkpt lat="44.67255" lon="5.15607">
        <ele>484</ele>
        <time>2026-09-02T17:18:00.092Z</time>
      </trkpt>
      <trkpt lat="44.67255" lon="5.15607">
        <ele>484</ele>
        <time>2026-09-02T17:18:01.092Z</time>
      </trkpt>
      <trkpt lat="44.67255" lon="5.15605">
        <ele>484</ele>
        <time>2026-09-02T17:18:02.092Z</time>
      </trkpt>
      <trkpt lat="44.67255" lon="5.15604">
        <ele>484</ele>
        <time>2026-09-02T17:18:03.092Z</time>
      </trkpt>
      <trkpt lat="44.67256" lon="5.15602">
        <ele>484</ele>
        <time>2026-09-02T17:18:04.092Z</time>
      </trkpt>
      <trkpt lat="44.67256" lon="5.15601">
        <ele>484</ele>
        <time>2026-09-02T17:18:05.092Z</time>
      </trkpt>
      <trkpt lat="44.67256" lon="5.156">
        <ele>484</ele>
        <time>2026-09-02T17:18:06.092Z</time>
      </trkpt>
      <trkpt lat="44.67256" lon="5.15599">
        <ele>484</ele>
        <time>2026-09-02T17:18:07.092Z</time>
      </trkpt>
      <trkpt lat="44.67256" lon="5.15597">
        <ele>484</ele>
        <time>2026-09-02T17:18:08.092Z</time>
      </trkpt>
      <trkpt lat="44.67256" lon="5.15596">
        <ele>484</ele>
        <time>2026-09-02T17:18:09.092Z</time>
      </trkpt>
      <trkpt lat="44.67256" lon="5.15595">
        <ele>484</ele>
        <time>2026-09-02T17:18:10.092Z</time>
      </trkpt>
      <trkpt lat="44.67256" lon="5.15594">
        <ele>484</ele>
        <time>2026-09-02T17:18:11.092Z</time>
      </trkpt>
      <trkpt lat="44.67256" lon="5.15592">
        <ele>484</ele>
        <time>2026-09-02T17:18:12.092Z</time>
      </trkpt>
      <trkpt lat="44.67256" lon="5.15591">
        <ele>484</ele>
        <time>2026-09-02T17:18:13.092Z</time>
      </trkpt>
      <trkpt lat="44.67255" lon="5.15589">
        <ele>485</ele>
        <time>2026-09-02T17:18:14.092Z</time>
      </trkpt>
      <trkpt lat="44.67255" lon="5.15588">
        <ele>485</ele>
        <time>2026-09-02T17:18:15.092Z</time>
      </trkpt>
      <trkpt lat="44.67254" lon="5.15586">
        <ele>485</ele>
        <time>2026-09-02T17:18:16.092Z</time>
      </trkpt>
      <trkpt lat="44.67253" lon="5.15584">
        <ele>485</ele>
        <time>2026-09-02T17:18:17.092Z</time>
      </trkpt>
      <trkpt lat="44.67253" lon="5.15582">
        <ele>485</ele>
        <time>2026-09-02T17:18:18.092Z</time>
      </trkpt>
      <trkpt lat="44.67252" lon="5.15581">
        <ele>486</ele>
        <time>2026-09-02T17:18:19.092Z</time>
      </trkpt>
      <trkpt lat="44.67251" lon="5.15579">
        <ele>486</ele>
        <time>2026-09-02T17:18:20.092Z</time>
      </trkpt>
      <trkpt lat="44.67251" lon="5.15578">
        <ele>486</ele>
        <time>2026-09-02T17:18:21.092Z</time>
      </trkpt>
      <trkpt lat="44.6725" lon="5.15576">
        <ele>486</ele>
        <time>2026-09-02T17:18:22.092Z</time>
      </trkpt>
      <trkpt lat="44.6725" lon="5.15575">
        <ele>486</ele>
        <time>2026-09-02T17:18:23.092Z</time>
      </trkpt>
      <trkpt lat="44.67249" lon="5.15573">
        <ele>486</ele>
        <time>2026-09-02T17:18:24.092Z</time>
      </trkpt>
      <trkpt lat="44.67249" lon="5.15572">
        <ele>486</ele>
        <time>2026-09-02T17:18:25.092Z</time>
      </trkpt>
      <trkpt lat="44.67248" lon="5.1557">
        <ele>486</ele>
        <time>2026-09-02T17:18:26.092Z</time>
      </trkpt>
      <trkpt lat="44.67247" lon="5.15568">
        <ele>486</ele>
        <time>2026-09-02T17:18:27.092Z</time>
      </trkpt>
      <trkpt lat="44.67247" lon="5.15567">
        <ele>487</ele>
        <time>2026-09-02T17:18:28.092Z</time>
      </trkpt>
      <trkpt lat="44.67246" lon="5.15565">
        <ele>487</ele>
        <time>2026-09-02T17:18:29.092Z</time>
      </trkpt>
      <trkpt lat="44.67245" lon="5.15564">
        <ele>487</ele>
        <time>2026-09-02T17:18:30.092Z</time>
      </trkpt>
      <trkpt lat="44.67245" lon="5.15563">
        <ele>487</ele>
        <time>2026-09-02T17:18:31.092Z</time>
      </trkpt>
      <trkpt lat="44.67244" lon="5.15561">
        <ele>487</ele>
        <time>2026-09-02T17:18:32.092Z</time>
      </trkpt>
      <trkpt lat="44.67243" lon="5.1556">
        <ele>487</ele>
        <time>2026-09-02T17:18:33.092Z</time>
      </trkpt>
      <trkpt lat="44.67243" lon="5.15559">
        <ele>487</ele>
        <time>2026-09-02T17:18:34.092Z</time>
      </trkpt>
      <trkpt lat="44.67243" lon="5.15558">
        <ele>487</ele>
        <time>2026-09-02T17:18:35.092Z</time>
      </trkpt>
      <trkpt lat="44.67242" lon="5.15556">
        <ele>487</ele>
        <time>2026-09-02T17:18:36.092Z</time>
      </trkpt>
      <trkpt lat="44.67241" lon="5.15555">
        <ele>487</ele>
        <time>2026-09-02T17:18:37.092Z</time>
      </trkpt>
      <trkpt lat="44.67241" lon="5.15554">
        <ele>487</ele>
        <time>2026-09-02T17:18:38.092Z</time>
      </trkpt>
      <trkpt lat="44.67241" lon="5.15553">
        <ele>488</ele>
        <time>2026-09-02T17:18:39.092Z</time>
      </trkpt>
      <trkpt lat="44.6724" lon="5.15551">
        <ele>487</ele>
        <time>2026-09-02T17:18:40.092Z</time>
      </trkpt>
      <trkpt lat="44.6724" lon="5.15549">
        <ele>487</ele>
        <time>2026-09-02T17:18:41.092Z</time>
      </trkpt>
      <trkpt lat="44.67239" lon="5.15548">
        <ele>487</ele>
        <time>2026-09-02T17:18:42.092Z</time>
      </trkpt>
      <trkpt lat="44.67239" lon="5.15547">
        <ele>487</ele>
        <time>2026-09-02T17:18:43.092Z</time>
      </trkpt>
      <trkpt lat="44.67238" lon="5.15546">
        <ele>487</ele>
        <time>2026-09-02T17:18:44.092Z</time>
      </trkpt>
      <trkpt lat="44.67238" lon="5.15545">
        <ele>488</ele>
        <time>2026-09-02T17:18:45.092Z</time>
      </trkpt>
      <trkpt lat="44.67237" lon="5.15544">
        <ele>488</ele>
        <time>2026-09-02T17:18:46.092Z</time>
      </trkpt>
      <trkpt lat="44.67237" lon="5.15544">
        <ele>488</ele>
        <time>2026-09-02T17:18:47.092Z</time>
      </trkpt>
      <trkpt lat="44.67237" lon="5.15544">
        <ele>488</ele>
        <time>2026-09-02T17:18:48.092Z</time>
      </trkpt>
      <trkpt lat="44.67237" lon="5.15544">
        <ele>488</ele>
        <time>2026-09-02T17:18:49.092Z</time>
      </trkpt>
      <trkpt lat="44.67237" lon="5.15543">
        <ele>488</ele>
        <time>2026-09-02T17:18:50.092Z</time>
      </trkpt>
      <trkpt lat="44.67235" lon="5.1554">
        <ele>489</ele>
        <time>2026-09-02T17:19:08.099Z</time>
      </trkpt>
      <trkpt lat="44.67235" lon="5.15538">
        <ele>489</ele>
        <time>2026-09-02T17:19:09.099Z</time>
      </trkpt>
      <trkpt lat="44.67234" lon="5.15537">
        <ele>489</ele>
        <time>2026-09-02T17:19:10.099Z</time>
      </trkpt>
      <trkpt lat="44.67234" lon="5.15536">
        <ele>489</ele>
        <time>2026-09-02T17:19:11.099Z</time>
      </trkpt>
      <trkpt lat="44.67233" lon="5.15535">
        <ele>489</ele>
        <time>2026-09-02T17:19:12.099Z</time>
      </trkpt>
      <trkpt lat="44.67232" lon="5.15534">
        <ele>489</ele>
        <time>2026-09-02T17:19:13.099Z</time>
      </trkpt>
      <trkpt lat="44.67232" lon="5.15533">
        <ele>489</ele>
        <time>2026-09-02T17:19:14.099Z</time>
      </trkpt>
      <trkpt lat="44.67231" lon="5.15532">
        <ele>489</ele>
        <time>2026-09-02T17:19:15.099Z</time>
      </trkpt>
      <trkpt lat="44.6723" lon="5.15531">
        <ele>489</ele>
        <time>2026-09-02T17:19:16.099Z</time>
      </trkpt>
      <trkpt lat="44.67229" lon="5.15529">
        <ele>489</ele>
        <time>2026-09-02T17:19:17.099Z</time>
      </trkpt>
      <trkpt lat="44.67229" lon="5.15528">
        <ele>489</ele>
        <time>2026-09-02T17:19:18.099Z</time>
      </trkpt>
      <trkpt lat="44.67228" lon="5.15526">
        <ele>489</ele>
        <time>2026-09-02T17:19:19.099Z</time>
      </trkpt>
      <trkpt lat="44.67227" lon="5.15525">
        <ele>489</ele>
        <time>2026-09-02T17:19:20.099Z</time>
      </trkpt>
      <trkpt lat="44.67226" lon="5.15524">
        <ele>489</ele>
        <time>2026-09-02T17:19:21.099Z</time>
      </trkpt>
      <trkpt lat="44.67225" lon="5.15522">
        <ele>489</ele>
        <time>2026-09-02T17:19:22.099Z</time>
      </trkpt>
      <trkpt lat="44.67224" lon="5.15521">
        <ele>489</ele>
        <time>2026-09-02T17:19:23.099Z</time>
      </trkpt>
      <trkpt lat="44.67224" lon="5.15519">
        <ele>489</ele>
        <time>2026-09-02T17:19:24.099Z</time>
      </trkpt>
      <trkpt lat="44.67223" lon="5.15518">
        <ele>489</ele>
        <time>2026-09-02T17:19:25.099Z</time>
      </trkpt>
      <trkpt lat="44.67222" lon="5.15517">
        <ele>489</ele>
        <time>2026-09-02T17:19:26.099Z</time>
      </trkpt>
      <trkpt lat="44.67221" lon="5.15515">
        <ele>489</ele>
        <time>2026-09-02T17:19:27.099Z</time>
      </trkpt>
      <trkpt lat="44.6722" lon="5.15514">
        <ele>489</ele>
        <time>2026-09-02T17:19:28.099Z</time>
      </trkpt>
      <trkpt lat="44.6722" lon="5.15512">
        <ele>489</ele>
        <time>2026-09-02T17:19:29.099Z</time>
      </trkpt>
      <trkpt lat="44.6722" lon="5.15511">
        <ele>490</ele>
        <time>2026-09-02T17:19:30.099Z</time>
      </trkpt>
      <trkpt lat="44.67219" lon="5.15509">
        <ele>490</ele>
        <time>2026-09-02T17:19:31.099Z</time>
      </trkpt>
      <trkpt lat="44.67219" lon="5.15508">
        <ele>490</ele>
        <time>2026-09-02T17:19:32.099Z</time>
      </trkpt>
      <trkpt lat="44.67219" lon="5.15506">
        <ele>490</ele>
        <time>2026-09-02T17:19:33.099Z</time>
      </trkpt>
      <trkpt lat="44.67219" lon="5.15505">
        <ele>490</ele>
        <time>2026-09-02T17:19:34.099Z</time>
      </trkpt>
      <trkpt lat="44.67219" lon="5.15504">
        <ele>490</ele>
        <time>2026-09-02T17:19:35.099Z</time>
      </trkpt>
      <trkpt lat="44.67219" lon="5.15503">
        <ele>490</ele>
        <time>2026-09-02T17:19:36.099Z</time>
      </trkpt>
      <trkpt lat="44.67219" lon="5.15502">
        <ele>490</ele>
        <time>2026-09-02T17:19:37.099Z</time>
      </trkpt>
      <trkpt lat="44.67219" lon="5.15501">
        <ele>490</ele>
        <time>2026-09-02T17:19:38.099Z</time>
      </trkpt>
      <trkpt lat="44.67219" lon="5.15499">
        <ele>490</ele>
        <time>2026-09-02T17:19:39.099Z</time>
      </trkpt>
      <trkpt lat="44.67219" lon="5.15499">
        <ele>490</ele>
        <time>2026-09-02T17:19:40.099Z</time>
      </trkpt>
      <trkpt lat="44.67219" lon="5.15497">
        <ele>491</ele>
        <time>2026-09-02T17:19:41.099Z</time>
      </trkpt>
      <trkpt lat="44.6722" lon="5.15496">
        <ele>491</ele>
        <time>2026-09-02T17:19:42.099Z</time>
      </trkpt>
      <trkpt lat="44.6722" lon="5.15495">
        <ele>491</ele>
        <time>2026-09-02T17:19:43.099Z</time>
      </trkpt>
      <trkpt lat="44.6722" lon="5.15494">
        <ele>491</ele>
        <time>2026-09-02T17:19:44.099Z</time>
      </trkpt>
      <trkpt lat="44.67221" lon="5.15492">
        <ele>491</ele>
        <time>2026-09-02T17:19:45.099Z</time>
      </trkpt>
      <trkpt lat="44.67221" lon="5.15491">
        <ele>491</ele>
        <time>2026-09-02T17:19:46.099Z</time>
      </trkpt>
      <trkpt lat="44.67222" lon="5.15489">
        <ele>491</ele>
        <time>2026-09-02T17:19:47.099Z</time>
      </trkpt>
      <trkpt lat="44.67222" lon="5.15488">
        <ele>492</ele>
        <time>2026-09-02T17:19:48.099Z</time>
      </trkpt>
      <trkpt lat="44.67222" lon="5.15487">
        <ele>492</ele>
        <time>2026-09-02T17:19:49.099Z</time>
      </trkpt>
      <trkpt lat="44.67223" lon="5.15486">
        <ele>492</ele>
        <time>2026-09-02T17:19:50.099Z</time>
      </trkpt>
      <trkpt lat="44.67224" lon="5.15485">
        <ele>492</ele>
        <time>2026-09-02T17:19:51.099Z</time>
      </trkpt>
      <trkpt lat="44.67224" lon="5.15484">
        <ele>492</ele>
        <time>2026-09-02T17:19:52.099Z</time>
      </trkpt>
      <trkpt lat="44.67225" lon="5.15483">
        <ele>492</ele>
        <time>2026-09-02T17:19:53.099Z</time>
      </trkpt>
      <trkpt lat="44.67225" lon="5.15483">
        <ele>492</ele>
        <time>2026-09-02T17:19:54.099Z</time>
      </trkpt>
      <trkpt lat="44.67226" lon="5.15482">
        <ele>493</ele>
        <time>2026-09-02T17:19:55.099Z</time>
      </trkpt>
      <trkpt lat="44.67226" lon="5.15481">
        <ele>493</ele>
        <time>2026-09-02T17:19:56.099Z</time>
      </trkpt>
      <trkpt lat="44.67227" lon="5.1548">
        <ele>493</ele>
        <time>2026-09-02T17:19:57.099Z</time>
      </trkpt>
      <trkpt lat="44.67227" lon="5.15479">
        <ele>493</ele>
        <time>2026-09-02T17:19:58.099Z</time>
      </trkpt>
      <trkpt lat="44.67228" lon="5.15478">
        <ele>493</ele>
        <time>2026-09-02T17:19:59.099Z</time>
      </trkpt>
      <trkpt lat="44.67229" lon="5.15477">
        <ele>493</ele>
        <time>2026-09-02T17:20:00.099Z</time>
      </trkpt>
      <trkpt lat="44.6723" lon="5.15476">
        <ele>493</ele>
        <time>2026-09-02T17:20:01.099Z</time>
      </trkpt>
      <trkpt lat="44.6723" lon="5.15475">
        <ele>493</ele>
        <time>2026-09-02T17:20:02.099Z</time>
      </trkpt>
      <trkpt lat="44.67231" lon="5.15475">
        <ele>494</ele>
        <time>2026-09-02T17:20:03.099Z</time>
      </trkpt>
      <trkpt lat="44.67231" lon="5.15474">
        <ele>494</ele>
        <time>2026-09-02T17:20:04.099Z</time>
      </trkpt>
      <trkpt lat="44.67232" lon="5.15473">
        <ele>494</ele>
        <time>2026-09-02T17:20:05.099Z</time>
      </trkpt>
      <trkpt lat="44.67233" lon="5.15472">
        <ele>494</ele>
        <time>2026-09-02T17:20:06.099Z</time>
      </trkpt>
      <trkpt lat="44.67234" lon="5.15471">
        <ele>494</ele>
        <time>2026-09-02T17:20:07.099Z</time>
      </trkpt>
      <trkpt lat="44.67235" lon="5.1547">
        <ele>494</ele>
        <time>2026-09-02T17:20:08.099Z</time>
      </trkpt>
      <trkpt lat="44.67235" lon="5.15469">
        <ele>494</ele>
        <time>2026-09-02T17:20:09.099Z</time>
      </trkpt>
      <trkpt lat="44.67236" lon="5.15467">
        <ele>494</ele>
        <time>2026-09-02T17:20:10.099Z</time>
      </trkpt>
      <trkpt lat="44.67237" lon="5.15466">
        <ele>494</ele>
        <time>2026-09-02T17:20:11.099Z</time>
      </trkpt>
      <trkpt lat="44.67238" lon="5.15465">
        <ele>495</ele>
        <time>2026-09-02T17:20:12.099Z</time>
      </trkpt>
      <trkpt lat="44.67238" lon="5.15464">
        <ele>495</ele>
        <time>2026-09-02T17:20:13.099Z</time>
      </trkpt>
      <trkpt lat="44.67239" lon="5.15462">
        <ele>495</ele>
        <time>2026-09-02T17:20:14.099Z</time>
      </trkpt>
      <trkpt lat="44.6724" lon="5.15461">
        <ele>495</ele>
        <time>2026-09-02T17:20:15.099Z</time>
      </trkpt>
      <trkpt lat="44.6724" lon="5.15461">
        <ele>495</ele>
        <time>2026-09-02T17:20:16.099Z</time>
      </trkpt>
      <trkpt lat="44.6724" lon="5.1546">
        <ele>495</ele>
        <time>2026-09-02T17:20:17.099Z</time>
      </trkpt>
      <trkpt lat="44.67241" lon="5.15459">
        <ele>495</ele>
        <time>2026-09-02T17:20:18.099Z</time>
      </trkpt>
      <trkpt lat="44.67242" lon="5.15458">
        <ele>495</ele>
        <time>2026-09-02T17:20:19.099Z</time>
      </trkpt>
      <trkpt lat="44.67242" lon="5.15458">
        <ele>496</ele>
        <time>2026-09-02T17:20:20.099Z</time>
      </trkpt>
      <trkpt lat="44.67243" lon="5.15456">
        <ele>496</ele>
        <time>2026-09-02T17:20:21.099Z</time>
      </trkpt>
      <trkpt lat="44.67243" lon="5.15455">
        <ele>496</ele>
        <time>2026-09-02T17:20:22.099Z</time>
      </trkpt>
      <trkpt lat="44.67244" lon="5.15454">
        <ele>496</ele>
        <time>2026-09-02T17:20:23.099Z</time>
      </trkpt>
      <trkpt lat="44.67244" lon="5.15453">
        <ele>496</ele>
        <time>2026-09-02T17:20:24.099Z</time>
      </trkpt>
      <trkpt lat="44.67245" lon="5.15453">
        <ele>496</ele>
        <time>2026-09-02T17:20:25.099Z</time>
      </trkpt>
      <trkpt lat="44.67246" lon="5.15452">
        <ele>496</ele>
        <time>2026-09-02T17:20:26.099Z</time>
      </trkpt>
      <trkpt lat="44.67246" lon="5.15451">
        <ele>496</ele>
        <time>2026-09-02T17:20:27.099Z</time>
      </trkpt>
      <trkpt lat="44.67247" lon="5.15449">
        <ele>496</ele>
        <time>2026-09-02T17:20:28.099Z</time>
      </trkpt>
      <trkpt lat="44.67248" lon="5.15448">
        <ele>497</ele>
        <time>2026-09-02T17:20:29.099Z</time>
      </trkpt>
      <trkpt lat="44.67248" lon="5.15447">
        <ele>497</ele>
        <time>2026-09-02T17:20:30.099Z</time>
      </trkpt>
      <trkpt lat="44.67249" lon="5.15446">
        <ele>497</ele>
        <time>2026-09-02T17:20:31.099Z</time>
      </trkpt>
      <trkpt lat="44.67249" lon="5.15446">
        <ele>497</ele>
        <time>2026-09-02T17:20:32.099Z</time>
      </trkpt>
      <trkpt lat="44.67249" lon="5.15445">
        <ele>497</ele>
        <time>2026-09-02T17:20:33.099Z</time>
      </trkpt>
      <trkpt lat="44.6725" lon="5.15443">
        <ele>497</ele>
        <time>2026-09-02T17:20:34.099Z</time>
      </trkpt>
      <trkpt lat="44.6725" lon="5.15442">
        <ele>497</ele>
        <time>2026-09-02T17:20:35.099Z</time>
      </trkpt>
      <trkpt lat="44.67251" lon="5.15441">
        <ele>497</ele>
        <time>2026-09-02T17:20:36.099Z</time>
      </trkpt>
      <trkpt lat="44.67251" lon="5.15439">
        <ele>498</ele>
        <time>2026-09-02T17:20:37.099Z</time>
      </trkpt>
      <trkpt lat="44.67251" lon="5.15438">
        <ele>498</ele>
        <time>2026-09-02T17:20:38.099Z</time>
      </trkpt>
      <trkpt lat="44.67252" lon="5.15437">
        <ele>498</ele>
        <time>2026-09-02T17:20:39.099Z</time>
      </trkpt>
      <trkpt lat="44.67252" lon="5.15436">
        <ele>498</ele>
        <time>2026-09-02T17:20:40.099Z</time>
      </trkpt>
      <trkpt lat="44.67253" lon="5.15435">
        <ele>498</ele>
        <time>2026-09-02T17:20:41.099Z</time>
      </trkpt>
      <trkpt lat="44.67253" lon="5.15434">
        <ele>498</ele>
        <time>2026-09-02T17:20:42.099Z</time>
      </trkpt>
      <trkpt lat="44.67254" lon="5.15433">
        <ele>498</ele>
        <time>2026-09-02T17:20:43.099Z</time>
      </trkpt>
      <trkpt lat="44.67254" lon="5.15431">
        <ele>498</ele>
        <time>2026-09-02T17:20:44.099Z</time>
      </trkpt>
      <trkpt lat="44.67254" lon="5.15429">
        <ele>498</ele>
        <time>2026-09-02T17:20:45.099Z</time>
      </trkpt>
      <trkpt lat="44.67255" lon="5.15428">
        <ele>498</ele>
        <time>2026-09-02T17:20:46.099Z</time>
      </trkpt>
      <trkpt lat="44.67255" lon="5.15427">
        <ele>498</ele>
        <time>2026-09-02T17:20:47.099Z</time>
      </trkpt>
      <trkpt lat="44.67255" lon="5.15426">
        <ele>498</ele>
        <time>2026-09-02T17:20:48.099Z</time>
      </trkpt>
      <trkpt lat="44.67256" lon="5.15424">
        <ele>498</ele>
        <time>2026-09-02T17:20:49.099Z</time>
      </trkpt>
      <trkpt lat="44.67256" lon="5.15423">
        <ele>498</ele>
        <time>2026-09-02T17:20:50.099Z</time>
      </trkpt>
      <trkpt lat="44.67256" lon="5.15422">
        <ele>498</ele>
        <time>2026-09-02T17:20:51.099Z</time>
      </trkpt>
      <trkpt lat="44.67257" lon="5.15421">
        <ele>498</ele>
        <time>2026-09-02T17:20:52.099Z</time>
      </trkpt>
      <trkpt lat="44.67257" lon="5.15421">
        <ele>499</ele>
        <time>2026-09-02T17:20:53.099Z</time>
      </trkpt>
      <trkpt lat="44.67258" lon="5.15417">
        <ele>499</ele>
        <time>2026-09-02T17:20:56.400Z</time>
      </trkpt>
      <trkpt lat="44.67258" lon="5.15416">
        <ele>499</ele>
        <time>2026-09-02T17:20:57.400Z</time>
      </trkpt>
      <trkpt lat="44.67258" lon="5.15415">
        <ele>499</ele>
        <time>2026-09-02T17:20:58.400Z</time>
      </trkpt>
      <trkpt lat="44.67259" lon="5.15414">
        <ele>499</ele>
        <time>2026-09-02T17:20:59.400Z</time>
      </trkpt>
      <trkpt lat="44.67259" lon="5.15413">
        <ele>499</ele>
        <time>2026-09-02T17:21:00.400Z</time>
      </trkpt>
      <trkpt lat="44.67259" lon="5.15413">
        <ele>499</ele>
        <time>2026-09-02T17:21:01.400Z</time>
      </trkpt>
      <trkpt lat="44.6726" lon="5.15412">
        <ele>499</ele>
        <time>2026-09-02T17:21:02.400Z</time>
      </trkpt>
      <trkpt lat="44.6726" lon="5.15407">
        <ele>499</ele>
        <time>2026-09-02T17:21:05.701Z</time>
      </trkpt>
      <trkpt lat="44.6726" lon="5.15406">
        <ele>500</ele>
        <time>2026-09-02T17:21:06.701Z</time>
      </trkpt>
      <trkpt lat="44.6726" lon="5.15405">
        <ele>500</ele>
        <time>2026-09-02T17:21:07.701Z</time>
      </trkpt>
      <trkpt lat="44.67261" lon="5.15403">
        <ele>500</ele>
        <time>2026-09-02T17:21:08.701Z</time>
      </trkpt>
      <trkpt lat="44.67261" lon="5.154">
        <ele>500</ele>
        <time>2026-09-02T17:21:12.001Z</time>
      </trkpt>
      <trkpt lat="44.67262" lon="5.15399">
        <ele>500</ele>
        <time>2026-09-02T17:21:13.001Z</time>
      </trkpt>
      <trkpt lat="44.67262" lon="5.15398">
        <ele>500</ele>
        <time>2026-09-02T17:21:14.001Z</time>
      </trkpt>
      <trkpt lat="44.67262" lon="5.15397">
        <ele>500</ele>
        <time>2026-09-02T17:21:15.001Z</time>
      </trkpt>
      <trkpt lat="44.67263" lon="5.15395">
        <ele>500</ele>
        <time>2026-09-02T17:21:16.001Z</time>
      </trkpt>
      <trkpt lat="44.67263" lon="5.15394">
        <ele>500</ele>
        <time>2026-09-02T17:21:17.001Z</time>
      </trkpt>
      <trkpt lat="44.67263" lon="5.15393">
        <ele>500</ele>
        <time>2026-09-02T17:21:18.001Z</time>
      </trkpt>
      <trkpt lat="44.67263" lon="5.15392">
        <ele>500</ele>
        <time>2026-09-02T17:21:19.001Z</time>
      </trkpt>
      <trkpt lat="44.67264" lon="5.15391">
        <ele>500</ele>
        <time>2026-09-02T17:21:20.001Z</time>
      </trkpt>
      <trkpt lat="44.67264" lon="5.15389">
        <ele>500</ele>
        <time>2026-09-02T17:21:21.001Z</time>
      </trkpt>
      <trkpt lat="44.67264" lon="5.15388">
        <ele>500</ele>
        <time>2026-09-02T17:21:22.001Z</time>
      </trkpt>
      <trkpt lat="44.67265" lon="5.15387">
        <ele>500</ele>
        <time>2026-09-02T17:21:23.001Z</time>
      </trkpt>
      <trkpt lat="44.67265" lon="5.15386">
        <ele>501</ele>
        <time>2026-09-02T17:21:24.001Z</time>
      </trkpt>
      <trkpt lat="44.67265" lon="5.15385">
        <ele>501</ele>
        <time>2026-09-02T17:21:25.001Z</time>
      </trkpt>
      <trkpt lat="44.67266" lon="5.15384">
        <ele>501</ele>
        <time>2026-09-02T17:21:26.001Z</time>
      </trkpt>
      <trkpt lat="44.67266" lon="5.15383">
        <ele>501</ele>
        <time>2026-09-02T17:21:27.001Z</time>
      </trkpt>
      <trkpt lat="44.67266" lon="5.15382">
        <ele>501</ele>
        <time>2026-09-02T17:21:28.001Z</time>
      </trkpt>
      <trkpt lat="44.67267" lon="5.15381">
        <ele>501</ele>
        <time>2026-09-02T17:21:29.001Z</time>
      </trkpt>
      <trkpt lat="44.67267" lon="5.15379">
        <ele>501</ele>
        <time>2026-09-02T17:21:30.001Z</time>
      </trkpt>
      <trkpt lat="44.67268" lon="5.15377">
        <ele>500</ele>
        <time>2026-09-02T17:21:31.001Z</time>
      </trkpt>
      <trkpt lat="44.67268" lon="5.15375">
        <ele>500</ele>
        <time>2026-09-02T17:21:32.001Z</time>
      </trkpt>
      <trkpt lat="44.67269" lon="5.15373">
        <ele>500</ele>
        <time>2026-09-02T17:21:33.001Z</time>
      </trkpt>
      <trkpt lat="44.6727" lon="5.15371">
        <ele>500</ele>
        <time>2026-09-02T17:21:34.001Z</time>
      </trkpt>
      <trkpt lat="44.6727" lon="5.1537">
        <ele>500</ele>
        <time>2026-09-02T17:21:35.001Z</time>
      </trkpt>
      <trkpt lat="44.6727" lon="5.15368">
        <ele>500</ele>
        <time>2026-09-02T17:21:36.001Z</time>
      </trkpt>
      <trkpt lat="44.67271" lon="5.15367">
        <ele>500</ele>
        <time>2026-09-02T17:21:37.001Z</time>
      </trkpt>
      <trkpt lat="44.67271" lon="5.15366">
        <ele>500</ele>
        <time>2026-09-02T17:21:38.001Z</time>
      </trkpt>
      <trkpt lat="44.67271" lon="5.15364">
        <ele>500</ele>
        <time>2026-09-02T17:21:39.001Z</time>
      </trkpt>
      <trkpt lat="44.67272" lon="5.15363">
        <ele>500</ele>
        <time>2026-09-02T17:21:40.001Z</time>
      </trkpt>
      <trkpt lat="44.67272" lon="5.15361">
        <ele>500</ele>
        <time>2026-09-02T17:21:41.001Z</time>
      </trkpt>
      <trkpt lat="44.67272" lon="5.1536">
        <ele>500</ele>
        <time>2026-09-02T17:21:42.001Z</time>
      </trkpt>
      <trkpt lat="44.67272" lon="5.15359">
        <ele>500</ele>
        <time>2026-09-02T17:21:43.001Z</time>
      </trkpt>
      <trkpt lat="44.67272" lon="5.15358">
        <ele>500</ele>
        <time>2026-09-02T17:21:44.001Z</time>
      </trkpt>
      <trkpt lat="44.67272" lon="5.15357">
        <ele>500</ele>
        <time>2026-09-02T17:21:45.001Z</time>
      </trkpt>
      <trkpt lat="44.67273" lon="5.15355">
        <ele>501</ele>
        <time>2026-09-02T17:21:46.001Z</time>
      </trkpt>
      <trkpt lat="44.67273" lon="5.15354">
        <ele>501</ele>
        <time>2026-09-02T17:21:47.001Z</time>
      </trkpt>
      <trkpt lat="44.67273" lon="5.15352">
        <ele>501</ele>
        <time>2026-09-02T17:21:48.001Z</time>
      </trkpt>
      <trkpt lat="44.67273" lon="5.15351">
        <ele>501</ele>
        <time>2026-09-02T17:21:49.001Z</time>
      </trkpt>
      <trkpt lat="44.67273" lon="5.15349">
        <ele>501</ele>
        <time>2026-09-02T17:21:50.001Z</time>
      </trkpt>
      <trkpt lat="44.67274" lon="5.15347">
        <ele>501</ele>
        <time>2026-09-02T17:21:51.001Z</time>
      </trkpt>
      <trkpt lat="44.67274" lon="5.15346">
        <ele>501</ele>
        <time>2026-09-02T17:21:52.001Z</time>
      </trkpt>
      <trkpt lat="44.67274" lon="5.15344">
        <ele>501</ele>
        <time>2026-09-02T17:21:53.001Z</time>
      </trkpt>
      <trkpt lat="44.67274" lon="5.15342">
        <ele>501</ele>
        <time>2026-09-02T17:21:54.001Z</time>
      </trkpt>
      <trkpt lat="44.67274" lon="5.1534">
        <ele>500</ele>
        <time>2026-09-02T17:21:55.001Z</time>
      </trkpt>
      <trkpt lat="44.67275" lon="5.15339">
        <ele>500</ele>
        <time>2026-09-02T17:21:56.001Z</time>
      </trkpt>
      <trkpt lat="44.67275" lon="5.15337">
        <ele>500</ele>
        <time>2026-09-02T17:21:57.001Z</time>
      </trkpt>
      <trkpt lat="44.67275" lon="5.15336">
        <ele>500</ele>
        <time>2026-09-02T17:21:58.001Z</time>
      </trkpt>
      <trkpt lat="44.67275" lon="5.15334">
        <ele>500</ele>
        <time>2026-09-02T17:21:59.001Z</time>
      </trkpt>
      <trkpt lat="44.67275" lon="5.15333">
        <ele>500</ele>
        <time>2026-09-02T17:22:00.001Z</time>
      </trkpt>
      <trkpt lat="44.67275" lon="5.15331">
        <ele>500</ele>
        <time>2026-09-02T17:22:01.001Z</time>
      </trkpt>
      <trkpt lat="44.67275" lon="5.1533">
        <ele>500</ele>
        <time>2026-09-02T17:22:02.001Z</time>
      </trkpt>
      <trkpt lat="44.67275" lon="5.15329">
        <ele>500</ele>
        <time>2026-09-02T17:22:03.001Z</time>
      </trkpt>
      <trkpt lat="44.67275" lon="5.15328">
        <ele>500</ele>
        <time>2026-09-02T17:22:04.001Z</time>
      </trkpt>
      <trkpt lat="44.67276" lon="5.15328">
        <ele>500</ele>
        <time>2026-09-02T17:22:05.001Z</time>
      </trkpt>
      <trkpt lat="44.67276" lon="5.15327">
        <ele>500</ele>
        <time>2026-09-02T17:22:06.001Z</time>
      </trkpt>
      <trkpt lat="44.67276" lon="5.15326">
        <ele>500</ele>
        <time>2026-09-02T17:22:07.001Z</time>
      </trkpt>
      <trkpt lat="44.67276" lon="5.15325">
        <ele>500</ele>
        <time>2026-09-02T17:22:08.001Z</time>
      </trkpt>
      <trkpt lat="44.67276" lon="5.15324">
        <ele>500</ele>
        <time>2026-09-02T17:22:09.001Z</time>
      </trkpt>
      <trkpt lat="44.67277" lon="5.15323">
        <ele>501</ele>
        <time>2026-09-02T17:22:10.001Z</time>
      </trkpt>
      <trkpt lat="44.67277" lon="5.15322">
        <ele>501</ele>
        <time>2026-09-02T17:22:11.001Z</time>
      </trkpt>
      <trkpt lat="44.67277" lon="5.1532">
        <ele>501</ele>
        <time>2026-09-02T17:22:12.001Z</time>
      </trkpt>
      <trkpt lat="44.67277" lon="5.15319">
        <ele>501</ele>
        <time>2026-09-02T17:22:13.001Z</time>
      </trkpt>
      <trkpt lat="44.67277" lon="5.15318">
        <ele>501</ele>
        <time>2026-09-02T17:22:14.001Z</time>
      </trkpt>
      <trkpt lat="44.67277" lon="5.15317">
        <ele>501</ele>
        <time>2026-09-02T17:22:15.001Z</time>
      </trkpt>
      <trkpt lat="44.67277" lon="5.15315">
        <ele>501</ele>
        <time>2026-09-02T17:22:16.001Z</time>
      </trkpt>
      <trkpt lat="44.67278" lon="5.15314">
        <ele>501</ele>
        <time>2026-09-02T17:22:17.001Z</time>
      </trkpt>
      <trkpt lat="44.67278" lon="5.15313">
        <ele>501</ele>
        <time>2026-09-02T17:22:18.001Z</time>
      </trkpt>
      <trkpt lat="44.67278" lon="5.15312">
        <ele>501</ele>
        <time>2026-09-02T17:22:19.001Z</time>
      </trkpt>
      <trkpt lat="44.67278" lon="5.1531">
        <ele>501</ele>
        <time>2026-09-02T17:22:20.001Z</time>
      </trkpt>
      <trkpt lat="44.67278" lon="5.15309">
        <ele>501</ele>
        <time>2026-09-02T17:22:21.001Z</time>
      </trkpt>
      <trkpt lat="44.67278" lon="5.15308">
        <ele>501</ele>
        <time>2026-09-02T17:22:22.001Z</time>
      </trkpt>
      <trkpt lat="44.67279" lon="5.15307">
        <ele>502</ele>
        <time>2026-09-02T17:22:23.001Z</time>
      </trkpt>
      <trkpt lat="44.67279" lon="5.15305">
        <ele>502</ele>
        <time>2026-09-02T17:22:24.001Z</time>
      </trkpt>
      <trkpt lat="44.67279" lon="5.15304">
        <ele>502</ele>
        <time>2026-09-02T17:22:25.001Z</time>
      </trkpt>
      <trkpt lat="44.67279" lon="5.15303">
        <ele>501</ele>
        <time>2026-09-02T17:22:26.001Z</time>
      </trkpt>
      <trkpt lat="44.67279" lon="5.15301">
        <ele>501</ele>
        <time>2026-09-02T17:22:27.001Z</time>
      </trkpt>
      <trkpt lat="44.67279" lon="5.153">
        <ele>502</ele>
        <time>2026-09-02T17:22:28.001Z</time>
      </trkpt>
      <trkpt lat="44.67279" lon="5.15298">
        <ele>502</ele>
        <time>2026-09-02T17:22:29.001Z</time>
      </trkpt>
      <trkpt lat="44.6728" lon="5.15297">
        <ele>502</ele>
        <time>2026-09-02T17:22:30.001Z</time>
      </trkpt>
      <trkpt lat="44.6728" lon="5.15295">
        <ele>502</ele>
        <time>2026-09-02T17:22:31.001Z</time>
      </trkpt>
      <trkpt lat="44.6728" lon="5.15294">
        <ele>502</ele>
        <time>2026-09-02T17:22:32.001Z</time>
      </trkpt>
      <trkpt lat="44.6728" lon="5.15293">
        <ele>502</ele>
        <time>2026-09-02T17:22:33.001Z</time>
      </trkpt>
      <trkpt lat="44.6728" lon="5.15292">
        <ele>502</ele>
        <time>2026-09-02T17:22:34.001Z</time>
      </trkpt>
      <trkpt lat="44.6728" lon="5.1529">
        <ele>502</ele>
        <time>2026-09-02T17:22:35.001Z</time>
      </trkpt>
      <trkpt lat="44.6728" lon="5.15289">
        <ele>502</ele>
        <time>2026-09-02T17:22:36.001Z</time>
      </trkpt>
      <trkpt lat="44.67281" lon="5.15288">
        <ele>502</ele>
        <time>2026-09-02T17:22:37.001Z</time>
      </trkpt>
      <trkpt lat="44.67281" lon="5.15286">
        <ele>502</ele>
        <time>2026-09-02T17:22:38.001Z</time>
      </trkpt>
      <trkpt lat="44.67281" lon="5.15285">
        <ele>502</ele>
        <time>2026-09-02T17:22:39.001Z</time>
      </trkpt>
      <trkpt lat="44.67281" lon="5.15283">
        <ele>502</ele>
        <time>2026-09-02T17:22:40.001Z</time>
      </trkpt>
      <trkpt lat="44.67281" lon="5.15282">
        <ele>502</ele>
        <time>2026-09-02T17:22:41.001Z</time>
      </trkpt>
      <trkpt lat="44.67282" lon="5.1528">
        <ele>502</ele>
        <time>2026-09-02T17:22:42.001Z</time>
      </trkpt>
      <trkpt lat="44.67282" lon="5.15279">
        <ele>502</ele>
        <time>2026-09-02T17:22:43.001Z</time>
      </trkpt>
      <trkpt lat="44.67282" lon="5.15277">
        <ele>502</ele>
        <time>2026-09-02T17:22:44.001Z</time>
      </trkpt>
      <trkpt lat="44.67282" lon="5.15275">
        <ele>502</ele>
        <time>2026-09-02T17:22:45.001Z</time>
      </trkpt>
      <trkpt lat="44.67282" lon="5.15274">
        <ele>502</ele>
        <time>2026-09-02T17:22:46.001Z</time>
      </trkpt>
      <trkpt lat="44.67282" lon="5.15273">
        <ele>502</ele>
        <time>2026-09-02T17:22:47.001Z</time>
      </trkpt>
      <trkpt lat="44.67282" lon="5.15271">
        <ele>502</ele>
        <time>2026-09-02T17:22:48.001Z</time>
      </trkpt>
      <trkpt lat="44.67282" lon="5.1527">
        <ele>502</ele>
        <time>2026-09-02T17:22:49.001Z</time>
      </trkpt>
      <trkpt lat="44.67282" lon="5.15269">
        <ele>502</ele>
        <time>2026-09-02T17:22:50.001Z</time>
      </trkpt>
      <trkpt lat="44.67282" lon="5.15267">
        <ele>502</ele>
        <time>2026-09-02T17:22:51.001Z</time>
      </trkpt>
      <trkpt lat="44.67282" lon="5.15265">
        <ele>502</ele>
        <time>2026-09-02T17:22:52.001Z</time>
      </trkpt>
      <trkpt lat="44.67282" lon="5.15264">
        <ele>502</ele>
        <time>2026-09-02T17:22:53.001Z</time>
      </trkpt>
      <trkpt lat="44.67282" lon="5.15263">
        <ele>502</ele>
        <time>2026-09-02T17:22:54.001Z</time>
      </trkpt>
      <trkpt lat="44.67282" lon="5.15261">
        <ele>502</ele>
        <time>2026-09-02T17:22:55.001Z</time>
      </trkpt>
      <trkpt lat="44.67282" lon="5.1526">
        <ele>502</ele>
        <time>2026-09-02T17:22:56.001Z</time>
      </trkpt>
      <trkpt lat="44.67282" lon="5.15259">
        <ele>503</ele>
        <time>2026-09-02T17:22:57.001Z</time>
      </trkpt>
      <trkpt lat="44.67281" lon="5.15257">
        <ele>503</ele>
        <time>2026-09-02T17:22:58.001Z</time>
      </trkpt>
      <trkpt lat="44.67281" lon="5.15256">
        <ele>503</ele>
        <time>2026-09-02T17:22:59.001Z</time>
      </trkpt>
      <trkpt lat="44.67281" lon="5.15254">
        <ele>503</ele>
        <time>2026-09-02T17:23:00.001Z</time>
      </trkpt>
      <trkpt lat="44.6728" lon="5.15253">
        <ele>504</ele>
        <time>2026-09-02T17:23:01.001Z</time>
      </trkpt>
      <trkpt lat="44.6728" lon="5.15251">
        <ele>504</ele>
        <time>2026-09-02T17:23:02.001Z</time>
      </trkpt>
      <trkpt lat="44.6728" lon="5.15249">
        <ele>504</ele>
        <time>2026-09-02T17:23:03.001Z</time>
      </trkpt>
      <trkpt lat="44.67279" lon="5.15248">
        <ele>504</ele>
        <time>2026-09-02T17:23:04.001Z</time>
      </trkpt>
      <trkpt lat="44.67279" lon="5.15247">
        <ele>505</ele>
        <time>2026-09-02T17:23:05.001Z</time>
      </trkpt>
      <trkpt lat="44.67278" lon="5.15246">
        <ele>505</ele>
        <time>2026-09-02T17:23:06.001Z</time>
      </trkpt>
      <trkpt lat="44.67278" lon="5.15245">
        <ele>505</ele>
        <time>2026-09-02T17:23:07.001Z</time>
      </trkpt>
      <trkpt lat="44.67278" lon="5.15245">
        <ele>506</ele>
        <time>2026-09-02T17:23:08.001Z</time>
      </trkpt>
      <trkpt lat="44.67278" lon="5.15245">
        <ele>506</ele>
        <time>2026-09-02T17:23:09.001Z</time>
      </trkpt>
      <trkpt lat="44.67277" lon="5.15244">
        <ele>506</ele>
        <time>2026-09-02T17:23:10.001Z</time>
      </trkpt>
      <trkpt lat="44.67277" lon="5.15243">
        <ele>506</ele>
        <time>2026-09-02T17:23:11.001Z</time>
      </trkpt>
      <trkpt lat="44.67276" lon="5.15243">
        <ele>506</ele>
        <time>2026-09-02T17:23:12.001Z</time>
      </trkpt>
      <trkpt lat="44.67276" lon="5.15242">
        <ele>507</ele>
        <time>2026-09-02T17:23:13.001Z</time>
      </trkpt>
      <trkpt lat="44.67275" lon="5.15241">
        <ele>507</ele>
        <time>2026-09-02T17:23:14.001Z</time>
      </trkpt>
      <trkpt lat="44.67275" lon="5.15241">
        <ele>507</ele>
        <time>2026-09-02T17:23:15.001Z</time>
      </trkpt>
      <trkpt lat="44.67275" lon="5.1524">
        <ele>507</ele>
        <time>2026-09-02T17:23:16.001Z</time>
      </trkpt>
      <trkpt lat="44.67274" lon="5.15239">
        <ele>507</ele>
        <time>2026-09-02T17:23:17.001Z</time>
      </trkpt>
      <trkpt lat="44.67273" lon="5.15238">
        <ele>507</ele>
        <time>2026-09-02T17:23:18.001Z</time>
      </trkpt>
      <trkpt lat="44.67273" lon="5.15237">
        <ele>507</ele>
        <time>2026-09-02T17:23:19.001Z</time>
      </trkpt>
      <trkpt lat="44.67273" lon="5.15236">
        <ele>507</ele>
        <time>2026-09-02T17:23:20.001Z</time>
      </trkpt>
      <trkpt lat="44.67273" lon="5.15235">
        <ele>507</ele>
        <time>2026-09-02T17:23:21.001Z</time>
      </trkpt>
      <trkpt lat="44.67272" lon="5.15234">
        <ele>508</ele>
        <time>2026-09-02T17:23:22.001Z</time>
      </trkpt>
      <trkpt lat="44.67272" lon="5.15233">
        <ele>508</ele>
        <time>2026-09-02T17:23:23.001Z</time>
      </trkpt>
      <trkpt lat="44.67271" lon="5.15232">
        <ele>508</ele>
        <time>2026-09-02T17:23:24.001Z</time>
      </trkpt>
      <trkpt lat="44.67271" lon="5.15231">
        <ele>508</ele>
        <time>2026-09-02T17:23:25.001Z</time>
      </trkpt>
      <trkpt lat="44.6727" lon="5.1523">
        <ele>508</ele>
        <time>2026-09-02T17:23:26.001Z</time>
      </trkpt>
      <trkpt lat="44.6727" lon="5.1523">
        <ele>509</ele>
        <time>2026-09-02T17:23:27.001Z</time>
      </trkpt>
      <trkpt lat="44.67269" lon="5.15229">
        <ele>509</ele>
        <time>2026-09-02T17:23:28.001Z</time>
      </trkpt>
      <trkpt lat="44.67269" lon="5.15228">
        <ele>509</ele>
        <time>2026-09-02T17:23:29.001Z</time>
      </trkpt>
      <trkpt lat="44.67268" lon="5.15227">
        <ele>509</ele>
        <time>2026-09-02T17:23:30.001Z</time>
      </trkpt>
      <trkpt lat="44.67268" lon="5.15226">
        <ele>510</ele>
        <time>2026-09-02T17:23:31.001Z</time>
      </trkpt>
      <trkpt lat="44.67267" lon="5.15225">
        <ele>510</ele>
        <time>2026-09-02T17:23:32.001Z</time>
      </trkpt>
      <trkpt lat="44.67267" lon="5.15224">
        <ele>510</ele>
        <time>2026-09-02T17:23:33.001Z</time>
      </trkpt>
      <trkpt lat="44.67266" lon="5.15222">
        <ele>510</ele>
        <time>2026-09-02T17:23:34.001Z</time>
      </trkpt>
      <trkpt lat="44.67265" lon="5.15221">
        <ele>510</ele>
        <time>2026-09-02T17:23:35.001Z</time>
      </trkpt>
      <trkpt lat="44.67265" lon="5.1522">
        <ele>511</ele>
        <time>2026-09-02T17:23:36.001Z</time>
      </trkpt>
      <trkpt lat="44.67264" lon="5.15219">
        <ele>511</ele>
        <time>2026-09-02T17:23:37.001Z</time>
      </trkpt>
      <trkpt lat="44.67264" lon="5.15219">
        <ele>511</ele>
        <time>2026-09-02T17:23:38.001Z</time>
      </trkpt>
      <trkpt lat="44.67263" lon="5.15218">
        <ele>511</ele>
        <time>2026-09-02T17:23:39.001Z</time>
      </trkpt>
      <trkpt lat="44.67263" lon="5.15216">
        <ele>512</ele>
        <time>2026-09-02T17:23:40.001Z</time>
      </trkpt>
      <trkpt lat="44.67262" lon="5.15215">
        <ele>512</ele>
        <time>2026-09-02T17:23:41.001Z</time>
      </trkpt>
      <trkpt lat="44.67262" lon="5.15213">
        <ele>512</ele>
        <time>2026-09-02T17:23:42.001Z</time>
      </trkpt>
      <trkpt lat="44.67261" lon="5.15212">
        <ele>512</ele>
        <time>2026-09-02T17:23:43.001Z</time>
      </trkpt>
      <trkpt lat="44.6726" lon="5.15211">
        <ele>512</ele>
        <time>2026-09-02T17:23:44.001Z</time>
      </trkpt>
      <trkpt lat="44.6726" lon="5.1521">
        <ele>512</ele>
        <time>2026-09-02T17:23:45.001Z</time>
      </trkpt>
      <trkpt lat="44.67259" lon="5.15209">
        <ele>512</ele>
        <time>2026-09-02T17:23:46.001Z</time>
      </trkpt>
      <trkpt lat="44.67259" lon="5.15208">
        <ele>512</ele>
        <time>2026-09-02T17:23:47.001Z</time>
      </trkpt>
      <trkpt lat="44.67258" lon="5.15207">
        <ele>512</ele>
        <time>2026-09-02T17:23:48.001Z</time>
      </trkpt>
      <trkpt lat="44.67258" lon="5.15206">
        <ele>513</ele>
        <time>2026-09-02T17:23:49.001Z</time>
      </trkpt>
      <trkpt lat="44.67257" lon="5.15205">
        <ele>513</ele>
        <time>2026-09-02T17:23:50.001Z</time>
      </trkpt>
      <trkpt lat="44.67257" lon="5.15205">
        <ele>513</ele>
        <time>2026-09-02T17:23:51.001Z</time>
      </trkpt>
      <trkpt lat="44.67257" lon="5.15204">
        <ele>513</ele>
        <time>2026-09-02T17:23:52.001Z</time>
      </trkpt>
      <trkpt lat="44.67256" lon="5.15203">
        <ele>513</ele>
        <time>2026-09-02T17:23:53.001Z</time>
      </trkpt>
      <trkpt lat="44.67256" lon="5.15202">
        <ele>514</ele>
        <time>2026-09-02T17:23:54.001Z</time>
      </trkpt>
      <trkpt lat="44.67255" lon="5.15201">
        <ele>514</ele>
        <time>2026-09-02T17:23:55.001Z</time>
      </trkpt>
      <trkpt lat="44.67254" lon="5.152">
        <ele>514</ele>
        <time>2026-09-02T17:23:56.001Z</time>
      </trkpt>
      <trkpt lat="44.67254" lon="5.15198">
        <ele>514</ele>
        <time>2026-09-02T17:23:57.001Z</time>
      </trkpt>
      <trkpt lat="44.67253" lon="5.15197">
        <ele>514</ele>
        <time>2026-09-02T17:23:58.001Z</time>
      </trkpt>
      <trkpt lat="44.67252" lon="5.15196">
        <ele>515</ele>
        <time>2026-09-02T17:23:59.001Z</time>
      </trkpt>
      <trkpt lat="44.67252" lon="5.15194">
        <ele>515</ele>
        <time>2026-09-02T17:24:00.001Z</time>
      </trkpt>
      <trkpt lat="44.67251" lon="5.15193">
        <ele>515</ele>
        <time>2026-09-02T17:24:01.001Z</time>
      </trkpt>
      <trkpt lat="44.67251" lon="5.15192">
        <ele>515</ele>
        <time>2026-09-02T17:24:02.001Z</time>
      </trkpt>
      <trkpt lat="44.6725" lon="5.1519">
        <ele>515</ele>
        <time>2026-09-02T17:24:03.001Z</time>
      </trkpt>
      <trkpt lat="44.6725" lon="5.15189">
        <ele>515</ele>
        <time>2026-09-02T17:24:04.001Z</time>
      </trkpt>
      <trkpt lat="44.67249" lon="5.15188">
        <ele>516</ele>
        <time>2026-09-02T17:24:05.001Z</time>
      </trkpt>
      <trkpt lat="44.67249" lon="5.15187">
        <ele>516</ele>
        <time>2026-09-02T17:24:06.001Z</time>
      </trkpt>
      <trkpt lat="44.67248" lon="5.15186">
        <ele>516</ele>
        <time>2026-09-02T17:24:07.001Z</time>
      </trkpt>
      <trkpt lat="44.67247" lon="5.15185">
        <ele>516</ele>
        <time>2026-09-02T17:24:08.001Z</time>
      </trkpt>
      <trkpt lat="44.67247" lon="5.15184">
        <ele>516</ele>
        <time>2026-09-02T17:24:09.001Z</time>
      </trkpt>
      <trkpt lat="44.67246" lon="5.15183">
        <ele>516</ele>
        <time>2026-09-02T17:24:10.001Z</time>
      </trkpt>
      <trkpt lat="44.67245" lon="5.15182">
        <ele>516</ele>
        <time>2026-09-02T17:24:11.001Z</time>
      </trkpt>
      <trkpt lat="44.67245" lon="5.15181">
        <ele>516</ele>
        <time>2026-09-02T17:24:12.001Z</time>
      </trkpt>
      <trkpt lat="44.67244" lon="5.1518">
        <ele>516</ele>
        <time>2026-09-02T17:24:13.001Z</time>
      </trkpt>
      <trkpt lat="44.67244" lon="5.1518">
        <ele>516</ele>
        <time>2026-09-02T17:24:14.001Z</time>
      </trkpt>
      <trkpt lat="44.67243" lon="5.15179">
        <ele>517</ele>
        <time>2026-09-02T17:24:15.001Z</time>
      </trkpt>
      <trkpt lat="44.67242" lon="5.15178">
        <ele>517</ele>
        <time>2026-09-02T17:24:16.001Z</time>
      </trkpt>
      <trkpt lat="44.67242" lon="5.15177">
        <ele>517</ele>
        <time>2026-09-02T17:24:17.001Z</time>
      </trkpt>
      <trkpt lat="44.67241" lon="5.15176">
        <ele>517</ele>
        <time>2026-09-02T17:24:18.001Z</time>
      </trkpt>
      <trkpt lat="44.6724" lon="5.15176">
        <ele>517</ele>
        <time>2026-09-02T17:24:19.001Z</time>
      </trkpt>
      <trkpt lat="44.6724" lon="5.15175">
        <ele>517</ele>
        <time>2026-09-02T17:24:20.001Z</time>
      </trkpt>
      <trkpt lat="44.67239" lon="5.15175">
        <ele>517</ele>
        <time>2026-09-02T17:24:21.001Z</time>
      </trkpt>
      <trkpt lat="44.67239" lon="5.15174">
        <ele>518</ele>
        <time>2026-09-02T17:24:22.001Z</time>
      </trkpt>
      <trkpt lat="44.67238" lon="5.15174">
        <ele>518</ele>
        <time>2026-09-02T17:24:23.001Z</time>
      </trkpt>
      <trkpt lat="44.67238" lon="5.15173">
        <ele>518</ele>
        <time>2026-09-02T17:24:24.001Z</time>
      </trkpt>
      <trkpt lat="44.67237" lon="5.15172">
        <ele>518</ele>
        <time>2026-09-02T17:24:25.001Z</time>
      </trkpt>
      <trkpt lat="44.67236" lon="5.15171">
        <ele>518</ele>
        <time>2026-09-02T17:24:26.001Z</time>
      </trkpt>
      <trkpt lat="44.67235" lon="5.15171">
        <ele>518</ele>
        <time>2026-09-02T17:24:27.001Z</time>
      </trkpt>
      <trkpt lat="44.67234" lon="5.1517">
        <ele>518</ele>
        <time>2026-09-02T17:24:28.001Z</time>
      </trkpt>
      <trkpt lat="44.67233" lon="5.15169">
        <ele>519</ele>
        <time>2026-09-02T17:24:29.001Z</time>
      </trkpt>
      <trkpt lat="44.67233" lon="5.15168">
        <ele>519</ele>
        <time>2026-09-02T17:24:30.001Z</time>
      </trkpt>
      <trkpt lat="44.67232" lon="5.15168">
        <ele>519</ele>
        <time>2026-09-02T17:24:31.001Z</time>
      </trkpt>
      <trkpt lat="44.67231" lon="5.15167">
        <ele>519</ele>
        <time>2026-09-02T17:24:32.001Z</time>
      </trkpt>
      <trkpt lat="44.67231" lon="5.15166">
        <ele>519</ele>
        <time>2026-09-02T17:24:33.001Z</time>
      </trkpt>
      <trkpt lat="44.6723" lon="5.15166">
        <ele>519</ele>
        <time>2026-09-02T17:24:34.001Z</time>
      </trkpt>
      <trkpt lat="44.67229" lon="5.15165">
        <ele>519</ele>
        <time>2026-09-02T17:24:35.001Z</time>
      </trkpt>
      <trkpt lat="44.67228" lon="5.15164">
        <ele>519</ele>
        <time>2026-09-02T17:24:36.001Z</time>
      </trkpt>
      <trkpt lat="44.67228" lon="5.15164">
        <ele>519</ele>
        <time>2026-09-02T17:24:37.001Z</time>
      </trkpt>
      <trkpt lat="44.67227" lon="5.15163">
        <ele>519</ele>
        <time>2026-09-02T17:24:38.001Z</time>
      </trkpt>
      <trkpt lat="44.67226" lon="5.15162">
        <ele>519</ele>
        <time>2026-09-02T17:24:39.001Z</time>
      </trkpt>
      <trkpt lat="44.67226" lon="5.15161">
        <ele>519</ele>
        <time>2026-09-02T17:24:40.001Z</time>
      </trkpt>
      <trkpt lat="44.67225" lon="5.1516">
        <ele>519</ele>
        <time>2026-09-02T17:24:41.001Z</time>
      </trkpt>
      <trkpt lat="44.67224" lon="5.1516">
        <ele>519</ele>
        <time>2026-09-02T17:24:42.001Z</time>
      </trkpt>
      <trkpt lat="44.67223" lon="5.15159">
        <ele>519</ele>
        <time>2026-09-02T17:24:43.001Z</time>
      </trkpt>
      <trkpt lat="44.67223" lon="5.15158">
        <ele>519</ele>
        <time>2026-09-02T17:24:44.001Z</time>
      </trkpt>
      <trkpt lat="44.67222" lon="5.15157">
        <ele>519</ele>
        <time>2026-09-02T17:24:45.001Z</time>
      </trkpt>
      <trkpt lat="44.67221" lon="5.15157">
        <ele>519</ele>
        <time>2026-09-02T17:24:46.001Z</time>
      </trkpt>
      <trkpt lat="44.6722" lon="5.15156">
        <ele>519</ele>
        <time>2026-09-02T17:24:47.001Z</time>
      </trkpt>
      <trkpt lat="44.6722" lon="5.15156">
        <ele>519</ele>
        <time>2026-09-02T17:24:48.001Z</time>
      </trkpt>
      <trkpt lat="44.67219" lon="5.15155">
        <ele>519</ele>
        <time>2026-09-02T17:24:49.001Z</time>
      </trkpt>
      <trkpt lat="44.67218" lon="5.15155">
        <ele>519</ele>
        <time>2026-09-02T17:24:50.001Z</time>
      </trkpt>
      <trkpt lat="44.67217" lon="5.15155">
        <ele>519</ele>
        <time>2026-09-02T17:24:51.001Z</time>
      </trkpt>
      <trkpt lat="44.67217" lon="5.15154">
        <ele>519</ele>
        <time>2026-09-02T17:24:52.001Z</time>
      </trkpt>
      <trkpt lat="44.67216" lon="5.15154">
        <ele>520</ele>
        <time>2026-09-02T17:24:53.001Z</time>
      </trkpt>
      <trkpt lat="44.67215" lon="5.15153">
        <ele>520</ele>
        <time>2026-09-02T17:24:54.001Z</time>
      </trkpt>
      <trkpt lat="44.67215" lon="5.15152">
        <ele>520</ele>
        <time>2026-09-02T17:24:55.001Z</time>
      </trkpt>
      <trkpt lat="44.67214" lon="5.15152">
        <ele>520</ele>
        <time>2026-09-02T17:24:56.001Z</time>
      </trkpt>
      <trkpt lat="44.67213" lon="5.15151">
        <ele>520</ele>
        <time>2026-09-02T17:24:57.001Z</time>
      </trkpt>
      <trkpt lat="44.67213" lon="5.1515">
        <ele>521</ele>
        <time>2026-09-02T17:24:58.001Z</time>
      </trkpt>
      <trkpt lat="44.67212" lon="5.15149">
        <ele>521</ele>
        <time>2026-09-02T17:24:59.001Z</time>
      </trkpt>
      <trkpt lat="44.67211" lon="5.15148">
        <ele>521</ele>
        <time>2026-09-02T17:25:00.001Z</time>
      </trkpt>
      <trkpt lat="44.6721" lon="5.15147">
        <ele>521</ele>
        <time>2026-09-02T17:25:01.001Z</time>
      </trkpt>
      <trkpt lat="44.6721" lon="5.15146">
        <ele>521</ele>
        <time>2026-09-02T17:25:02.001Z</time>
      </trkpt>
      <trkpt lat="44.67209" lon="5.15145">
        <ele>521</ele>
        <time>2026-09-02T17:25:03.001Z</time>
      </trkpt>
      <trkpt lat="44.67208" lon="5.15144">
        <ele>522</ele>
        <time>2026-09-02T17:25:04.001Z</time>
      </trkpt>
      <trkpt lat="44.67207" lon="5.15143">
        <ele>522</ele>
        <time>2026-09-02T17:25:05.001Z</time>
      </trkpt>
      <trkpt lat="44.67207" lon="5.15142">
        <ele>522</ele>
        <time>2026-09-02T17:25:06.001Z</time>
      </trkpt>
      <trkpt lat="44.67206" lon="5.15141">
        <ele>522</ele>
        <time>2026-09-02T17:25:07.001Z</time>
      </trkpt>
      <trkpt lat="44.67205" lon="5.1514">
        <ele>522</ele>
        <time>2026-09-02T17:25:08.001Z</time>
      </trkpt>
      <trkpt lat="44.67205" lon="5.15138">
        <ele>522</ele>
        <time>2026-09-02T17:25:09.001Z</time>
      </trkpt>
      <trkpt lat="44.67204" lon="5.15137">
        <ele>522</ele>
        <time>2026-09-02T17:25:10.001Z</time>
      </trkpt>
      <trkpt lat="44.67203" lon="5.15136">
        <ele>522</ele>
        <time>2026-09-02T17:25:11.001Z</time>
      </trkpt>
      <trkpt lat="44.67203" lon="5.15134">
        <ele>522</ele>
        <time>2026-09-02T17:25:12.001Z</time>
      </trkpt>
      <trkpt lat="44.67203" lon="5.15133">
        <ele>522</ele>
        <time>2026-09-02T17:25:13.001Z</time>
      </trkpt>
      <trkpt lat="44.67202" lon="5.15132">
        <ele>522</ele>
        <time>2026-09-02T17:25:14.001Z</time>
      </trkpt>
      <trkpt lat="44.67202" lon="5.1513">
        <ele>522</ele>
        <time>2026-09-02T17:25:15.001Z</time>
      </trkpt>
      <trkpt lat="44.67202" lon="5.15128">
        <ele>522</ele>
        <time>2026-09-02T17:25:16.001Z</time>
      </trkpt>
      <trkpt lat="44.67202" lon="5.15127">
        <ele>522</ele>
        <time>2026-09-02T17:25:17.001Z</time>
      </trkpt>
      <trkpt lat="44.67202" lon="5.15125">
        <ele>522</ele>
        <time>2026-09-02T17:25:18.001Z</time>
      </trkpt>
      <trkpt lat="44.67202" lon="5.15124">
        <ele>522</ele>
        <time>2026-09-02T17:25:19.001Z</time>
      </trkpt>
      <trkpt lat="44.67202" lon="5.15122">
        <ele>522</ele>
        <time>2026-09-02T17:25:20.001Z</time>
      </trkpt>
      <trkpt lat="44.67202" lon="5.15121">
        <ele>522</ele>
        <time>2026-09-02T17:25:21.001Z</time>
      </trkpt>
      <trkpt lat="44.67202" lon="5.1512">
        <ele>522</ele>
        <time>2026-09-02T17:25:22.001Z</time>
      </trkpt>
      <trkpt lat="44.67202" lon="5.15118">
        <ele>522</ele>
        <time>2026-09-02T17:25:23.001Z</time>
      </trkpt>
      <trkpt lat="44.67202" lon="5.15117">
        <ele>523</ele>
        <time>2026-09-02T17:25:24.001Z</time>
      </trkpt>
      <trkpt lat="44.67202" lon="5.15116">
        <ele>523</ele>
        <time>2026-09-02T17:25:25.001Z</time>
      </trkpt>
      <trkpt lat="44.67202" lon="5.15115">
        <ele>523</ele>
        <time>2026-09-02T17:25:26.001Z</time>
      </trkpt>
      <trkpt lat="44.67202" lon="5.15114">
        <ele>523</ele>
        <time>2026-09-02T17:25:27.001Z</time>
      </trkpt>
      <trkpt lat="44.67202" lon="5.15112">
        <ele>523</ele>
        <time>2026-09-02T17:25:28.001Z</time>
      </trkpt>
      <trkpt lat="44.67202" lon="5.15111">
        <ele>523</ele>
        <time>2026-09-02T17:25:29.001Z</time>
      </trkpt>
      <trkpt lat="44.67203" lon="5.1511">
        <ele>524</ele>
        <time>2026-09-02T17:25:30.001Z</time>
      </trkpt>
      <trkpt lat="44.67203" lon="5.15109">
        <ele>524</ele>
        <time>2026-09-02T17:25:31.001Z</time>
      </trkpt>
      <trkpt lat="44.67203" lon="5.15107">
        <ele>524</ele>
        <time>2026-09-02T17:25:32.001Z</time>
      </trkpt>
      <trkpt lat="44.67204" lon="5.15106">
        <ele>524</ele>
        <time>2026-09-02T17:25:33.001Z</time>
      </trkpt>
      <trkpt lat="44.67204" lon="5.15104">
        <ele>524</ele>
        <time>2026-09-02T17:25:34.001Z</time>
      </trkpt>
      <trkpt lat="44.67204" lon="5.15103">
        <ele>524</ele>
        <time>2026-09-02T17:25:35.001Z</time>
      </trkpt>
      <trkpt lat="44.67205" lon="5.15102">
        <ele>524</ele>
        <time>2026-09-02T17:25:36.001Z</time>
      </trkpt>
      <trkpt lat="44.67205" lon="5.15101">
        <ele>524</ele>
        <time>2026-09-02T17:25:37.001Z</time>
      </trkpt>
      <trkpt lat="44.67205" lon="5.15099">
        <ele>524</ele>
        <time>2026-09-02T17:25:38.001Z</time>
      </trkpt>
      <trkpt lat="44.67205" lon="5.15098">
        <ele>524</ele>
        <time>2026-09-02T17:25:39.001Z</time>
      </trkpt>
      <trkpt lat="44.67206" lon="5.15097">
        <ele>524</ele>
        <time>2026-09-02T17:25:40.001Z</time>
      </trkpt>
      <trkpt lat="44.67206" lon="5.15096">
        <ele>524</ele>
        <time>2026-09-02T17:25:41.001Z</time>
      </trkpt>
      <trkpt lat="44.67206" lon="5.15095">
        <ele>525</ele>
        <time>2026-09-02T17:25:42.001Z</time>
      </trkpt>
      <trkpt lat="44.67206" lon="5.15094">
        <ele>525</ele>
        <time>2026-09-02T17:25:43.001Z</time>
      </trkpt>
      <trkpt lat="44.67206" lon="5.15092">
        <ele>525</ele>
        <time>2026-09-02T17:25:44.001Z</time>
      </trkpt>
      <trkpt lat="44.67206" lon="5.15091">
        <ele>525</ele>
        <time>2026-09-02T17:25:45.001Z</time>
      </trkpt>
      <trkpt lat="44.67206" lon="5.1509">
        <ele>525</ele>
        <time>2026-09-02T17:25:46.001Z</time>
      </trkpt>
      <trkpt lat="44.67206" lon="5.1509">
        <ele>525</ele>
        <time>2026-09-02T17:25:47.001Z</time>
      </trkpt>
      <trkpt lat="44.67206" lon="5.15089">
        <ele>525</ele>
        <time>2026-09-02T17:25:48.001Z</time>
      </trkpt>
      <trkpt lat="44.67206" lon="5.15089">
        <ele>525</ele>
        <time>2026-09-02T17:25:49.001Z</time>
      </trkpt>
      <trkpt lat="44.67206" lon="5.15087">
        <ele>525</ele>
        <time>2026-09-02T17:25:50.001Z</time>
      </trkpt>
      <trkpt lat="44.67207" lon="5.15086">
        <ele>526</ele>
        <time>2026-09-02T17:25:51.001Z</time>
      </trkpt>
      <trkpt lat="44.67207" lon="5.15085">
        <ele>526</ele>
        <time>2026-09-02T17:25:52.001Z</time>
      </trkpt>
      <trkpt lat="44.67207" lon="5.15084">
        <ele>526</ele>
        <time>2026-09-02T17:25:53.001Z</time>
      </trkpt>
      <trkpt lat="44.67207" lon="5.15082">
        <ele>526</ele>
        <time>2026-09-02T17:25:54.001Z</time>
      </trkpt>
      <trkpt lat="44.67207" lon="5.15081">
        <ele>526</ele>
        <time>2026-09-02T17:25:55.001Z</time>
      </trkpt>
      <trkpt lat="44.67208" lon="5.1508">
        <ele>526</ele>
        <time>2026-09-02T17:25:56.001Z</time>
      </trkpt>
      <trkpt lat="44.67208" lon="5.1508">
        <ele>526</ele>
        <time>2026-09-02T17:25:57.001Z</time>
      </trkpt>
      <trkpt lat="44.67208" lon="5.15079">
        <ele>526</ele>
        <time>2026-09-02T17:25:58.001Z</time>
      </trkpt>
      <trkpt lat="44.67208" lon="5.15078">
        <ele>526</ele>
        <time>2026-09-02T17:25:59.001Z</time>
      </trkpt>
      <trkpt lat="44.67209" lon="5.15072">
        <ele>527</ele>
        <time>2026-09-02T17:26:05.006Z</time>
      </trkpt>
      <trkpt lat="44.67209" lon="5.15071">
        <ele>527</ele>
        <time>2026-09-02T17:26:06.006Z</time>
      </trkpt>
      <trkpt lat="44.67209" lon="5.1507">
        <ele>527</ele>
        <time>2026-09-02T17:26:07.006Z</time>
      </trkpt>
      <trkpt lat="44.67209" lon="5.15069">
        <ele>527</ele>
        <time>2026-09-02T17:26:08.006Z</time>
      </trkpt>
      <trkpt lat="44.67209" lon="5.15068">
        <ele>527</ele>
        <time>2026-09-02T17:26:09.006Z</time>
      </trkpt>
      <trkpt lat="44.67209" lon="5.15067">
        <ele>527</ele>
        <time>2026-09-02T17:26:10.006Z</time>
      </trkpt>
      <trkpt lat="44.6721" lon="5.15066">
        <ele>527</ele>
        <time>2026-09-02T17:26:11.006Z</time>
      </trkpt>
      <trkpt lat="44.6721" lon="5.15064">
        <ele>528</ele>
        <time>2026-09-02T17:26:12.006Z</time>
      </trkpt>
      <trkpt lat="44.6721" lon="5.15063">
        <ele>528</ele>
        <time>2026-09-02T17:26:13.006Z</time>
      </trkpt>
      <trkpt lat="44.6721" lon="5.15062">
        <ele>528</ele>
        <time>2026-09-02T17:26:14.006Z</time>
      </trkpt>
      <trkpt lat="44.67211" lon="5.15061">
        <ele>528</ele>
        <time>2026-09-02T17:26:15.006Z</time>
      </trkpt>
      <trkpt lat="44.67211" lon="5.1506">
        <ele>528</ele>
        <time>2026-09-02T17:26:16.006Z</time>
      </trkpt>
      <trkpt lat="44.67211" lon="5.15058">
        <ele>528</ele>
        <time>2026-09-02T17:26:17.006Z</time>
      </trkpt>
      <trkpt lat="44.67211" lon="5.15057">
        <ele>528</ele>
        <time>2026-09-02T17:26:18.006Z</time>
      </trkpt>
      <trkpt lat="44.67211" lon="5.15056">
        <ele>528</ele>
        <time>2026-09-02T17:26:19.006Z</time>
      </trkpt>
      <trkpt lat="44.67212" lon="5.15054">
        <ele>528</ele>
        <time>2026-09-02T17:26:20.006Z</time>
      </trkpt>
      <trkpt lat="44.67212" lon="5.15052">
        <ele>529</ele>
        <time>2026-09-02T17:26:21.006Z</time>
      </trkpt>
      <trkpt lat="44.67212" lon="5.15051">
        <ele>529</ele>
        <time>2026-09-02T17:26:22.006Z</time>
      </trkpt>
      <trkpt lat="44.67212" lon="5.1505">
        <ele>529</ele>
        <time>2026-09-02T17:26:23.006Z</time>
      </trkpt>
      <trkpt lat="44.67212" lon="5.15048">
        <ele>529</ele>
        <time>2026-09-02T17:26:24.006Z</time>
      </trkpt>
      <trkpt lat="44.67213" lon="5.15047">
        <ele>529</ele>
        <time>2026-09-02T17:26:25.006Z</time>
      </trkpt>
      <trkpt lat="44.67213" lon="5.15045">
        <ele>529</ele>
        <time>2026-09-02T17:26:26.006Z</time>
      </trkpt>
      <trkpt lat="44.67213" lon="5.15044">
        <ele>529</ele>
        <time>2026-09-02T17:26:27.006Z</time>
      </trkpt>
      <trkpt lat="44.67213" lon="5.15042">
        <ele>529</ele>
        <time>2026-09-02T17:26:28.006Z</time>
      </trkpt>
      <trkpt lat="44.67213" lon="5.15041">
        <ele>529</ele>
        <time>2026-09-02T17:26:29.006Z</time>
      </trkpt>
      <trkpt lat="44.67213" lon="5.15039">
        <ele>529</ele>
        <time>2026-09-02T17:26:30.006Z</time>
      </trkpt>
      <trkpt lat="44.67214" lon="5.15038">
        <ele>529</ele>
        <time>2026-09-02T17:26:31.006Z</time>
      </trkpt>
      <trkpt lat="44.67214" lon="5.15037">
        <ele>529</ele>
        <time>2026-09-02T17:26:32.006Z</time>
      </trkpt>
      <trkpt lat="44.67214" lon="5.15035">
        <ele>529</ele>
        <time>2026-09-02T17:26:33.006Z</time>
      </trkpt>
      <trkpt lat="44.67214" lon="5.15034">
        <ele>529</ele>
        <time>2026-09-02T17:26:34.006Z</time>
      </trkpt>
      <trkpt lat="44.67214" lon="5.15032">
        <ele>529</ele>
        <time>2026-09-02T17:26:35.006Z</time>
      </trkpt>
      <trkpt lat="44.67215" lon="5.15031">
        <ele>529</ele>
        <time>2026-09-02T17:26:36.006Z</time>
      </trkpt>
      <trkpt lat="44.67215" lon="5.1503">
        <ele>529</ele>
        <time>2026-09-02T17:26:37.006Z</time>
      </trkpt>
      <trkpt lat="44.67215" lon="5.15029">
        <ele>529</ele>
        <time>2026-09-02T17:26:38.006Z</time>
      </trkpt>
      <trkpt lat="44.67215" lon="5.15028">
        <ele>529</ele>
        <time>2026-09-02T17:26:39.006Z</time>
      </trkpt>
      <trkpt lat="44.67215" lon="5.15027">
        <ele>529</ele>
        <time>2026-09-02T17:26:40.006Z</time>
      </trkpt>
      <trkpt lat="44.67216" lon="5.15022">
        <ele>529</ele>
        <time>2026-09-02T17:26:45.016Z</time>
      </trkpt>
      <trkpt lat="44.67217" lon="5.15021">
        <ele>529</ele>
        <time>2026-09-02T17:26:46.016Z</time>
      </trkpt>
      <trkpt lat="44.67217" lon="5.1502">
        <ele>529</ele>
        <time>2026-09-02T17:26:47.016Z</time>
      </trkpt>
      <trkpt lat="44.67217" lon="5.15019">
        <ele>529</ele>
        <time>2026-09-02T17:26:48.016Z</time>
      </trkpt>
      <trkpt lat="44.67218" lon="5.15014">
        <ele>529</ele>
        <time>2026-09-02T17:26:52.025Z</time>
      </trkpt>
      <trkpt lat="44.67218" lon="5.15013">
        <ele>530</ele>
        <time>2026-09-02T17:26:53.025Z</time>
      </trkpt>
      <trkpt lat="44.67218" lon="5.15011">
        <ele>530</ele>
        <time>2026-09-02T17:26:54.025Z</time>
      </trkpt>
      <trkpt lat="44.67219" lon="5.1501">
        <ele>530</ele>
        <time>2026-09-02T17:26:55.025Z</time>
      </trkpt>
      <trkpt lat="44.67219" lon="5.15009">
        <ele>530</ele>
        <time>2026-09-02T17:26:56.025Z</time>
      </trkpt>
      <trkpt lat="44.67219" lon="5.15008">
        <ele>530</ele>
        <time>2026-09-02T17:26:57.025Z</time>
      </trkpt>
      <trkpt lat="44.6722" lon="5.15006">
        <ele>530</ele>
        <time>2026-09-02T17:26:58.025Z</time>
      </trkpt>
      <trkpt lat="44.6722" lon="5.15005">
        <ele>530</ele>
        <time>2026-09-02T17:26:59.025Z</time>
      </trkpt>
      <trkpt lat="44.6722" lon="5.15004">
        <ele>530</ele>
        <time>2026-09-02T17:27:00.025Z</time>
      </trkpt>
      <trkpt lat="44.6722" lon="5.15003">
        <ele>530</ele>
        <time>2026-09-02T17:27:01.025Z</time>
      </trkpt>
      <trkpt lat="44.6722" lon="5.15002">
        <ele>531</ele>
        <time>2026-09-02T17:27:02.025Z</time>
      </trkpt>
      <trkpt lat="44.67221" lon="5.14994">
        <ele>531</ele>
        <time>2026-09-02T17:27:12.031Z</time>
      </trkpt>
      <trkpt lat="44.67221" lon="5.14993">
        <ele>531</ele>
        <time>2026-09-02T17:27:13.031Z</time>
      </trkpt>
      <trkpt lat="44.67221" lon="5.14991">
        <ele>531</ele>
        <time>2026-09-02T17:27:14.031Z</time>
      </trkpt>
      <trkpt lat="44.67222" lon="5.14989">
        <ele>531</ele>
        <time>2026-09-02T17:27:15.031Z</time>
      </trkpt>
      <trkpt lat="44.67222" lon="5.14988">
        <ele>531</ele>
        <time>2026-09-02T17:27:16.031Z</time>
      </trkpt>
      <trkpt lat="44.67222" lon="5.14986">
        <ele>531</ele>
        <time>2026-09-02T17:27:17.031Z</time>
      </trkpt>
      <trkpt lat="44.67223" lon="5.14984">
        <ele>531</ele>
        <time>2026-09-02T17:27:18.031Z</time>
      </trkpt>
      <trkpt lat="44.67223" lon="5.14982">
        <ele>530</ele>
        <time>2026-09-02T17:27:19.031Z</time>
      </trkpt>
      <trkpt lat="44.67223" lon="5.1498">
        <ele>530</ele>
        <time>2026-09-02T17:27:20.031Z</time>
      </trkpt>
      <trkpt lat="44.67223" lon="5.14978">
        <ele>530</ele>
        <time>2026-09-02T17:27:21.031Z</time>
      </trkpt>
      <trkpt lat="44.67224" lon="5.14977">
        <ele>530</ele>
        <time>2026-09-02T17:27:22.031Z</time>
      </trkpt>
      <trkpt lat="44.67224" lon="5.14975">
        <ele>530</ele>
        <time>2026-09-02T17:27:23.031Z</time>
      </trkpt>
      <trkpt lat="44.67224" lon="5.14973">
        <ele>530</ele>
        <time>2026-09-02T17:27:24.031Z</time>
      </trkpt>
      <trkpt lat="44.67225" lon="5.14972">
        <ele>529</ele>
        <time>2026-09-02T17:27:25.031Z</time>
      </trkpt>
      <trkpt lat="44.67225" lon="5.1497">
        <ele>529</ele>
        <time>2026-09-02T17:27:26.031Z</time>
      </trkpt>
      <trkpt lat="44.67225" lon="5.14969">
        <ele>529</ele>
        <time>2026-09-02T17:27:27.031Z</time>
      </trkpt>
      <trkpt lat="44.67225" lon="5.14967">
        <ele>529</ele>
        <time>2026-09-02T17:27:28.031Z</time>
      </trkpt>
      <trkpt lat="44.67226" lon="5.14966">
        <ele>529</ele>
        <time>2026-09-02T17:27:29.031Z</time>
      </trkpt>
      <trkpt lat="44.67226" lon="5.14965">
        <ele>529</ele>
        <time>2026-09-02T17:27:30.031Z</time>
      </trkpt>
      <trkpt lat="44.67226" lon="5.14963">
        <ele>529</ele>
        <time>2026-09-02T17:27:31.031Z</time>
      </trkpt>
      <trkpt lat="44.67226" lon="5.14962">
        <ele>529</ele>
        <time>2026-09-02T17:27:32.031Z</time>
      </trkpt>
      <trkpt lat="44.67227" lon="5.1496">
        <ele>529</ele>
        <time>2026-09-02T17:27:33.031Z</time>
      </trkpt>
      <trkpt lat="44.67227" lon="5.14959">
        <ele>529</ele>
        <time>2026-09-02T17:27:34.031Z</time>
      </trkpt>
      <trkpt lat="44.67227" lon="5.14958">
        <ele>529</ele>
        <time>2026-09-02T17:27:35.031Z</time>
      </trkpt>
      <trkpt lat="44.67227" lon="5.14956">
        <ele>529</ele>
        <time>2026-09-02T17:27:36.031Z</time>
      </trkpt>
      <trkpt lat="44.67227" lon="5.14955">
        <ele>529</ele>
        <time>2026-09-02T17:27:37.031Z</time>
      </trkpt>
      <trkpt lat="44.67227" lon="5.14953">
        <ele>530</ele>
        <time>2026-09-02T17:27:38.031Z</time>
      </trkpt>
      <trkpt lat="44.67228" lon="5.14952">
        <ele>530</ele>
        <time>2026-09-02T17:27:39.031Z</time>
      </trkpt>
      <trkpt lat="44.67228" lon="5.14951">
        <ele>530</ele>
        <time>2026-09-02T17:27:40.031Z</time>
      </trkpt>
      <trkpt lat="44.67228" lon="5.1495">
        <ele>530</ele>
        <time>2026-09-02T17:27:41.031Z</time>
      </trkpt>
      <trkpt lat="44.67228" lon="5.14948">
        <ele>530</ele>
        <time>2026-09-02T17:27:42.031Z</time>
      </trkpt>
      <trkpt lat="44.67228" lon="5.14947">
        <ele>530</ele>
        <time>2026-09-02T17:27:43.031Z</time>
      </trkpt>
      <trkpt lat="44.67229" lon="5.14945">
        <ele>530</ele>
        <time>2026-09-02T17:27:44.031Z</time>
      </trkpt>
      <trkpt lat="44.67229" lon="5.14944">
        <ele>530</ele>
        <time>2026-09-02T17:27:45.031Z</time>
      </trkpt>
      <trkpt lat="44.67229" lon="5.14942">
        <ele>530</ele>
        <time>2026-09-02T17:27:46.031Z</time>
      </trkpt>
      <trkpt lat="44.6723" lon="5.14941">
        <ele>530</ele>
        <time>2026-09-02T17:27:47.031Z</time>
      </trkpt>
      <trkpt lat="44.6723" lon="5.1494">
        <ele>530</ele>
        <time>2026-09-02T17:27:48.031Z</time>
      </trkpt>
      <trkpt lat="44.6723" lon="5.14939">
        <ele>530</ele>
        <time>2026-09-02T17:27:49.031Z</time>
      </trkpt>
      <trkpt lat="44.6723" lon="5.14937">
        <ele>530</ele>
        <time>2026-09-02T17:27:50.031Z</time>
      </trkpt>
      <trkpt lat="44.67231" lon="5.14937">
        <ele>530</ele>
        <time>2026-09-02T17:27:51.031Z</time>
      </trkpt>
      <trkpt lat="44.67231" lon="5.14935">
        <ele>530</ele>
        <time>2026-09-02T17:27:52.031Z</time>
      </trkpt>
      <trkpt lat="44.67231" lon="5.14934">
        <ele>530</ele>
        <time>2026-09-02T17:27:53.031Z</time>
      </trkpt>
      <trkpt lat="44.67231" lon="5.14933">
        <ele>530</ele>
        <time>2026-09-02T17:27:54.031Z</time>
      </trkpt>
      <trkpt lat="44.67232" lon="5.14932">
        <ele>530</ele>
        <time>2026-09-02T17:27:55.031Z</time>
      </trkpt>
      <trkpt lat="44.67232" lon="5.14931">
        <ele>530</ele>
        <time>2026-09-02T17:27:56.031Z</time>
      </trkpt>
      <trkpt lat="44.67232" lon="5.1493">
        <ele>530</ele>
        <time>2026-09-02T17:27:57.031Z</time>
      </trkpt>
      <trkpt lat="44.67232" lon="5.14928">
        <ele>530</ele>
        <time>2026-09-02T17:27:58.031Z</time>
      </trkpt>
      <trkpt lat="44.67232" lon="5.14927">
        <ele>530</ele>
        <time>2026-09-02T17:27:59.031Z</time>
      </trkpt>
      <trkpt lat="44.67232" lon="5.14926">
        <ele>531</ele>
        <time>2026-09-02T17:28:00.031Z</time>
      </trkpt>
      <trkpt lat="44.67233" lon="5.14924">
        <ele>531</ele>
        <time>2026-09-02T17:28:01.031Z</time>
      </trkpt>
      <trkpt lat="44.67233" lon="5.14923">
        <ele>531</ele>
        <time>2026-09-02T17:28:02.031Z</time>
      </trkpt>
      <trkpt lat="44.67232" lon="5.14921">
        <ele>531</ele>
        <time>2026-09-02T17:28:03.031Z</time>
      </trkpt>
      <trkpt lat="44.67232" lon="5.1492">
        <ele>531</ele>
        <time>2026-09-02T17:28:04.031Z</time>
      </trkpt>
      <trkpt lat="44.67232" lon="5.14918">
        <ele>531</ele>
        <time>2026-09-02T17:28:05.031Z</time>
      </trkpt>
      <trkpt lat="44.67232" lon="5.14917">
        <ele>531</ele>
        <time>2026-09-02T17:28:06.031Z</time>
      </trkpt>
      <trkpt lat="44.67232" lon="5.14915">
        <ele>531</ele>
        <time>2026-09-02T17:28:07.031Z</time>
      </trkpt>
      <trkpt lat="44.67232" lon="5.14914">
        <ele>531</ele>
        <time>2026-09-02T17:28:08.031Z</time>
      </trkpt>
      <trkpt lat="44.67232" lon="5.14912">
        <ele>531</ele>
        <time>2026-09-02T17:28:09.031Z</time>
      </trkpt>
      <trkpt lat="44.67232" lon="5.14912">
        <ele>531</ele>
        <time>2026-09-02T17:28:10.031Z</time>
      </trkpt>
      <trkpt lat="44.67233" lon="5.14911">
        <ele>531</ele>
        <time>2026-09-02T17:28:11.031Z</time>
      </trkpt>
      <trkpt lat="44.67232" lon="5.1491">
        <ele>531</ele>
        <time>2026-09-02T17:28:12.031Z</time>
      </trkpt>
      <trkpt lat="44.67236" lon="5.149">
        <ele>533</ele>
        <time>2026-09-02T17:28:48.038Z</time>
      </trkpt>
      <trkpt lat="44.67236" lon="5.14899">
        <ele>533</ele>
        <time>2026-09-02T17:28:49.038Z</time>
      </trkpt>
      <trkpt lat="44.67235" lon="5.14899">
        <ele>533</ele>
        <time>2026-09-02T17:28:50.038Z</time>
      </trkpt>
      <trkpt lat="44.67235" lon="5.14898">
        <ele>533</ele>
        <time>2026-09-02T17:28:51.038Z</time>
      </trkpt>
      <trkpt lat="44.67235" lon="5.14896">
        <ele>533</ele>
        <time>2026-09-02T17:28:52.038Z</time>
      </trkpt>
      <trkpt lat="44.67235" lon="5.14895">
        <ele>533</ele>
        <time>2026-09-02T17:28:53.038Z</time>
      </trkpt>
      <trkpt lat="44.67235" lon="5.14893">
        <ele>533</ele>
        <time>2026-09-02T17:28:54.038Z</time>
      </trkpt>
      <trkpt lat="44.67235" lon="5.14892">
        <ele>533</ele>
        <time>2026-09-02T17:28:55.038Z</time>
      </trkpt>
      <trkpt lat="44.67235" lon="5.14891">
        <ele>533</ele>
        <time>2026-09-02T17:28:56.038Z</time>
      </trkpt>
      <trkpt lat="44.67236" lon="5.14889">
        <ele>533</ele>
        <time>2026-09-02T17:28:57.038Z</time>
      </trkpt>
      <trkpt lat="44.67236" lon="5.14888">
        <ele>533</ele>
        <time>2026-09-02T17:28:58.038Z</time>
      </trkpt>
      <trkpt lat="44.67236" lon="5.14887">
        <ele>533</ele>
        <time>2026-09-02T17:28:59.038Z</time>
      </trkpt>
      <trkpt lat="44.67236" lon="5.14885">
        <ele>533</ele>
        <time>2026-09-02T17:29:00.038Z</time>
      </trkpt>
      <trkpt lat="44.67236" lon="5.14884">
        <ele>533</ele>
        <time>2026-09-02T17:29:01.038Z</time>
      </trkpt>
      <trkpt lat="44.67236" lon="5.14882">
        <ele>533</ele>
        <time>2026-09-02T17:29:02.038Z</time>
      </trkpt>
      <trkpt lat="44.67236" lon="5.1488">
        <ele>533</ele>
        <time>2026-09-02T17:29:03.038Z</time>
      </trkpt>
      <trkpt lat="44.67236" lon="5.14879">
        <ele>533</ele>
        <time>2026-09-02T17:29:04.038Z</time>
      </trkpt>
      <trkpt lat="44.67236" lon="5.14878">
        <ele>533</ele>
        <time>2026-09-02T17:29:05.038Z</time>
      </trkpt>
      <trkpt lat="44.67236" lon="5.14877">
        <ele>533</ele>
        <time>2026-09-02T17:29:06.038Z</time>
      </trkpt>
      <trkpt lat="44.67235" lon="5.14875">
        <ele>533</ele>
        <time>2026-09-02T17:29:07.038Z</time>
      </trkpt>
      <trkpt lat="44.67235" lon="5.14874">
        <ele>533</ele>
        <time>2026-09-02T17:29:08.038Z</time>
      </trkpt>
      <trkpt lat="44.67235" lon="5.14872">
        <ele>533</ele>
        <time>2026-09-02T17:29:09.038Z</time>
      </trkpt>
      <trkpt lat="44.67235" lon="5.1487">
        <ele>533</ele>
        <time>2026-09-02T17:29:10.038Z</time>
      </trkpt>
      <trkpt lat="44.67235" lon="5.14869">
        <ele>533</ele>
        <time>2026-09-02T17:29:11.038Z</time>
      </trkpt>
      <trkpt lat="44.67235" lon="5.14868">
        <ele>533</ele>
        <time>2026-09-02T17:29:12.038Z</time>
      </trkpt>
      <trkpt lat="44.67235" lon="5.14866">
        <ele>533</ele>
        <time>2026-09-02T17:29:13.038Z</time>
      </trkpt>
      <trkpt lat="44.67234" lon="5.14865">
        <ele>533</ele>
        <time>2026-09-02T17:29:14.038Z</time>
      </trkpt>
      <trkpt lat="44.67234" lon="5.14863">
        <ele>533</ele>
        <time>2026-09-02T17:29:15.038Z</time>
      </trkpt>
      <trkpt lat="44.67234" lon="5.14862">
        <ele>533</ele>
        <time>2026-09-02T17:29:16.038Z</time>
      </trkpt>
      <trkpt lat="44.67233" lon="5.14861">
        <ele>533</ele>
        <time>2026-09-02T17:29:17.038Z</time>
      </trkpt>
      <trkpt lat="44.67233" lon="5.1486">
        <ele>533</ele>
        <time>2026-09-02T17:29:18.038Z</time>
      </trkpt>
      <trkpt lat="44.67232" lon="5.14859">
        <ele>533</ele>
        <time>2026-09-02T17:29:19.038Z</time>
      </trkpt>
      <trkpt lat="44.67232" lon="5.14858">
        <ele>533</ele>
        <time>2026-09-02T17:29:20.038Z</time>
      </trkpt>
      <trkpt lat="44.67231" lon="5.14856">
        <ele>533</ele>
        <time>2026-09-02T17:29:21.038Z</time>
      </trkpt>
      <trkpt lat="44.6723" lon="5.14855">
        <ele>534</ele>
        <time>2026-09-02T17:29:22.038Z</time>
      </trkpt>
      <trkpt lat="44.6723" lon="5.14854">
        <ele>534</ele>
        <time>2026-09-02T17:29:23.038Z</time>
      </trkpt>
      <trkpt lat="44.67229" lon="5.14853">
        <ele>534</ele>
        <time>2026-09-02T17:29:24.038Z</time>
      </trkpt>
      <trkpt lat="44.67228" lon="5.14852">
        <ele>534</ele>
        <time>2026-09-02T17:29:25.038Z</time>
      </trkpt>
      <trkpt lat="44.67227" lon="5.14851">
        <ele>534</ele>
        <time>2026-09-02T17:29:26.038Z</time>
      </trkpt>
      <trkpt lat="44.67226" lon="5.1485">
        <ele>534</ele>
        <time>2026-09-02T17:29:27.038Z</time>
      </trkpt>
      <trkpt lat="44.67225" lon="5.14849">
        <ele>535</ele>
        <time>2026-09-02T17:29:28.038Z</time>
      </trkpt>
      <trkpt lat="44.67224" lon="5.14849">
        <ele>535</ele>
        <time>2026-09-02T17:29:29.038Z</time>
      </trkpt>
      <trkpt lat="44.67223" lon="5.14849">
        <ele>535</ele>
        <time>2026-09-02T17:29:30.038Z</time>
      </trkpt>
      <trkpt lat="44.67223" lon="5.14848">
        <ele>535</ele>
        <time>2026-09-02T17:29:31.038Z</time>
      </trkpt>
      <trkpt lat="44.67223" lon="5.14848">
        <ele>535</ele>
        <time>2026-09-02T17:29:32.038Z</time>
      </trkpt>
      <trkpt lat="44.67223" lon="5.14848">
        <ele>535</ele>
        <time>2026-09-02T17:29:33.038Z</time>
      </trkpt>
      <trkpt lat="44.67222" lon="5.14847">
        <ele>536</ele>
        <time>2026-09-02T17:29:50.051Z</time>
      </trkpt>
      <trkpt lat="44.67221" lon="5.14847">
        <ele>536</ele>
        <time>2026-09-02T17:29:51.051Z</time>
      </trkpt>
      <trkpt lat="44.67221" lon="5.14847">
        <ele>536</ele>
        <time>2026-09-02T17:29:52.051Z</time>
      </trkpt>
      <trkpt lat="44.67221" lon="5.14847">
        <ele>536</ele>
        <time>2026-09-02T17:29:53.051Z</time>
      </trkpt>
      <trkpt lat="44.67221" lon="5.14847">
        <ele>536</ele>
        <time>2026-09-02T17:29:54.051Z</time>
      </trkpt>
      <trkpt lat="44.67221" lon="5.14847">
        <ele>536</ele>
        <time>2026-09-02T17:29:55.051Z</time>
      </trkpt>
      <trkpt lat="44.6722" lon="5.14847">
        <ele>536</ele>
        <time>2026-09-02T17:30:03.059Z</time>
      </trkpt>
      <trkpt lat="44.67219" lon="5.14848">
        <ele>536</ele>
        <time>2026-09-02T17:30:04.059Z</time>
      </trkpt>
      <trkpt lat="44.67218" lon="5.14848">
        <ele>536</ele>
        <time>2026-09-02T17:30:05.059Z</time>
      </trkpt>
      <trkpt lat="44.67218" lon="5.14849">
        <ele>536</ele>
        <time>2026-09-02T17:30:06.059Z</time>
      </trkpt>
      <trkpt lat="44.67217" lon="5.14849">
        <ele>536</ele>
        <time>2026-09-02T17:30:07.059Z</time>
      </trkpt>
      <trkpt lat="44.67216" lon="5.1485">
        <ele>537</ele>
        <time>2026-09-02T17:30:08.059Z</time>
      </trkpt>
      <trkpt lat="44.67216" lon="5.1485">
        <ele>537</ele>
        <time>2026-09-02T17:30:09.059Z</time>
      </trkpt>
      <trkpt lat="44.67215" lon="5.14851">
        <ele>537</ele>
        <time>2026-09-02T17:30:10.059Z</time>
      </trkpt>
      <trkpt lat="44.67214" lon="5.14852">
        <ele>537</ele>
        <time>2026-09-02T17:30:11.059Z</time>
      </trkpt>
      <trkpt lat="44.67213" lon="5.14852">
        <ele>536</ele>
        <time>2026-09-02T17:30:12.059Z</time>
      </trkpt>
      <trkpt lat="44.67212" lon="5.14853">
        <ele>536</ele>
        <time>2026-09-02T17:30:13.059Z</time>
      </trkpt>
      <trkpt lat="44.67211" lon="5.14854">
        <ele>536</ele>
        <time>2026-09-02T17:30:14.059Z</time>
      </trkpt>
      <trkpt lat="44.6721" lon="5.14855">
        <ele>536</ele>
        <time>2026-09-02T17:30:15.059Z</time>
      </trkpt>
      <trkpt lat="44.6721" lon="5.14855">
        <ele>536</ele>
        <time>2026-09-02T17:30:16.059Z</time>
      </trkpt>
      <trkpt lat="44.67209" lon="5.14856">
        <ele>536</ele>
        <time>2026-09-02T17:30:17.059Z</time>
      </trkpt>
      <trkpt lat="44.67208" lon="5.14857">
        <ele>536</ele>
        <time>2026-09-02T17:30:18.059Z</time>
      </trkpt>
      <trkpt lat="44.67207" lon="5.14858">
        <ele>536</ele>
        <time>2026-09-02T17:30:19.059Z</time>
      </trkpt>
      <trkpt lat="44.67206" lon="5.14858">
        <ele>536</ele>
        <time>2026-09-02T17:30:20.059Z</time>
      </trkpt>
      <trkpt lat="44.67205" lon="5.14859">
        <ele>536</ele>
        <time>2026-09-02T17:30:21.059Z</time>
      </trkpt>
      <trkpt lat="44.67205" lon="5.1486">
        <ele>536</ele>
        <time>2026-09-02T17:30:22.059Z</time>
      </trkpt>
      <trkpt lat="44.67204" lon="5.1486">
        <ele>537</ele>
        <time>2026-09-02T17:30:23.059Z</time>
      </trkpt>
      <trkpt lat="44.67203" lon="5.14861">
        <ele>537</ele>
        <time>2026-09-02T17:30:24.059Z</time>
      </trkpt>
      <trkpt lat="44.67203" lon="5.14861">
        <ele>537</ele>
        <time>2026-09-02T17:30:25.059Z</time>
      </trkpt>
      <trkpt lat="44.67202" lon="5.14861">
        <ele>537</ele>
        <time>2026-09-02T17:30:26.059Z</time>
      </trkpt>
      <trkpt lat="44.67202" lon="5.14861">
        <ele>537</ele>
        <time>2026-09-02T17:30:27.059Z</time>
      </trkpt>
      <trkpt lat="44.67201" lon="5.14862">
        <ele>537</ele>
        <time>2026-09-02T17:30:28.059Z</time>
      </trkpt>
      <trkpt lat="44.672" lon="5.14862">
        <ele>537</ele>
        <time>2026-09-02T17:30:29.059Z</time>
      </trkpt>
      <trkpt lat="44.67199" lon="5.14863">
        <ele>537</ele>
        <time>2026-09-02T17:30:30.059Z</time>
      </trkpt>
      <trkpt lat="44.67198" lon="5.14863">
        <ele>537</ele>
        <time>2026-09-02T17:30:31.059Z</time>
      </trkpt>
      <trkpt lat="44.67197" lon="5.14864">
        <ele>537</ele>
        <time>2026-09-02T17:30:32.059Z</time>
      </trkpt>
      <trkpt lat="44.67197" lon="5.14865">
        <ele>537</ele>
        <time>2026-09-02T17:30:33.059Z</time>
      </trkpt>
      <trkpt lat="44.67196" lon="5.14865">
        <ele>537</ele>
        <time>2026-09-02T17:30:34.059Z</time>
      </trkpt>
      <trkpt lat="44.67195" lon="5.14866">
        <ele>537</ele>
        <time>2026-09-02T17:30:35.059Z</time>
      </trkpt>
      <trkpt lat="44.67194" lon="5.14867">
        <ele>538</ele>
        <time>2026-09-02T17:30:36.059Z</time>
      </trkpt>
      <trkpt lat="44.67193" lon="5.14867">
        <ele>538</ele>
        <time>2026-09-02T17:30:37.059Z</time>
      </trkpt>
      <trkpt lat="44.67192" lon="5.14868">
        <ele>538</ele>
        <time>2026-09-02T17:30:38.059Z</time>
      </trkpt>
      <trkpt lat="44.67191" lon="5.14869">
        <ele>538</ele>
        <time>2026-09-02T17:30:39.059Z</time>
      </trkpt>
      <trkpt lat="44.6719" lon="5.14869">
        <ele>538</ele>
        <time>2026-09-02T17:30:40.059Z</time>
      </trkpt>
      <trkpt lat="44.67189" lon="5.1487">
        <ele>538</ele>
        <time>2026-09-02T17:30:41.059Z</time>
      </trkpt>
      <trkpt lat="44.67188" lon="5.14871">
        <ele>538</ele>
        <time>2026-09-02T17:30:42.059Z</time>
      </trkpt>
      <trkpt lat="44.67187" lon="5.14871">
        <ele>538</ele>
        <time>2026-09-02T17:30:43.059Z</time>
      </trkpt>
      <trkpt lat="44.67187" lon="5.14872">
        <ele>538</ele>
        <time>2026-09-02T17:30:44.059Z</time>
      </trkpt>
      <trkpt lat="44.67186" lon="5.14873">
        <ele>538</ele>
        <time>2026-09-02T17:30:45.059Z</time>
      </trkpt>
      <trkpt lat="44.67185" lon="5.14874">
        <ele>538</ele>
        <time>2026-09-02T17:30:46.059Z</time>
      </trkpt>
      <trkpt lat="44.67184" lon="5.14874">
        <ele>538</ele>
        <time>2026-09-02T17:30:47.059Z</time>
      </trkpt>
      <trkpt lat="44.67183" lon="5.14875">
        <ele>539</ele>
        <time>2026-09-02T17:30:48.059Z</time>
      </trkpt>
      <trkpt lat="44.67182" lon="5.14876">
        <ele>539</ele>
        <time>2026-09-02T17:30:49.059Z</time>
      </trkpt>
      <trkpt lat="44.67181" lon="5.14877">
        <ele>539</ele>
        <time>2026-09-02T17:30:50.059Z</time>
      </trkpt>
      <trkpt lat="44.67181" lon="5.14878">
        <ele>539</ele>
        <time>2026-09-02T17:30:51.059Z</time>
      </trkpt>
      <trkpt lat="44.6718" lon="5.14878">
        <ele>539</ele>
        <time>2026-09-02T17:30:52.059Z</time>
      </trkpt>
      <trkpt lat="44.67179" lon="5.14879">
        <ele>539</ele>
        <time>2026-09-02T17:30:53.059Z</time>
      </trkpt>
      <trkpt lat="44.67178" lon="5.1488">
        <ele>539</ele>
        <time>2026-09-02T17:30:54.059Z</time>
      </trkpt>
      <trkpt lat="44.67177" lon="5.14881">
        <ele>539</ele>
        <time>2026-09-02T17:30:55.059Z</time>
      </trkpt>
      <trkpt lat="44.67177" lon="5.14882">
        <ele>540</ele>
        <time>2026-09-02T17:30:56.059Z</time>
      </trkpt>
      <trkpt lat="44.67176" lon="5.14882">
        <ele>540</ele>
        <time>2026-09-02T17:30:57.059Z</time>
      </trkpt>
      <trkpt lat="44.67175" lon="5.14883">
        <ele>540</ele>
        <time>2026-09-02T17:30:58.059Z</time>
      </trkpt>
      <trkpt lat="44.67175" lon="5.14884">
        <ele>540</ele>
        <time>2026-09-02T17:30:59.059Z</time>
      </trkpt>
      <trkpt lat="44.67174" lon="5.14885">
        <ele>540</ele>
        <time>2026-09-02T17:31:00.059Z</time>
      </trkpt>
      <trkpt lat="44.67173" lon="5.14886">
        <ele>540</ele>
        <time>2026-09-02T17:31:01.059Z</time>
      </trkpt>
      <trkpt lat="44.67172" lon="5.14887">
        <ele>540</ele>
        <time>2026-09-02T17:31:02.059Z</time>
      </trkpt>
      <trkpt lat="44.67171" lon="5.14888">
        <ele>540</ele>
        <time>2026-09-02T17:31:03.059Z</time>
      </trkpt>
      <trkpt lat="44.67171" lon="5.14888">
        <ele>540</ele>
        <time>2026-09-02T17:31:04.059Z</time>
      </trkpt>
      <trkpt lat="44.6717" lon="5.14888">
        <ele>540</ele>
        <time>2026-09-02T17:31:05.059Z</time>
      </trkpt>
      <trkpt lat="44.67169" lon="5.14889">
        <ele>540</ele>
        <time>2026-09-02T17:31:06.059Z</time>
      </trkpt>
      <trkpt lat="44.67169" lon="5.1489">
        <ele>540</ele>
        <time>2026-09-02T17:31:07.059Z</time>
      </trkpt>
      <trkpt lat="44.67168" lon="5.1489">
        <ele>540</ele>
        <time>2026-09-02T17:31:08.059Z</time>
      </trkpt>
      <trkpt lat="44.67167" lon="5.14891">
        <ele>540</ele>
        <time>2026-09-02T17:31:09.059Z</time>
      </trkpt>
      <trkpt lat="44.67167" lon="5.14893">
        <ele>541</ele>
        <time>2026-09-02T17:31:10.059Z</time>
      </trkpt>
      <trkpt lat="44.67166" lon="5.14893">
        <ele>541</ele>
        <time>2026-09-02T17:31:11.059Z</time>
      </trkpt>
      <trkpt lat="44.67165" lon="5.14894">
        <ele>541</ele>
        <time>2026-09-02T17:31:12.059Z</time>
      </trkpt>
      <trkpt lat="44.67164" lon="5.14895">
        <ele>541</ele>
        <time>2026-09-02T17:31:13.059Z</time>
      </trkpt>
      <trkpt lat="44.67164" lon="5.14896">
        <ele>541</ele>
        <time>2026-09-02T17:31:14.059Z</time>
      </trkpt>
      <trkpt lat="44.67163" lon="5.14897">
        <ele>541</ele>
        <time>2026-09-02T17:31:15.059Z</time>
      </trkpt>
      <trkpt lat="44.67162" lon="5.14897">
        <ele>541</ele>
        <time>2026-09-02T17:31:16.059Z</time>
      </trkpt>
      <trkpt lat="44.67161" lon="5.14898">
        <ele>541</ele>
        <time>2026-09-02T17:31:17.059Z</time>
      </trkpt>
      <trkpt lat="44.67161" lon="5.14899">
        <ele>541</ele>
        <time>2026-09-02T17:31:18.059Z</time>
      </trkpt>
      <trkpt lat="44.6716" lon="5.14899">
        <ele>541</ele>
        <time>2026-09-02T17:31:19.059Z</time>
      </trkpt>
      <trkpt lat="44.67159" lon="5.149">
        <ele>542</ele>
        <time>2026-09-02T17:31:20.059Z</time>
      </trkpt>
      <trkpt lat="44.67158" lon="5.14901">
        <ele>542</ele>
        <time>2026-09-02T17:31:21.059Z</time>
      </trkpt>
      <trkpt lat="44.67158" lon="5.14902">
        <ele>542</ele>
        <time>2026-09-02T17:31:22.059Z</time>
      </trkpt>
      <trkpt lat="44.67157" lon="5.14903">
        <ele>542</ele>
        <time>2026-09-02T17:31:23.059Z</time>
      </trkpt>
      <trkpt lat="44.67156" lon="5.14903">
        <ele>542</ele>
        <time>2026-09-02T17:31:24.059Z</time>
      </trkpt>
      <trkpt lat="44.67155" lon="5.14904">
        <ele>542</ele>
        <time>2026-09-02T17:31:25.059Z</time>
      </trkpt>
      <trkpt lat="44.67155" lon="5.14905">
        <ele>542</ele>
        <time>2026-09-02T17:31:26.059Z</time>
      </trkpt>
      <trkpt lat="44.67154" lon="5.14906">
        <ele>543</ele>
        <time>2026-09-02T17:31:27.059Z</time>
      </trkpt>
      <trkpt lat="44.67153" lon="5.14906">
        <ele>543</ele>
        <time>2026-09-02T17:31:28.059Z</time>
      </trkpt>
      <trkpt lat="44.67152" lon="5.14907">
        <ele>543</ele>
        <time>2026-09-02T17:31:29.059Z</time>
      </trkpt>
      <trkpt lat="44.67151" lon="5.14909">
        <ele>543</ele>
        <time>2026-09-02T17:31:30.059Z</time>
      </trkpt>
      <trkpt lat="44.67151" lon="5.1491">
        <ele>543</ele>
        <time>2026-09-02T17:31:31.059Z</time>
      </trkpt>
      <trkpt lat="44.6715" lon="5.14911">
        <ele>543</ele>
        <time>2026-09-02T17:31:32.059Z</time>
      </trkpt>
      <trkpt lat="44.67149" lon="5.14912">
        <ele>544</ele>
        <time>2026-09-02T17:31:33.059Z</time>
      </trkpt>
      <trkpt lat="44.67148" lon="5.14913">
        <ele>544</ele>
        <time>2026-09-02T17:31:34.059Z</time>
      </trkpt>
      <trkpt lat="44.67148" lon="5.14914">
        <ele>544</ele>
        <time>2026-09-02T17:31:35.059Z</time>
      </trkpt>
      <trkpt lat="44.67147" lon="5.14914">
        <ele>544</ele>
        <time>2026-09-02T17:31:36.059Z</time>
      </trkpt>
      <trkpt lat="44.67146" lon="5.14915">
        <ele>544</ele>
        <time>2026-09-02T17:31:37.059Z</time>
      </trkpt>
      <trkpt lat="44.67145" lon="5.14915">
        <ele>544</ele>
        <time>2026-09-02T17:31:38.059Z</time>
      </trkpt>
      <trkpt lat="44.67145" lon="5.14916">
        <ele>545</ele>
        <time>2026-09-02T17:31:39.059Z</time>
      </trkpt>
      <trkpt lat="44.67144" lon="5.14917">
        <ele>545</ele>
        <time>2026-09-02T17:31:40.059Z</time>
      </trkpt>
      <trkpt lat="44.67143" lon="5.14918">
        <ele>545</ele>
        <time>2026-09-02T17:31:41.059Z</time>
      </trkpt>
      <trkpt lat="44.67142" lon="5.14919">
        <ele>545</ele>
        <time>2026-09-02T17:31:42.059Z</time>
      </trkpt>
      <trkpt lat="44.67142" lon="5.1492">
        <ele>545</ele>
        <time>2026-09-02T17:31:43.059Z</time>
      </trkpt>
      <trkpt lat="44.67141" lon="5.14921">
        <ele>546</ele>
        <time>2026-09-02T17:31:44.059Z</time>
      </trkpt>
      <trkpt lat="44.67141" lon="5.14923">
        <ele>546</ele>
        <time>2026-09-02T17:31:45.059Z</time>
      </trkpt>
      <trkpt lat="44.6714" lon="5.14924">
        <ele>546</ele>
        <time>2026-09-02T17:31:46.059Z</time>
      </trkpt>
      <trkpt lat="44.67139" lon="5.14924">
        <ele>546</ele>
        <time>2026-09-02T17:31:47.059Z</time>
      </trkpt>
      <trkpt lat="44.67139" lon="5.14926">
        <ele>546</ele>
        <time>2026-09-02T17:31:48.059Z</time>
      </trkpt>
      <trkpt lat="44.67138" lon="5.14927">
        <ele>546</ele>
        <time>2026-09-02T17:31:49.059Z</time>
      </trkpt>
      <trkpt lat="44.67138" lon="5.14927">
        <ele>546</ele>
        <time>2026-09-02T17:31:50.059Z</time>
      </trkpt>
      <trkpt lat="44.67137" lon="5.14928">
        <ele>546</ele>
        <time>2026-09-02T17:31:51.059Z</time>
      </trkpt>
      <trkpt lat="44.67137" lon="5.14929">
        <ele>546</ele>
        <time>2026-09-02T17:31:52.059Z</time>
      </trkpt>
      <trkpt lat="44.67136" lon="5.1493">
        <ele>547</ele>
        <time>2026-09-02T17:31:53.059Z</time>
      </trkpt>
      <trkpt lat="44.67136" lon="5.14932">
        <ele>547</ele>
        <time>2026-09-02T17:31:54.059Z</time>
      </trkpt>
      <trkpt lat="44.67135" lon="5.14933">
        <ele>547</ele>
        <time>2026-09-02T17:31:55.059Z</time>
      </trkpt>
      <trkpt lat="44.67135" lon="5.14933">
        <ele>547</ele>
        <time>2026-09-02T17:31:56.059Z</time>
      </trkpt>
      <trkpt lat="44.67134" lon="5.14934">
        <ele>547</ele>
        <time>2026-09-02T17:31:57.059Z</time>
      </trkpt>
      <trkpt lat="44.67133" lon="5.14935">
        <ele>547</ele>
        <time>2026-09-02T17:31:58.059Z</time>
      </trkpt>
      <trkpt lat="44.67133" lon="5.14936">
        <ele>547</ele>
        <time>2026-09-02T17:31:59.059Z</time>
      </trkpt>
      <trkpt lat="44.67132" lon="5.14937">
        <ele>547</ele>
        <time>2026-09-02T17:32:00.059Z</time>
      </trkpt>
      <trkpt lat="44.67132" lon="5.14938">
        <ele>547</ele>
        <time>2026-09-02T17:32:01.059Z</time>
      </trkpt>
      <trkpt lat="44.67131" lon="5.14939">
        <ele>547</ele>
        <time>2026-09-02T17:32:02.059Z</time>
      </trkpt>
      <trkpt lat="44.67131" lon="5.1494">
        <ele>547</ele>
        <time>2026-09-02T17:32:03.059Z</time>
      </trkpt>
      <trkpt lat="44.6713" lon="5.14941">
        <ele>547</ele>
        <time>2026-09-02T17:32:04.059Z</time>
      </trkpt>
      <trkpt lat="44.6713" lon="5.14942">
        <ele>547</ele>
        <time>2026-09-02T17:32:05.059Z</time>
      </trkpt>
      <trkpt lat="44.67129" lon="5.14943">
        <ele>547</ele>
        <time>2026-09-02T17:32:06.059Z</time>
      </trkpt>
      <trkpt lat="44.67129" lon="5.14944">
        <ele>548</ele>
        <time>2026-09-02T17:32:07.059Z</time>
      </trkpt>
      <trkpt lat="44.67128" lon="5.14945">
        <ele>548</ele>
        <time>2026-09-02T17:32:08.059Z</time>
      </trkpt>
      <trkpt lat="44.67128" lon="5.14945">
        <ele>548</ele>
        <time>2026-09-02T17:32:09.059Z</time>
      </trkpt>
      <trkpt lat="44.67128" lon="5.14946">
        <ele>548</ele>
        <time>2026-09-02T17:32:10.059Z</time>
      </trkpt>
      <trkpt lat="44.67127" lon="5.14947">
        <ele>548</ele>
        <time>2026-09-02T17:32:11.059Z</time>
      </trkpt>
      <trkpt lat="44.67127" lon="5.14948">
        <ele>548</ele>
        <time>2026-09-02T17:32:12.059Z</time>
      </trkpt>
      <trkpt lat="44.67126" lon="5.14949">
        <ele>548</ele>
        <time>2026-09-02T17:32:13.059Z</time>
      </trkpt>
      <trkpt lat="44.67126" lon="5.1495">
        <ele>548</ele>
        <time>2026-09-02T17:32:14.059Z</time>
      </trkpt>
      <trkpt lat="44.67125" lon="5.14951">
        <ele>548</ele>
        <time>2026-09-02T17:32:15.059Z</time>
      </trkpt>
      <trkpt lat="44.67124" lon="5.14952">
        <ele>549</ele>
        <time>2026-09-02T17:32:16.059Z</time>
      </trkpt>
      <trkpt lat="44.67124" lon="5.14953">
        <ele>549</ele>
        <time>2026-09-02T17:32:17.059Z</time>
      </trkpt>
      <trkpt lat="44.67123" lon="5.14954">
        <ele>549</ele>
        <time>2026-09-02T17:32:18.059Z</time>
      </trkpt>
      <trkpt lat="44.67122" lon="5.14955">
        <ele>549</ele>
        <time>2026-09-02T17:32:19.059Z</time>
      </trkpt>
      <trkpt lat="44.67121" lon="5.14956">
        <ele>549</ele>
        <time>2026-09-02T17:32:20.059Z</time>
      </trkpt>
      <trkpt lat="44.67121" lon="5.14957">
        <ele>549</ele>
        <time>2026-09-02T17:32:21.059Z</time>
      </trkpt>
      <trkpt lat="44.6712" lon="5.14958">
        <ele>549</ele>
        <time>2026-09-02T17:32:22.059Z</time>
      </trkpt>
      <trkpt lat="44.67119" lon="5.14959">
        <ele>549</ele>
        <time>2026-09-02T17:32:23.059Z</time>
      </trkpt>
      <trkpt lat="44.67118" lon="5.14959">
        <ele>549</ele>
        <time>2026-09-02T17:32:24.059Z</time>
      </trkpt>
      <trkpt lat="44.67118" lon="5.14959">
        <ele>550</ele>
        <time>2026-09-02T17:32:25.059Z</time>
      </trkpt>
      <trkpt lat="44.67117" lon="5.1496">
        <ele>550</ele>
        <time>2026-09-02T17:32:26.059Z</time>
      </trkpt>
      <trkpt lat="44.67116" lon="5.1496">
        <ele>550</ele>
        <time>2026-09-02T17:32:27.059Z</time>
      </trkpt>
      <trkpt lat="44.67116" lon="5.14961">
        <ele>550</ele>
        <time>2026-09-02T17:32:28.059Z</time>
      </trkpt>
      <trkpt lat="44.67115" lon="5.14961">
        <ele>550</ele>
        <time>2026-09-02T17:32:29.059Z</time>
      </trkpt>
      <trkpt lat="44.67114" lon="5.14962">
        <ele>550</ele>
        <time>2026-09-02T17:32:30.059Z</time>
      </trkpt>
      <trkpt lat="44.67114" lon="5.14962">
        <ele>550</ele>
        <time>2026-09-02T17:32:31.059Z</time>
      </trkpt>
      <trkpt lat="44.67113" lon="5.14962">
        <ele>550</ele>
        <time>2026-09-02T17:32:32.059Z</time>
      </trkpt>
      <trkpt lat="44.67112" lon="5.14963">
        <ele>550</ele>
        <time>2026-09-02T17:32:33.059Z</time>
      </trkpt>
      <trkpt lat="44.67112" lon="5.14963">
        <ele>550</ele>
        <time>2026-09-02T17:32:34.059Z</time>
      </trkpt>
      <trkpt lat="44.67111" lon="5.14963">
        <ele>550</ele>
        <time>2026-09-02T17:32:35.059Z</time>
      </trkpt>
      <trkpt lat="44.6711" lon="5.14963">
        <ele>550</ele>
        <time>2026-09-02T17:32:36.059Z</time>
      </trkpt>
      <trkpt lat="44.67109" lon="5.14963">
        <ele>550</ele>
        <time>2026-09-02T17:32:37.059Z</time>
      </trkpt>
      <trkpt lat="44.67108" lon="5.14964">
        <ele>550</ele>
        <time>2026-09-02T17:32:38.059Z</time>
      </trkpt>
      <trkpt lat="44.67107" lon="5.14964">
        <ele>550</ele>
        <time>2026-09-02T17:32:39.059Z</time>
      </trkpt>
      <trkpt lat="44.67107" lon="5.14964">
        <ele>550</ele>
        <time>2026-09-02T17:32:40.059Z</time>
      </trkpt>
      <trkpt lat="44.67106" lon="5.14964">
        <ele>550</ele>
        <time>2026-09-02T17:32:41.059Z</time>
      </trkpt>
      <trkpt lat="44.67106" lon="5.14964">
        <ele>550</ele>
        <time>2026-09-02T17:32:42.059Z</time>
      </trkpt>
      <trkpt lat="44.67106" lon="5.14965">
        <ele>550</ele>
        <time>2026-09-02T17:32:43.059Z</time>
      </trkpt>
      <trkpt lat="44.67106" lon="5.14965">
        <ele>550</ele>
        <time>2026-09-02T17:32:44.059Z</time>
      </trkpt>
      <trkpt lat="44.67105" lon="5.14966">
        <ele>549</ele>
        <time>2026-09-02T17:32:58.065Z</time>
      </trkpt>
      <trkpt lat="44.67105" lon="5.14966">
        <ele>549</ele>
        <time>2026-09-02T17:32:59.065Z</time>
      </trkpt>
      <trkpt lat="44.67104" lon="5.14967">
        <ele>549</ele>
        <time>2026-09-02T17:33:00.065Z</time>
      </trkpt>
      <trkpt lat="44.67103" lon="5.14967">
        <ele>549</ele>
        <time>2026-09-02T17:33:01.065Z</time>
      </trkpt>
      <trkpt lat="44.67102" lon="5.14967">
        <ele>549</ele>
        <time>2026-09-02T17:33:02.065Z</time>
      </trkpt>
      <trkpt lat="44.67101" lon="5.14968">
        <ele>549</ele>
        <time>2026-09-02T17:33:03.065Z</time>
      </trkpt>
      <trkpt lat="44.671" lon="5.14968">
        <ele>549</ele>
        <time>2026-09-02T17:33:04.065Z</time>
      </trkpt>
      <trkpt lat="44.67099" lon="5.14968">
        <ele>549</ele>
        <time>2026-09-02T17:33:05.065Z</time>
      </trkpt>
      <trkpt lat="44.67098" lon="5.14969">
        <ele>549</ele>
        <time>2026-09-02T17:33:06.065Z</time>
      </trkpt>
      <trkpt lat="44.67098" lon="5.14969">
        <ele>549</ele>
        <time>2026-09-02T17:33:07.065Z</time>
      </trkpt>
      <trkpt lat="44.67097" lon="5.14969">
        <ele>549</ele>
        <time>2026-09-02T17:33:08.065Z</time>
      </trkpt>
      <trkpt lat="44.67096" lon="5.1497">
        <ele>550</ele>
        <time>2026-09-02T17:33:09.065Z</time>
      </trkpt>
      <trkpt lat="44.67095" lon="5.1497">
        <ele>550</ele>
        <time>2026-09-02T17:33:10.065Z</time>
      </trkpt>
      <trkpt lat="44.67094" lon="5.1497">
        <ele>550</ele>
        <time>2026-09-02T17:33:11.065Z</time>
      </trkpt>
      <trkpt lat="44.67093" lon="5.1497">
        <ele>550</ele>
        <time>2026-09-02T17:33:12.065Z</time>
      </trkpt>
      <trkpt lat="44.67093" lon="5.1497">
        <ele>549</ele>
        <time>2026-09-02T17:33:13.065Z</time>
      </trkpt>
      <trkpt lat="44.67092" lon="5.14971">
        <ele>549</ele>
        <time>2026-09-02T17:33:14.065Z</time>
      </trkpt>
      <trkpt lat="44.67091" lon="5.14971">
        <ele>549</ele>
        <time>2026-09-02T17:33:15.065Z</time>
      </trkpt>
      <trkpt lat="44.6709" lon="5.14971">
        <ele>549</ele>
        <time>2026-09-02T17:33:16.065Z</time>
      </trkpt>
      <trkpt lat="44.67089" lon="5.14972">
        <ele>549</ele>
        <time>2026-09-02T17:33:17.065Z</time>
      </trkpt>
      <trkpt lat="44.67089" lon="5.14972">
        <ele>549</ele>
        <time>2026-09-02T17:33:18.065Z</time>
      </trkpt>
      <trkpt lat="44.67088" lon="5.14973">
        <ele>549</ele>
        <time>2026-09-02T17:33:19.065Z</time>
      </trkpt>
      <trkpt lat="44.67087" lon="5.14973">
        <ele>549</ele>
        <time>2026-09-02T17:33:20.065Z</time>
      </trkpt>
      <trkpt lat="44.67086" lon="5.14974">
        <ele>549</ele>
        <time>2026-09-02T17:33:21.065Z</time>
      </trkpt>
      <trkpt lat="44.67086" lon="5.14975">
        <ele>549</ele>
        <time>2026-09-02T17:33:22.065Z</time>
      </trkpt>
      <trkpt lat="44.67085" lon="5.14976">
        <ele>549</ele>
        <time>2026-09-02T17:33:23.065Z</time>
      </trkpt>
      <trkpt lat="44.67084" lon="5.14976">
        <ele>549</ele>
        <time>2026-09-02T17:33:24.065Z</time>
      </trkpt>
      <trkpt lat="44.67084" lon="5.14977">
        <ele>549</ele>
        <time>2026-09-02T17:33:25.065Z</time>
      </trkpt>
      <trkpt lat="44.67083" lon="5.14978">
        <ele>550</ele>
        <time>2026-09-02T17:33:26.065Z</time>
      </trkpt>
      <trkpt lat="44.67083" lon="5.14979">
        <ele>550</ele>
        <time>2026-09-02T17:33:27.065Z</time>
      </trkpt>
      <trkpt lat="44.67082" lon="5.14979">
        <ele>550</ele>
        <time>2026-09-02T17:33:28.065Z</time>
      </trkpt>
      <trkpt lat="44.67082" lon="5.1498">
        <ele>550</ele>
        <time>2026-09-02T17:33:29.065Z</time>
      </trkpt>
      <trkpt lat="44.67082" lon="5.1498">
        <ele>550</ele>
        <time>2026-09-02T17:33:30.065Z</time>
      </trkpt>
      <trkpt lat="44.67081" lon="5.14982">
        <ele>550</ele>
        <time>2026-09-02T17:33:37.077Z</time>
      </trkpt>
      <trkpt lat="44.6708" lon="5.14983">
        <ele>550</ele>
        <time>2026-09-02T17:33:38.077Z</time>
      </trkpt>
      <trkpt lat="44.6708" lon="5.14984">
        <ele>550</ele>
        <time>2026-09-02T17:33:39.077Z</time>
      </trkpt>
      <trkpt lat="44.67079" lon="5.14985">
        <ele>550</ele>
        <time>2026-09-02T17:33:40.077Z</time>
      </trkpt>
      <trkpt lat="44.67079" lon="5.14986">
        <ele>551</ele>
        <time>2026-09-02T17:33:41.077Z</time>
      </trkpt>
      <trkpt lat="44.67078" lon="5.14986">
        <ele>551</ele>
        <time>2026-09-02T17:33:42.077Z</time>
      </trkpt>
      <trkpt lat="44.67078" lon="5.14987">
        <ele>551</ele>
        <time>2026-09-02T17:33:43.077Z</time>
      </trkpt>
      <trkpt lat="44.67077" lon="5.14988">
        <ele>551</ele>
        <time>2026-09-02T17:33:44.077Z</time>
      </trkpt>
      <trkpt lat="44.67077" lon="5.14989">
        <ele>551</ele>
        <time>2026-09-02T17:33:45.077Z</time>
      </trkpt>
      <trkpt lat="44.67076" lon="5.1499">
        <ele>551</ele>
        <time>2026-09-02T17:33:46.077Z</time>
      </trkpt>
      <trkpt lat="44.67076" lon="5.14991">
        <ele>551</ele>
        <time>2026-09-02T17:33:47.077Z</time>
      </trkpt>
      <trkpt lat="44.67075" lon="5.14992">
        <ele>551</ele>
        <time>2026-09-02T17:33:48.077Z</time>
      </trkpt>
      <trkpt lat="44.67074" lon="5.14993">
        <ele>551</ele>
        <time>2026-09-02T17:33:49.077Z</time>
      </trkpt>
      <trkpt lat="44.67073" lon="5.14994">
        <ele>551</ele>
        <time>2026-09-02T17:33:50.077Z</time>
      </trkpt>
      <trkpt lat="44.67072" lon="5.14995">
        <ele>551</ele>
        <time>2026-09-02T17:33:51.077Z</time>
      </trkpt>
      <trkpt lat="44.67071" lon="5.14995">
        <ele>551</ele>
        <time>2026-09-02T17:33:52.077Z</time>
      </trkpt>
      <trkpt lat="44.6707" lon="5.14996">
        <ele>551</ele>
        <time>2026-09-02T17:33:53.077Z</time>
      </trkpt>
      <trkpt lat="44.67069" lon="5.14996">
        <ele>551</ele>
        <time>2026-09-02T17:33:54.077Z</time>
      </trkpt>
      <trkpt lat="44.67068" lon="5.14996">
        <ele>552</ele>
        <time>2026-09-02T17:33:55.077Z</time>
      </trkpt>
      <trkpt lat="44.67066" lon="5.14996">
        <ele>552</ele>
        <time>2026-09-02T17:33:56.077Z</time>
      </trkpt>
      <trkpt lat="44.67065" lon="5.14996">
        <ele>552</ele>
        <time>2026-09-02T17:33:57.077Z</time>
      </trkpt>
      <trkpt lat="44.67064" lon="5.14996">
        <ele>552</ele>
        <time>2026-09-02T17:33:58.077Z</time>
      </trkpt>
      <trkpt lat="44.67063" lon="5.14995">
        <ele>552</ele>
        <time>2026-09-02T17:33:59.077Z</time>
      </trkpt>
      <trkpt lat="44.67062" lon="5.14995">
        <ele>552</ele>
        <time>2026-09-02T17:34:00.077Z</time>
      </trkpt>
      <trkpt lat="44.67061" lon="5.14994">
        <ele>552</ele>
        <time>2026-09-02T17:34:01.077Z</time>
      </trkpt>
      <trkpt lat="44.6706" lon="5.14994">
        <ele>552</ele>
        <time>2026-09-02T17:34:02.077Z</time>
      </trkpt>
      <trkpt lat="44.67059" lon="5.14994">
        <ele>552</ele>
        <time>2026-09-02T17:34:03.077Z</time>
      </trkpt>
      <trkpt lat="44.67058" lon="5.14993">
        <ele>552</ele>
        <time>2026-09-02T17:34:04.077Z</time>
      </trkpt>
      <trkpt lat="44.67057" lon="5.14993">
        <ele>552</ele>
        <time>2026-09-02T17:34:05.077Z</time>
      </trkpt>
      <trkpt lat="44.67056" lon="5.14992">
        <ele>552</ele>
        <time>2026-09-02T17:34:06.077Z</time>
      </trkpt>
      <trkpt lat="44.67055" lon="5.14992">
        <ele>552</ele>
        <time>2026-09-02T17:34:07.077Z</time>
      </trkpt>
      <trkpt lat="44.67054" lon="5.14992">
        <ele>552</ele>
        <time>2026-09-02T17:34:08.077Z</time>
      </trkpt>
      <trkpt lat="44.67054" lon="5.14991">
        <ele>552</ele>
        <time>2026-09-02T17:34:09.077Z</time>
      </trkpt>
      <trkpt lat="44.67053" lon="5.1499">
        <ele>552</ele>
        <time>2026-09-02T17:34:10.077Z</time>
      </trkpt>
      <trkpt lat="44.67053" lon="5.1499">
        <ele>552</ele>
        <time>2026-09-02T17:34:11.077Z</time>
      </trkpt>
      <trkpt lat="44.67053" lon="5.1499">
        <ele>552</ele>
        <time>2026-09-02T17:34:12.077Z</time>
      </trkpt>
      <trkpt lat="44.67053" lon="5.14991">
        <ele>552</ele>
        <time>2026-09-02T17:34:13.077Z</time>
      </trkpt>
      <trkpt lat="44.67053" lon="5.14991">
        <ele>552</ele>
        <time>2026-09-02T17:34:14.077Z</time>
      </trkpt>
      <trkpt lat="44.67051" lon="5.1499">
        <ele>552</ele>
        <time>2026-09-02T17:34:18.088Z</time>
      </trkpt>
      <trkpt lat="44.67051" lon="5.14989">
        <ele>552</ele>
        <time>2026-09-02T17:34:19.088Z</time>
      </trkpt>
      <trkpt lat="44.6705" lon="5.14989">
        <ele>552</ele>
        <time>2026-09-02T17:34:20.088Z</time>
      </trkpt>
      <trkpt lat="44.67049" lon="5.14987">
        <ele>552</ele>
        <time>2026-09-02T17:34:21.088Z</time>
      </trkpt>
      <trkpt lat="44.67048" lon="5.14986">
        <ele>552</ele>
        <time>2026-09-02T17:34:22.088Z</time>
      </trkpt>
      <trkpt lat="44.67047" lon="5.14986">
        <ele>552</ele>
        <time>2026-09-02T17:34:23.088Z</time>
      </trkpt>
      <trkpt lat="44.67046" lon="5.14985">
        <ele>552</ele>
        <time>2026-09-02T17:34:24.088Z</time>
      </trkpt>
      <trkpt lat="44.67046" lon="5.14984">
        <ele>553</ele>
        <time>2026-09-02T17:34:25.088Z</time>
      </trkpt>
      <trkpt lat="44.67045" lon="5.14984">
        <ele>553</ele>
        <time>2026-09-02T17:34:26.088Z</time>
      </trkpt>
      <trkpt lat="44.67043" lon="5.14984">
        <ele>553</ele>
        <time>2026-09-02T17:34:27.088Z</time>
      </trkpt>
      <trkpt lat="44.67042" lon="5.14983">
        <ele>553</ele>
        <time>2026-09-02T17:34:28.088Z</time>
      </trkpt>
      <trkpt lat="44.67041" lon="5.14983">
        <ele>553</ele>
        <time>2026-09-02T17:34:29.088Z</time>
      </trkpt>
      <trkpt lat="44.6704" lon="5.14983">
        <ele>553</ele>
        <time>2026-09-02T17:34:30.088Z</time>
      </trkpt>
      <trkpt lat="44.67039" lon="5.14982">
        <ele>553</ele>
        <time>2026-09-02T17:34:31.088Z</time>
      </trkpt>
      <trkpt lat="44.67038" lon="5.14982">
        <ele>554</ele>
        <time>2026-09-02T17:34:32.088Z</time>
      </trkpt>
      <trkpt lat="44.67038" lon="5.14981">
        <ele>554</ele>
        <time>2026-09-02T17:34:33.088Z</time>
      </trkpt>
      <trkpt lat="44.67037" lon="5.14981">
        <ele>554</ele>
        <time>2026-09-02T17:34:34.088Z</time>
      </trkpt>
      <trkpt lat="44.67036" lon="5.1498">
        <ele>554</ele>
        <time>2026-09-02T17:34:35.088Z</time>
      </trkpt>
      <trkpt lat="44.67035" lon="5.1498">
        <ele>554</ele>
        <time>2026-09-02T17:34:36.088Z</time>
      </trkpt>
      <trkpt lat="44.67034" lon="5.14979">
        <ele>554</ele>
        <time>2026-09-02T17:34:37.088Z</time>
      </trkpt>
      <trkpt lat="44.67034" lon="5.14978">
        <ele>554</ele>
        <time>2026-09-02T17:34:38.088Z</time>
      </trkpt>
      <trkpt lat="44.67034" lon="5.14978">
        <ele>554</ele>
        <time>2026-09-02T17:34:39.088Z</time>
      </trkpt>
      <trkpt lat="44.67033" lon="5.14978">
        <ele>554</ele>
        <time>2026-09-02T17:34:40.088Z</time>
      </trkpt>
      <trkpt lat="44.67033" lon="5.14978">
        <ele>554</ele>
        <time>2026-09-02T17:34:41.088Z</time>
      </trkpt>
      <trkpt lat="44.67032" lon="5.14978">
        <ele>554</ele>
        <time>2026-09-02T17:34:42.088Z</time>
      </trkpt>
      <trkpt lat="44.67031" lon="5.14977">
        <ele>555</ele>
        <time>2026-09-02T17:34:43.088Z</time>
      </trkpt>
      <trkpt lat="44.6703" lon="5.14977">
        <ele>555</ele>
        <time>2026-09-02T17:34:44.088Z</time>
      </trkpt>
      <trkpt lat="44.67029" lon="5.14976">
        <ele>555</ele>
        <time>2026-09-02T17:34:45.088Z</time>
      </trkpt>
      <trkpt lat="44.67029" lon="5.14976">
        <ele>555</ele>
        <time>2026-09-02T17:34:46.088Z</time>
      </trkpt>
      <trkpt lat="44.67028" lon="5.14976">
        <ele>555</ele>
        <time>2026-09-02T17:34:47.088Z</time>
      </trkpt>
      <trkpt lat="44.67027" lon="5.14975">
        <ele>555</ele>
        <time>2026-09-02T17:34:48.088Z</time>
      </trkpt>
      <trkpt lat="44.67026" lon="5.14974">
        <ele>555</ele>
        <time>2026-09-02T17:34:49.088Z</time>
      </trkpt>
      <trkpt lat="44.67025" lon="5.14974">
        <ele>555</ele>
        <time>2026-09-02T17:34:50.088Z</time>
      </trkpt>
      <trkpt lat="44.67024" lon="5.14973">
        <ele>555</ele>
        <time>2026-09-02T17:34:51.088Z</time>
      </trkpt>
      <trkpt lat="44.67023" lon="5.14973">
        <ele>556</ele>
        <time>2026-09-02T17:34:52.088Z</time>
      </trkpt>
      <trkpt lat="44.67022" lon="5.14972">
        <ele>556</ele>
        <time>2026-09-02T17:34:53.088Z</time>
      </trkpt>
      <trkpt lat="44.67022" lon="5.14972">
        <ele>556</ele>
        <time>2026-09-02T17:34:54.088Z</time>
      </trkpt>
      <trkpt lat="44.67021" lon="5.14972">
        <ele>556</ele>
        <time>2026-09-02T17:34:55.088Z</time>
      </trkpt>
      <trkpt lat="44.6702" lon="5.14971">
        <ele>556</ele>
        <time>2026-09-02T17:34:56.088Z</time>
      </trkpt>
      <trkpt lat="44.67019" lon="5.1497">
        <ele>556</ele>
        <time>2026-09-02T17:34:57.088Z</time>
      </trkpt>
      <trkpt lat="44.67018" lon="5.1497">
        <ele>556</ele>
        <time>2026-09-02T17:34:58.088Z</time>
      </trkpt>
      <trkpt lat="44.67018" lon="5.1497">
        <ele>556</ele>
        <time>2026-09-02T17:34:59.088Z</time>
      </trkpt>
      <trkpt lat="44.67017" lon="5.14969">
        <ele>556</ele>
        <time>2026-09-02T17:35:00.088Z</time>
      </trkpt>
      <trkpt lat="44.67016" lon="5.14969">
        <ele>557</ele>
        <time>2026-09-02T17:35:01.088Z</time>
      </trkpt>
      <trkpt lat="44.67015" lon="5.14968">
        <ele>557</ele>
        <time>2026-09-02T17:35:02.088Z</time>
      </trkpt>
      <trkpt lat="44.67014" lon="5.14967">
        <ele>557</ele>
        <time>2026-09-02T17:35:03.088Z</time>
      </trkpt>
      <trkpt lat="44.67014" lon="5.14967">
        <ele>557</ele>
        <time>2026-09-02T17:35:04.088Z</time>
      </trkpt>
      <trkpt lat="44.67013" lon="5.14967">
        <ele>557</ele>
        <time>2026-09-02T17:35:05.088Z</time>
      </trkpt>
      <trkpt lat="44.67012" lon="5.14966">
        <ele>557</ele>
        <time>2026-09-02T17:35:06.088Z</time>
      </trkpt>
      <trkpt lat="44.67011" lon="5.14966">
        <ele>557</ele>
        <time>2026-09-02T17:35:07.088Z</time>
      </trkpt>
      <trkpt lat="44.6701" lon="5.14965">
        <ele>557</ele>
        <time>2026-09-02T17:35:08.088Z</time>
      </trkpt>
      <trkpt lat="44.6701" lon="5.14965">
        <ele>557</ele>
        <time>2026-09-02T17:35:09.088Z</time>
      </trkpt>
      <trkpt lat="44.67009" lon="5.14965">
        <ele>558</ele>
        <time>2026-09-02T17:35:10.088Z</time>
      </trkpt>
      <trkpt lat="44.67009" lon="5.14965">
        <ele>558</ele>
        <time>2026-09-02T17:35:11.088Z</time>
      </trkpt>
      <trkpt lat="44.67009" lon="5.14964">
        <ele>558</ele>
        <time>2026-09-02T17:35:12.088Z</time>
      </trkpt>
      <trkpt lat="44.67009" lon="5.14964">
        <ele>558</ele>
        <time>2026-09-02T17:35:13.088Z</time>
      </trkpt>
      <trkpt lat="44.67008" lon="5.14963">
        <ele>558</ele>
        <time>2026-09-02T17:35:14.088Z</time>
      </trkpt>
      <trkpt lat="44.67008" lon="5.14962">
        <ele>558</ele>
        <time>2026-09-02T17:35:15.088Z</time>
      </trkpt>
      <trkpt lat="44.67007" lon="5.14962">
        <ele>558</ele>
        <time>2026-09-02T17:35:16.088Z</time>
      </trkpt>
      <trkpt lat="44.67006" lon="5.14962">
        <ele>558</ele>
        <time>2026-09-02T17:35:17.088Z</time>
      </trkpt>
      <trkpt lat="44.67005" lon="5.14961">
        <ele>558</ele>
        <time>2026-09-02T17:35:18.088Z</time>
      </trkpt>
      <trkpt lat="44.67004" lon="5.14961">
        <ele>558</ele>
        <time>2026-09-02T17:35:19.088Z</time>
      </trkpt>
      <trkpt lat="44.67003" lon="5.1496">
        <ele>558</ele>
        <time>2026-09-02T17:35:20.088Z</time>
      </trkpt>
      <trkpt lat="44.67002" lon="5.14959">
        <ele>558</ele>
        <time>2026-09-02T17:35:21.088Z</time>
      </trkpt>
      <trkpt lat="44.67002" lon="5.14958">
        <ele>558</ele>
        <time>2026-09-02T17:35:22.088Z</time>
      </trkpt>
      <trkpt lat="44.67001" lon="5.14957">
        <ele>558</ele>
        <time>2026-09-02T17:35:23.088Z</time>
      </trkpt>
      <trkpt lat="44.67" lon="5.14957">
        <ele>558</ele>
        <time>2026-09-02T17:35:24.088Z</time>
      </trkpt>
      <trkpt lat="44.66999" lon="5.14956">
        <ele>559</ele>
        <time>2026-09-02T17:35:25.088Z</time>
      </trkpt>
      <trkpt lat="44.66998" lon="5.14956">
        <ele>559</ele>
        <time>2026-09-02T17:35:26.088Z</time>
      </trkpt>
      <trkpt lat="44.66997" lon="5.14955">
        <ele>559</ele>
        <time>2026-09-02T17:35:27.088Z</time>
      </trkpt>
      <trkpt lat="44.66997" lon="5.14955">
        <ele>559</ele>
        <time>2026-09-02T17:35:28.088Z</time>
      </trkpt>
      <trkpt lat="44.66996" lon="5.14955">
        <ele>559</ele>
        <time>2026-09-02T17:35:29.088Z</time>
      </trkpt>
      <trkpt lat="44.66996" lon="5.14954">
        <ele>559</ele>
        <time>2026-09-02T17:35:30.088Z</time>
      </trkpt>
      <trkpt lat="44.66996" lon="5.14954">
        <ele>559</ele>
        <time>2026-09-02T17:35:31.088Z</time>
      </trkpt>
      <trkpt lat="44.66996" lon="5.14954">
        <ele>559</ele>
        <time>2026-09-02T17:35:32.088Z</time>
      </trkpt>
      <trkpt lat="44.66995" lon="5.14951">
        <ele>560</ele>
        <time>2026-09-02T17:35:41.097Z</time>
      </trkpt>
      <trkpt lat="44.66994" lon="5.14951">
        <ele>560</ele>
        <time>2026-09-02T17:35:42.097Z</time>
      </trkpt>
      <trkpt lat="44.66993" lon="5.1495">
        <ele>561</ele>
        <time>2026-09-02T17:35:43.097Z</time>
      </trkpt>
      <trkpt lat="44.66992" lon="5.1495">
        <ele>561</ele>
        <time>2026-09-02T17:35:44.097Z</time>
      </trkpt>
      <trkpt lat="44.66991" lon="5.14949">
        <ele>561</ele>
        <time>2026-09-02T17:35:45.097Z</time>
      </trkpt>
      <trkpt lat="44.6699" lon="5.14949">
        <ele>561</ele>
        <time>2026-09-02T17:35:46.097Z</time>
      </trkpt>
      <trkpt lat="44.66989" lon="5.14948">
        <ele>561</ele>
        <time>2026-09-02T17:35:47.097Z</time>
      </trkpt>
      <trkpt lat="44.66988" lon="5.14948">
        <ele>561</ele>
        <time>2026-09-02T17:35:48.097Z</time>
      </trkpt>
      <trkpt lat="44.66987" lon="5.14948">
        <ele>561</ele>
        <time>2026-09-02T17:35:49.097Z</time>
      </trkpt>
      <trkpt lat="44.66986" lon="5.14947">
        <ele>562</ele>
        <time>2026-09-02T17:35:50.097Z</time>
      </trkpt>
      <trkpt lat="44.66985" lon="5.14947">
        <ele>562</ele>
        <time>2026-09-02T17:35:51.097Z</time>
      </trkpt>
      <trkpt lat="44.66984" lon="5.14947">
        <ele>562</ele>
        <time>2026-09-02T17:35:52.097Z</time>
      </trkpt>
      <trkpt lat="44.66983" lon="5.14946">
        <ele>562</ele>
        <time>2026-09-02T17:35:53.097Z</time>
      </trkpt>
      <trkpt lat="44.66982" lon="5.14946">
        <ele>562</ele>
        <time>2026-09-02T17:35:54.097Z</time>
      </trkpt>
      <trkpt lat="44.66981" lon="5.14945">
        <ele>562</ele>
        <time>2026-09-02T17:35:55.097Z</time>
      </trkpt>
      <trkpt lat="44.6698" lon="5.14945">
        <ele>562</ele>
        <time>2026-09-02T17:35:56.097Z</time>
      </trkpt>
      <trkpt lat="44.66979" lon="5.14945">
        <ele>562</ele>
        <time>2026-09-02T17:35:57.097Z</time>
      </trkpt>
      <trkpt lat="44.66978" lon="5.14944">
        <ele>562</ele>
        <time>2026-09-02T17:35:58.097Z</time>
      </trkpt>
      <trkpt lat="44.66978" lon="5.14944">
        <ele>562</ele>
        <time>2026-09-02T17:35:59.097Z</time>
      </trkpt>
      <trkpt lat="44.66977" lon="5.14943">
        <ele>563</ele>
        <time>2026-09-02T17:36:00.097Z</time>
      </trkpt>
      <trkpt lat="44.66976" lon="5.14943">
        <ele>563</ele>
        <time>2026-09-02T17:36:01.097Z</time>
      </trkpt>
      <trkpt lat="44.66975" lon="5.14942">
        <ele>563</ele>
        <time>2026-09-02T17:36:02.097Z</time>
      </trkpt>
      <trkpt lat="44.66974" lon="5.14942">
        <ele>563</ele>
        <time>2026-09-02T17:36:03.097Z</time>
      </trkpt>
      <trkpt lat="44.66973" lon="5.14941">
        <ele>563</ele>
        <time>2026-09-02T17:36:04.097Z</time>
      </trkpt>
      <trkpt lat="44.66972" lon="5.14941">
        <ele>563</ele>
        <time>2026-09-02T17:36:05.097Z</time>
      </trkpt>
      <trkpt lat="44.66972" lon="5.1494">
        <ele>563</ele>
        <time>2026-09-02T17:36:06.097Z</time>
      </trkpt>
      <trkpt lat="44.66971" lon="5.1494">
        <ele>563</ele>
        <time>2026-09-02T17:36:07.097Z</time>
      </trkpt>
      <trkpt lat="44.6697" lon="5.1494">
        <ele>563</ele>
        <time>2026-09-02T17:36:08.097Z</time>
      </trkpt>
      <trkpt lat="44.66969" lon="5.14939">
        <ele>563</ele>
        <time>2026-09-02T17:36:09.097Z</time>
      </trkpt>
      <trkpt lat="44.66968" lon="5.14939">
        <ele>563</ele>
        <time>2026-09-02T17:36:10.097Z</time>
      </trkpt>
      <trkpt lat="44.66968" lon="5.14939">
        <ele>563</ele>
        <time>2026-09-02T17:36:11.097Z</time>
      </trkpt>
      <trkpt lat="44.66967" lon="5.14939">
        <ele>563</ele>
        <time>2026-09-02T17:36:12.097Z</time>
      </trkpt>
      <trkpt lat="44.66967" lon="5.14939">
        <ele>563</ele>
        <time>2026-09-02T17:36:13.097Z</time>
      </trkpt>
      <trkpt lat="44.66966" lon="5.14939">
        <ele>563</ele>
        <time>2026-09-02T17:36:14.097Z</time>
      </trkpt>
      <trkpt lat="44.66965" lon="5.14939">
        <ele>563</ele>
        <time>2026-09-02T17:36:15.097Z</time>
      </trkpt>
      <trkpt lat="44.66965" lon="5.14939">
        <ele>563</ele>
        <time>2026-09-02T17:36:16.097Z</time>
      </trkpt>
      <trkpt lat="44.66964" lon="5.14938">
        <ele>563</ele>
        <time>2026-09-02T17:36:17.097Z</time>
      </trkpt>
      <trkpt lat="44.66963" lon="5.14938">
        <ele>563</ele>
        <time>2026-09-02T17:36:18.097Z</time>
      </trkpt>
      <trkpt lat="44.66962" lon="5.14937">
        <ele>563</ele>
        <time>2026-09-02T17:36:19.097Z</time>
      </trkpt>
      <trkpt lat="44.66961" lon="5.14937">
        <ele>564</ele>
        <time>2026-09-02T17:36:20.097Z</time>
      </trkpt>
      <trkpt lat="44.6696" lon="5.14936">
        <ele>564</ele>
        <time>2026-09-02T17:36:21.097Z</time>
      </trkpt>
      <trkpt lat="44.66959" lon="5.14936">
        <ele>564</ele>
        <time>2026-09-02T17:36:22.097Z</time>
      </trkpt>
      <trkpt lat="44.66958" lon="5.14935">
        <ele>564</ele>
        <time>2026-09-02T17:36:23.097Z</time>
      </trkpt>
      <trkpt lat="44.66957" lon="5.14935">
        <ele>564</ele>
        <time>2026-09-02T17:36:24.097Z</time>
      </trkpt>
      <trkpt lat="44.66957" lon="5.14935">
        <ele>564</ele>
        <time>2026-09-02T17:36:25.097Z</time>
      </trkpt>
      <trkpt lat="44.66956" lon="5.14935">
        <ele>564</ele>
        <time>2026-09-02T17:36:26.097Z</time>
      </trkpt>
      <trkpt lat="44.66955" lon="5.14935">
        <ele>565</ele>
        <time>2026-09-02T17:36:27.097Z</time>
      </trkpt>
      <trkpt lat="44.66954" lon="5.14935">
        <ele>565</ele>
        <time>2026-09-02T17:36:28.097Z</time>
      </trkpt>
      <trkpt lat="44.66953" lon="5.14935">
        <ele>565</ele>
        <time>2026-09-02T17:36:29.097Z</time>
      </trkpt>
      <trkpt lat="44.66952" lon="5.14935">
        <ele>565</ele>
        <time>2026-09-02T17:36:30.097Z</time>
      </trkpt>
      <trkpt lat="44.66951" lon="5.14934">
        <ele>565</ele>
        <time>2026-09-02T17:36:31.097Z</time>
      </trkpt>
      <trkpt lat="44.66951" lon="5.14934">
        <ele>565</ele>
        <time>2026-09-02T17:36:32.097Z</time>
      </trkpt>
      <trkpt lat="44.6695" lon="5.14934">
        <ele>565</ele>
        <time>2026-09-02T17:36:33.097Z</time>
      </trkpt>
      <trkpt lat="44.66949" lon="5.14934">
        <ele>565</ele>
        <time>2026-09-02T17:36:34.097Z</time>
      </trkpt>
      <trkpt lat="44.66948" lon="5.14933">
        <ele>565</ele>
        <time>2026-09-02T17:36:35.097Z</time>
      </trkpt>
      <trkpt lat="44.66948" lon="5.14932">
        <ele>566</ele>
        <time>2026-09-02T17:36:36.097Z</time>
      </trkpt>
      <trkpt lat="44.66947" lon="5.14932">
        <ele>566</ele>
        <time>2026-09-02T17:36:37.097Z</time>
      </trkpt>
      <trkpt lat="44.66947" lon="5.14932">
        <ele>566</ele>
        <time>2026-09-02T17:36:38.097Z</time>
      </trkpt>
      <trkpt lat="44.66947" lon="5.14932">
        <ele>566</ele>
        <time>2026-09-02T17:36:39.097Z</time>
      </trkpt>
      <trkpt lat="44.66947" lon="5.14931">
        <ele>566</ele>
        <time>2026-09-02T17:36:40.097Z</time>
      </trkpt>
      <trkpt lat="44.66946" lon="5.14931">
        <ele>566</ele>
        <time>2026-09-02T17:36:41.097Z</time>
      </trkpt>
      <trkpt lat="44.66945" lon="5.1493">
        <ele>566</ele>
        <time>2026-09-02T17:36:42.097Z</time>
      </trkpt>
      <trkpt lat="44.66944" lon="5.1493">
        <ele>566</ele>
        <time>2026-09-02T17:36:43.097Z</time>
      </trkpt>
      <trkpt lat="44.66943" lon="5.14929">
        <ele>567</ele>
        <time>2026-09-02T17:36:44.097Z</time>
      </trkpt>
      <trkpt lat="44.66943" lon="5.14929">
        <ele>567</ele>
        <time>2026-09-02T17:36:45.097Z</time>
      </trkpt>
      <trkpt lat="44.66942" lon="5.14928">
        <ele>567</ele>
        <time>2026-09-02T17:36:46.097Z</time>
      </trkpt>
      <trkpt lat="44.66941" lon="5.14928">
        <ele>567</ele>
        <time>2026-09-02T17:36:47.097Z</time>
      </trkpt>
      <trkpt lat="44.6694" lon="5.14927">
        <ele>567</ele>
        <time>2026-09-02T17:36:48.097Z</time>
      </trkpt>
      <trkpt lat="44.6694" lon="5.14927">
        <ele>567</ele>
        <time>2026-09-02T17:36:49.097Z</time>
      </trkpt>
      <trkpt lat="44.66939" lon="5.14926">
        <ele>567</ele>
        <time>2026-09-02T17:36:50.097Z</time>
      </trkpt>
      <trkpt lat="44.66938" lon="5.14925">
        <ele>567</ele>
        <time>2026-09-02T17:36:51.097Z</time>
      </trkpt>
      <trkpt lat="44.66937" lon="5.14924">
        <ele>568</ele>
        <time>2026-09-02T17:36:52.097Z</time>
      </trkpt>
      <trkpt lat="44.66936" lon="5.14924">
        <ele>568</ele>
        <time>2026-09-02T17:36:53.097Z</time>
      </trkpt>
      <trkpt lat="44.66936" lon="5.14923">
        <ele>568</ele>
        <time>2026-09-02T17:36:54.097Z</time>
      </trkpt>
      <trkpt lat="44.66935" lon="5.14922">
        <ele>568</ele>
        <time>2026-09-02T17:36:55.097Z</time>
      </trkpt>
      <trkpt lat="44.66934" lon="5.14922">
        <ele>568</ele>
        <time>2026-09-02T17:36:56.097Z</time>
      </trkpt>
      <trkpt lat="44.66934" lon="5.14921">
        <ele>568</ele>
        <time>2026-09-02T17:36:57.097Z</time>
      </trkpt>
      <trkpt lat="44.66933" lon="5.1492">
        <ele>568</ele>
        <time>2026-09-02T17:36:58.097Z</time>
      </trkpt>
      <trkpt lat="44.66932" lon="5.14919">
        <ele>569</ele>
        <time>2026-09-02T17:36:59.097Z</time>
      </trkpt>
      <trkpt lat="44.66932" lon="5.14919">
        <ele>569</ele>
        <time>2026-09-02T17:37:00.097Z</time>
      </trkpt>
      <trkpt lat="44.66931" lon="5.14918">
        <ele>569</ele>
        <time>2026-09-02T17:37:01.097Z</time>
      </trkpt>
      <trkpt lat="44.6693" lon="5.14917">
        <ele>569</ele>
        <time>2026-09-02T17:37:02.097Z</time>
      </trkpt>
      <trkpt lat="44.66929" lon="5.14916">
        <ele>569</ele>
        <time>2026-09-02T17:37:03.097Z</time>
      </trkpt>
      <trkpt lat="44.66928" lon="5.14916">
        <ele>569</ele>
        <time>2026-09-02T17:37:04.097Z</time>
      </trkpt>
      <trkpt lat="44.66928" lon="5.14915">
        <ele>569</ele>
        <time>2026-09-02T17:37:05.097Z</time>
      </trkpt>
      <trkpt lat="44.66927" lon="5.14915">
        <ele>569</ele>
        <time>2026-09-02T17:37:06.097Z</time>
      </trkpt>
      <trkpt lat="44.66926" lon="5.14914">
        <ele>569</ele>
        <time>2026-09-02T17:37:07.097Z</time>
      </trkpt>
      <trkpt lat="44.66925" lon="5.14914">
        <ele>569</ele>
        <time>2026-09-02T17:37:08.097Z</time>
      </trkpt>
      <trkpt lat="44.66924" lon="5.14914">
        <ele>570</ele>
        <time>2026-09-02T17:37:09.097Z</time>
      </trkpt>
      <trkpt lat="44.66924" lon="5.14913">
        <ele>570</ele>
        <time>2026-09-02T17:37:10.097Z</time>
      </trkpt>
      <trkpt lat="44.66923" lon="5.14913">
        <ele>570</ele>
        <time>2026-09-02T17:37:11.097Z</time>
      </trkpt>
      <trkpt lat="44.66922" lon="5.14912">
        <ele>570</ele>
        <time>2026-09-02T17:37:12.097Z</time>
      </trkpt>
      <trkpt lat="44.66921" lon="5.14912">
        <ele>570</ele>
        <time>2026-09-02T17:37:13.097Z</time>
      </trkpt>
      <trkpt lat="44.6692" lon="5.14912">
        <ele>570</ele>
        <time>2026-09-02T17:37:14.097Z</time>
      </trkpt>
      <trkpt lat="44.66919" lon="5.14911">
        <ele>570</ele>
        <time>2026-09-02T17:37:15.097Z</time>
      </trkpt>
      <trkpt lat="44.66918" lon="5.14911">
        <ele>570</ele>
        <time>2026-09-02T17:37:16.097Z</time>
      </trkpt>
      <trkpt lat="44.66918" lon="5.14911">
        <ele>570</ele>
        <time>2026-09-02T17:37:17.097Z</time>
      </trkpt>
      <trkpt lat="44.66917" lon="5.1491">
        <ele>571</ele>
        <time>2026-09-02T17:37:18.097Z</time>
      </trkpt>
      <trkpt lat="44.66916" lon="5.1491">
        <ele>571</ele>
        <time>2026-09-02T17:37:19.097Z</time>
      </trkpt>
      <trkpt lat="44.66915" lon="5.14909">
        <ele>571</ele>
        <time>2026-09-02T17:37:20.097Z</time>
      </trkpt>
      <trkpt lat="44.66914" lon="5.14909">
        <ele>571</ele>
        <time>2026-09-02T17:37:21.097Z</time>
      </trkpt>
      <trkpt lat="44.66914" lon="5.14909">
        <ele>571</ele>
        <time>2026-09-02T17:37:22.097Z</time>
      </trkpt>
      <trkpt lat="44.66913" lon="5.14909">
        <ele>571</ele>
        <time>2026-09-02T17:37:23.097Z</time>
      </trkpt>
      <trkpt lat="44.66912" lon="5.14909">
        <ele>571</ele>
        <time>2026-09-02T17:37:24.097Z</time>
      </trkpt>
      <trkpt lat="44.66911" lon="5.14909">
        <ele>571</ele>
        <time>2026-09-02T17:37:25.097Z</time>
      </trkpt>
      <trkpt lat="44.6691" lon="5.14909">
        <ele>571</ele>
        <time>2026-09-02T17:37:26.097Z</time>
      </trkpt>
      <trkpt lat="44.66909" lon="5.14909">
        <ele>571</ele>
        <time>2026-09-02T17:37:27.097Z</time>
      </trkpt>
      <trkpt lat="44.66909" lon="5.14909">
        <ele>571</ele>
        <time>2026-09-02T17:37:28.097Z</time>
      </trkpt>
      <trkpt lat="44.66908" lon="5.1491">
        <ele>571</ele>
        <time>2026-09-02T17:37:29.097Z</time>
      </trkpt>
      <trkpt lat="44.66907" lon="5.1491">
        <ele>571</ele>
        <time>2026-09-02T17:37:30.097Z</time>
      </trkpt>
      <trkpt lat="44.66906" lon="5.1491">
        <ele>571</ele>
        <time>2026-09-02T17:37:31.097Z</time>
      </trkpt>
      <trkpt lat="44.66905" lon="5.14911">
        <ele>571</ele>
        <time>2026-09-02T17:37:32.097Z</time>
      </trkpt>
      <trkpt lat="44.66904" lon="5.14911">
        <ele>571</ele>
        <time>2026-09-02T17:37:33.097Z</time>
      </trkpt>
      <trkpt lat="44.66903" lon="5.14911">
        <ele>571</ele>
        <time>2026-09-02T17:37:34.097Z</time>
      </trkpt>
      <trkpt lat="44.66903" lon="5.14911">
        <ele>571</ele>
        <time>2026-09-02T17:37:35.097Z</time>
      </trkpt>
      <trkpt lat="44.66902" lon="5.14912">
        <ele>571</ele>
        <time>2026-09-02T17:37:36.097Z</time>
      </trkpt>
      <trkpt lat="44.66901" lon="5.14912">
        <ele>571</ele>
        <time>2026-09-02T17:37:37.097Z</time>
      </trkpt>
      <trkpt lat="44.669" lon="5.14913">
        <ele>571</ele>
        <time>2026-09-02T17:37:38.097Z</time>
      </trkpt>
      <trkpt lat="44.669" lon="5.14913">
        <ele>571</ele>
        <time>2026-09-02T17:37:39.097Z</time>
      </trkpt>
      <trkpt lat="44.66899" lon="5.14914">
        <ele>571</ele>
        <time>2026-09-02T17:37:40.097Z</time>
      </trkpt>
      <trkpt lat="44.66899" lon="5.14914">
        <ele>571</ele>
        <time>2026-09-02T17:37:41.097Z</time>
      </trkpt>
      <trkpt lat="44.66898" lon="5.14914">
        <ele>571</ele>
        <time>2026-09-02T17:37:42.097Z</time>
      </trkpt>
      <trkpt lat="44.66897" lon="5.14914">
        <ele>571</ele>
        <time>2026-09-02T17:37:43.097Z</time>
      </trkpt>
      <trkpt lat="44.66897" lon="5.14914">
        <ele>572</ele>
        <time>2026-09-02T17:37:44.097Z</time>
      </trkpt>
      <trkpt lat="44.66896" lon="5.14915">
        <ele>572</ele>
        <time>2026-09-02T17:37:45.097Z</time>
      </trkpt>
      <trkpt lat="44.66896" lon="5.14915">
        <ele>572</ele>
        <time>2026-09-02T17:37:46.097Z</time>
      </trkpt>
      <trkpt lat="44.66895" lon="5.14915">
        <ele>572</ele>
        <time>2026-09-02T17:37:47.097Z</time>
      </trkpt>
      <trkpt lat="44.66894" lon="5.14916">
        <ele>572</ele>
        <time>2026-09-02T17:37:48.097Z</time>
      </trkpt>
      <trkpt lat="44.66893" lon="5.14916">
        <ele>572</ele>
        <time>2026-09-02T17:37:49.097Z</time>
      </trkpt>
      <trkpt lat="44.66893" lon="5.14916">
        <ele>573</ele>
        <time>2026-09-02T17:37:50.097Z</time>
      </trkpt>
      <trkpt lat="44.66892" lon="5.14917">
        <ele>573</ele>
        <time>2026-09-02T17:37:51.097Z</time>
      </trkpt>
      <trkpt lat="44.66892" lon="5.14917">
        <ele>573</ele>
        <time>2026-09-02T17:37:52.097Z</time>
      </trkpt>
      <trkpt lat="44.66892" lon="5.14917">
        <ele>573</ele>
        <time>2026-09-02T17:37:53.097Z</time>
      </trkpt>
      <trkpt lat="44.66892" lon="5.14918">
        <ele>573</ele>
        <time>2026-09-02T17:37:54.097Z</time>
      </trkpt>
      <trkpt lat="44.66891" lon="5.14918">
        <ele>573</ele>
        <time>2026-09-02T17:37:55.097Z</time>
      </trkpt>
      <trkpt lat="44.6689" lon="5.1492">
        <ele>573</ele>
        <time>2026-09-02T17:37:59.109Z</time>
      </trkpt>
      <trkpt lat="44.66889" lon="5.14921">
        <ele>573</ele>
        <time>2026-09-02T17:38:00.109Z</time>
      </trkpt>
      <trkpt lat="44.66889" lon="5.14922">
        <ele>573</ele>
        <time>2026-09-02T17:38:01.109Z</time>
      </trkpt>
      <trkpt lat="44.66888" lon="5.14922">
        <ele>574</ele>
        <time>2026-09-02T17:38:02.109Z</time>
      </trkpt>
      <trkpt lat="44.66887" lon="5.14923">
        <ele>574</ele>
        <time>2026-09-02T17:38:03.109Z</time>
      </trkpt>
      <trkpt lat="44.66887" lon="5.14924">
        <ele>574</ele>
        <time>2026-09-02T17:38:04.109Z</time>
      </trkpt>
      <trkpt lat="44.66886" lon="5.14925">
        <ele>574</ele>
        <time>2026-09-02T17:38:05.109Z</time>
      </trkpt>
      <trkpt lat="44.66885" lon="5.14925">
        <ele>574</ele>
        <time>2026-09-02T17:38:06.109Z</time>
      </trkpt>
      <trkpt lat="44.66884" lon="5.14926">
        <ele>574</ele>
        <time>2026-09-02T17:38:07.109Z</time>
      </trkpt>
      <trkpt lat="44.66883" lon="5.14926">
        <ele>574</ele>
        <time>2026-09-02T17:38:08.109Z</time>
      </trkpt>
      <trkpt lat="44.66882" lon="5.14927">
        <ele>574</ele>
        <time>2026-09-02T17:38:09.109Z</time>
      </trkpt>
      <trkpt lat="44.66881" lon="5.14928">
        <ele>575</ele>
        <time>2026-09-02T17:38:10.109Z</time>
      </trkpt>
      <trkpt lat="44.6688" lon="5.14928">
        <ele>575</ele>
        <time>2026-09-02T17:38:11.109Z</time>
      </trkpt>
      <trkpt lat="44.66879" lon="5.1493">
        <ele>575</ele>
        <time>2026-09-02T17:38:12.109Z</time>
      </trkpt>
      <trkpt lat="44.66879" lon="5.14931">
        <ele>575</ele>
        <time>2026-09-02T17:38:13.109Z</time>
      </trkpt>
      <trkpt lat="44.66878" lon="5.14931">
        <ele>575</ele>
        <time>2026-09-02T17:38:14.109Z</time>
      </trkpt>
      <trkpt lat="44.66878" lon="5.14932">
        <ele>575</ele>
        <time>2026-09-02T17:38:15.109Z</time>
      </trkpt>
      <trkpt lat="44.66877" lon="5.14932">
        <ele>576</ele>
        <time>2026-09-02T17:38:16.109Z</time>
      </trkpt>
      <trkpt lat="44.66877" lon="5.14932">
        <ele>576</ele>
        <time>2026-09-02T17:38:17.109Z</time>
      </trkpt>
      <trkpt lat="44.66877" lon="5.14933">
        <ele>576</ele>
        <time>2026-09-02T17:38:18.109Z</time>
      </trkpt>
      <trkpt lat="44.66875" lon="5.14935">
        <ele>577</ele>
        <time>2026-09-02T17:38:29.122Z</time>
      </trkpt>
      <trkpt lat="44.66875" lon="5.14935">
        <ele>577</ele>
        <time>2026-09-02T17:38:30.122Z</time>
      </trkpt>
      <trkpt lat="44.66874" lon="5.14935">
        <ele>577</ele>
        <time>2026-09-02T17:38:31.122Z</time>
      </trkpt>
      <trkpt lat="44.66873" lon="5.14936">
        <ele>577</ele>
        <time>2026-09-02T17:38:32.122Z</time>
      </trkpt>
      <trkpt lat="44.66872" lon="5.14936">
        <ele>577</ele>
        <time>2026-09-02T17:38:33.122Z</time>
      </trkpt>
      <trkpt lat="44.66871" lon="5.14937">
        <ele>577</ele>
        <time>2026-09-02T17:38:34.122Z</time>
      </trkpt>
      <trkpt lat="44.66871" lon="5.14937">
        <ele>577</ele>
        <time>2026-09-02T17:38:35.122Z</time>
      </trkpt>
      <trkpt lat="44.6687" lon="5.14938">
        <ele>577</ele>
        <time>2026-09-02T17:38:36.122Z</time>
      </trkpt>
      <trkpt lat="44.66869" lon="5.14938">
        <ele>577</ele>
        <time>2026-09-02T17:38:37.122Z</time>
      </trkpt>
      <trkpt lat="44.66868" lon="5.14939">
        <ele>577</ele>
        <time>2026-09-02T17:38:38.122Z</time>
      </trkpt>
      <trkpt lat="44.66867" lon="5.14939">
        <ele>577</ele>
        <time>2026-09-02T17:38:39.122Z</time>
      </trkpt>
      <trkpt lat="44.66866" lon="5.1494">
        <ele>577</ele>
        <time>2026-09-02T17:38:40.122Z</time>
      </trkpt>
      <trkpt lat="44.66865" lon="5.14941">
        <ele>577</ele>
        <time>2026-09-02T17:38:41.122Z</time>
      </trkpt>
      <trkpt lat="44.66864" lon="5.14941">
        <ele>577</ele>
        <time>2026-09-02T17:38:42.122Z</time>
      </trkpt>
      <trkpt lat="44.66863" lon="5.14941">
        <ele>578</ele>
        <time>2026-09-02T17:38:43.122Z</time>
      </trkpt>
      <trkpt lat="44.66862" lon="5.14941">
        <ele>578</ele>
        <time>2026-09-02T17:38:44.122Z</time>
      </trkpt>
      <trkpt lat="44.66861" lon="5.14942">
        <ele>578</ele>
        <time>2026-09-02T17:38:45.122Z</time>
      </trkpt>
      <trkpt lat="44.6686" lon="5.14942">
        <ele>578</ele>
        <time>2026-09-02T17:38:46.122Z</time>
      </trkpt>
      <trkpt lat="44.66859" lon="5.14943">
        <ele>578</ele>
        <time>2026-09-02T17:38:47.122Z</time>
      </trkpt>
      <trkpt lat="44.66859" lon="5.14943">
        <ele>578</ele>
        <time>2026-09-02T17:38:48.122Z</time>
      </trkpt>
      <trkpt lat="44.66858" lon="5.14943">
        <ele>578</ele>
        <time>2026-09-02T17:38:49.122Z</time>
      </trkpt>
      <trkpt lat="44.66857" lon="5.14943">
        <ele>578</ele>
        <time>2026-09-02T17:38:50.122Z</time>
      </trkpt>
      <trkpt lat="44.66856" lon="5.14943">
        <ele>578</ele>
        <time>2026-09-02T17:38:51.122Z</time>
      </trkpt>
      <trkpt lat="44.66855" lon="5.14943">
        <ele>578</ele>
        <time>2026-09-02T17:38:52.122Z</time>
      </trkpt>
      <trkpt lat="44.66854" lon="5.14942">
        <ele>578</ele>
        <time>2026-09-02T17:38:53.122Z</time>
      </trkpt>
      <trkpt lat="44.66853" lon="5.14942">
        <ele>578</ele>
        <time>2026-09-02T17:38:54.122Z</time>
      </trkpt>
      <trkpt lat="44.66852" lon="5.14942">
        <ele>578</ele>
        <time>2026-09-02T17:38:55.122Z</time>
      </trkpt>
      <trkpt lat="44.66851" lon="5.14942">
        <ele>578</ele>
        <time>2026-09-02T17:38:56.122Z</time>
      </trkpt>
      <trkpt lat="44.6685" lon="5.14941">
        <ele>578</ele>
        <time>2026-09-02T17:38:57.122Z</time>
      </trkpt>
      <trkpt lat="44.66849" lon="5.14941">
        <ele>578</ele>
        <time>2026-09-02T17:38:58.122Z</time>
      </trkpt>
      <trkpt lat="44.66848" lon="5.14941">
        <ele>578</ele>
        <time>2026-09-02T17:38:59.122Z</time>
      </trkpt>
      <trkpt lat="44.66847" lon="5.14941">
        <ele>578</ele>
        <time>2026-09-02T17:39:00.122Z</time>
      </trkpt>
      <trkpt lat="44.66846" lon="5.14941">
        <ele>578</ele>
        <time>2026-09-02T17:39:01.122Z</time>
      </trkpt>
      <trkpt lat="44.66845" lon="5.14941">
        <ele>578</ele>
        <time>2026-09-02T17:39:02.122Z</time>
      </trkpt>
      <trkpt lat="44.66844" lon="5.14941">
        <ele>578</ele>
        <time>2026-09-02T17:39:03.122Z</time>
      </trkpt>
      <trkpt lat="44.66843" lon="5.14941">
        <ele>578</ele>
        <time>2026-09-02T17:39:04.122Z</time>
      </trkpt>
      <trkpt lat="44.66842" lon="5.14941">
        <ele>578</ele>
        <time>2026-09-02T17:39:05.122Z</time>
      </trkpt>
      <trkpt lat="44.66841" lon="5.1494">
        <ele>578</ele>
        <time>2026-09-02T17:39:06.122Z</time>
      </trkpt>
      <trkpt lat="44.6684" lon="5.1494">
        <ele>579</ele>
        <time>2026-09-02T17:39:07.122Z</time>
      </trkpt>
      <trkpt lat="44.66839" lon="5.1494">
        <ele>579</ele>
        <time>2026-09-02T17:39:08.122Z</time>
      </trkpt>
      <trkpt lat="44.66838" lon="5.14939">
        <ele>579</ele>
        <time>2026-09-02T17:39:09.122Z</time>
      </trkpt>
      <trkpt lat="44.66838" lon="5.14939">
        <ele>579</ele>
        <time>2026-09-02T17:39:10.122Z</time>
      </trkpt>
      <trkpt lat="44.66837" lon="5.14938">
        <ele>579</ele>
        <time>2026-09-02T17:39:11.122Z</time>
      </trkpt>
      <trkpt lat="44.66836" lon="5.14938">
        <ele>579</ele>
        <time>2026-09-02T17:39:12.122Z</time>
      </trkpt>
      <trkpt lat="44.66835" lon="5.14938">
        <ele>579</ele>
        <time>2026-09-02T17:39:13.122Z</time>
      </trkpt>
      <trkpt lat="44.66834" lon="5.14938">
        <ele>579</ele>
        <time>2026-09-02T17:39:14.122Z</time>
      </trkpt>
      <trkpt lat="44.66833" lon="5.14937">
        <ele>579</ele>
        <time>2026-09-02T17:39:15.122Z</time>
      </trkpt>
      <trkpt lat="44.66832" lon="5.14937">
        <ele>580</ele>
        <time>2026-09-02T17:39:16.122Z</time>
      </trkpt>
      <trkpt lat="44.66831" lon="5.14936">
        <ele>580</ele>
        <time>2026-09-02T17:39:17.122Z</time>
      </trkpt>
      <trkpt lat="44.6683" lon="5.14936">
        <ele>580</ele>
        <time>2026-09-02T17:39:18.122Z</time>
      </trkpt>
      <trkpt lat="44.66829" lon="5.14936">
        <ele>580</ele>
        <time>2026-09-02T17:39:19.122Z</time>
      </trkpt>
      <trkpt lat="44.66828" lon="5.14935">
        <ele>580</ele>
        <time>2026-09-02T17:39:20.122Z</time>
      </trkpt>
      <trkpt lat="44.66828" lon="5.14935">
        <ele>580</ele>
        <time>2026-09-02T17:39:21.122Z</time>
      </trkpt>
      <trkpt lat="44.66827" lon="5.14935">
        <ele>580</ele>
        <time>2026-09-02T17:39:22.122Z</time>
      </trkpt>
      <trkpt lat="44.66826" lon="5.14934">
        <ele>580</ele>
        <time>2026-09-02T17:39:23.122Z</time>
      </trkpt>
      <trkpt lat="44.66825" lon="5.14934">
        <ele>580</ele>
        <time>2026-09-02T17:39:24.122Z</time>
      </trkpt>
      <trkpt lat="44.66824" lon="5.14933">
        <ele>580</ele>
        <time>2026-09-02T17:39:25.122Z</time>
      </trkpt>
      <trkpt lat="44.66824" lon="5.14932">
        <ele>581</ele>
        <time>2026-09-02T17:39:26.122Z</time>
      </trkpt>
      <trkpt lat="44.66823" lon="5.14932">
        <ele>581</ele>
        <time>2026-09-02T17:39:27.122Z</time>
      </trkpt>
      <trkpt lat="44.66822" lon="5.14931">
        <ele>581</ele>
        <time>2026-09-02T17:39:28.122Z</time>
      </trkpt>
      <trkpt lat="44.66821" lon="5.14931">
        <ele>581</ele>
        <time>2026-09-02T17:39:29.122Z</time>
      </trkpt>
      <trkpt lat="44.6682" lon="5.1493">
        <ele>581</ele>
        <time>2026-09-02T17:39:30.122Z</time>
      </trkpt>
      <trkpt lat="44.6682" lon="5.14929">
        <ele>581</ele>
        <time>2026-09-02T17:39:31.122Z</time>
      </trkpt>
      <trkpt lat="44.66819" lon="5.14929">
        <ele>581</ele>
        <time>2026-09-02T17:39:32.122Z</time>
      </trkpt>
      <trkpt lat="44.66818" lon="5.14929">
        <ele>581</ele>
        <time>2026-09-02T17:39:33.122Z</time>
      </trkpt>
      <trkpt lat="44.66817" lon="5.14928">
        <ele>581</ele>
        <time>2026-09-02T17:39:34.122Z</time>
      </trkpt>
      <trkpt lat="44.66816" lon="5.14928">
        <ele>581</ele>
        <time>2026-09-02T17:39:35.122Z</time>
      </trkpt>
      <trkpt lat="44.66816" lon="5.14928">
        <ele>581</ele>
        <time>2026-09-02T17:39:36.122Z</time>
      </trkpt>
      <trkpt lat="44.66815" lon="5.14927">
        <ele>581</ele>
        <time>2026-09-02T17:39:37.122Z</time>
      </trkpt>
      <trkpt lat="44.66814" lon="5.14927">
        <ele>581</ele>
        <time>2026-09-02T17:39:38.122Z</time>
      </trkpt>
      <trkpt lat="44.66814" lon="5.14926">
        <ele>581</ele>
        <time>2026-09-02T17:39:39.122Z</time>
      </trkpt>
      <trkpt lat="44.66813" lon="5.14925">
        <ele>582</ele>
        <time>2026-09-02T17:39:40.122Z</time>
      </trkpt>
      <trkpt lat="44.66812" lon="5.14925">
        <ele>582</ele>
        <time>2026-09-02T17:39:41.122Z</time>
      </trkpt>
      <trkpt lat="44.66812" lon="5.14924">
        <ele>582</ele>
        <time>2026-09-02T17:39:42.122Z</time>
      </trkpt>
      <trkpt lat="44.66811" lon="5.14923">
        <ele>582</ele>
        <time>2026-09-02T17:39:43.122Z</time>
      </trkpt>
      <trkpt lat="44.66811" lon="5.14923">
        <ele>582</ele>
        <time>2026-09-02T17:39:44.122Z</time>
      </trkpt>
      <trkpt lat="44.6681" lon="5.14922">
        <ele>582</ele>
        <time>2026-09-02T17:39:45.122Z</time>
      </trkpt>
      <trkpt lat="44.66809" lon="5.14921">
        <ele>582</ele>
        <time>2026-09-02T17:39:46.122Z</time>
      </trkpt>
      <trkpt lat="44.66809" lon="5.14921">
        <ele>582</ele>
        <time>2026-09-02T17:39:47.122Z</time>
      </trkpt>
      <trkpt lat="44.66808" lon="5.14921">
        <ele>582</ele>
        <time>2026-09-02T17:39:48.122Z</time>
      </trkpt>
      <trkpt lat="44.66808" lon="5.1492">
        <ele>582</ele>
        <time>2026-09-02T17:39:49.122Z</time>
      </trkpt>
      <trkpt lat="44.66807" lon="5.1492">
        <ele>582</ele>
        <time>2026-09-02T17:39:50.122Z</time>
      </trkpt>
      <trkpt lat="44.66807" lon="5.14919">
        <ele>582</ele>
        <time>2026-09-02T17:39:51.122Z</time>
      </trkpt>
      <trkpt lat="44.66807" lon="5.14918">
        <ele>582</ele>
        <time>2026-09-02T17:39:52.122Z</time>
      </trkpt>
      <trkpt lat="44.66806" lon="5.14917">
        <ele>582</ele>
        <time>2026-09-02T17:39:53.122Z</time>
      </trkpt>
      <trkpt lat="44.66806" lon="5.14916">
        <ele>582</ele>
        <time>2026-09-02T17:39:54.122Z</time>
      </trkpt>
      <trkpt lat="44.66806" lon="5.14915">
        <ele>581</ele>
        <time>2026-09-02T17:39:55.122Z</time>
      </trkpt>
      <trkpt lat="44.66805" lon="5.14914">
        <ele>581</ele>
        <time>2026-09-02T17:39:56.122Z</time>
      </trkpt>
      <trkpt lat="44.66805" lon="5.14913">
        <ele>581</ele>
        <time>2026-09-02T17:39:57.122Z</time>
      </trkpt>
      <trkpt lat="44.66805" lon="5.14911">
        <ele>581</ele>
        <time>2026-09-02T17:39:58.122Z</time>
      </trkpt>
      <trkpt lat="44.66804" lon="5.14909">
        <ele>581</ele>
        <time>2026-09-02T17:39:59.122Z</time>
      </trkpt>
      <trkpt lat="44.66804" lon="5.14908">
        <ele>580</ele>
        <time>2026-09-02T17:40:00.122Z</time>
      </trkpt>
      <trkpt lat="44.66804" lon="5.14906">
        <ele>580</ele>
        <time>2026-09-02T17:40:01.122Z</time>
      </trkpt>
      <trkpt lat="44.66804" lon="5.14904">
        <ele>580</ele>
        <time>2026-09-02T17:40:02.122Z</time>
      </trkpt>
      <trkpt lat="44.66804" lon="5.14903">
        <ele>580</ele>
        <time>2026-09-02T17:40:03.122Z</time>
      </trkpt>
      <trkpt lat="44.66804" lon="5.14901">
        <ele>580</ele>
        <time>2026-09-02T17:40:04.122Z</time>
      </trkpt>
      <trkpt lat="44.66803" lon="5.149">
        <ele>580</ele>
        <time>2026-09-02T17:40:05.122Z</time>
      </trkpt>
      <trkpt lat="44.66803" lon="5.14898">
        <ele>580</ele>
        <time>2026-09-02T17:40:06.122Z</time>
      </trkpt>
      <trkpt lat="44.66803" lon="5.14897">
        <ele>580</ele>
        <time>2026-09-02T17:40:07.122Z</time>
      </trkpt>
      <trkpt lat="44.66803" lon="5.14895">
        <ele>579</ele>
        <time>2026-09-02T17:40:08.122Z</time>
      </trkpt>
      <trkpt lat="44.66803" lon="5.14893">
        <ele>579</ele>
        <time>2026-09-02T17:40:09.122Z</time>
      </trkpt>
      <trkpt lat="44.66803" lon="5.14892">
        <ele>579</ele>
        <time>2026-09-02T17:40:10.122Z</time>
      </trkpt>
      <trkpt lat="44.66803" lon="5.14891">
        <ele>579</ele>
        <time>2026-09-02T17:40:11.122Z</time>
      </trkpt>
      <trkpt lat="44.66802" lon="5.14889">
        <ele>579</ele>
        <time>2026-09-02T17:40:12.122Z</time>
      </trkpt>
      <trkpt lat="44.66802" lon="5.14888">
        <ele>579</ele>
        <time>2026-09-02T17:40:13.122Z</time>
      </trkpt>
      <trkpt lat="44.66802" lon="5.14887">
        <ele>579</ele>
        <time>2026-09-02T17:40:14.122Z</time>
      </trkpt>
      <trkpt lat="44.66802" lon="5.14885">
        <ele>579</ele>
        <time>2026-09-02T17:40:15.122Z</time>
      </trkpt>
      <trkpt lat="44.66802" lon="5.14884">
        <ele>579</ele>
        <time>2026-09-02T17:40:16.122Z</time>
      </trkpt>
      <trkpt lat="44.66802" lon="5.14882">
        <ele>579</ele>
        <time>2026-09-02T17:40:17.122Z</time>
      </trkpt>
      <trkpt lat="44.66802" lon="5.14881">
        <ele>579</ele>
        <time>2026-09-02T17:40:18.122Z</time>
      </trkpt>
      <trkpt lat="44.66802" lon="5.1488">
        <ele>579</ele>
        <time>2026-09-02T17:40:19.122Z</time>
      </trkpt>
      <trkpt lat="44.66802" lon="5.14878">
        <ele>579</ele>
        <time>2026-09-02T17:40:20.122Z</time>
      </trkpt>
      <trkpt lat="44.66802" lon="5.14877">
        <ele>579</ele>
        <time>2026-09-02T17:40:21.122Z</time>
      </trkpt>
      <trkpt lat="44.66802" lon="5.14876">
        <ele>579</ele>
        <time>2026-09-02T17:40:22.122Z</time>
      </trkpt>
      <trkpt lat="44.66801" lon="5.14874">
        <ele>579</ele>
        <time>2026-09-02T17:40:23.122Z</time>
      </trkpt>
      <trkpt lat="44.66801" lon="5.14873">
        <ele>579</ele>
        <time>2026-09-02T17:40:24.122Z</time>
      </trkpt>
      <trkpt lat="44.66801" lon="5.14872">
        <ele>579</ele>
        <time>2026-09-02T17:40:25.122Z</time>
      </trkpt>
      <trkpt lat="44.66801" lon="5.14871">
        <ele>579</ele>
        <time>2026-09-02T17:40:26.122Z</time>
      </trkpt>
      <trkpt lat="44.66801" lon="5.1487">
        <ele>579</ele>
        <time>2026-09-02T17:40:27.122Z</time>
      </trkpt>
      <trkpt lat="44.66801" lon="5.1487">
        <ele>579</ele>
        <time>2026-09-02T17:40:28.122Z</time>
      </trkpt>
      <trkpt lat="44.66801" lon="5.14869">
        <ele>579</ele>
        <time>2026-09-02T17:40:29.122Z</time>
      </trkpt>
      <trkpt lat="44.668" lon="5.14868">
        <ele>579</ele>
        <time>2026-09-02T17:40:30.122Z</time>
      </trkpt>
      <trkpt lat="44.668" lon="5.14867">
        <ele>580</ele>
        <time>2026-09-02T17:40:31.122Z</time>
      </trkpt>
      <trkpt lat="44.668" lon="5.14866">
        <ele>580</ele>
        <time>2026-09-02T17:40:32.122Z</time>
      </trkpt>
      <trkpt lat="44.668" lon="5.14864">
        <ele>580</ele>
        <time>2026-09-02T17:40:33.122Z</time>
      </trkpt>
      <trkpt lat="44.668" lon="5.14862">
        <ele>580</ele>
        <time>2026-09-02T17:40:34.122Z</time>
      </trkpt>
      <trkpt lat="44.668" lon="5.1486">
        <ele>580</ele>
        <time>2026-09-02T17:40:35.122Z</time>
      </trkpt>
      <trkpt lat="44.668" lon="5.14859">
        <ele>580</ele>
        <time>2026-09-02T17:40:36.122Z</time>
      </trkpt>
      <trkpt lat="44.668" lon="5.14857">
        <ele>580</ele>
        <time>2026-09-02T17:40:37.122Z</time>
      </trkpt>
      <trkpt lat="44.668" lon="5.14855">
        <ele>580</ele>
        <time>2026-09-02T17:40:38.122Z</time>
      </trkpt>
      <trkpt lat="44.668" lon="5.14853">
        <ele>580</ele>
        <time>2026-09-02T17:40:39.122Z</time>
      </trkpt>
      <trkpt lat="44.668" lon="5.14851">
        <ele>580</ele>
        <time>2026-09-02T17:40:40.122Z</time>
      </trkpt>
      <trkpt lat="44.668" lon="5.14849">
        <ele>580</ele>
        <time>2026-09-02T17:40:41.122Z</time>
      </trkpt>
      <trkpt lat="44.668" lon="5.14848">
        <ele>580</ele>
        <time>2026-09-02T17:40:42.122Z</time>
      </trkpt>
      <trkpt lat="44.66801" lon="5.14846">
        <ele>580</ele>
        <time>2026-09-02T17:40:43.122Z</time>
      </trkpt>
      <trkpt lat="44.66801" lon="5.14844">
        <ele>580</ele>
        <time>2026-09-02T17:40:44.122Z</time>
      </trkpt>
      <trkpt lat="44.66801" lon="5.14842">
        <ele>580</ele>
        <time>2026-09-02T17:40:45.122Z</time>
      </trkpt>
      <trkpt lat="44.66801" lon="5.14839">
        <ele>580</ele>
        <time>2026-09-02T17:40:46.122Z</time>
      </trkpt>
      <trkpt lat="44.66801" lon="5.14837">
        <ele>580</ele>
        <time>2026-09-02T17:40:47.122Z</time>
      </trkpt>
      <trkpt lat="44.66801" lon="5.14836">
        <ele>580</ele>
        <time>2026-09-02T17:40:48.122Z</time>
      </trkpt>
      <trkpt lat="44.66801" lon="5.14834">
        <ele>580</ele>
        <time>2026-09-02T17:40:49.122Z</time>
      </trkpt>
      <trkpt lat="44.668" lon="5.14832">
        <ele>580</ele>
        <time>2026-09-02T17:40:50.122Z</time>
      </trkpt>
      <trkpt lat="44.668" lon="5.1483">
        <ele>580</ele>
        <time>2026-09-02T17:40:51.122Z</time>
      </trkpt>
      <trkpt lat="44.66801" lon="5.14829">
        <ele>580</ele>
        <time>2026-09-02T17:40:52.122Z</time>
      </trkpt>
      <trkpt lat="44.66801" lon="5.14827">
        <ele>580</ele>
        <time>2026-09-02T17:40:53.122Z</time>
      </trkpt>
      <trkpt lat="44.66801" lon="5.14825">
        <ele>580</ele>
        <time>2026-09-02T17:40:54.122Z</time>
      </trkpt>
      <trkpt lat="44.66801" lon="5.14823">
        <ele>580</ele>
        <time>2026-09-02T17:40:55.122Z</time>
      </trkpt>
      <trkpt lat="44.66801" lon="5.14822">
        <ele>581</ele>
        <time>2026-09-02T17:40:56.122Z</time>
      </trkpt>
      <trkpt lat="44.66801" lon="5.1482">
        <ele>581</ele>
        <time>2026-09-02T17:40:57.122Z</time>
      </trkpt>
      <trkpt lat="44.66802" lon="5.14819">
        <ele>581</ele>
        <time>2026-09-02T17:40:58.122Z</time>
      </trkpt>
      <trkpt lat="44.66802" lon="5.14817">
        <ele>581</ele>
        <time>2026-09-02T17:40:59.122Z</time>
      </trkpt>
      <trkpt lat="44.66802" lon="5.14816">
        <ele>581</ele>
        <time>2026-09-02T17:41:00.122Z</time>
      </trkpt>
      <trkpt lat="44.66802" lon="5.14814">
        <ele>581</ele>
        <time>2026-09-02T17:41:01.122Z</time>
      </trkpt>
      <trkpt lat="44.66802" lon="5.14812">
        <ele>581</ele>
        <time>2026-09-02T17:41:02.122Z</time>
      </trkpt>
      <trkpt lat="44.66802" lon="5.14811">
        <ele>581</ele>
        <time>2026-09-02T17:41:03.122Z</time>
      </trkpt>
      <trkpt lat="44.66802" lon="5.14809">
        <ele>581</ele>
        <time>2026-09-02T17:41:04.122Z</time>
      </trkpt>
      <trkpt lat="44.66802" lon="5.14808">
        <ele>581</ele>
        <time>2026-09-02T17:41:05.122Z</time>
      </trkpt>
      <trkpt lat="44.66802" lon="5.14808">
        <ele>581</ele>
        <time>2026-09-02T17:41:06.122Z</time>
      </trkpt>
      <trkpt lat="44.66802" lon="5.14807">
        <ele>581</ele>
        <time>2026-09-02T17:41:07.122Z</time>
      </trkpt>
      <trkpt lat="44.66802" lon="5.14805">
        <ele>581</ele>
        <time>2026-09-02T17:41:08.122Z</time>
      </trkpt>
      <trkpt lat="44.66802" lon="5.14804">
        <ele>582</ele>
        <time>2026-09-02T17:41:09.122Z</time>
      </trkpt>
      <trkpt lat="44.66802" lon="5.14803">
        <ele>582</ele>
        <time>2026-09-02T17:41:10.122Z</time>
      </trkpt>
      <trkpt lat="44.66802" lon="5.14801">
        <ele>582</ele>
        <time>2026-09-02T17:41:11.122Z</time>
      </trkpt>
      <trkpt lat="44.66802" lon="5.148">
        <ele>582</ele>
        <time>2026-09-02T17:41:12.122Z</time>
      </trkpt>
      <trkpt lat="44.66802" lon="5.14798">
        <ele>582</ele>
        <time>2026-09-02T17:41:13.122Z</time>
      </trkpt>
      <trkpt lat="44.66803" lon="5.14797">
        <ele>582</ele>
        <time>2026-09-02T17:41:14.122Z</time>
      </trkpt>
      <trkpt lat="44.66803" lon="5.14795">
        <ele>582</ele>
        <time>2026-09-02T17:41:15.122Z</time>
      </trkpt>
      <trkpt lat="44.66803" lon="5.14794">
        <ele>582</ele>
        <time>2026-09-02T17:41:16.122Z</time>
      </trkpt>
      <trkpt lat="44.66803" lon="5.14792">
        <ele>582</ele>
        <time>2026-09-02T17:41:17.122Z</time>
      </trkpt>
      <trkpt lat="44.66803" lon="5.14791">
        <ele>582</ele>
        <time>2026-09-02T17:41:18.122Z</time>
      </trkpt>
      <trkpt lat="44.66803" lon="5.14789">
        <ele>582</ele>
        <time>2026-09-02T17:41:19.122Z</time>
      </trkpt>
      <trkpt lat="44.66803" lon="5.14788">
        <ele>583</ele>
        <time>2026-09-02T17:41:20.122Z</time>
      </trkpt>
      <trkpt lat="44.66804" lon="5.14786">
        <ele>583</ele>
        <time>2026-09-02T17:41:21.122Z</time>
      </trkpt>
      <trkpt lat="44.66804" lon="5.14785">
        <ele>583</ele>
        <time>2026-09-02T17:41:22.122Z</time>
      </trkpt>
      <trkpt lat="44.66804" lon="5.14784">
        <ele>583</ele>
        <time>2026-09-02T17:41:23.122Z</time>
      </trkpt>
      <trkpt lat="44.66805" lon="5.14782">
        <ele>583</ele>
        <time>2026-09-02T17:41:24.122Z</time>
      </trkpt>
      <trkpt lat="44.66805" lon="5.14781">
        <ele>583</ele>
        <time>2026-09-02T17:41:25.122Z</time>
      </trkpt>
      <trkpt lat="44.66806" lon="5.1478">
        <ele>583</ele>
        <time>2026-09-02T17:41:26.122Z</time>
      </trkpt>
      <trkpt lat="44.66806" lon="5.14778">
        <ele>584</ele>
        <time>2026-09-02T17:41:27.122Z</time>
      </trkpt>
      <trkpt lat="44.66806" lon="5.14777">
        <ele>584</ele>
        <time>2026-09-02T17:41:28.122Z</time>
      </trkpt>
      <trkpt lat="44.66807" lon="5.14775">
        <ele>584</ele>
        <time>2026-09-02T17:41:29.122Z</time>
      </trkpt>
      <trkpt lat="44.66807" lon="5.14774">
        <ele>584</ele>
        <time>2026-09-02T17:41:30.122Z</time>
      </trkpt>
      <trkpt lat="44.66808" lon="5.14772">
        <ele>584</ele>
        <time>2026-09-02T17:41:31.122Z</time>
      </trkpt>
      <trkpt lat="44.66808" lon="5.14771">
        <ele>584</ele>
        <time>2026-09-02T17:41:32.122Z</time>
      </trkpt>
      <trkpt lat="44.66809" lon="5.14769">
        <ele>585</ele>
        <time>2026-09-02T17:41:33.122Z</time>
      </trkpt>
      <trkpt lat="44.66809" lon="5.14768">
        <ele>585</ele>
        <time>2026-09-02T17:41:34.122Z</time>
      </trkpt>
      <trkpt lat="44.66809" lon="5.14767">
        <ele>585</ele>
        <time>2026-09-02T17:41:35.122Z</time>
      </trkpt>
      <trkpt lat="44.6681" lon="5.14765">
        <ele>585</ele>
        <time>2026-09-02T17:41:36.122Z</time>
      </trkpt>
      <trkpt lat="44.6681" lon="5.14764">
        <ele>585</ele>
        <time>2026-09-02T17:41:37.122Z</time>
      </trkpt>
      <trkpt lat="44.66811" lon="5.14762">
        <ele>586</ele>
        <time>2026-09-02T17:41:38.122Z</time>
      </trkpt>
      <trkpt lat="44.66811" lon="5.14761">
        <ele>586</ele>
        <time>2026-09-02T17:41:39.122Z</time>
      </trkpt>
      <trkpt lat="44.66812" lon="5.1476">
        <ele>586</ele>
        <time>2026-09-02T17:41:40.122Z</time>
      </trkpt>
      <trkpt lat="44.66812" lon="5.14759">
        <ele>586</ele>
        <time>2026-09-02T17:41:41.122Z</time>
      </trkpt>
      <trkpt lat="44.66813" lon="5.14758">
        <ele>587</ele>
        <time>2026-09-02T17:41:42.122Z</time>
      </trkpt>
      <trkpt lat="44.66813" lon="5.14757">
        <ele>587</ele>
        <time>2026-09-02T17:41:43.122Z</time>
      </trkpt>
      <trkpt lat="44.66814" lon="5.14756">
        <ele>587</ele>
        <time>2026-09-02T17:41:44.122Z</time>
      </trkpt>
      <trkpt lat="44.66814" lon="5.14755">
        <ele>587</ele>
        <time>2026-09-02T17:41:45.122Z</time>
      </trkpt>
      <trkpt lat="44.66815" lon="5.14754">
        <ele>587</ele>
        <time>2026-09-02T17:41:46.122Z</time>
      </trkpt>
      <trkpt lat="44.66816" lon="5.14753">
        <ele>588</ele>
        <time>2026-09-02T17:41:47.122Z</time>
      </trkpt>
      <trkpt lat="44.66816" lon="5.14752">
        <ele>588</ele>
        <time>2026-09-02T17:41:48.122Z</time>
      </trkpt>
      <trkpt lat="44.66817" lon="5.14751">
        <ele>588</ele>
        <time>2026-09-02T17:41:49.122Z</time>
      </trkpt>
      <trkpt lat="44.66817" lon="5.1475">
        <ele>588</ele>
        <time>2026-09-02T17:41:50.122Z</time>
      </trkpt>
      <trkpt lat="44.66817" lon="5.14749">
        <ele>588</ele>
        <time>2026-09-02T17:41:51.122Z</time>
      </trkpt>
      <trkpt lat="44.66817" lon="5.14747">
        <ele>588</ele>
        <time>2026-09-02T17:41:52.122Z</time>
      </trkpt>
      <trkpt lat="44.66818" lon="5.14746">
        <ele>588</ele>
        <time>2026-09-02T17:41:53.122Z</time>
      </trkpt>
      <trkpt lat="44.66818" lon="5.14745">
        <ele>589</ele>
        <time>2026-09-02T17:41:54.122Z</time>
      </trkpt>
      <trkpt lat="44.66818" lon="5.14744">
        <ele>589</ele>
        <time>2026-09-02T17:41:55.122Z</time>
      </trkpt>
      <trkpt lat="44.66819" lon="5.14743">
        <ele>589</ele>
        <time>2026-09-02T17:41:56.122Z</time>
      </trkpt>
      <trkpt lat="44.66819" lon="5.14741">
        <ele>589</ele>
        <time>2026-09-02T17:41:57.122Z</time>
      </trkpt>
      <trkpt lat="44.66819" lon="5.1474">
        <ele>589</ele>
        <time>2026-09-02T17:41:58.122Z</time>
      </trkpt>
      <trkpt lat="44.6682" lon="5.14739">
        <ele>589</ele>
        <time>2026-09-02T17:41:59.122Z</time>
      </trkpt>
      <trkpt lat="44.6682" lon="5.14738">
        <ele>589</ele>
        <time>2026-09-02T17:42:00.122Z</time>
      </trkpt>
      <trkpt lat="44.6682" lon="5.14737">
        <ele>589</ele>
        <time>2026-09-02T17:42:01.122Z</time>
      </trkpt>
      <trkpt lat="44.6682" lon="5.14736">
        <ele>590</ele>
        <time>2026-09-02T17:42:02.122Z</time>
      </trkpt>
      <trkpt lat="44.66821" lon="5.14735">
        <ele>590</ele>
        <time>2026-09-02T17:42:03.122Z</time>
      </trkpt>
      <trkpt lat="44.6682" lon="5.1473">
        <ele>591</ele>
        <time>2026-09-02T17:42:15.122Z</time>
      </trkpt>
      <trkpt lat="44.6682" lon="5.14729">
        <ele>591</ele>
        <time>2026-09-02T17:42:16.122Z</time>
      </trkpt>
      <trkpt lat="44.6682" lon="5.14728">
        <ele>591</ele>
        <time>2026-09-02T17:42:17.122Z</time>
      </trkpt>
      <trkpt lat="44.6682" lon="5.14727">
        <ele>591</ele>
        <time>2026-09-02T17:42:18.122Z</time>
      </trkpt>
      <trkpt lat="44.66819" lon="5.14726">
        <ele>591</ele>
        <time>2026-09-02T17:42:19.122Z</time>
      </trkpt>
      <trkpt lat="44.66819" lon="5.14725">
        <ele>591</ele>
        <time>2026-09-02T17:42:20.122Z</time>
      </trkpt>
      <trkpt lat="44.66819" lon="5.14724">
        <ele>590</ele>
        <time>2026-09-02T17:42:21.122Z</time>
      </trkpt>
      <trkpt lat="44.66819" lon="5.14723">
        <ele>590</ele>
        <time>2026-09-02T17:42:22.122Z</time>
      </trkpt>
      <trkpt lat="44.66819" lon="5.14721">
        <ele>590</ele>
        <time>2026-09-02T17:42:23.122Z</time>
      </trkpt>
      <trkpt lat="44.66819" lon="5.1472">
        <ele>590</ele>
        <time>2026-09-02T17:42:24.122Z</time>
      </trkpt>
      <trkpt lat="44.66819" lon="5.14719">
        <ele>590</ele>
        <time>2026-09-02T17:42:25.122Z</time>
      </trkpt>
      <trkpt lat="44.66819" lon="5.14719">
        <ele>590</ele>
        <time>2026-09-02T17:42:26.122Z</time>
      </trkpt>
      <trkpt lat="44.66819" lon="5.14718">
        <ele>590</ele>
        <time>2026-09-02T17:42:27.122Z</time>
      </trkpt>
      <trkpt lat="44.66819" lon="5.14716">
        <ele>590</ele>
        <time>2026-09-02T17:42:28.122Z</time>
      </trkpt>
      <trkpt lat="44.66819" lon="5.14715">
        <ele>590</ele>
        <time>2026-09-02T17:42:29.122Z</time>
      </trkpt>
      <trkpt lat="44.66819" lon="5.14714">
        <ele>590</ele>
        <time>2026-09-02T17:42:30.122Z</time>
      </trkpt>
      <trkpt lat="44.66819" lon="5.14713">
        <ele>590</ele>
        <time>2026-09-02T17:42:31.122Z</time>
      </trkpt>
      <trkpt lat="44.66819" lon="5.14712">
        <ele>590</ele>
        <time>2026-09-02T17:42:32.122Z</time>
      </trkpt>
      <trkpt lat="44.66819" lon="5.14711">
        <ele>590</ele>
        <time>2026-09-02T17:42:33.122Z</time>
      </trkpt>
      <trkpt lat="44.66819" lon="5.1471">
        <ele>590</ele>
        <time>2026-09-02T17:42:34.122Z</time>
      </trkpt>
      <trkpt lat="44.66819" lon="5.14709">
        <ele>590</ele>
        <time>2026-09-02T17:42:35.122Z</time>
      </trkpt>
      <trkpt lat="44.66818" lon="5.14708">
        <ele>590</ele>
        <time>2026-09-02T17:42:36.122Z</time>
      </trkpt>
      <trkpt lat="44.66818" lon="5.14707">
        <ele>590</ele>
        <time>2026-09-02T17:42:37.122Z</time>
      </trkpt>
      <trkpt lat="44.66817" lon="5.14706">
        <ele>590</ele>
        <time>2026-09-02T17:42:38.122Z</time>
      </trkpt>
      <trkpt lat="44.66817" lon="5.14705">
        <ele>590</ele>
        <time>2026-09-02T17:42:39.122Z</time>
      </trkpt>
      <trkpt lat="44.66817" lon="5.14704">
        <ele>590</ele>
        <time>2026-09-02T17:42:40.122Z</time>
      </trkpt>
      <trkpt lat="44.66816" lon="5.14703">
        <ele>590</ele>
        <time>2026-09-02T17:42:41.122Z</time>
      </trkpt>
      <trkpt lat="44.66816" lon="5.14703">
        <ele>591</ele>
        <time>2026-09-02T17:42:42.122Z</time>
      </trkpt>
      <trkpt lat="44.66816" lon="5.14702">
        <ele>591</ele>
        <time>2026-09-02T17:42:43.122Z</time>
      </trkpt>
      <trkpt lat="44.66816" lon="5.14702">
        <ele>591</ele>
        <time>2026-09-02T17:42:44.122Z</time>
      </trkpt>
      <trkpt lat="44.66814" lon="5.14699">
        <ele>591</ele>
        <time>2026-09-02T17:42:47.422Z</time>
      </trkpt>
      <trkpt lat="44.66814" lon="5.14698">
        <ele>591</ele>
        <time>2026-09-02T17:42:48.422Z</time>
      </trkpt>
      <trkpt lat="44.66814" lon="5.14697">
        <ele>592</ele>
        <time>2026-09-02T17:42:49.422Z</time>
      </trkpt>
      <trkpt lat="44.66813" lon="5.14696">
        <ele>592</ele>
        <time>2026-09-02T17:42:50.422Z</time>
      </trkpt>
      <trkpt lat="44.66813" lon="5.14696">
        <ele>592</ele>
        <time>2026-09-02T17:42:51.422Z</time>
      </trkpt>
      <trkpt lat="44.66813" lon="5.14696">
        <ele>592</ele>
        <time>2026-09-02T17:42:52.422Z</time>
      </trkpt>
      <trkpt lat="44.66812" lon="5.14694">
        <ele>593</ele>
        <time>2026-09-02T17:42:56.422Z</time>
      </trkpt>
      <trkpt lat="44.66811" lon="5.14692">
        <ele>593</ele>
        <time>2026-09-02T17:42:57.422Z</time>
      </trkpt>
      <trkpt lat="44.66811" lon="5.14692">
        <ele>593</ele>
        <time>2026-09-02T17:42:58.422Z</time>
      </trkpt>
      <trkpt lat="44.66811" lon="5.14692">
        <ele>593</ele>
        <time>2026-09-02T17:42:59.422Z</time>
      </trkpt>
      <trkpt lat="44.66811" lon="5.14691">
        <ele>593</ele>
        <time>2026-09-02T17:43:00.422Z</time>
      </trkpt>
      <trkpt lat="44.6681" lon="5.14689">
        <ele>595</ele>
        <time>2026-09-02T17:43:17.442Z</time>
      </trkpt>
      <trkpt lat="44.6681" lon="5.14688">
        <ele>595</ele>
        <time>2026-09-02T17:43:18.442Z</time>
      </trkpt>
      <trkpt lat="44.66809" lon="5.14687">
        <ele>595</ele>
        <time>2026-09-02T17:43:19.442Z</time>
      </trkpt>
      <trkpt lat="44.66808" lon="5.14686">
        <ele>595</ele>
        <time>2026-09-02T17:43:20.442Z</time>
      </trkpt>
      <trkpt lat="44.66808" lon="5.14685">
        <ele>595</ele>
        <time>2026-09-02T17:43:21.442Z</time>
      </trkpt>
      <trkpt lat="44.66807" lon="5.14684">
        <ele>595</ele>
        <time>2026-09-02T17:43:22.442Z</time>
      </trkpt>
      <trkpt lat="44.66806" lon="5.14683">
        <ele>595</ele>
        <time>2026-09-02T17:43:23.442Z</time>
      </trkpt>
      <trkpt lat="44.66806" lon="5.14682">
        <ele>595</ele>
        <time>2026-09-02T17:43:24.442Z</time>
      </trkpt>
      <trkpt lat="44.66805" lon="5.14681">
        <ele>595</ele>
        <time>2026-09-02T17:43:25.442Z</time>
      </trkpt>
      <trkpt lat="44.66805" lon="5.1468">
        <ele>595</ele>
        <time>2026-09-02T17:43:26.442Z</time>
      </trkpt>
      <trkpt lat="44.66804" lon="5.1468">
        <ele>595</ele>
        <time>2026-09-02T17:43:27.442Z</time>
      </trkpt>
      <trkpt lat="44.66804" lon="5.14679">
        <ele>595</ele>
        <time>2026-09-02T17:43:28.442Z</time>
      </trkpt>
      <trkpt lat="44.66803" lon="5.14679">
        <ele>595</ele>
        <time>2026-09-02T17:43:29.442Z</time>
      </trkpt>
      <trkpt lat="44.66803" lon="5.14678">
        <ele>595</ele>
        <time>2026-09-02T17:43:30.442Z</time>
      </trkpt>
      <trkpt lat="44.66803" lon="5.14677">
        <ele>595</ele>
        <time>2026-09-02T17:43:53.448Z</time>
      </trkpt>
      <trkpt lat="44.66803" lon="5.14677">
        <ele>595</ele>
        <time>2026-09-02T17:43:54.448Z</time>
      </trkpt>
      <trkpt lat="44.66802" lon="5.14676">
        <ele>595</ele>
        <time>2026-09-02T17:43:55.448Z</time>
      </trkpt>
      <trkpt lat="44.66801" lon="5.14675">
        <ele>595</ele>
        <time>2026-09-02T17:43:56.448Z</time>
      </trkpt>
      <trkpt lat="44.66801" lon="5.14675">
        <ele>595</ele>
        <time>2026-09-02T17:43:57.448Z</time>
      </trkpt>
      <trkpt lat="44.668" lon="5.14674">
        <ele>595</ele>
        <time>2026-09-02T17:43:58.448Z</time>
      </trkpt>
      <trkpt lat="44.668" lon="5.14673">
        <ele>596</ele>
        <time>2026-09-02T17:43:59.448Z</time>
      </trkpt>
      <trkpt lat="44.66799" lon="5.14673">
        <ele>596</ele>
        <time>2026-09-02T17:44:00.448Z</time>
      </trkpt>
      <trkpt lat="44.66798" lon="5.14672">
        <ele>596</ele>
        <time>2026-09-02T17:44:01.448Z</time>
      </trkpt>
      <trkpt lat="44.66798" lon="5.14672">
        <ele>596</ele>
        <time>2026-09-02T17:44:02.448Z</time>
      </trkpt>
      <trkpt lat="44.66797" lon="5.14671">
        <ele>596</ele>
        <time>2026-09-02T17:44:03.448Z</time>
      </trkpt>
      <trkpt lat="44.66796" lon="5.1467">
        <ele>596</ele>
        <time>2026-09-02T17:44:04.448Z</time>
      </trkpt>
      <trkpt lat="44.66796" lon="5.1467">
        <ele>596</ele>
        <time>2026-09-02T17:44:05.448Z</time>
      </trkpt>
      <trkpt lat="44.66795" lon="5.14669">
        <ele>596</ele>
        <time>2026-09-02T17:44:06.448Z</time>
      </trkpt>
      <trkpt lat="44.66795" lon="5.14669">
        <ele>596</ele>
        <time>2026-09-02T17:44:07.448Z</time>
      </trkpt>
      <trkpt lat="44.66794" lon="5.14668">
        <ele>596</ele>
        <time>2026-09-02T17:44:08.448Z</time>
      </trkpt>
      <trkpt lat="44.66794" lon="5.14668">
        <ele>596</ele>
        <time>2026-09-02T17:44:09.448Z</time>
      </trkpt>
      <trkpt lat="44.66793" lon="5.14667">
        <ele>596</ele>
        <time>2026-09-02T17:44:10.448Z</time>
      </trkpt>
      <trkpt lat="44.66793" lon="5.14667">
        <ele>596</ele>
        <time>2026-09-02T17:44:11.448Z</time>
      </trkpt>
      <trkpt lat="44.66792" lon="5.14666">
        <ele>596</ele>
        <time>2026-09-02T17:44:12.448Z</time>
      </trkpt>
      <trkpt lat="44.66792" lon="5.14666">
        <ele>596</ele>
        <time>2026-09-02T17:44:13.448Z</time>
      </trkpt>
      <trkpt lat="44.66792" lon="5.14666">
        <ele>596</ele>
        <time>2026-09-02T17:44:14.448Z</time>
      </trkpt>
      <trkpt lat="44.66791" lon="5.14664">
        <ele>596</ele>
        <time>2026-09-02T17:44:37.447Z</time>
      </trkpt>
      <trkpt lat="44.66791" lon="5.14664">
        <ele>596</ele>
        <time>2026-09-02T17:44:38.447Z</time>
      </trkpt>
      <trkpt lat="44.6679" lon="5.14663">
        <ele>596</ele>
        <time>2026-09-02T17:44:39.447Z</time>
      </trkpt>
      <trkpt lat="44.66789" lon="5.14663">
        <ele>596</ele>
        <time>2026-09-02T17:44:40.447Z</time>
      </trkpt>
      <trkpt lat="44.66788" lon="5.14663">
        <ele>596</ele>
        <time>2026-09-02T17:44:41.447Z</time>
      </trkpt>
      <trkpt lat="44.66788" lon="5.14663">
        <ele>596</ele>
        <time>2026-09-02T17:44:42.447Z</time>
      </trkpt>
      <trkpt lat="44.66787" lon="5.14663">
        <ele>596</ele>
        <time>2026-09-02T17:44:43.447Z</time>
      </trkpt>
      <trkpt lat="44.66787" lon="5.14663">
        <ele>596</ele>
        <time>2026-09-02T17:44:44.447Z</time>
      </trkpt>
      <trkpt lat="44.66787" lon="5.14663">
        <ele>596</ele>
        <time>2026-09-02T17:44:45.447Z</time>
      </trkpt>
      <trkpt lat="44.66787" lon="5.14664">
        <ele>596</ele>
        <time>2026-09-02T17:45:35.448Z</time>
      </trkpt>
      <trkpt lat="44.66787" lon="5.14664">
        <ele>596</ele>
        <time>2026-09-02T17:45:36.448Z</time>
      </trkpt>
      <trkpt lat="44.66788" lon="5.14665">
        <ele>596</ele>
        <time>2026-09-02T17:45:37.448Z</time>
      </trkpt>
      <trkpt lat="44.66789" lon="5.14665">
        <ele>596</ele>
        <time>2026-09-02T17:45:38.448Z</time>
      </trkpt>
      <trkpt lat="44.66789" lon="5.14665">
        <ele>596</ele>
        <time>2026-09-02T17:45:39.448Z</time>
      </trkpt>
      <trkpt lat="44.66789" lon="5.14666">
        <ele>596</ele>
        <time>2026-09-02T17:45:40.448Z</time>
      </trkpt>
      <trkpt lat="44.66789" lon="5.14666">
        <ele>596</ele>
        <time>2026-09-02T17:45:41.448Z</time>
      </trkpt>
      <trkpt lat="44.66789" lon="5.14666">
        <ele>596</ele>
        <time>2026-09-02T17:45:42.448Z</time>
      </trkpt>
      <trkpt lat="44.66792" lon="5.14667">
        <ele>596</ele>
        <time>2026-09-02T17:46:57.447Z</time>
      </trkpt>
      <trkpt lat="44.66792" lon="5.14668">
        <ele>596</ele>
        <time>2026-09-02T17:46:58.447Z</time>
      </trkpt>
      <trkpt lat="44.66793" lon="5.14668">
        <ele>596</ele>
        <time>2026-09-02T17:46:59.447Z</time>
      </trkpt>
      <trkpt lat="44.66794" lon="5.14669">
        <ele>596</ele>
        <time>2026-09-02T17:47:00.447Z</time>
      </trkpt>
      <trkpt lat="44.66794" lon="5.14669">
        <ele>596</ele>
        <time>2026-09-02T17:47:01.447Z</time>
      </trkpt>
      <trkpt lat="44.66795" lon="5.1467">
        <ele>596</ele>
        <time>2026-09-02T17:47:02.447Z</time>
      </trkpt>
      <trkpt lat="44.66796" lon="5.1467">
        <ele>596</ele>
        <time>2026-09-02T17:47:03.447Z</time>
      </trkpt>
      <trkpt lat="44.66796" lon="5.14671">
        <ele>596</ele>
        <time>2026-09-02T17:47:04.447Z</time>
      </trkpt>
      <trkpt lat="44.66797" lon="5.14672">
        <ele>596</ele>
        <time>2026-09-02T17:47:05.447Z</time>
      </trkpt>
      <trkpt lat="44.66798" lon="5.14672">
        <ele>596</ele>
        <time>2026-09-02T17:47:06.447Z</time>
      </trkpt>
      <trkpt lat="44.66798" lon="5.14673">
        <ele>596</ele>
        <time>2026-09-02T17:47:07.447Z</time>
      </trkpt>
      <trkpt lat="44.66798" lon="5.14673">
        <ele>596</ele>
        <time>2026-09-02T17:47:08.447Z</time>
      </trkpt>
      <trkpt lat="44.66799" lon="5.14673">
        <ele>596</ele>
        <time>2026-09-02T17:47:09.447Z</time>
      </trkpt>
      <trkpt lat="44.66799" lon="5.14673">
        <ele>596</ele>
        <time>2026-09-02T17:47:10.447Z</time>
      </trkpt>
      <trkpt lat="44.66799" lon="5.14673">
        <ele>596</ele>
        <time>2026-09-02T17:47:11.447Z</time>
      </trkpt>
      <trkpt lat="44.66801" lon="5.14673">
        <ele>596</ele>
        <time>2026-09-02T17:47:39.450Z</time>
      </trkpt>
      <trkpt lat="44.66801" lon="5.14673">
        <ele>596</ele>
        <time>2026-09-02T17:47:40.450Z</time>
      </trkpt>
      <trkpt lat="44.66802" lon="5.14674">
        <ele>596</ele>
        <time>2026-09-02T17:47:41.450Z</time>
      </trkpt>
      <trkpt lat="44.66803" lon="5.14674">
        <ele>596</ele>
        <time>2026-09-02T17:47:42.450Z</time>
      </trkpt>
      <trkpt lat="44.66803" lon="5.14675">
        <ele>596</ele>
        <time>2026-09-02T17:47:43.450Z</time>
      </trkpt>
      <trkpt lat="44.66804" lon="5.14676">
        <ele>596</ele>
        <time>2026-09-02T17:47:44.450Z</time>
      </trkpt>
      <trkpt lat="44.66805" lon="5.14677">
        <ele>596</ele>
        <time>2026-09-02T17:47:45.450Z</time>
      </trkpt>
      <trkpt lat="44.66806" lon="5.14678">
        <ele>596</ele>
        <time>2026-09-02T17:47:46.450Z</time>
      </trkpt>
      <trkpt lat="44.66807" lon="5.14679">
        <ele>596</ele>
        <time>2026-09-02T17:47:47.450Z</time>
      </trkpt>
      <trkpt lat="44.66808" lon="5.1468">
        <ele>596</ele>
        <time>2026-09-02T17:47:48.450Z</time>
      </trkpt>
      <trkpt lat="44.66808" lon="5.1468">
        <ele>596</ele>
        <time>2026-09-02T17:47:49.450Z</time>
      </trkpt>
      <trkpt lat="44.66809" lon="5.14681">
        <ele>595</ele>
        <time>2026-09-02T17:47:50.450Z</time>
      </trkpt>
      <trkpt lat="44.6681" lon="5.14683">
        <ele>595</ele>
        <time>2026-09-02T17:47:51.450Z</time>
      </trkpt>
      <trkpt lat="44.66811" lon="5.14684">
        <ele>595</ele>
        <time>2026-09-02T17:47:52.450Z</time>
      </trkpt>
      <trkpt lat="44.66811" lon="5.14685">
        <ele>595</ele>
        <time>2026-09-02T17:47:53.450Z</time>
      </trkpt>
      <trkpt lat="44.66812" lon="5.14686">
        <ele>595</ele>
        <time>2026-09-02T17:47:54.450Z</time>
      </trkpt>
      <trkpt lat="44.66812" lon="5.14687">
        <ele>595</ele>
        <time>2026-09-02T17:47:55.450Z</time>
      </trkpt>
      <trkpt lat="44.66813" lon="5.14688">
        <ele>595</ele>
        <time>2026-09-02T17:47:56.450Z</time>
      </trkpt>
      <trkpt lat="44.66814" lon="5.14689">
        <ele>595</ele>
        <time>2026-09-02T17:47:57.450Z</time>
      </trkpt>
      <trkpt lat="44.66814" lon="5.1469">
        <ele>595</ele>
        <time>2026-09-02T17:47:58.450Z</time>
      </trkpt>
      <trkpt lat="44.66815" lon="5.14691">
        <ele>595</ele>
        <time>2026-09-02T17:47:59.450Z</time>
      </trkpt>
      <trkpt lat="44.66815" lon="5.14692">
        <ele>594</ele>
        <time>2026-09-02T17:48:00.450Z</time>
      </trkpt>
      <trkpt lat="44.66815" lon="5.14694">
        <ele>594</ele>
        <time>2026-09-02T17:48:01.450Z</time>
      </trkpt>
      <trkpt lat="44.66815" lon="5.14695">
        <ele>594</ele>
        <time>2026-09-02T17:48:02.450Z</time>
      </trkpt>
      <trkpt lat="44.66816" lon="5.14696">
        <ele>594</ele>
        <time>2026-09-02T17:48:03.450Z</time>
      </trkpt>
      <trkpt lat="44.66816" lon="5.14698">
        <ele>594</ele>
        <time>2026-09-02T17:48:04.450Z</time>
      </trkpt>
      <trkpt lat="44.66817" lon="5.14699">
        <ele>594</ele>
        <time>2026-09-02T17:48:05.450Z</time>
      </trkpt>
      <trkpt lat="44.66817" lon="5.147">
        <ele>593</ele>
        <time>2026-09-02T17:48:06.450Z</time>
      </trkpt>
      <trkpt lat="44.66817" lon="5.14701">
        <ele>593</ele>
        <time>2026-09-02T17:48:07.450Z</time>
      </trkpt>
      <trkpt lat="44.66817" lon="5.14702">
        <ele>593</ele>
        <time>2026-09-02T17:48:08.450Z</time>
      </trkpt>
      <trkpt lat="44.66817" lon="5.14703">
        <ele>593</ele>
        <time>2026-09-02T17:48:09.450Z</time>
      </trkpt>
      <trkpt lat="44.66818" lon="5.14704">
        <ele>593</ele>
        <time>2026-09-02T17:48:10.450Z</time>
      </trkpt>
      <trkpt lat="44.66818" lon="5.14706">
        <ele>593</ele>
        <time>2026-09-02T17:48:11.450Z</time>
      </trkpt>
      <trkpt lat="44.66818" lon="5.14707">
        <ele>593</ele>
        <time>2026-09-02T17:48:12.450Z</time>
      </trkpt>
      <trkpt lat="44.66818" lon="5.14708">
        <ele>593</ele>
        <time>2026-09-02T17:48:13.450Z</time>
      </trkpt>
      <trkpt lat="44.66818" lon="5.1471">
        <ele>593</ele>
        <time>2026-09-02T17:48:14.450Z</time>
      </trkpt>
      <trkpt lat="44.66819" lon="5.14711">
        <ele>593</ele>
        <time>2026-09-02T17:48:15.450Z</time>
      </trkpt>
      <trkpt lat="44.66819" lon="5.14713">
        <ele>593</ele>
        <time>2026-09-02T17:48:16.450Z</time>
      </trkpt>
      <trkpt lat="44.66819" lon="5.14714">
        <ele>593</ele>
        <time>2026-09-02T17:48:17.450Z</time>
      </trkpt>
      <trkpt lat="44.66819" lon="5.14715">
        <ele>592</ele>
        <time>2026-09-02T17:48:18.450Z</time>
      </trkpt>
      <trkpt lat="44.66819" lon="5.14717">
        <ele>592</ele>
        <time>2026-09-02T17:48:19.450Z</time>
      </trkpt>
      <trkpt lat="44.66819" lon="5.14718">
        <ele>592</ele>
        <time>2026-09-02T17:48:20.450Z</time>
      </trkpt>
      <trkpt lat="44.66819" lon="5.14719">
        <ele>592</ele>
        <time>2026-09-02T17:48:21.450Z</time>
      </trkpt>
      <trkpt lat="44.66819" lon="5.1472">
        <ele>592</ele>
        <time>2026-09-02T17:48:22.450Z</time>
      </trkpt>
      <trkpt lat="44.66819" lon="5.14721">
        <ele>592</ele>
        <time>2026-09-02T17:48:23.450Z</time>
      </trkpt>
      <trkpt lat="44.6682" lon="5.14721">
        <ele>592</ele>
        <time>2026-09-02T17:48:24.450Z</time>
      </trkpt>
      <trkpt lat="44.6682" lon="5.14722">
        <ele>591</ele>
        <time>2026-09-02T17:48:25.450Z</time>
      </trkpt>
      <trkpt lat="44.6682" lon="5.14723">
        <ele>591</ele>
        <time>2026-09-02T17:48:26.450Z</time>
      </trkpt>
      <trkpt lat="44.66821" lon="5.14724">
        <ele>591</ele>
        <time>2026-09-02T17:48:27.450Z</time>
      </trkpt>
      <trkpt lat="44.66821" lon="5.14725">
        <ele>591</ele>
        <time>2026-09-02T17:48:28.450Z</time>
      </trkpt>
      <trkpt lat="44.66821" lon="5.14725">
        <ele>591</ele>
        <time>2026-09-02T17:48:29.450Z</time>
      </trkpt>
      <trkpt lat="44.66821" lon="5.14726">
        <ele>591</ele>
        <time>2026-09-02T17:48:30.450Z</time>
      </trkpt>
      <trkpt lat="44.66821" lon="5.14726">
        <ele>591</ele>
        <time>2026-09-02T17:48:31.450Z</time>
      </trkpt>
      <trkpt lat="44.66821" lon="5.14726">
        <ele>591</ele>
        <time>2026-09-02T17:48:32.450Z</time>
      </trkpt>
      <trkpt lat="44.66821" lon="5.1473">
        <ele>591</ele>
        <time>2026-09-02T17:49:32.458Z</time>
      </trkpt>
      <trkpt lat="44.66821" lon="5.14732">
        <ele>591</ele>
        <time>2026-09-02T17:49:33.458Z</time>
      </trkpt>
      <trkpt lat="44.66821" lon="5.14733">
        <ele>591</ele>
        <time>2026-09-02T17:49:34.458Z</time>
      </trkpt>
      <trkpt lat="44.66821" lon="5.14735">
        <ele>591</ele>
        <time>2026-09-02T17:49:35.458Z</time>
      </trkpt>
      <trkpt lat="44.66821" lon="5.14736">
        <ele>590</ele>
        <time>2026-09-02T17:49:36.458Z</time>
      </trkpt>
      <trkpt lat="44.6682" lon="5.14738">
        <ele>590</ele>
        <time>2026-09-02T17:49:37.458Z</time>
      </trkpt>
      <trkpt lat="44.6682" lon="5.14739">
        <ele>590</ele>
        <time>2026-09-02T17:49:38.458Z</time>
      </trkpt>
      <trkpt lat="44.66819" lon="5.14741">
        <ele>590</ele>
        <time>2026-09-02T17:49:39.458Z</time>
      </trkpt>
      <trkpt lat="44.66818" lon="5.14743">
        <ele>590</ele>
        <time>2026-09-02T17:49:40.458Z</time>
      </trkpt>
      <trkpt lat="44.66818" lon="5.14744">
        <ele>590</ele>
        <time>2026-09-02T17:49:41.458Z</time>
      </trkpt>
      <trkpt lat="44.66817" lon="5.14746">
        <ele>590</ele>
        <time>2026-09-02T17:49:42.458Z</time>
      </trkpt>
      <trkpt lat="44.66816" lon="5.14748">
        <ele>590</ele>
        <time>2026-09-02T17:49:43.458Z</time>
      </trkpt>
      <trkpt lat="44.66816" lon="5.14749">
        <ele>589</ele>
        <time>2026-09-02T17:49:44.458Z</time>
      </trkpt>
      <trkpt lat="44.66815" lon="5.14751">
        <ele>589</ele>
        <time>2026-09-02T17:49:45.458Z</time>
      </trkpt>
      <trkpt lat="44.66814" lon="5.14752">
        <ele>589</ele>
        <time>2026-09-02T17:49:46.458Z</time>
      </trkpt>
      <trkpt lat="44.66813" lon="5.14754">
        <ele>589</ele>
        <time>2026-09-02T17:49:47.458Z</time>
      </trkpt>
      <trkpt lat="44.66812" lon="5.14756">
        <ele>589</ele>
        <time>2026-09-02T17:49:48.458Z</time>
      </trkpt>
      <trkpt lat="44.66811" lon="5.14757">
        <ele>589</ele>
        <time>2026-09-02T17:49:49.458Z</time>
      </trkpt>
      <trkpt lat="44.66811" lon="5.14759">
        <ele>589</ele>
        <time>2026-09-02T17:49:50.458Z</time>
      </trkpt>
      <trkpt lat="44.6681" lon="5.14761">
        <ele>589</ele>
        <time>2026-09-02T17:49:51.458Z</time>
      </trkpt>
      <trkpt lat="44.66809" lon="5.14762">
        <ele>589</ele>
        <time>2026-09-02T17:49:52.458Z</time>
      </trkpt>
      <trkpt lat="44.66808" lon="5.14764">
        <ele>589</ele>
        <time>2026-09-02T17:49:53.458Z</time>
      </trkpt>
      <trkpt lat="44.66808" lon="5.14766">
        <ele>589</ele>
        <time>2026-09-02T17:49:54.458Z</time>
      </trkpt>
      <trkpt lat="44.66807" lon="5.14768">
        <ele>589</ele>
        <time>2026-09-02T17:49:55.458Z</time>
      </trkpt>
      <trkpt lat="44.66806" lon="5.14769">
        <ele>589</ele>
        <time>2026-09-02T17:49:56.458Z</time>
      </trkpt>
      <trkpt lat="44.66806" lon="5.14772">
        <ele>589</ele>
        <time>2026-09-02T17:49:57.458Z</time>
      </trkpt>
      <trkpt lat="44.66805" lon="5.14773">
        <ele>589</ele>
        <time>2026-09-02T17:49:58.458Z</time>
      </trkpt>
      <trkpt lat="44.66805" lon="5.14775">
        <ele>589</ele>
        <time>2026-09-02T17:49:59.458Z</time>
      </trkpt>
      <trkpt lat="44.66804" lon="5.14777">
        <ele>589</ele>
        <time>2026-09-02T17:50:00.458Z</time>
      </trkpt>
      <trkpt lat="44.66804" lon="5.14779">
        <ele>589</ele>
        <time>2026-09-02T17:50:01.458Z</time>
      </trkpt>
      <trkpt lat="44.66803" lon="5.14781">
        <ele>589</ele>
        <time>2026-09-02T17:50:02.458Z</time>
      </trkpt>
      <trkpt lat="44.66803" lon="5.14783">
        <ele>589</ele>
        <time>2026-09-02T17:50:03.458Z</time>
      </trkpt>
      <trkpt lat="44.66802" lon="5.14784">
        <ele>589</ele>
        <time>2026-09-02T17:50:04.458Z</time>
      </trkpt>
      <trkpt lat="44.66802" lon="5.14785">
        <ele>589</ele>
        <time>2026-09-02T17:50:05.458Z</time>
      </trkpt>
      <trkpt lat="44.66802" lon="5.14785">
        <ele>589</ele>
        <time>2026-09-02T17:50:06.458Z</time>
      </trkpt>
      <trkpt lat="44.66802" lon="5.14785">
        <ele>589</ele>
        <time>2026-09-02T17:50:07.458Z</time>
      </trkpt>
      <trkpt lat="44.66802" lon="5.14785">
        <ele>589</ele>
        <time>2026-09-02T17:50:08.458Z</time>
      </trkpt>
      <trkpt lat="44.66802" lon="5.14788">
        <ele>589</ele>
        <time>2026-09-02T17:50:12.460Z</time>
      </trkpt>
      <trkpt lat="44.66802" lon="5.14788">
        <ele>589</ele>
        <time>2026-09-02T17:50:13.460Z</time>
      </trkpt>
      <trkpt lat="44.66802" lon="5.14789">
        <ele>589</ele>
        <time>2026-09-02T17:50:14.460Z</time>
      </trkpt>
      <trkpt lat="44.66802" lon="5.14791">
        <ele>589</ele>
        <time>2026-09-02T17:50:15.460Z</time>
      </trkpt>
      <trkpt lat="44.66802" lon="5.14792">
        <ele>589</ele>
        <time>2026-09-02T17:50:16.460Z</time>
      </trkpt>
      <trkpt lat="44.66802" lon="5.14794">
        <ele>589</ele>
        <time>2026-09-02T17:50:17.460Z</time>
      </trkpt>
      <trkpt lat="44.66802" lon="5.14796">
        <ele>589</ele>
        <time>2026-09-02T17:50:18.460Z</time>
      </trkpt>
      <trkpt lat="44.66802" lon="5.14798">
        <ele>589</ele>
        <time>2026-09-02T17:50:19.460Z</time>
      </trkpt>
      <trkpt lat="44.66801" lon="5.14799">
        <ele>589</ele>
        <time>2026-09-02T17:50:20.460Z</time>
      </trkpt>
      <trkpt lat="44.66801" lon="5.14801">
        <ele>589</ele>
        <time>2026-09-02T17:50:21.460Z</time>
      </trkpt>
      <trkpt lat="44.66801" lon="5.14802">
        <ele>589</ele>
        <time>2026-09-02T17:50:22.460Z</time>
      </trkpt>
      <trkpt lat="44.66801" lon="5.14802">
        <ele>589</ele>
        <time>2026-09-02T17:50:23.460Z</time>
      </trkpt>
      <trkpt lat="44.66801" lon="5.14802">
        <ele>589</ele>
        <time>2026-09-02T17:50:24.460Z</time>
      </trkpt>
      <trkpt lat="44.66801" lon="5.14802">
        <ele>589</ele>
        <time>2026-09-02T17:50:25.460Z</time>
      </trkpt>
      <trkpt lat="44.66802" lon="5.14802">
        <ele>589</ele>
        <time>2026-09-02T17:53:13.467Z</time>
      </trkpt>
      <trkpt lat="44.66802" lon="5.14803">
        <ele>589</ele>
        <time>2026-09-02T17:53:14.467Z</time>
      </trkpt>
      <trkpt lat="44.66802" lon="5.14804">
        <ele>589</ele>
        <time>2026-09-02T17:53:15.467Z</time>
      </trkpt>
      <trkpt lat="44.66803" lon="5.14805">
        <ele>589</ele>
        <time>2026-09-02T17:53:16.467Z</time>
      </trkpt>
      <trkpt lat="44.66803" lon="5.14806">
        <ele>589</ele>
        <time>2026-09-02T17:53:17.467Z</time>
      </trkpt>
      <trkpt lat="44.66803" lon="5.14806">
        <ele>589</ele>
        <time>2026-09-02T17:53:18.467Z</time>
      </trkpt>
      <trkpt lat="44.66803" lon="5.14807">
        <ele>589</ele>
        <time>2026-09-02T17:53:19.467Z</time>
      </trkpt>
      <trkpt lat="44.66803" lon="5.14808">
        <ele>589</ele>
        <time>2026-09-02T17:53:20.467Z</time>
      </trkpt>
      <trkpt lat="44.66803" lon="5.14809">
        <ele>588</ele>
        <time>2026-09-02T17:53:21.467Z</time>
      </trkpt>
      <trkpt lat="44.66803" lon="5.14811">
        <ele>588</ele>
        <time>2026-09-02T17:53:22.467Z</time>
      </trkpt>
      <trkpt lat="44.66803" lon="5.14812">
        <ele>588</ele>
        <time>2026-09-02T17:53:23.467Z</time>
      </trkpt>
      <trkpt lat="44.66803" lon="5.14813">
        <ele>588</ele>
        <time>2026-09-02T17:53:24.467Z</time>
      </trkpt>
      <trkpt lat="44.66803" lon="5.14814">
        <ele>588</ele>
        <time>2026-09-02T17:53:25.467Z</time>
      </trkpt>
      <trkpt lat="44.66803" lon="5.14815">
        <ele>588</ele>
        <time>2026-09-02T17:53:26.467Z</time>
      </trkpt>
      <trkpt lat="44.66803" lon="5.14816">
        <ele>588</ele>
        <time>2026-09-02T17:53:27.467Z</time>
      </trkpt>
      <trkpt lat="44.66803" lon="5.14816">
        <ele>588</ele>
        <time>2026-09-02T17:53:28.467Z</time>
      </trkpt>
      <trkpt lat="44.66803" lon="5.14816">
        <ele>588</ele>
        <time>2026-09-02T17:53:29.467Z</time>
      </trkpt>
      <trkpt lat="44.66803" lon="5.14817">
        <ele>588</ele>
        <time>2026-09-02T17:53:30.467Z</time>
      </trkpt>
      <trkpt lat="44.66803" lon="5.14818">
        <ele>588</ele>
        <time>2026-09-02T17:53:31.467Z</time>
      </trkpt>
      <trkpt lat="44.66802" lon="5.1482">
        <ele>588</ele>
        <time>2026-09-02T17:53:36.475Z</time>
      </trkpt>
      <trkpt lat="44.66802" lon="5.14821">
        <ele>588</ele>
        <time>2026-09-02T17:53:37.475Z</time>
      </trkpt>
      <trkpt lat="44.66802" lon="5.14822">
        <ele>588</ele>
        <time>2026-09-02T17:53:38.475Z</time>
      </trkpt>
      <trkpt lat="44.66802" lon="5.14823">
        <ele>588</ele>
        <time>2026-09-02T17:53:39.475Z</time>
      </trkpt>
      <trkpt lat="44.66802" lon="5.14824">
        <ele>588</ele>
        <time>2026-09-02T17:53:40.475Z</time>
      </trkpt>
      <trkpt lat="44.66802" lon="5.14825">
        <ele>588</ele>
        <time>2026-09-02T17:53:41.475Z</time>
      </trkpt>
      <trkpt lat="44.66802" lon="5.14826">
        <ele>588</ele>
        <time>2026-09-02T17:53:42.475Z</time>
      </trkpt>
      <trkpt lat="44.66802" lon="5.14826">
        <ele>588</ele>
        <time>2026-09-02T17:53:43.475Z</time>
      </trkpt>
      <trkpt lat="44.66802" lon="5.14826">
        <ele>588</ele>
        <time>2026-09-02T17:53:44.475Z</time>
      </trkpt>
      <trkpt lat="44.66802" lon="5.14826">
        <ele>588</ele>
        <time>2026-09-02T17:53:45.475Z</time>
      </trkpt>
      <trkpt lat="44.66802" lon="5.14826">
        <ele>587</ele>
        <time>2026-09-02T17:53:46.475Z</time>
      </trkpt>
      <trkpt lat="44.66802" lon="5.14828">
        <ele>587</ele>
        <time>2026-09-02T17:53:49.801Z</time>
      </trkpt>
      <trkpt lat="44.66802" lon="5.14829">
        <ele>587</ele>
        <time>2026-09-02T17:53:50.801Z</time>
      </trkpt>
      <trkpt lat="44.66802" lon="5.14831">
        <ele>587</ele>
        <time>2026-09-02T17:53:51.801Z</time>
      </trkpt>
      <trkpt lat="44.66802" lon="5.14832">
        <ele>587</ele>
        <time>2026-09-02T17:53:52.801Z</time>
      </trkpt>
      <trkpt lat="44.66801" lon="5.14834">
        <ele>587</ele>
        <time>2026-09-02T17:53:53.801Z</time>
      </trkpt>
      <trkpt lat="44.66801" lon="5.14835">
        <ele>587</ele>
        <time>2026-09-02T17:53:54.801Z</time>
      </trkpt>
      <trkpt lat="44.66801" lon="5.14837">
        <ele>587</ele>
        <time>2026-09-02T17:53:55.801Z</time>
      </trkpt>
      <trkpt lat="44.66801" lon="5.14839">
        <ele>587</ele>
        <time>2026-09-02T17:53:56.801Z</time>
      </trkpt>
      <trkpt lat="44.66801" lon="5.1484">
        <ele>587</ele>
        <time>2026-09-02T17:53:57.801Z</time>
      </trkpt>
      <trkpt lat="44.668" lon="5.14842">
        <ele>587</ele>
        <time>2026-09-02T17:53:58.801Z</time>
      </trkpt>
      <trkpt lat="44.668" lon="5.14843">
        <ele>587</ele>
        <time>2026-09-02T17:53:59.801Z</time>
      </trkpt>
      <trkpt lat="44.66799" lon="5.14845">
        <ele>587</ele>
        <time>2026-09-02T17:54:00.801Z</time>
      </trkpt>
      <trkpt lat="44.66799" lon="5.14846">
        <ele>587</ele>
        <time>2026-09-02T17:54:01.801Z</time>
      </trkpt>
      <trkpt lat="44.66799" lon="5.14848">
        <ele>587</ele>
        <time>2026-09-02T17:54:02.801Z</time>
      </trkpt>
      <trkpt lat="44.66798" lon="5.1485">
        <ele>587</ele>
        <time>2026-09-02T17:54:03.801Z</time>
      </trkpt>
      <trkpt lat="44.66798" lon="5.14851">
        <ele>587</ele>
        <time>2026-09-02T17:54:04.801Z</time>
      </trkpt>
      <trkpt lat="44.66798" lon="5.14853">
        <ele>587</ele>
        <time>2026-09-02T17:54:05.801Z</time>
      </trkpt>
      <trkpt lat="44.66798" lon="5.14855">
        <ele>587</ele>
        <time>2026-09-02T17:54:06.801Z</time>
      </trkpt>
      <trkpt lat="44.66798" lon="5.14856">
        <ele>587</ele>
        <time>2026-09-02T17:54:07.801Z</time>
      </trkpt>
      <trkpt lat="44.66797" lon="5.14858">
        <ele>587</ele>
        <time>2026-09-02T17:54:08.801Z</time>
      </trkpt>
      <trkpt lat="44.66797" lon="5.14859">
        <ele>587</ele>
        <time>2026-09-02T17:54:09.801Z</time>
      </trkpt>
      <trkpt lat="44.66797" lon="5.14861">
        <ele>587</ele>
        <time>2026-09-02T17:54:10.801Z</time>
      </trkpt>
      <trkpt lat="44.66797" lon="5.14863">
        <ele>587</ele>
        <time>2026-09-02T17:54:11.801Z</time>
      </trkpt>
      <trkpt lat="44.66797" lon="5.14864">
        <ele>587</ele>
        <time>2026-09-02T17:54:12.801Z</time>
      </trkpt>
      <trkpt lat="44.66797" lon="5.14866">
        <ele>587</ele>
        <time>2026-09-02T17:54:13.801Z</time>
      </trkpt>
      <trkpt lat="44.66797" lon="5.14868">
        <ele>587</ele>
        <time>2026-09-02T17:54:14.801Z</time>
      </trkpt>
      <trkpt lat="44.66797" lon="5.1487">
        <ele>587</ele>
        <time>2026-09-02T17:54:15.801Z</time>
      </trkpt>
      <trkpt lat="44.66796" lon="5.14872">
        <ele>587</ele>
        <time>2026-09-02T17:54:16.801Z</time>
      </trkpt>
      <trkpt lat="44.66796" lon="5.14874">
        <ele>587</ele>
        <time>2026-09-02T17:54:17.801Z</time>
      </trkpt>
      <trkpt lat="44.66796" lon="5.14875">
        <ele>587</ele>
        <time>2026-09-02T17:54:18.801Z</time>
      </trkpt>
      <trkpt lat="44.66796" lon="5.14877">
        <ele>587</ele>
        <time>2026-09-02T17:54:19.801Z</time>
      </trkpt>
      <trkpt lat="44.66797" lon="5.14879">
        <ele>587</ele>
        <time>2026-09-02T17:54:20.801Z</time>
      </trkpt>
      <trkpt lat="44.66797" lon="5.1488">
        <ele>587</ele>
        <time>2026-09-02T17:54:21.801Z</time>
      </trkpt>
      <trkpt lat="44.66798" lon="5.14882">
        <ele>587</ele>
        <time>2026-09-02T17:54:22.801Z</time>
      </trkpt>
      <trkpt lat="44.66798" lon="5.14883">
        <ele>587</ele>
        <time>2026-09-02T17:54:23.801Z</time>
      </trkpt>
      <trkpt lat="44.66799" lon="5.14885">
        <ele>587</ele>
        <time>2026-09-02T17:54:24.801Z</time>
      </trkpt>
      <trkpt lat="44.66799" lon="5.14886">
        <ele>587</ele>
        <time>2026-09-02T17:54:25.801Z</time>
      </trkpt>
      <trkpt lat="44.668" lon="5.14888">
        <ele>587</ele>
        <time>2026-09-02T17:54:26.801Z</time>
      </trkpt>
      <trkpt lat="44.668" lon="5.14889">
        <ele>587</ele>
        <time>2026-09-02T17:54:27.801Z</time>
      </trkpt>
      <trkpt lat="44.66801" lon="5.14891">
        <ele>587</ele>
        <time>2026-09-02T17:54:28.801Z</time>
      </trkpt>
      <trkpt lat="44.66802" lon="5.14892">
        <ele>587</ele>
        <time>2026-09-02T17:54:29.801Z</time>
      </trkpt>
      <trkpt lat="44.66802" lon="5.14894">
        <ele>587</ele>
        <time>2026-09-02T17:54:30.801Z</time>
      </trkpt>
      <trkpt lat="44.66803" lon="5.14895">
        <ele>587</ele>
        <time>2026-09-02T17:54:31.801Z</time>
      </trkpt>
      <trkpt lat="44.66804" lon="5.14897">
        <ele>587</ele>
        <time>2026-09-02T17:54:32.801Z</time>
      </trkpt>
      <trkpt lat="44.66804" lon="5.14899">
        <ele>586</ele>
        <time>2026-09-02T17:54:33.801Z</time>
      </trkpt>
      <trkpt lat="44.66804" lon="5.14901">
        <ele>586</ele>
        <time>2026-09-02T17:54:34.801Z</time>
      </trkpt>
      <trkpt lat="44.66805" lon="5.14902">
        <ele>586</ele>
        <time>2026-09-02T17:54:35.801Z</time>
      </trkpt>
      <trkpt lat="44.66805" lon="5.14904">
        <ele>586</ele>
        <time>2026-09-02T17:54:36.801Z</time>
      </trkpt>
      <trkpt lat="44.66806" lon="5.14905">
        <ele>586</ele>
        <time>2026-09-02T17:54:37.801Z</time>
      </trkpt>
      <trkpt lat="44.66806" lon="5.14907">
        <ele>586</ele>
        <time>2026-09-02T17:54:38.801Z</time>
      </trkpt>
      <trkpt lat="44.66807" lon="5.14908">
        <ele>585</ele>
        <time>2026-09-02T17:54:39.801Z</time>
      </trkpt>
      <trkpt lat="44.66807" lon="5.1491">
        <ele>585</ele>
        <time>2026-09-02T17:54:40.801Z</time>
      </trkpt>
      <trkpt lat="44.66808" lon="5.14911">
        <ele>585</ele>
        <time>2026-09-02T17:54:41.801Z</time>
      </trkpt>
      <trkpt lat="44.66808" lon="5.14912">
        <ele>585</ele>
        <time>2026-09-02T17:54:42.801Z</time>
      </trkpt>
      <trkpt lat="44.66809" lon="5.14913">
        <ele>585</ele>
        <time>2026-09-02T17:54:43.801Z</time>
      </trkpt>
      <trkpt lat="44.6681" lon="5.14915">
        <ele>585</ele>
        <time>2026-09-02T17:54:44.801Z</time>
      </trkpt>
      <trkpt lat="44.66811" lon="5.14916">
        <ele>585</ele>
        <time>2026-09-02T17:54:45.801Z</time>
      </trkpt>
      <trkpt lat="44.66811" lon="5.14917">
        <ele>584</ele>
        <time>2026-09-02T17:54:46.801Z</time>
      </trkpt>
      <trkpt lat="44.66812" lon="5.14919">
        <ele>584</ele>
        <time>2026-09-02T17:54:47.801Z</time>
      </trkpt>
      <trkpt lat="44.66813" lon="5.1492">
        <ele>584</ele>
        <time>2026-09-02T17:54:48.801Z</time>
      </trkpt>
      <trkpt lat="44.66814" lon="5.14921">
        <ele>584</ele>
        <time>2026-09-02T17:54:49.801Z</time>
      </trkpt>
      <trkpt lat="44.66814" lon="5.14922">
        <ele>584</ele>
        <time>2026-09-02T17:54:50.801Z</time>
      </trkpt>
      <trkpt lat="44.66815" lon="5.14923">
        <ele>584</ele>
        <time>2026-09-02T17:54:51.801Z</time>
      </trkpt>
      <trkpt lat="44.66815" lon="5.14924">
        <ele>584</ele>
        <time>2026-09-02T17:54:52.801Z</time>
      </trkpt>
      <trkpt lat="44.66816" lon="5.14925">
        <ele>584</ele>
        <time>2026-09-02T17:54:53.801Z</time>
      </trkpt>
      <trkpt lat="44.66816" lon="5.14926">
        <ele>584</ele>
        <time>2026-09-02T17:54:54.801Z</time>
      </trkpt>
      <trkpt lat="44.66817" lon="5.14927">
        <ele>584</ele>
        <time>2026-09-02T17:54:55.801Z</time>
      </trkpt>
      <trkpt lat="44.66817" lon="5.14928">
        <ele>584</ele>
        <time>2026-09-02T17:54:56.801Z</time>
      </trkpt>
      <trkpt lat="44.66818" lon="5.14929">
        <ele>584</ele>
        <time>2026-09-02T17:54:57.801Z</time>
      </trkpt>
      <trkpt lat="44.66818" lon="5.1493">
        <ele>583</ele>
        <time>2026-09-02T17:54:58.801Z</time>
      </trkpt>
      <trkpt lat="44.66818" lon="5.14931">
        <ele>583</ele>
        <time>2026-09-02T17:54:59.801Z</time>
      </trkpt>
      <trkpt lat="44.66818" lon="5.14931">
        <ele>583</ele>
        <time>2026-09-02T17:55:00.801Z</time>
      </trkpt>
      <trkpt lat="44.66819" lon="5.14932">
        <ele>583</ele>
        <time>2026-09-02T17:55:01.801Z</time>
      </trkpt>
      <trkpt lat="44.66819" lon="5.14933">
        <ele>583</ele>
        <time>2026-09-02T17:55:02.801Z</time>
      </trkpt>
      <trkpt lat="44.66819" lon="5.14934">
        <ele>583</ele>
        <time>2026-09-02T17:55:03.801Z</time>
      </trkpt>
      <trkpt lat="44.6682" lon="5.14934">
        <ele>584</ele>
        <time>2026-09-02T17:55:04.801Z</time>
      </trkpt>
      <trkpt lat="44.6682" lon="5.14935">
        <ele>584</ele>
        <time>2026-09-02T17:55:05.801Z</time>
      </trkpt>
      <trkpt lat="44.66821" lon="5.14936">
        <ele>584</ele>
        <time>2026-09-02T17:55:06.801Z</time>
      </trkpt>
      <trkpt lat="44.66821" lon="5.14937">
        <ele>584</ele>
        <time>2026-09-02T17:55:07.801Z</time>
      </trkpt>
      <trkpt lat="44.66821" lon="5.14937">
        <ele>584</ele>
        <time>2026-09-02T17:55:08.801Z</time>
      </trkpt>
      <trkpt lat="44.66821" lon="5.14938">
        <ele>584</ele>
        <time>2026-09-02T17:55:09.801Z</time>
      </trkpt>
      <trkpt lat="44.66822" lon="5.14938">
        <ele>584</ele>
        <time>2026-09-02T17:55:10.801Z</time>
      </trkpt>
      <trkpt lat="44.66822" lon="5.14939">
        <ele>584</ele>
        <time>2026-09-02T17:55:11.801Z</time>
      </trkpt>
      <trkpt lat="44.66823" lon="5.14939">
        <ele>584</ele>
        <time>2026-09-02T17:55:12.801Z</time>
      </trkpt>
      <trkpt lat="44.66824" lon="5.14939">
        <ele>584</ele>
        <time>2026-09-02T17:55:13.801Z</time>
      </trkpt>
      <trkpt lat="44.66825" lon="5.1494">
        <ele>584</ele>
        <time>2026-09-02T17:55:14.801Z</time>
      </trkpt>
      <trkpt lat="44.66826" lon="5.1494">
        <ele>584</ele>
        <time>2026-09-02T17:55:15.801Z</time>
      </trkpt>
      <trkpt lat="44.66827" lon="5.14941">
        <ele>584</ele>
        <time>2026-09-02T17:55:16.801Z</time>
      </trkpt>
      <trkpt lat="44.66828" lon="5.14941">
        <ele>584</ele>
        <time>2026-09-02T17:55:17.801Z</time>
      </trkpt>
      <trkpt lat="44.66828" lon="5.14942">
        <ele>584</ele>
        <time>2026-09-02T17:55:18.801Z</time>
      </trkpt>
      <trkpt lat="44.66829" lon="5.14942">
        <ele>584</ele>
        <time>2026-09-02T17:55:19.801Z</time>
      </trkpt>
      <trkpt lat="44.6683" lon="5.14942">
        <ele>584</ele>
        <time>2026-09-02T17:55:20.801Z</time>
      </trkpt>
      <trkpt lat="44.66831" lon="5.14942">
        <ele>583</ele>
        <time>2026-09-02T17:55:21.801Z</time>
      </trkpt>
      <trkpt lat="44.66832" lon="5.14943">
        <ele>583</ele>
        <time>2026-09-02T17:55:22.801Z</time>
      </trkpt>
      <trkpt lat="44.66832" lon="5.14943">
        <ele>583</ele>
        <time>2026-09-02T17:55:23.801Z</time>
      </trkpt>
      <trkpt lat="44.66833" lon="5.14944">
        <ele>583</ele>
        <time>2026-09-02T17:55:24.801Z</time>
      </trkpt>
      <trkpt lat="44.66834" lon="5.14944">
        <ele>583</ele>
        <time>2026-09-02T17:55:25.801Z</time>
      </trkpt>
      <trkpt lat="44.66835" lon="5.14944">
        <ele>583</ele>
        <time>2026-09-02T17:55:26.801Z</time>
      </trkpt>
      <trkpt lat="44.66836" lon="5.14944">
        <ele>583</ele>
        <time>2026-09-02T17:55:27.801Z</time>
      </trkpt>
      <trkpt lat="44.66837" lon="5.14944">
        <ele>583</ele>
        <time>2026-09-02T17:55:28.801Z</time>
      </trkpt>
      <trkpt lat="44.66838" lon="5.14945">
        <ele>583</ele>
        <time>2026-09-02T17:55:29.801Z</time>
      </trkpt>
      <trkpt lat="44.66839" lon="5.14945">
        <ele>583</ele>
        <time>2026-09-02T17:55:30.801Z</time>
      </trkpt>
      <trkpt lat="44.6684" lon="5.14945">
        <ele>583</ele>
        <time>2026-09-02T17:55:31.801Z</time>
      </trkpt>
      <trkpt lat="44.6684" lon="5.14945">
        <ele>583</ele>
        <time>2026-09-02T17:55:32.801Z</time>
      </trkpt>
      <trkpt lat="44.66841" lon="5.14945">
        <ele>583</ele>
        <time>2026-09-02T17:55:33.801Z</time>
      </trkpt>
      <trkpt lat="44.66842" lon="5.14946">
        <ele>583</ele>
        <time>2026-09-02T17:55:34.801Z</time>
      </trkpt>
      <trkpt lat="44.66843" lon="5.14946">
        <ele>583</ele>
        <time>2026-09-02T17:55:35.801Z</time>
      </trkpt>
      <trkpt lat="44.66844" lon="5.14946">
        <ele>583</ele>
        <time>2026-09-02T17:55:36.801Z</time>
      </trkpt>
      <trkpt lat="44.66845" lon="5.14947">
        <ele>583</ele>
        <time>2026-09-02T17:55:37.801Z</time>
      </trkpt>
      <trkpt lat="44.66846" lon="5.14947">
        <ele>583</ele>
        <time>2026-09-02T17:55:38.801Z</time>
      </trkpt>
      <trkpt lat="44.66847" lon="5.14947">
        <ele>583</ele>
        <time>2026-09-02T17:55:39.801Z</time>
      </trkpt>
      <trkpt lat="44.66848" lon="5.14947">
        <ele>582</ele>
        <time>2026-09-02T17:55:40.801Z</time>
      </trkpt>
      <trkpt lat="44.66849" lon="5.14947">
        <ele>582</ele>
        <time>2026-09-02T17:55:41.801Z</time>
      </trkpt>
      <trkpt lat="44.6685" lon="5.14947">
        <ele>582</ele>
        <time>2026-09-02T17:55:42.801Z</time>
      </trkpt>
      <trkpt lat="44.66851" lon="5.14946">
        <ele>582</ele>
        <time>2026-09-02T17:55:43.801Z</time>
      </trkpt>
      <trkpt lat="44.66853" lon="5.14946">
        <ele>581</ele>
        <time>2026-09-02T17:55:47.103Z</time>
      </trkpt>
      <trkpt lat="44.66854" lon="5.14946">
        <ele>581</ele>
        <time>2026-09-02T17:55:48.103Z</time>
      </trkpt>
      <trkpt lat="44.66855" lon="5.14945">
        <ele>581</ele>
        <time>2026-09-02T17:55:49.103Z</time>
      </trkpt>
      <trkpt lat="44.66856" lon="5.14945">
        <ele>581</ele>
        <time>2026-09-02T17:55:50.103Z</time>
      </trkpt>
      <trkpt lat="44.66857" lon="5.14945">
        <ele>581</ele>
        <time>2026-09-02T17:55:51.103Z</time>
      </trkpt>
      <trkpt lat="44.66858" lon="5.14945">
        <ele>580</ele>
        <time>2026-09-02T17:55:52.103Z</time>
      </trkpt>
      <trkpt lat="44.66859" lon="5.14945">
        <ele>580</ele>
        <time>2026-09-02T17:55:53.103Z</time>
      </trkpt>
      <trkpt lat="44.6686" lon="5.14945">
        <ele>580</ele>
        <time>2026-09-02T17:55:54.103Z</time>
      </trkpt>
      <trkpt lat="44.66861" lon="5.14945">
        <ele>580</ele>
        <time>2026-09-02T17:55:55.103Z</time>
      </trkpt>
      <trkpt lat="44.66861" lon="5.14944">
        <ele>580</ele>
        <time>2026-09-02T17:55:56.103Z</time>
      </trkpt>
      <trkpt lat="44.66862" lon="5.14943">
        <ele>580</ele>
        <time>2026-09-02T17:55:57.103Z</time>
      </trkpt>
      <trkpt lat="44.66863" lon="5.14943">
        <ele>579</ele>
        <time>2026-09-02T17:55:58.103Z</time>
      </trkpt>
      <trkpt lat="44.66863" lon="5.14943">
        <ele>579</ele>
        <time>2026-09-02T17:55:59.103Z</time>
      </trkpt>
      <trkpt lat="44.66864" lon="5.14942">
        <ele>579</ele>
        <time>2026-09-02T17:56:00.103Z</time>
      </trkpt>
      <trkpt lat="44.66865" lon="5.14942">
        <ele>579</ele>
        <time>2026-09-02T17:56:01.103Z</time>
      </trkpt>
      <trkpt lat="44.66866" lon="5.14941">
        <ele>579</ele>
        <time>2026-09-02T17:56:02.103Z</time>
      </trkpt>
      <trkpt lat="44.66867" lon="5.14941">
        <ele>579</ele>
        <time>2026-09-02T17:56:03.103Z</time>
      </trkpt>
      <trkpt lat="44.66867" lon="5.14941">
        <ele>578</ele>
        <time>2026-09-02T17:56:05.103Z</time>
      </trkpt>
      <trkpt lat="44.66867" lon="5.14941">
        <ele>578</ele>
        <time>2026-09-02T17:56:06.103Z</time>
      </trkpt>
      <trkpt lat="44.66871" lon="5.14937">
        <ele>578</ele>
        <time>2026-09-02T17:56:07.103Z</time>
      </trkpt>
      <trkpt lat="44.66873" lon="5.14936">
        <ele>578</ele>
        <time>2026-09-02T17:56:08.103Z</time>
      </trkpt>
      <trkpt lat="44.66874" lon="5.14936">
        <ele>578</ele>
        <time>2026-09-02T17:56:09.103Z</time>
      </trkpt>
      <trkpt lat="44.66875" lon="5.14935">
        <ele>578</ele>
        <time>2026-09-02T17:56:10.103Z</time>
      </trkpt>
      <trkpt lat="44.66876" lon="5.14934">
        <ele>578</ele>
        <time>2026-09-02T17:56:11.103Z</time>
      </trkpt>
      <trkpt lat="44.66877" lon="5.14933">
        <ele>578</ele>
        <time>2026-09-02T17:56:12.103Z</time>
      </trkpt>
      <trkpt lat="44.66879" lon="5.14932">
        <ele>578</ele>
        <time>2026-09-02T17:56:13.103Z</time>
      </trkpt>
      <trkpt lat="44.6688" lon="5.14932">
        <ele>578</ele>
        <time>2026-09-02T17:56:14.103Z</time>
      </trkpt>
      <trkpt lat="44.66881" lon="5.14931">
        <ele>579</ele>
        <time>2026-09-02T17:56:15.103Z</time>
      </trkpt>
      <trkpt lat="44.66882" lon="5.1493">
        <ele>579</ele>
        <time>2026-09-02T17:56:16.103Z</time>
      </trkpt>
      <trkpt lat="44.66883" lon="5.14928">
        <ele>579</ele>
        <time>2026-09-02T17:56:17.103Z</time>
      </trkpt>
      <trkpt lat="44.66884" lon="5.14927">
        <ele>579</ele>
        <time>2026-09-02T17:56:18.103Z</time>
      </trkpt>
      <trkpt lat="44.66885" lon="5.14926">
        <ele>579</ele>
        <time>2026-09-02T17:56:19.103Z</time>
      </trkpt>
      <trkpt lat="44.66886" lon="5.14925">
        <ele>580</ele>
        <time>2026-09-02T17:56:20.103Z</time>
      </trkpt>
      <trkpt lat="44.66886" lon="5.14924">
        <ele>580</ele>
        <time>2026-09-02T17:56:21.103Z</time>
      </trkpt>
      <trkpt lat="44.66887" lon="5.14923">
        <ele>580</ele>
        <time>2026-09-02T17:56:22.103Z</time>
      </trkpt>
      <trkpt lat="44.66888" lon="5.14922">
        <ele>580</ele>
        <time>2026-09-02T17:56:23.103Z</time>
      </trkpt>
      <trkpt lat="44.66888" lon="5.14921">
        <ele>580</ele>
        <time>2026-09-02T17:56:24.103Z</time>
      </trkpt>
      <trkpt lat="44.66889" lon="5.14921">
        <ele>580</ele>
        <time>2026-09-02T17:56:25.103Z</time>
      </trkpt>
      <trkpt lat="44.6689" lon="5.1492">
        <ele>580</ele>
        <time>2026-09-02T17:56:26.103Z</time>
      </trkpt>
      <trkpt lat="44.66891" lon="5.14919">
        <ele>580</ele>
        <time>2026-09-02T17:56:27.103Z</time>
      </trkpt>
      <trkpt lat="44.66892" lon="5.14919">
        <ele>580</ele>
        <time>2026-09-02T17:56:28.103Z</time>
      </trkpt>
      <trkpt lat="44.66893" lon="5.14918">
        <ele>581</ele>
        <time>2026-09-02T17:56:29.103Z</time>
      </trkpt>
      <trkpt lat="44.66894" lon="5.14917">
        <ele>581</ele>
        <time>2026-09-02T17:56:30.103Z</time>
      </trkpt>
      <trkpt lat="44.66895" lon="5.14915">
        <ele>581</ele>
        <time>2026-09-02T17:56:31.103Z</time>
      </trkpt>
      <trkpt lat="44.66896" lon="5.14914">
        <ele>581</ele>
        <time>2026-09-02T17:56:32.103Z</time>
      </trkpt>
      <trkpt lat="44.66897" lon="5.14913">
        <ele>581</ele>
        <time>2026-09-02T17:56:33.103Z</time>
      </trkpt>
      <trkpt lat="44.66898" lon="5.14912">
        <ele>580</ele>
        <time>2026-09-02T17:56:34.103Z</time>
      </trkpt>
      <trkpt lat="44.66899" lon="5.14911">
        <ele>580</ele>
        <time>2026-09-02T17:56:35.103Z</time>
      </trkpt>
      <trkpt lat="44.669" lon="5.1491">
        <ele>580</ele>
        <time>2026-09-02T17:56:36.103Z</time>
      </trkpt>
      <trkpt lat="44.66901" lon="5.14909">
        <ele>580</ele>
        <time>2026-09-02T17:56:37.103Z</time>
      </trkpt>
      <trkpt lat="44.66902" lon="5.14909">
        <ele>580</ele>
        <time>2026-09-02T17:56:38.103Z</time>
      </trkpt>
      <trkpt lat="44.66902" lon="5.14908">
        <ele>580</ele>
        <time>2026-09-02T17:56:39.103Z</time>
      </trkpt>
      <trkpt lat="44.66903" lon="5.14907">
        <ele>580</ele>
        <time>2026-09-02T17:56:40.103Z</time>
      </trkpt>
      <trkpt lat="44.66904" lon="5.14907">
        <ele>580</ele>
        <time>2026-09-02T17:56:41.103Z</time>
      </trkpt>
      <trkpt lat="44.66905" lon="5.14906">
        <ele>580</ele>
        <time>2026-09-02T17:56:42.103Z</time>
      </trkpt>
      <trkpt lat="44.66906" lon="5.14906">
        <ele>580</ele>
        <time>2026-09-02T17:56:43.103Z</time>
      </trkpt>
      <trkpt lat="44.66907" lon="5.14905">
        <ele>580</ele>
        <time>2026-09-02T17:56:44.103Z</time>
      </trkpt>
      <trkpt lat="44.66908" lon="5.14905">
        <ele>580</ele>
        <time>2026-09-02T17:56:45.103Z</time>
      </trkpt>
      <trkpt lat="44.66909" lon="5.14904">
        <ele>580</ele>
        <time>2026-09-02T17:56:46.103Z</time>
      </trkpt>
      <trkpt lat="44.6691" lon="5.14904">
        <ele>580</ele>
        <time>2026-09-02T17:56:47.103Z</time>
      </trkpt>
      <trkpt lat="44.66911" lon="5.14904">
        <ele>580</ele>
        <time>2026-09-02T17:56:48.103Z</time>
      </trkpt>
      <trkpt lat="44.66911" lon="5.14905">
        <ele>580</ele>
        <time>2026-09-02T17:56:49.103Z</time>
      </trkpt>
      <trkpt lat="44.66912" lon="5.14904">
        <ele>580</ele>
        <time>2026-09-02T17:56:50.103Z</time>
      </trkpt>
      <trkpt lat="44.66913" lon="5.14904">
        <ele>580</ele>
        <time>2026-09-02T17:56:51.103Z</time>
      </trkpt>
      <trkpt lat="44.66914" lon="5.14904">
        <ele>580</ele>
        <time>2026-09-02T17:56:52.103Z</time>
      </trkpt>
      <trkpt lat="44.66915" lon="5.14904">
        <ele>580</ele>
        <time>2026-09-02T17:56:53.103Z</time>
      </trkpt>
      <trkpt lat="44.66916" lon="5.14904">
        <ele>580</ele>
        <time>2026-09-02T17:56:54.103Z</time>
      </trkpt>
      <trkpt lat="44.66917" lon="5.14905">
        <ele>580</ele>
        <time>2026-09-02T17:56:55.103Z</time>
      </trkpt>
      <trkpt lat="44.66918" lon="5.14906">
        <ele>580</ele>
        <time>2026-09-02T17:56:56.103Z</time>
      </trkpt>
      <trkpt lat="44.66919" lon="5.14906">
        <ele>579</ele>
        <time>2026-09-02T17:56:57.103Z</time>
      </trkpt>
      <trkpt lat="44.6692" lon="5.14906">
        <ele>579</ele>
        <time>2026-09-02T17:56:58.103Z</time>
      </trkpt>
      <trkpt lat="44.66921" lon="5.14907">
        <ele>579</ele>
        <time>2026-09-02T17:56:59.103Z</time>
      </trkpt>
      <trkpt lat="44.66922" lon="5.14907">
        <ele>579</ele>
        <time>2026-09-02T17:57:00.103Z</time>
      </trkpt>
      <trkpt lat="44.66923" lon="5.14907">
        <ele>578</ele>
        <time>2026-09-02T17:57:01.103Z</time>
      </trkpt>
      <trkpt lat="44.66924" lon="5.14906">
        <ele>578</ele>
        <time>2026-09-02T17:57:02.103Z</time>
      </trkpt>
      <trkpt lat="44.66925" lon="5.14906">
        <ele>578</ele>
        <time>2026-09-02T17:57:03.103Z</time>
      </trkpt>
      <trkpt lat="44.66925" lon="5.14906">
        <ele>577</ele>
        <time>2026-09-02T17:57:04.103Z</time>
      </trkpt>
      <trkpt lat="44.66927" lon="5.14909">
        <ele>576</ele>
        <time>2026-09-02T17:57:07.405Z</time>
      </trkpt>
      <trkpt lat="44.66928" lon="5.14909">
        <ele>576</ele>
        <time>2026-09-02T17:57:08.405Z</time>
      </trkpt>
      <trkpt lat="44.66928" lon="5.14909">
        <ele>576</ele>
        <time>2026-09-02T17:57:09.405Z</time>
      </trkpt>
      <trkpt lat="44.66928" lon="5.14909">
        <ele>576</ele>
        <time>2026-09-02T17:57:10.405Z</time>
      </trkpt>
      <trkpt lat="44.66933" lon="5.14909">
        <ele>574</ele>
        <time>2026-09-02T17:57:23.411Z</time>
      </trkpt>
      <trkpt lat="44.66933" lon="5.1491">
        <ele>574</ele>
        <time>2026-09-02T17:57:24.411Z</time>
      </trkpt>
      <trkpt lat="44.66934" lon="5.14911">
        <ele>573</ele>
        <time>2026-09-02T17:57:25.411Z</time>
      </trkpt>
      <trkpt lat="44.66935" lon="5.14911">
        <ele>573</ele>
        <time>2026-09-02T17:57:26.411Z</time>
      </trkpt>
      <trkpt lat="44.66935" lon="5.14912">
        <ele>573</ele>
        <time>2026-09-02T17:57:27.411Z</time>
      </trkpt>
      <trkpt lat="44.66935" lon="5.14913">
        <ele>573</ele>
        <time>2026-09-02T17:57:28.411Z</time>
      </trkpt>
      <trkpt lat="44.66936" lon="5.14914">
        <ele>573</ele>
        <time>2026-09-02T17:57:29.411Z</time>
      </trkpt>
      <trkpt lat="44.66936" lon="5.14915">
        <ele>573</ele>
        <time>2026-09-02T17:57:30.411Z</time>
      </trkpt>
      <trkpt lat="44.66937" lon="5.14916">
        <ele>573</ele>
        <time>2026-09-02T17:57:31.411Z</time>
      </trkpt>
      <trkpt lat="44.66938" lon="5.14916">
        <ele>572</ele>
        <time>2026-09-02T17:57:32.411Z</time>
      </trkpt>
      <trkpt lat="44.66939" lon="5.14917">
        <ele>572</ele>
        <time>2026-09-02T17:57:33.411Z</time>
      </trkpt>
      <trkpt lat="44.66939" lon="5.14918">
        <ele>572</ele>
        <time>2026-09-02T17:57:34.411Z</time>
      </trkpt>
      <trkpt lat="44.6694" lon="5.14919">
        <ele>572</ele>
        <time>2026-09-02T17:57:35.411Z</time>
      </trkpt>
      <trkpt lat="44.6694" lon="5.1492">
        <ele>572</ele>
        <time>2026-09-02T17:57:36.411Z</time>
      </trkpt>
      <trkpt lat="44.66941" lon="5.14921">
        <ele>572</ele>
        <time>2026-09-02T17:57:37.411Z</time>
      </trkpt>
      <trkpt lat="44.66941" lon="5.14922">
        <ele>572</ele>
        <time>2026-09-02T17:57:38.411Z</time>
      </trkpt>
      <trkpt lat="44.66941" lon="5.14922">
        <ele>572</ele>
        <time>2026-09-02T17:57:39.411Z</time>
      </trkpt>
      <trkpt lat="44.66942" lon="5.14923">
        <ele>572</ele>
        <time>2026-09-02T17:57:40.411Z</time>
      </trkpt>
      <trkpt lat="44.66942" lon="5.14924">
        <ele>572</ele>
        <time>2026-09-02T17:57:41.411Z</time>
      </trkpt>
      <trkpt lat="44.66943" lon="5.14925">
        <ele>572</ele>
        <time>2026-09-02T17:57:42.411Z</time>
      </trkpt>
      <trkpt lat="44.66944" lon="5.14926">
        <ele>572</ele>
        <time>2026-09-02T17:57:43.411Z</time>
      </trkpt>
      <trkpt lat="44.66944" lon="5.14926">
        <ele>572</ele>
        <time>2026-09-02T17:57:44.411Z</time>
      </trkpt>
      <trkpt lat="44.66945" lon="5.14927">
        <ele>572</ele>
        <time>2026-09-02T17:57:45.411Z</time>
      </trkpt>
      <trkpt lat="44.66945" lon="5.14928">
        <ele>572</ele>
        <time>2026-09-02T17:57:46.411Z</time>
      </trkpt>
      <trkpt lat="44.66946" lon="5.14929">
        <ele>572</ele>
        <time>2026-09-02T17:57:47.411Z</time>
      </trkpt>
      <trkpt lat="44.66946" lon="5.1493">
        <ele>572</ele>
        <time>2026-09-02T17:57:48.411Z</time>
      </trkpt>
      <trkpt lat="44.66947" lon="5.14931">
        <ele>572</ele>
        <time>2026-09-02T17:57:49.411Z</time>
      </trkpt>
      <trkpt lat="44.66947" lon="5.14931">
        <ele>572</ele>
        <time>2026-09-02T17:57:50.411Z</time>
      </trkpt>
      <trkpt lat="44.66948" lon="5.14931">
        <ele>572</ele>
        <time>2026-09-02T17:57:51.411Z</time>
      </trkpt>
      <trkpt lat="44.66949" lon="5.14931">
        <ele>572</ele>
        <time>2026-09-02T17:57:52.411Z</time>
      </trkpt>
      <trkpt lat="44.6695" lon="5.14931">
        <ele>572</ele>
        <time>2026-09-02T17:57:53.411Z</time>
      </trkpt>
      <trkpt lat="44.66951" lon="5.14932">
        <ele>572</ele>
        <time>2026-09-02T17:57:54.411Z</time>
      </trkpt>
      <trkpt lat="44.66952" lon="5.14932">
        <ele>572</ele>
        <time>2026-09-02T17:57:55.411Z</time>
      </trkpt>
      <trkpt lat="44.66953" lon="5.14932">
        <ele>572</ele>
        <time>2026-09-02T17:57:56.411Z</time>
      </trkpt>
      <trkpt lat="44.66954" lon="5.14933">
        <ele>572</ele>
        <time>2026-09-02T17:57:57.411Z</time>
      </trkpt>
      <trkpt lat="44.66955" lon="5.14933">
        <ele>572</ele>
        <time>2026-09-02T17:57:58.411Z</time>
      </trkpt>
      <trkpt lat="44.66956" lon="5.14934">
        <ele>572</ele>
        <time>2026-09-02T17:57:59.411Z</time>
      </trkpt>
      <trkpt lat="44.66956" lon="5.14934">
        <ele>572</ele>
        <time>2026-09-02T17:58:00.411Z</time>
      </trkpt>
      <trkpt lat="44.66957" lon="5.14935">
        <ele>572</ele>
        <time>2026-09-02T17:58:01.411Z</time>
      </trkpt>
      <trkpt lat="44.66958" lon="5.14935">
        <ele>573</ele>
        <time>2026-09-02T17:58:02.411Z</time>
      </trkpt>
      <trkpt lat="44.66959" lon="5.14936">
        <ele>573</ele>
        <time>2026-09-02T17:58:03.411Z</time>
      </trkpt>
      <trkpt lat="44.6696" lon="5.14936">
        <ele>573</ele>
        <time>2026-09-02T17:58:04.411Z</time>
      </trkpt>
      <trkpt lat="44.66961" lon="5.14937">
        <ele>573</ele>
        <time>2026-09-02T17:58:05.411Z</time>
      </trkpt>
      <trkpt lat="44.66961" lon="5.14937">
        <ele>573</ele>
        <time>2026-09-02T17:58:06.411Z</time>
      </trkpt>
      <trkpt lat="44.66962" lon="5.14937">
        <ele>573</ele>
        <time>2026-09-02T17:58:07.411Z</time>
      </trkpt>
      <trkpt lat="44.66963" lon="5.14937">
        <ele>573</ele>
        <time>2026-09-02T17:58:08.411Z</time>
      </trkpt>
      <trkpt lat="44.66964" lon="5.14938">
        <ele>573</ele>
        <time>2026-09-02T17:58:09.411Z</time>
      </trkpt>
      <trkpt lat="44.66965" lon="5.14938">
        <ele>573</ele>
        <time>2026-09-02T17:58:10.411Z</time>
      </trkpt>
      <trkpt lat="44.66966" lon="5.14938">
        <ele>573</ele>
        <time>2026-09-02T17:58:11.411Z</time>
      </trkpt>
      <trkpt lat="44.66967" lon="5.14938">
        <ele>573</ele>
        <time>2026-09-02T17:58:12.411Z</time>
      </trkpt>
      <trkpt lat="44.66968" lon="5.14939">
        <ele>573</ele>
        <time>2026-09-02T17:58:13.411Z</time>
      </trkpt>
      <trkpt lat="44.66969" lon="5.14939">
        <ele>573</ele>
        <time>2026-09-02T17:58:14.411Z</time>
      </trkpt>
      <trkpt lat="44.66971" lon="5.14939">
        <ele>573</ele>
        <time>2026-09-02T17:58:15.411Z</time>
      </trkpt>
      <trkpt lat="44.66972" lon="5.14939">
        <ele>573</ele>
        <time>2026-09-02T17:58:16.411Z</time>
      </trkpt>
      <trkpt lat="44.66973" lon="5.1494">
        <ele>573</ele>
        <time>2026-09-02T17:58:17.411Z</time>
      </trkpt>
      <trkpt lat="44.66974" lon="5.14941">
        <ele>573</ele>
        <time>2026-09-02T17:58:18.411Z</time>
      </trkpt>
      <trkpt lat="44.66976" lon="5.14942">
        <ele>573</ele>
        <time>2026-09-02T17:58:19.411Z</time>
      </trkpt>
      <trkpt lat="44.66977" lon="5.14942">
        <ele>572</ele>
        <time>2026-09-02T17:58:20.411Z</time>
      </trkpt>
      <trkpt lat="44.66978" lon="5.14943">
        <ele>572</ele>
        <time>2026-09-02T17:58:21.411Z</time>
      </trkpt>
      <trkpt lat="44.6698" lon="5.14943">
        <ele>572</ele>
        <time>2026-09-02T17:58:22.411Z</time>
      </trkpt>
      <trkpt lat="44.66981" lon="5.14944">
        <ele>572</ele>
        <time>2026-09-02T17:58:23.411Z</time>
      </trkpt>
      <trkpt lat="44.66983" lon="5.14945">
        <ele>571</ele>
        <time>2026-09-02T17:58:24.411Z</time>
      </trkpt>
      <trkpt lat="44.66984" lon="5.14945">
        <ele>571</ele>
        <time>2026-09-02T17:58:25.411Z</time>
      </trkpt>
      <trkpt lat="44.66986" lon="5.14946">
        <ele>571</ele>
        <time>2026-09-02T17:58:26.411Z</time>
      </trkpt>
      <trkpt lat="44.66987" lon="5.14947">
        <ele>570</ele>
        <time>2026-09-02T17:58:27.411Z</time>
      </trkpt>
      <trkpt lat="44.66988" lon="5.14947">
        <ele>570</ele>
        <time>2026-09-02T17:58:28.411Z</time>
      </trkpt>
      <trkpt lat="44.66989" lon="5.14948">
        <ele>570</ele>
        <time>2026-09-02T17:58:29.411Z</time>
      </trkpt>
      <trkpt lat="44.6699" lon="5.14948">
        <ele>570</ele>
        <time>2026-09-02T17:58:30.411Z</time>
      </trkpt>
      <trkpt lat="44.66991" lon="5.14949">
        <ele>570</ele>
        <time>2026-09-02T17:58:31.411Z</time>
      </trkpt>
      <trkpt lat="44.66992" lon="5.1495">
        <ele>569</ele>
        <time>2026-09-02T17:58:32.411Z</time>
      </trkpt>
      <trkpt lat="44.66994" lon="5.14949">
        <ele>569</ele>
        <time>2026-09-02T17:58:33.411Z</time>
      </trkpt>
      <trkpt lat="44.66996" lon="5.14949">
        <ele>569</ele>
        <time>2026-09-02T17:58:34.411Z</time>
      </trkpt>
      <trkpt lat="44.66998" lon="5.14949">
        <ele>569</ele>
        <time>2026-09-02T17:58:35.411Z</time>
      </trkpt>
      <trkpt lat="44.67" lon="5.1495">
        <ele>568</ele>
        <time>2026-09-02T17:58:36.411Z</time>
      </trkpt>
      <trkpt lat="44.67002" lon="5.1495">
        <ele>568</ele>
        <time>2026-09-02T17:58:37.411Z</time>
      </trkpt>
      <trkpt lat="44.67004" lon="5.1495">
        <ele>568</ele>
        <time>2026-09-02T17:58:38.411Z</time>
      </trkpt>
      <trkpt lat="44.67006" lon="5.1495">
        <ele>568</ele>
        <time>2026-09-02T17:58:39.411Z</time>
      </trkpt>
      <trkpt lat="44.67008" lon="5.14951">
        <ele>568</ele>
        <time>2026-09-02T17:58:40.411Z</time>
      </trkpt>
      <trkpt lat="44.67009" lon="5.14951">
        <ele>568</ele>
        <time>2026-09-02T17:58:41.411Z</time>
      </trkpt>
      <trkpt lat="44.67011" lon="5.14952">
        <ele>568</ele>
        <time>2026-09-02T17:58:42.411Z</time>
      </trkpt>
      <trkpt lat="44.67012" lon="5.14952">
        <ele>567</ele>
        <time>2026-09-02T17:58:43.411Z</time>
      </trkpt>
      <trkpt lat="44.67014" lon="5.14953">
        <ele>567</ele>
        <time>2026-09-02T17:58:44.411Z</time>
      </trkpt>
      <trkpt lat="44.67015" lon="5.14953">
        <ele>567</ele>
        <time>2026-09-02T17:58:45.411Z</time>
      </trkpt>
      <trkpt lat="44.67016" lon="5.14954">
        <ele>567</ele>
        <time>2026-09-02T17:58:46.411Z</time>
      </trkpt>
      <trkpt lat="44.67018" lon="5.14955">
        <ele>567</ele>
        <time>2026-09-02T17:58:47.411Z</time>
      </trkpt>
      <trkpt lat="44.67019" lon="5.14956">
        <ele>567</ele>
        <time>2026-09-02T17:58:48.411Z</time>
      </trkpt>
      <trkpt lat="44.6702" lon="5.14956">
        <ele>567</ele>
        <time>2026-09-02T17:58:49.411Z</time>
      </trkpt>
      <trkpt lat="44.67021" lon="5.14957">
        <ele>567</ele>
        <time>2026-09-02T17:58:50.411Z</time>
      </trkpt>
      <trkpt lat="44.67021" lon="5.14958">
        <ele>567</ele>
        <time>2026-09-02T17:58:51.411Z</time>
      </trkpt>
      <trkpt lat="44.67022" lon="5.14959">
        <ele>567</ele>
        <time>2026-09-02T17:58:52.411Z</time>
      </trkpt>
      <trkpt lat="44.67022" lon="5.1496">
        <ele>567</ele>
        <time>2026-09-02T17:58:53.411Z</time>
      </trkpt>
      <trkpt lat="44.67023" lon="5.14961">
        <ele>567</ele>
        <time>2026-09-02T17:58:54.411Z</time>
      </trkpt>
      <trkpt lat="44.67024" lon="5.14962">
        <ele>567</ele>
        <time>2026-09-02T17:58:55.411Z</time>
      </trkpt>
      <trkpt lat="44.67024" lon="5.14963">
        <ele>567</ele>
        <time>2026-09-02T17:58:56.411Z</time>
      </trkpt>
      <trkpt lat="44.67025" lon="5.14963">
        <ele>567</ele>
        <time>2026-09-02T17:58:57.411Z</time>
      </trkpt>
      <trkpt lat="44.67025" lon="5.14963">
        <ele>567</ele>
        <time>2026-09-02T17:58:58.411Z</time>
      </trkpt>
      <trkpt lat="44.67026" lon="5.14964">
        <ele>567</ele>
        <time>2026-09-02T17:58:59.411Z</time>
      </trkpt>
      <trkpt lat="44.67027" lon="5.14965">
        <ele>567</ele>
        <time>2026-09-02T17:59:00.411Z</time>
      </trkpt>
      <trkpt lat="44.67028" lon="5.14965">
        <ele>567</ele>
        <time>2026-09-02T17:59:01.411Z</time>
      </trkpt>
      <trkpt lat="44.67028" lon="5.14966">
        <ele>567</ele>
        <time>2026-09-02T17:59:02.411Z</time>
      </trkpt>
      <trkpt lat="44.67029" lon="5.14966">
        <ele>567</ele>
        <time>2026-09-02T17:59:03.411Z</time>
      </trkpt>
      <trkpt lat="44.67029" lon="5.14967">
        <ele>567</ele>
        <time>2026-09-02T17:59:04.411Z</time>
      </trkpt>
      <trkpt lat="44.6703" lon="5.14968">
        <ele>567</ele>
        <time>2026-09-02T17:59:05.411Z</time>
      </trkpt>
      <trkpt lat="44.6703" lon="5.14969">
        <ele>567</ele>
        <time>2026-09-02T17:59:06.411Z</time>
      </trkpt>
      <trkpt lat="44.67031" lon="5.14969">
        <ele>567</ele>
        <time>2026-09-02T17:59:07.411Z</time>
      </trkpt>
      <trkpt lat="44.67031" lon="5.1497">
        <ele>567</ele>
        <time>2026-09-02T17:59:08.411Z</time>
      </trkpt>
      <trkpt lat="44.67032" lon="5.14971">
        <ele>567</ele>
        <time>2026-09-02T17:59:09.411Z</time>
      </trkpt>
      <trkpt lat="44.67032" lon="5.14971">
        <ele>567</ele>
        <time>2026-09-02T17:59:10.411Z</time>
      </trkpt>
      <trkpt lat="44.67033" lon="5.14972">
        <ele>567</ele>
        <time>2026-09-02T17:59:11.411Z</time>
      </trkpt>
      <trkpt lat="44.67033" lon="5.14973">
        <ele>567</ele>
        <time>2026-09-02T17:59:12.411Z</time>
      </trkpt>
      <trkpt lat="44.67034" lon="5.14973">
        <ele>567</ele>
        <time>2026-09-02T17:59:13.411Z</time>
      </trkpt>
      <trkpt lat="44.67034" lon="5.14973">
        <ele>567</ele>
        <time>2026-09-02T17:59:14.411Z</time>
      </trkpt>
      <trkpt lat="44.67034" lon="5.14974">
        <ele>567</ele>
        <time>2026-09-02T17:59:15.411Z</time>
      </trkpt>
      <trkpt lat="44.67035" lon="5.14974">
        <ele>567</ele>
        <time>2026-09-02T17:59:16.411Z</time>
      </trkpt>
      <trkpt lat="44.67035" lon="5.14975">
        <ele>568</ele>
        <time>2026-09-02T17:59:17.411Z</time>
      </trkpt>
      <trkpt lat="44.67036" lon="5.14977">
        <ele>568</ele>
        <time>2026-09-02T17:59:18.411Z</time>
      </trkpt>
      <trkpt lat="44.67036" lon="5.14978">
        <ele>568</ele>
        <time>2026-09-02T17:59:19.411Z</time>
      </trkpt>
      <trkpt lat="44.67037" lon="5.14978">
        <ele>568</ele>
        <time>2026-09-02T17:59:20.411Z</time>
      </trkpt>
      <trkpt lat="44.67037" lon="5.14979">
        <ele>568</ele>
        <time>2026-09-02T17:59:21.411Z</time>
      </trkpt>
      <trkpt lat="44.67037" lon="5.14979">
        <ele>568</ele>
        <time>2026-09-02T17:59:22.411Z</time>
      </trkpt>
      <trkpt lat="44.67038" lon="5.1498">
        <ele>568</ele>
        <time>2026-09-02T17:59:23.411Z</time>
      </trkpt>
      <trkpt lat="44.67039" lon="5.14981">
        <ele>568</ele>
        <time>2026-09-02T17:59:24.411Z</time>
      </trkpt>
      <trkpt lat="44.6704" lon="5.14981">
        <ele>568</ele>
        <time>2026-09-02T17:59:25.411Z</time>
      </trkpt>
      <trkpt lat="44.67041" lon="5.14982">
        <ele>568</ele>
        <time>2026-09-02T17:59:26.411Z</time>
      </trkpt>
      <trkpt lat="44.67043" lon="5.14982">
        <ele>568</ele>
        <time>2026-09-02T17:59:27.411Z</time>
      </trkpt>
      <trkpt lat="44.67044" lon="5.14982">
        <ele>568</ele>
        <time>2026-09-02T17:59:28.411Z</time>
      </trkpt>
      <trkpt lat="44.67045" lon="5.14983">
        <ele>568</ele>
        <time>2026-09-02T17:59:29.411Z</time>
      </trkpt>
      <trkpt lat="44.67046" lon="5.14984">
        <ele>568</ele>
        <time>2026-09-02T17:59:30.411Z</time>
      </trkpt>
      <trkpt lat="44.67048" lon="5.14984">
        <ele>568</ele>
        <time>2026-09-02T17:59:31.411Z</time>
      </trkpt>
      <trkpt lat="44.67049" lon="5.14985">
        <ele>568</ele>
        <time>2026-09-02T17:59:32.411Z</time>
      </trkpt>
      <trkpt lat="44.6705" lon="5.14986">
        <ele>568</ele>
        <time>2026-09-02T17:59:33.411Z</time>
      </trkpt>
      <trkpt lat="44.67051" lon="5.14987">
        <ele>568</ele>
        <time>2026-09-02T17:59:34.411Z</time>
      </trkpt>
      <trkpt lat="44.67052" lon="5.14988">
        <ele>567</ele>
        <time>2026-09-02T17:59:35.411Z</time>
      </trkpt>
      <trkpt lat="44.67053" lon="5.14989">
        <ele>567</ele>
        <time>2026-09-02T17:59:36.411Z</time>
      </trkpt>
      <trkpt lat="44.67054" lon="5.1499">
        <ele>567</ele>
        <time>2026-09-02T17:59:37.411Z</time>
      </trkpt>
      <trkpt lat="44.67055" lon="5.1499">
        <ele>567</ele>
        <time>2026-09-02T17:59:38.411Z</time>
      </trkpt>
      <trkpt lat="44.67056" lon="5.14991">
        <ele>567</ele>
        <time>2026-09-02T17:59:39.411Z</time>
      </trkpt>
      <trkpt lat="44.67057" lon="5.14991">
        <ele>566</ele>
        <time>2026-09-02T17:59:40.411Z</time>
      </trkpt>
      <trkpt lat="44.67058" lon="5.14991">
        <ele>566</ele>
        <time>2026-09-02T17:59:41.411Z</time>
      </trkpt>
      <trkpt lat="44.67058" lon="5.14991">
        <ele>566</ele>
        <time>2026-09-02T17:59:42.411Z</time>
      </trkpt>
      <trkpt lat="44.67059" lon="5.14991">
        <ele>566</ele>
        <time>2026-09-02T17:59:43.411Z</time>
      </trkpt>
      <trkpt lat="44.67059" lon="5.14991">
        <ele>566</ele>
        <time>2026-09-02T17:59:44.411Z</time>
      </trkpt>
      <trkpt lat="44.6706" lon="5.1499">
        <ele>566</ele>
        <time>2026-09-02T17:59:45.411Z</time>
      </trkpt>
      <trkpt lat="44.67061" lon="5.1499">
        <ele>565</ele>
        <time>2026-09-02T17:59:46.411Z</time>
      </trkpt>
      <trkpt lat="44.67062" lon="5.14989">
        <ele>565</ele>
        <time>2026-09-02T17:59:47.411Z</time>
      </trkpt>
      <trkpt lat="44.67063" lon="5.14988">
        <ele>565</ele>
        <time>2026-09-02T17:59:48.411Z</time>
      </trkpt>
      <trkpt lat="44.67064" lon="5.14987">
        <ele>565</ele>
        <time>2026-09-02T17:59:49.411Z</time>
      </trkpt>
      <trkpt lat="44.67066" lon="5.14986">
        <ele>565</ele>
        <time>2026-09-02T17:59:50.411Z</time>
      </trkpt>
      <trkpt lat="44.67067" lon="5.14984">
        <ele>565</ele>
        <time>2026-09-02T17:59:51.411Z</time>
      </trkpt>
      <trkpt lat="44.67068" lon="5.14983">
        <ele>565</ele>
        <time>2026-09-02T17:59:52.411Z</time>
      </trkpt>
      <trkpt lat="44.67069" lon="5.14981">
        <ele>564</ele>
        <time>2026-09-02T17:59:53.411Z</time>
      </trkpt>
      <trkpt lat="44.6707" lon="5.1498">
        <ele>564</ele>
        <time>2026-09-02T17:59:54.411Z</time>
      </trkpt>
      <trkpt lat="44.67072" lon="5.14978">
        <ele>564</ele>
        <time>2026-09-02T17:59:55.411Z</time>
      </trkpt>
      <trkpt lat="44.67073" lon="5.14977">
        <ele>564</ele>
        <time>2026-09-02T17:59:56.411Z</time>
      </trkpt>
      <trkpt lat="44.67074" lon="5.14976">
        <ele>564</ele>
        <time>2026-09-02T17:59:57.411Z</time>
      </trkpt>
      <trkpt lat="44.67075" lon="5.14975">
        <ele>564</ele>
        <time>2026-09-02T17:59:58.411Z</time>
      </trkpt>
      <trkpt lat="44.67076" lon="5.14973">
        <ele>564</ele>
        <time>2026-09-02T17:59:59.411Z</time>
      </trkpt>
      <trkpt lat="44.67077" lon="5.14972">
        <ele>564</ele>
        <time>2026-09-02T18:00:00.411Z</time>
      </trkpt>
      <trkpt lat="44.67078" lon="5.14971">
        <ele>564</ele>
        <time>2026-09-02T18:00:01.411Z</time>
      </trkpt>
      <trkpt lat="44.67079" lon="5.1497">
        <ele>564</ele>
        <time>2026-09-02T18:00:02.411Z</time>
      </trkpt>
      <trkpt lat="44.6708" lon="5.14969">
        <ele>564</ele>
        <time>2026-09-02T18:00:03.411Z</time>
      </trkpt>
      <trkpt lat="44.67081" lon="5.14967">
        <ele>564</ele>
        <time>2026-09-02T18:00:04.411Z</time>
      </trkpt>
      <trkpt lat="44.67082" lon="5.14966">
        <ele>563</ele>
        <time>2026-09-02T18:00:05.411Z</time>
      </trkpt>
      <trkpt lat="44.67083" lon="5.14966">
        <ele>563</ele>
        <time>2026-09-02T18:00:06.411Z</time>
      </trkpt>
      <trkpt lat="44.67084" lon="5.14965">
        <ele>563</ele>
        <time>2026-09-02T18:00:07.411Z</time>
      </trkpt>
      <trkpt lat="44.67085" lon="5.14964">
        <ele>563</ele>
        <time>2026-09-02T18:00:08.411Z</time>
      </trkpt>
      <trkpt lat="44.67085" lon="5.14963">
        <ele>563</ele>
        <time>2026-09-02T18:00:09.411Z</time>
      </trkpt>
      <trkpt lat="44.67086" lon="5.14962">
        <ele>563</ele>
        <time>2026-09-02T18:00:10.411Z</time>
      </trkpt>
      <trkpt lat="44.67087" lon="5.14962">
        <ele>563</ele>
        <time>2026-09-02T18:00:11.411Z</time>
      </trkpt>
      <trkpt lat="44.67088" lon="5.14961">
        <ele>563</ele>
        <time>2026-09-02T18:00:12.411Z</time>
      </trkpt>
      <trkpt lat="44.67088" lon="5.1496">
        <ele>563</ele>
        <time>2026-09-02T18:00:13.411Z</time>
      </trkpt>
      <trkpt lat="44.67089" lon="5.1496">
        <ele>563</ele>
        <time>2026-09-02T18:00:14.411Z</time>
      </trkpt>
      <trkpt lat="44.6709" lon="5.14959">
        <ele>563</ele>
        <time>2026-09-02T18:00:15.411Z</time>
      </trkpt>
      <trkpt lat="44.6709" lon="5.14959">
        <ele>563</ele>
        <time>2026-09-02T18:00:16.411Z</time>
      </trkpt>
      <trkpt lat="44.67091" lon="5.14959">
        <ele>563</ele>
        <time>2026-09-02T18:00:17.411Z</time>
      </trkpt>
      <trkpt lat="44.67091" lon="5.14958">
        <ele>563</ele>
        <time>2026-09-02T18:00:18.411Z</time>
      </trkpt>
      <trkpt lat="44.67094" lon="5.14957">
        <ele>563</ele>
        <time>2026-09-02T18:00:23.317Z</time>
      </trkpt>
      <trkpt lat="44.67094" lon="5.14957">
        <ele>563</ele>
        <time>2026-09-02T18:00:24.317Z</time>
      </trkpt>
      <trkpt lat="44.67095" lon="5.14957">
        <ele>563</ele>
        <time>2026-09-02T18:00:25.317Z</time>
      </trkpt>
      <trkpt lat="44.67097" lon="5.14957">
        <ele>562</ele>
        <time>2026-09-02T18:00:26.317Z</time>
      </trkpt>
      <trkpt lat="44.67098" lon="5.14958">
        <ele>562</ele>
        <time>2026-09-02T18:00:27.317Z</time>
      </trkpt>
      <trkpt lat="44.67099" lon="5.14957">
        <ele>562</ele>
        <time>2026-09-02T18:00:28.317Z</time>
      </trkpt>
      <trkpt lat="44.671" lon="5.14957">
        <ele>562</ele>
        <time>2026-09-02T18:00:29.317Z</time>
      </trkpt>
      <trkpt lat="44.67101" lon="5.14957">
        <ele>562</ele>
        <time>2026-09-02T18:00:30.317Z</time>
      </trkpt>
      <trkpt lat="44.67102" lon="5.14957">
        <ele>562</ele>
        <time>2026-09-02T18:00:31.317Z</time>
      </trkpt>
      <trkpt lat="44.67103" lon="5.14957">
        <ele>562</ele>
        <time>2026-09-02T18:00:32.317Z</time>
      </trkpt>
      <trkpt lat="44.67104" lon="5.14956">
        <ele>562</ele>
        <time>2026-09-02T18:00:33.317Z</time>
      </trkpt>
      <trkpt lat="44.67105" lon="5.14956">
        <ele>561</ele>
        <time>2026-09-02T18:00:34.317Z</time>
      </trkpt>
      <trkpt lat="44.67106" lon="5.14955">
        <ele>561</ele>
        <time>2026-09-02T18:00:35.317Z</time>
      </trkpt>
      <trkpt lat="44.67107" lon="5.14955">
        <ele>561</ele>
        <time>2026-09-02T18:00:36.317Z</time>
      </trkpt>
      <trkpt lat="44.67109" lon="5.14955">
        <ele>561</ele>
        <time>2026-09-02T18:00:37.317Z</time>
      </trkpt>
      <trkpt lat="44.67109" lon="5.14955">
        <ele>561</ele>
        <time>2026-09-02T18:00:38.317Z</time>
      </trkpt>
      <trkpt lat="44.6711" lon="5.14954">
        <ele>561</ele>
        <time>2026-09-02T18:00:39.317Z</time>
      </trkpt>
      <trkpt lat="44.67111" lon="5.14954">
        <ele>561</ele>
        <time>2026-09-02T18:00:40.317Z</time>
      </trkpt>
      <trkpt lat="44.67113" lon="5.14953">
        <ele>561</ele>
        <time>2026-09-02T18:00:41.317Z</time>
      </trkpt>
      <trkpt lat="44.67114" lon="5.14952">
        <ele>561</ele>
        <time>2026-09-02T18:00:42.317Z</time>
      </trkpt>
      <trkpt lat="44.67115" lon="5.14951">
        <ele>561</ele>
        <time>2026-09-02T18:00:43.317Z</time>
      </trkpt>
      <trkpt lat="44.67116" lon="5.1495">
        <ele>561</ele>
        <time>2026-09-02T18:00:44.317Z</time>
      </trkpt>
      <trkpt lat="44.67117" lon="5.14949">
        <ele>561</ele>
        <time>2026-09-02T18:00:45.317Z</time>
      </trkpt>
      <trkpt lat="44.67118" lon="5.14948">
        <ele>561</ele>
        <time>2026-09-02T18:00:46.317Z</time>
      </trkpt>
      <trkpt lat="44.67119" lon="5.14946">
        <ele>561</ele>
        <time>2026-09-02T18:00:47.317Z</time>
      </trkpt>
      <trkpt lat="44.6712" lon="5.14946">
        <ele>561</ele>
        <time>2026-09-02T18:00:48.317Z</time>
      </trkpt>
      <trkpt lat="44.67121" lon="5.14945">
        <ele>560</ele>
        <time>2026-09-02T18:00:49.317Z</time>
      </trkpt>
      <trkpt lat="44.67121" lon="5.14943">
        <ele>560</ele>
        <time>2026-09-02T18:00:50.317Z</time>
      </trkpt>
      <trkpt lat="44.67123" lon="5.14942">
        <ele>560</ele>
        <time>2026-09-02T18:00:51.317Z</time>
      </trkpt>
      <trkpt lat="44.67124" lon="5.14941">
        <ele>560</ele>
        <time>2026-09-02T18:00:52.317Z</time>
      </trkpt>
      <trkpt lat="44.67124" lon="5.1494">
        <ele>560</ele>
        <time>2026-09-02T18:00:53.317Z</time>
      </trkpt>
      <trkpt lat="44.67125" lon="5.14939">
        <ele>560</ele>
        <time>2026-09-02T18:00:54.317Z</time>
      </trkpt>
      <trkpt lat="44.67126" lon="5.14938">
        <ele>560</ele>
        <time>2026-09-02T18:00:55.317Z</time>
      </trkpt>
      <trkpt lat="44.67127" lon="5.14936">
        <ele>560</ele>
        <time>2026-09-02T18:00:56.317Z</time>
      </trkpt>
      <trkpt lat="44.67128" lon="5.14935">
        <ele>560</ele>
        <time>2026-09-02T18:00:57.317Z</time>
      </trkpt>
      <trkpt lat="44.67129" lon="5.14934">
        <ele>560</ele>
        <time>2026-09-02T18:00:58.317Z</time>
      </trkpt>
      <trkpt lat="44.6713" lon="5.14932">
        <ele>560</ele>
        <time>2026-09-02T18:00:59.317Z</time>
      </trkpt>
      <trkpt lat="44.67131" lon="5.14931">
        <ele>560</ele>
        <time>2026-09-02T18:01:00.317Z</time>
      </trkpt>
      <trkpt lat="44.67131" lon="5.14929">
        <ele>560</ele>
        <time>2026-09-02T18:01:01.317Z</time>
      </trkpt>
      <trkpt lat="44.67132" lon="5.14928">
        <ele>560</ele>
        <time>2026-09-02T18:01:02.317Z</time>
      </trkpt>
      <trkpt lat="44.67133" lon="5.14927">
        <ele>560</ele>
        <time>2026-09-02T18:01:03.317Z</time>
      </trkpt>
      <trkpt lat="44.67134" lon="5.14926">
        <ele>560</ele>
        <time>2026-09-02T18:01:04.317Z</time>
      </trkpt>
      <trkpt lat="44.67135" lon="5.14925">
        <ele>560</ele>
        <time>2026-09-02T18:01:05.317Z</time>
      </trkpt>
      <trkpt lat="44.67135" lon="5.14924">
        <ele>560</ele>
        <time>2026-09-02T18:01:06.317Z</time>
      </trkpt>
      <trkpt lat="44.67136" lon="5.14922">
        <ele>559</ele>
        <time>2026-09-02T18:01:07.317Z</time>
      </trkpt>
      <trkpt lat="44.67137" lon="5.14921">
        <ele>559</ele>
        <time>2026-09-02T18:01:08.317Z</time>
      </trkpt>
      <trkpt lat="44.67137" lon="5.1492">
        <ele>559</ele>
        <time>2026-09-02T18:01:09.317Z</time>
      </trkpt>
      <trkpt lat="44.67138" lon="5.14919">
        <ele>559</ele>
        <time>2026-09-02T18:01:10.317Z</time>
      </trkpt>
      <trkpt lat="44.67139" lon="5.14918">
        <ele>559</ele>
        <time>2026-09-02T18:01:11.317Z</time>
      </trkpt>
      <trkpt lat="44.67139" lon="5.14916">
        <ele>559</ele>
        <time>2026-09-02T18:01:12.317Z</time>
      </trkpt>
      <trkpt lat="44.6714" lon="5.14915">
        <ele>559</ele>
        <time>2026-09-02T18:01:13.317Z</time>
      </trkpt>
      <trkpt lat="44.6714" lon="5.14914">
        <ele>559</ele>
        <time>2026-09-02T18:01:14.317Z</time>
      </trkpt>
      <trkpt lat="44.67141" lon="5.14914">
        <ele>559</ele>
        <time>2026-09-02T18:01:15.317Z</time>
      </trkpt>
      <trkpt lat="44.67142" lon="5.14913">
        <ele>559</ele>
        <time>2026-09-02T18:01:16.317Z</time>
      </trkpt>
      <trkpt lat="44.67142" lon="5.14912">
        <ele>559</ele>
        <time>2026-09-02T18:01:17.317Z</time>
      </trkpt>
      <trkpt lat="44.67143" lon="5.1491">
        <ele>559</ele>
        <time>2026-09-02T18:01:18.317Z</time>
      </trkpt>
      <trkpt lat="44.67144" lon="5.14909">
        <ele>559</ele>
        <time>2026-09-02T18:01:19.317Z</time>
      </trkpt>
      <trkpt lat="44.67144" lon="5.14908">
        <ele>559</ele>
        <time>2026-09-02T18:01:20.317Z</time>
      </trkpt>
      <trkpt lat="44.67145" lon="5.14907">
        <ele>559</ele>
        <time>2026-09-02T18:01:21.317Z</time>
      </trkpt>
      <trkpt lat="44.67145" lon="5.14907">
        <ele>559</ele>
        <time>2026-09-02T18:01:22.317Z</time>
      </trkpt>
      <trkpt lat="44.67146" lon="5.14906">
        <ele>559</ele>
        <time>2026-09-02T18:01:23.317Z</time>
      </trkpt>
      <trkpt lat="44.67147" lon="5.14905">
        <ele>559</ele>
        <time>2026-09-02T18:01:24.317Z</time>
      </trkpt>
      <trkpt lat="44.67147" lon="5.14905">
        <ele>559</ele>
        <time>2026-09-02T18:01:25.317Z</time>
      </trkpt>
      <trkpt lat="44.67148" lon="5.14904">
        <ele>559</ele>
        <time>2026-09-02T18:01:26.317Z</time>
      </trkpt>
      <trkpt lat="44.67149" lon="5.14903">
        <ele>559</ele>
        <time>2026-09-02T18:01:27.317Z</time>
      </trkpt>
      <trkpt lat="44.67149" lon="5.14902">
        <ele>559</ele>
        <time>2026-09-02T18:01:28.317Z</time>
      </trkpt>
      <trkpt lat="44.6715" lon="5.14901">
        <ele>558</ele>
        <time>2026-09-02T18:01:29.317Z</time>
      </trkpt>
      <trkpt lat="44.67151" lon="5.14901">
        <ele>558</ele>
        <time>2026-09-02T18:01:30.317Z</time>
      </trkpt>
      <trkpt lat="44.67152" lon="5.149">
        <ele>558</ele>
        <time>2026-09-02T18:01:31.317Z</time>
      </trkpt>
      <trkpt lat="44.67153" lon="5.14899">
        <ele>558</ele>
        <time>2026-09-02T18:01:32.317Z</time>
      </trkpt>
      <trkpt lat="44.67154" lon="5.14898">
        <ele>558</ele>
        <time>2026-09-02T18:01:33.317Z</time>
      </trkpt>
      <trkpt lat="44.67154" lon="5.14897">
        <ele>558</ele>
        <time>2026-09-02T18:01:34.317Z</time>
      </trkpt>
      <trkpt lat="44.67155" lon="5.14896">
        <ele>558</ele>
        <time>2026-09-02T18:01:35.317Z</time>
      </trkpt>
      <trkpt lat="44.67156" lon="5.14895">
        <ele>558</ele>
        <time>2026-09-02T18:01:36.317Z</time>
      </trkpt>
      <trkpt lat="44.67157" lon="5.14894">
        <ele>558</ele>
        <time>2026-09-02T18:01:37.317Z</time>
      </trkpt>
      <trkpt lat="44.67158" lon="5.14893">
        <ele>558</ele>
        <time>2026-09-02T18:01:38.317Z</time>
      </trkpt>
      <trkpt lat="44.67159" lon="5.14892">
        <ele>558</ele>
        <time>2026-09-02T18:01:39.317Z</time>
      </trkpt>
      <trkpt lat="44.6716" lon="5.14891">
        <ele>558</ele>
        <time>2026-09-02T18:01:40.317Z</time>
      </trkpt>
      <trkpt lat="44.67161" lon="5.1489">
        <ele>558</ele>
        <time>2026-09-02T18:01:41.317Z</time>
      </trkpt>
      <trkpt lat="44.67162" lon="5.14889">
        <ele>558</ele>
        <time>2026-09-02T18:01:42.317Z</time>
      </trkpt>
      <trkpt lat="44.67163" lon="5.14888">
        <ele>558</ele>
        <time>2026-09-02T18:01:43.317Z</time>
      </trkpt>
      <trkpt lat="44.67164" lon="5.14887">
        <ele>557</ele>
        <time>2026-09-02T18:01:44.317Z</time>
      </trkpt>
      <trkpt lat="44.67165" lon="5.14886">
        <ele>557</ele>
        <time>2026-09-02T18:01:45.317Z</time>
      </trkpt>
      <trkpt lat="44.67165" lon="5.14885">
        <ele>557</ele>
        <time>2026-09-02T18:01:46.317Z</time>
      </trkpt>
      <trkpt lat="44.67166" lon="5.14884">
        <ele>557</ele>
        <time>2026-09-02T18:01:47.317Z</time>
      </trkpt>
      <trkpt lat="44.67167" lon="5.14883">
        <ele>557</ele>
        <time>2026-09-02T18:01:48.317Z</time>
      </trkpt>
      <trkpt lat="44.67168" lon="5.14883">
        <ele>557</ele>
        <time>2026-09-02T18:01:49.317Z</time>
      </trkpt>
      <trkpt lat="44.67169" lon="5.14882">
        <ele>557</ele>
        <time>2026-09-02T18:01:50.317Z</time>
      </trkpt>
      <trkpt lat="44.6717" lon="5.14881">
        <ele>557</ele>
        <time>2026-09-02T18:01:51.317Z</time>
      </trkpt>
      <trkpt lat="44.6717" lon="5.1488">
        <ele>557</ele>
        <time>2026-09-02T18:01:52.317Z</time>
      </trkpt>
      <trkpt lat="44.67171" lon="5.14879">
        <ele>556</ele>
        <time>2026-09-02T18:01:53.317Z</time>
      </trkpt>
      <trkpt lat="44.67172" lon="5.14878">
        <ele>556</ele>
        <time>2026-09-02T18:01:54.317Z</time>
      </trkpt>
      <trkpt lat="44.67173" lon="5.14877">
        <ele>556</ele>
        <time>2026-09-02T18:01:55.317Z</time>
      </trkpt>
      <trkpt lat="44.67173" lon="5.14876">
        <ele>556</ele>
        <time>2026-09-02T18:01:56.317Z</time>
      </trkpt>
      <trkpt lat="44.67174" lon="5.14875">
        <ele>556</ele>
        <time>2026-09-02T18:01:57.317Z</time>
      </trkpt>
      <trkpt lat="44.67175" lon="5.14874">
        <ele>556</ele>
        <time>2026-09-02T18:01:58.317Z</time>
      </trkpt>
      <trkpt lat="44.67175" lon="5.14873">
        <ele>556</ele>
        <time>2026-09-02T18:01:59.317Z</time>
      </trkpt>
      <trkpt lat="44.67176" lon="5.14872">
        <ele>556</ele>
        <time>2026-09-02T18:02:00.317Z</time>
      </trkpt>
      <trkpt lat="44.67176" lon="5.14871">
        <ele>556</ele>
        <time>2026-09-02T18:02:01.317Z</time>
      </trkpt>
      <trkpt lat="44.67177" lon="5.1487">
        <ele>556</ele>
        <time>2026-09-02T18:02:02.317Z</time>
      </trkpt>
      <trkpt lat="44.67178" lon="5.14869">
        <ele>556</ele>
        <time>2026-09-02T18:02:03.317Z</time>
      </trkpt>
      <trkpt lat="44.67179" lon="5.14869">
        <ele>556</ele>
        <time>2026-09-02T18:02:04.317Z</time>
      </trkpt>
      <trkpt lat="44.67179" lon="5.14868">
        <ele>556</ele>
        <time>2026-09-02T18:02:05.317Z</time>
      </trkpt>
      <trkpt lat="44.67181" lon="5.14867">
        <ele>556</ele>
        <time>2026-09-02T18:02:06.317Z</time>
      </trkpt>
      <trkpt lat="44.67182" lon="5.14867">
        <ele>556</ele>
        <time>2026-09-02T18:02:07.317Z</time>
      </trkpt>
      <trkpt lat="44.67183" lon="5.14866">
        <ele>555</ele>
        <time>2026-09-02T18:02:08.317Z</time>
      </trkpt>
      <trkpt lat="44.67184" lon="5.14865">
        <ele>555</ele>
        <time>2026-09-02T18:02:09.317Z</time>
      </trkpt>
      <trkpt lat="44.67185" lon="5.14864">
        <ele>555</ele>
        <time>2026-09-02T18:02:10.317Z</time>
      </trkpt>
      <trkpt lat="44.67186" lon="5.14863">
        <ele>555</ele>
        <time>2026-09-02T18:02:11.317Z</time>
      </trkpt>
      <trkpt lat="44.67187" lon="5.14862">
        <ele>555</ele>
        <time>2026-09-02T18:02:12.317Z</time>
      </trkpt>
      <trkpt lat="44.67188" lon="5.14862">
        <ele>555</ele>
        <time>2026-09-02T18:02:13.317Z</time>
      </trkpt>
      <trkpt lat="44.67189" lon="5.14861">
        <ele>554</ele>
        <time>2026-09-02T18:02:14.317Z</time>
      </trkpt>
      <trkpt lat="44.6719" lon="5.1486">
        <ele>554</ele>
        <time>2026-09-02T18:02:15.317Z</time>
      </trkpt>
      <trkpt lat="44.67191" lon="5.1486">
        <ele>554</ele>
        <time>2026-09-02T18:02:16.317Z</time>
      </trkpt>
      <trkpt lat="44.67192" lon="5.14859">
        <ele>554</ele>
        <time>2026-09-02T18:02:17.317Z</time>
      </trkpt>
      <trkpt lat="44.67193" lon="5.14858">
        <ele>554</ele>
        <time>2026-09-02T18:02:18.317Z</time>
      </trkpt>
      <trkpt lat="44.67194" lon="5.14858">
        <ele>554</ele>
        <time>2026-09-02T18:02:19.317Z</time>
      </trkpt>
      <trkpt lat="44.67194" lon="5.14858">
        <ele>554</ele>
        <time>2026-09-02T18:02:20.317Z</time>
      </trkpt>
      <trkpt lat="44.67195" lon="5.14857">
        <ele>553</ele>
        <time>2026-09-02T18:02:21.317Z</time>
      </trkpt>
      <trkpt lat="44.67195" lon="5.14857">
        <ele>553</ele>
        <time>2026-09-02T18:02:22.317Z</time>
      </trkpt>
      <trkpt lat="44.67196" lon="5.14856">
        <ele>553</ele>
        <time>2026-09-02T18:02:23.317Z</time>
      </trkpt>
      <trkpt lat="44.67197" lon="5.14856">
        <ele>553</ele>
        <time>2026-09-02T18:02:24.317Z</time>
      </trkpt>
      <trkpt lat="44.67198" lon="5.14855">
        <ele>552</ele>
        <time>2026-09-02T18:02:25.317Z</time>
      </trkpt>
      <trkpt lat="44.67199" lon="5.14854">
        <ele>552</ele>
        <time>2026-09-02T18:02:26.317Z</time>
      </trkpt>
      <trkpt lat="44.672" lon="5.14854">
        <ele>552</ele>
        <time>2026-09-02T18:02:27.317Z</time>
      </trkpt>
      <trkpt lat="44.67201" lon="5.14853">
        <ele>552</ele>
        <time>2026-09-02T18:02:28.317Z</time>
      </trkpt>
      <trkpt lat="44.67202" lon="5.14852">
        <ele>552</ele>
        <time>2026-09-02T18:02:29.317Z</time>
      </trkpt>
      <trkpt lat="44.67203" lon="5.14852">
        <ele>551</ele>
        <time>2026-09-02T18:02:30.317Z</time>
      </trkpt>
      <trkpt lat="44.67204" lon="5.14851">
        <ele>551</ele>
        <time>2026-09-02T18:02:31.317Z</time>
      </trkpt>
      <trkpt lat="44.67204" lon="5.14851">
        <ele>551</ele>
        <time>2026-09-02T18:02:32.317Z</time>
      </trkpt>
      <trkpt lat="44.67204" lon="5.1485">
        <ele>551</ele>
        <time>2026-09-02T18:02:33.317Z</time>
      </trkpt>
      <trkpt lat="44.67205" lon="5.14849">
        <ele>550</ele>
        <time>2026-09-02T18:02:34.317Z</time>
      </trkpt>
      <trkpt lat="44.67205" lon="5.14849">
        <ele>550</ele>
        <time>2026-09-02T18:02:35.317Z</time>
      </trkpt>
      <trkpt lat="44.67206" lon="5.14848">
        <ele>550</ele>
        <time>2026-09-02T18:02:36.317Z</time>
      </trkpt>
      <trkpt lat="44.67206" lon="5.14848">
        <ele>550</ele>
        <time>2026-09-02T18:02:37.317Z</time>
      </trkpt>
      <trkpt lat="44.67207" lon="5.14847">
        <ele>550</ele>
        <time>2026-09-02T18:02:38.317Z</time>
      </trkpt>
      <trkpt lat="44.67208" lon="5.14847">
        <ele>550</ele>
        <time>2026-09-02T18:02:39.317Z</time>
      </trkpt>
      <trkpt lat="44.67208" lon="5.14846">
        <ele>550</ele>
        <time>2026-09-02T18:02:40.317Z</time>
      </trkpt>
      <trkpt lat="44.67209" lon="5.14846">
        <ele>549</ele>
        <time>2026-09-02T18:02:41.317Z</time>
      </trkpt>
      <trkpt lat="44.6721" lon="5.14845">
        <ele>549</ele>
        <time>2026-09-02T18:02:42.317Z</time>
      </trkpt>
      <trkpt lat="44.6721" lon="5.14845">
        <ele>549</ele>
        <time>2026-09-02T18:02:43.317Z</time>
      </trkpt>
      <trkpt lat="44.67211" lon="5.14844">
        <ele>549</ele>
        <time>2026-09-02T18:02:44.317Z</time>
      </trkpt>
      <trkpt lat="44.67212" lon="5.14844">
        <ele>548</ele>
        <time>2026-09-02T18:02:45.317Z</time>
      </trkpt>
      <trkpt lat="44.67212" lon="5.14843">
        <ele>548</ele>
        <time>2026-09-02T18:02:46.317Z</time>
      </trkpt>
      <trkpt lat="44.67213" lon="5.14843">
        <ele>547</ele>
        <time>2026-09-02T18:02:47.317Z</time>
      </trkpt>
      <trkpt lat="44.67214" lon="5.14844">
        <ele>547</ele>
        <time>2026-09-02T18:02:48.317Z</time>
      </trkpt>
      <trkpt lat="44.67214" lon="5.14844">
        <ele>547</ele>
        <time>2026-09-02T18:02:49.317Z</time>
      </trkpt>
      <trkpt lat="44.67216" lon="5.14844">
        <ele>546</ele>
        <time>2026-09-02T18:02:52.618Z</time>
      </trkpt>
      <trkpt lat="44.67217" lon="5.14845">
        <ele>546</ele>
        <time>2026-09-02T18:02:53.618Z</time>
      </trkpt>
      <trkpt lat="44.67218" lon="5.14845">
        <ele>545</ele>
        <time>2026-09-02T18:02:54.618Z</time>
      </trkpt>
      <trkpt lat="44.67219" lon="5.14845">
        <ele>545</ele>
        <time>2026-09-02T18:02:55.618Z</time>
      </trkpt>
      <trkpt lat="44.67221" lon="5.14846">
        <ele>544</ele>
        <time>2026-09-02T18:02:56.618Z</time>
      </trkpt>
      <trkpt lat="44.67222" lon="5.14846">
        <ele>544</ele>
        <time>2026-09-02T18:02:57.618Z</time>
      </trkpt>
      <trkpt lat="44.67223" lon="5.14847">
        <ele>543</ele>
        <time>2026-09-02T18:02:58.618Z</time>
      </trkpt>
      <trkpt lat="44.67224" lon="5.14848">
        <ele>543</ele>
        <time>2026-09-02T18:02:59.618Z</time>
      </trkpt>
      <trkpt lat="44.67225" lon="5.14848">
        <ele>542</ele>
        <time>2026-09-02T18:03:00.618Z</time>
      </trkpt>
      <trkpt lat="44.67226" lon="5.14849">
        <ele>542</ele>
        <time>2026-09-02T18:03:01.618Z</time>
      </trkpt>
      <trkpt lat="44.67227" lon="5.1485">
        <ele>541</ele>
        <time>2026-09-02T18:03:02.618Z</time>
      </trkpt>
      <trkpt lat="44.67228" lon="5.14852">
        <ele>541</ele>
        <time>2026-09-02T18:03:03.618Z</time>
      </trkpt>
      <trkpt lat="44.67229" lon="5.14853">
        <ele>541</ele>
        <time>2026-09-02T18:03:04.618Z</time>
      </trkpt>
      <trkpt lat="44.67229" lon="5.14854">
        <ele>540</ele>
        <time>2026-09-02T18:03:05.618Z</time>
      </trkpt>
      <trkpt lat="44.6723" lon="5.14855">
        <ele>540</ele>
        <time>2026-09-02T18:03:06.618Z</time>
      </trkpt>
      <trkpt lat="44.67231" lon="5.14856">
        <ele>540</ele>
        <time>2026-09-02T18:03:07.618Z</time>
      </trkpt>
      <trkpt lat="44.67231" lon="5.14857">
        <ele>539</ele>
        <time>2026-09-02T18:03:08.618Z</time>
      </trkpt>
      <trkpt lat="44.67232" lon="5.14858">
        <ele>539</ele>
        <time>2026-09-02T18:03:09.618Z</time>
      </trkpt>
      <trkpt lat="44.67232" lon="5.14859">
        <ele>539</ele>
        <time>2026-09-02T18:03:10.618Z</time>
      </trkpt>
      <trkpt lat="44.67233" lon="5.14861">
        <ele>538</ele>
        <time>2026-09-02T18:03:11.618Z</time>
      </trkpt>
      <trkpt lat="44.67233" lon="5.14862">
        <ele>538</ele>
        <time>2026-09-02T18:03:12.618Z</time>
      </trkpt>
      <trkpt lat="44.67233" lon="5.14863">
        <ele>538</ele>
        <time>2026-09-02T18:03:13.618Z</time>
      </trkpt>
      <trkpt lat="44.67233" lon="5.14865">
        <ele>537</ele>
        <time>2026-09-02T18:03:14.618Z</time>
      </trkpt>
      <trkpt lat="44.67233" lon="5.14866">
        <ele>537</ele>
        <time>2026-09-02T18:03:15.618Z</time>
      </trkpt>
      <trkpt lat="44.67234" lon="5.14867">
        <ele>537</ele>
        <time>2026-09-02T18:03:16.618Z</time>
      </trkpt>
      <trkpt lat="44.67234" lon="5.14869">
        <ele>537</ele>
        <time>2026-09-02T18:03:17.618Z</time>
      </trkpt>
      <trkpt lat="44.67234" lon="5.1487">
        <ele>537</ele>
        <time>2026-09-02T18:03:18.618Z</time>
      </trkpt>
      <trkpt lat="44.67234" lon="5.14871">
        <ele>537</ele>
        <time>2026-09-02T18:03:19.618Z</time>
      </trkpt>
      <trkpt lat="44.67235" lon="5.14873">
        <ele>536</ele>
        <time>2026-09-02T18:03:20.618Z</time>
      </trkpt>
      <trkpt lat="44.67235" lon="5.14874">
        <ele>536</ele>
        <time>2026-09-02T18:03:21.618Z</time>
      </trkpt>
      <trkpt lat="44.67235" lon="5.14875">
        <ele>536</ele>
        <time>2026-09-02T18:03:22.618Z</time>
      </trkpt>
      <trkpt lat="44.67235" lon="5.14876">
        <ele>536</ele>
        <time>2026-09-02T18:03:23.618Z</time>
      </trkpt>
      <trkpt lat="44.67235" lon="5.14878">
        <ele>536</ele>
        <time>2026-09-02T18:03:24.618Z</time>
      </trkpt>
      <trkpt lat="44.67235" lon="5.14879">
        <ele>536</ele>
        <time>2026-09-02T18:03:25.618Z</time>
      </trkpt>
      <trkpt lat="44.67235" lon="5.1488">
        <ele>536</ele>
        <time>2026-09-02T18:03:26.618Z</time>
      </trkpt>
      <trkpt lat="44.67235" lon="5.14881">
        <ele>536</ele>
        <time>2026-09-02T18:03:27.618Z</time>
      </trkpt>
      <trkpt lat="44.67235" lon="5.14883">
        <ele>536</ele>
        <time>2026-09-02T18:03:28.618Z</time>
      </trkpt>
      <trkpt lat="44.67234" lon="5.14884">
        <ele>536</ele>
        <time>2026-09-02T18:03:29.618Z</time>
      </trkpt>
      <trkpt lat="44.67235" lon="5.14885">
        <ele>535</ele>
        <time>2026-09-02T18:03:30.618Z</time>
      </trkpt>
      <trkpt lat="44.67235" lon="5.14886">
        <ele>535</ele>
        <time>2026-09-02T18:03:31.618Z</time>
      </trkpt>
      <trkpt lat="44.67235" lon="5.14887">
        <ele>535</ele>
        <time>2026-09-02T18:03:32.618Z</time>
      </trkpt>
      <trkpt lat="44.67235" lon="5.14889">
        <ele>535</ele>
        <time>2026-09-02T18:03:33.618Z</time>
      </trkpt>
      <trkpt lat="44.67235" lon="5.1489">
        <ele>535</ele>
        <time>2026-09-02T18:03:34.618Z</time>
      </trkpt>
      <trkpt lat="44.67235" lon="5.14891">
        <ele>535</ele>
        <time>2026-09-02T18:03:35.618Z</time>
      </trkpt>
      <trkpt lat="44.67235" lon="5.14892">
        <ele>535</ele>
        <time>2026-09-02T18:03:36.618Z</time>
      </trkpt>
      <trkpt lat="44.67235" lon="5.14893">
        <ele>535</ele>
        <time>2026-09-02T18:03:37.618Z</time>
      </trkpt>
      <trkpt lat="44.67235" lon="5.14895">
        <ele>535</ele>
        <time>2026-09-02T18:03:38.618Z</time>
      </trkpt>
      <trkpt lat="44.67235" lon="5.14896">
        <ele>535</ele>
        <time>2026-09-02T18:03:39.618Z</time>
      </trkpt>
      <trkpt lat="44.67235" lon="5.14897">
        <ele>535</ele>
        <time>2026-09-02T18:03:40.618Z</time>
      </trkpt>
      <trkpt lat="44.67235" lon="5.14898">
        <ele>535</ele>
        <time>2026-09-02T18:03:41.618Z</time>
      </trkpt>
      <trkpt lat="44.67235" lon="5.149">
        <ele>535</ele>
        <time>2026-09-02T18:03:42.618Z</time>
      </trkpt>
      <trkpt lat="44.67235" lon="5.14901">
        <ele>535</ele>
        <time>2026-09-02T18:03:43.618Z</time>
      </trkpt>
      <trkpt lat="44.67235" lon="5.14903">
        <ele>535</ele>
        <time>2026-09-02T18:03:44.618Z</time>
      </trkpt>
      <trkpt lat="44.67235" lon="5.14904">
        <ele>535</ele>
        <time>2026-09-02T18:03:45.618Z</time>
      </trkpt>
      <trkpt lat="44.67234" lon="5.14905">
        <ele>535</ele>
        <time>2026-09-02T18:03:46.618Z</time>
      </trkpt>
      <trkpt lat="44.67235" lon="5.14907">
        <ele>535</ele>
        <time>2026-09-02T18:03:47.618Z</time>
      </trkpt>
      <trkpt lat="44.67235" lon="5.14908">
        <ele>535</ele>
        <time>2026-09-02T18:03:48.618Z</time>
      </trkpt>
      <trkpt lat="44.67235" lon="5.14909">
        <ele>535</ele>
        <time>2026-09-02T18:03:49.618Z</time>
      </trkpt>
      <trkpt lat="44.67235" lon="5.14911">
        <ele>535</ele>
        <time>2026-09-02T18:03:50.618Z</time>
      </trkpt>
      <trkpt lat="44.67235" lon="5.14912">
        <ele>535</ele>
        <time>2026-09-02T18:03:51.618Z</time>
      </trkpt>
      <trkpt lat="44.67234" lon="5.14913">
        <ele>535</ele>
        <time>2026-09-02T18:03:52.618Z</time>
      </trkpt>
      <trkpt lat="44.67234" lon="5.14914">
        <ele>535</ele>
        <time>2026-09-02T18:03:53.618Z</time>
      </trkpt>
      <trkpt lat="44.67234" lon="5.14916">
        <ele>535</ele>
        <time>2026-09-02T18:03:54.618Z</time>
      </trkpt>
      <trkpt lat="44.67234" lon="5.14917">
        <ele>535</ele>
        <time>2026-09-02T18:03:55.618Z</time>
      </trkpt>
      <trkpt lat="44.67235" lon="5.14918">
        <ele>535</ele>
        <time>2026-09-02T18:03:56.618Z</time>
      </trkpt>
      <trkpt lat="44.67234" lon="5.1492">
        <ele>535</ele>
        <time>2026-09-02T18:03:57.618Z</time>
      </trkpt>
      <trkpt lat="44.67234" lon="5.14921">
        <ele>535</ele>
        <time>2026-09-02T18:03:58.618Z</time>
      </trkpt>
      <trkpt lat="44.67234" lon="5.14922">
        <ele>535</ele>
        <time>2026-09-02T18:03:59.618Z</time>
      </trkpt>
      <trkpt lat="44.67234" lon="5.14923">
        <ele>535</ele>
        <time>2026-09-02T18:04:00.618Z</time>
      </trkpt>
      <trkpt lat="44.67235" lon="5.14925">
        <ele>535</ele>
        <time>2026-09-02T18:04:01.618Z</time>
      </trkpt>
      <trkpt lat="44.67235" lon="5.14926">
        <ele>535</ele>
        <time>2026-09-02T18:04:02.618Z</time>
      </trkpt>
      <trkpt lat="44.67235" lon="5.14927">
        <ele>535</ele>
        <time>2026-09-02T18:04:03.618Z</time>
      </trkpt>
      <trkpt lat="44.67234" lon="5.14929">
        <ele>535</ele>
        <time>2026-09-02T18:04:04.618Z</time>
      </trkpt>
      <trkpt lat="44.67234" lon="5.1493">
        <ele>535</ele>
        <time>2026-09-02T18:04:05.618Z</time>
      </trkpt>
      <trkpt lat="44.67234" lon="5.14931">
        <ele>535</ele>
        <time>2026-09-02T18:04:06.618Z</time>
      </trkpt>
      <trkpt lat="44.67234" lon="5.14933">
        <ele>535</ele>
        <time>2026-09-02T18:04:07.618Z</time>
      </trkpt>
      <trkpt lat="44.67234" lon="5.14934">
        <ele>535</ele>
        <time>2026-09-02T18:04:08.618Z</time>
      </trkpt>
      <trkpt lat="44.67234" lon="5.14936">
        <ele>535</ele>
        <time>2026-09-02T18:04:09.618Z</time>
      </trkpt>
      <trkpt lat="44.67234" lon="5.14937">
        <ele>535</ele>
        <time>2026-09-02T18:04:10.618Z</time>
      </trkpt>
      <trkpt lat="44.67234" lon="5.14938">
        <ele>535</ele>
        <time>2026-09-02T18:04:11.618Z</time>
      </trkpt>
      <trkpt lat="44.67234" lon="5.1494">
        <ele>535</ele>
        <time>2026-09-02T18:04:12.618Z</time>
      </trkpt>
      <trkpt lat="44.67234" lon="5.14941">
        <ele>536</ele>
        <time>2026-09-02T18:04:13.618Z</time>
      </trkpt>
      <trkpt lat="44.67234" lon="5.14943">
        <ele>536</ele>
        <time>2026-09-02T18:04:14.618Z</time>
      </trkpt>
      <trkpt lat="44.67234" lon="5.14944">
        <ele>536</ele>
        <time>2026-09-02T18:04:15.618Z</time>
      </trkpt>
      <trkpt lat="44.67234" lon="5.14945">
        <ele>536</ele>
        <time>2026-09-02T18:04:16.618Z</time>
      </trkpt>
      <trkpt lat="44.67234" lon="5.14947">
        <ele>536</ele>
        <time>2026-09-02T18:04:17.618Z</time>
      </trkpt>
      <trkpt lat="44.67234" lon="5.14948">
        <ele>536</ele>
        <time>2026-09-02T18:04:18.618Z</time>
      </trkpt>
      <trkpt lat="44.67233" lon="5.14949">
        <ele>536</ele>
        <time>2026-09-02T18:04:19.618Z</time>
      </trkpt>
      <trkpt lat="44.67233" lon="5.14951">
        <ele>536</ele>
        <time>2026-09-02T18:04:20.618Z</time>
      </trkpt>
      <trkpt lat="44.67233" lon="5.14952">
        <ele>535</ele>
        <time>2026-09-02T18:04:21.618Z</time>
      </trkpt>
      <trkpt lat="44.67233" lon="5.14953">
        <ele>535</ele>
        <time>2026-09-02T18:04:22.618Z</time>
      </trkpt>
      <trkpt lat="44.67233" lon="5.14953">
        <ele>535</ele>
        <time>2026-09-02T18:04:23.618Z</time>
      </trkpt>
      <trkpt lat="44.67233" lon="5.14953">
        <ele>535</ele>
        <time>2026-09-02T18:04:24.618Z</time>
      </trkpt>
      <trkpt lat="44.67233" lon="5.14953">
        <ele>535</ele>
        <time>2026-09-02T18:04:25.618Z</time>
      </trkpt>
      <trkpt lat="44.67233" lon="5.14953">
        <ele>535</ele>
        <time>2026-09-02T18:04:26.618Z</time>
      </trkpt>
      <trkpt lat="44.67233" lon="5.14955">
        <ele>535</ele>
        <time>2026-09-02T18:04:27.618Z</time>
      </trkpt>
      <trkpt lat="44.67234" lon="5.14956">
        <ele>535</ele>
        <time>2026-09-02T18:04:28.618Z</time>
      </trkpt>
      <trkpt lat="44.67234" lon="5.14957">
        <ele>535</ele>
        <time>2026-09-02T18:04:29.618Z</time>
      </trkpt>
      <trkpt lat="44.67234" lon="5.14959">
        <ele>535</ele>
        <time>2026-09-02T18:04:30.618Z</time>
      </trkpt>
      <trkpt lat="44.67234" lon="5.1496">
        <ele>535</ele>
        <time>2026-09-02T18:04:31.618Z</time>
      </trkpt>
      <trkpt lat="44.67234" lon="5.14962">
        <ele>535</ele>
        <time>2026-09-02T18:04:32.618Z</time>
      </trkpt>
      <trkpt lat="44.67233" lon="5.14964">
        <ele>536</ele>
        <time>2026-09-02T18:04:33.618Z</time>
      </trkpt>
      <trkpt lat="44.67233" lon="5.14965">
        <ele>536</ele>
        <time>2026-09-02T18:04:34.618Z</time>
      </trkpt>
      <trkpt lat="44.67233" lon="5.14967">
        <ele>536</ele>
        <time>2026-09-02T18:04:35.618Z</time>
      </trkpt>
      <trkpt lat="44.67233" lon="5.14968">
        <ele>536</ele>
        <time>2026-09-02T18:04:36.618Z</time>
      </trkpt>
      <trkpt lat="44.67233" lon="5.1497">
        <ele>536</ele>
        <time>2026-09-02T18:04:37.618Z</time>
      </trkpt>
      <trkpt lat="44.67232" lon="5.14972">
        <ele>536</ele>
        <time>2026-09-02T18:04:38.618Z</time>
      </trkpt>
      <trkpt lat="44.67232" lon="5.14974">
        <ele>536</ele>
        <time>2026-09-02T18:04:39.618Z</time>
      </trkpt>
      <trkpt lat="44.67232" lon="5.14975">
        <ele>536</ele>
        <time>2026-09-02T18:04:40.618Z</time>
      </trkpt>
      <trkpt lat="44.67231" lon="5.14977">
        <ele>536</ele>
        <time>2026-09-02T18:04:41.618Z</time>
      </trkpt>
      <trkpt lat="44.67231" lon="5.14979">
        <ele>536</ele>
        <time>2026-09-02T18:04:42.618Z</time>
      </trkpt>
      <trkpt lat="44.67231" lon="5.1498">
        <ele>536</ele>
        <time>2026-09-02T18:04:43.618Z</time>
      </trkpt>
      <trkpt lat="44.67231" lon="5.14982">
        <ele>536</ele>
        <time>2026-09-02T18:04:44.618Z</time>
      </trkpt>
      <trkpt lat="44.67231" lon="5.14984">
        <ele>536</ele>
        <time>2026-09-02T18:04:45.618Z</time>
      </trkpt>
      <trkpt lat="44.67231" lon="5.14985">
        <ele>536</ele>
        <time>2026-09-02T18:04:46.618Z</time>
      </trkpt>
      <trkpt lat="44.6723" lon="5.14987">
        <ele>536</ele>
        <time>2026-09-02T18:04:47.618Z</time>
      </trkpt>
      <trkpt lat="44.6723" lon="5.14989">
        <ele>536</ele>
        <time>2026-09-02T18:04:48.618Z</time>
      </trkpt>
      <trkpt lat="44.6723" lon="5.14991">
        <ele>536</ele>
        <time>2026-09-02T18:04:49.618Z</time>
      </trkpt>
      <trkpt lat="44.67229" lon="5.14992">
        <ele>536</ele>
        <time>2026-09-02T18:04:50.618Z</time>
      </trkpt>
      <trkpt lat="44.67229" lon="5.14994">
        <ele>536</ele>
        <time>2026-09-02T18:04:51.618Z</time>
      </trkpt>
      <trkpt lat="44.67229" lon="5.14995">
        <ele>536</ele>
        <time>2026-09-02T18:04:52.618Z</time>
      </trkpt>
      <trkpt lat="44.67229" lon="5.14997">
        <ele>536</ele>
        <time>2026-09-02T18:04:53.618Z</time>
      </trkpt>
      <trkpt lat="44.67228" lon="5.14998">
        <ele>536</ele>
        <time>2026-09-02T18:04:54.618Z</time>
      </trkpt>
      <trkpt lat="44.67228" lon="5.15">
        <ele>536</ele>
        <time>2026-09-02T18:04:55.618Z</time>
      </trkpt>
      <trkpt lat="44.67228" lon="5.15002">
        <ele>536</ele>
        <time>2026-09-02T18:04:56.618Z</time>
      </trkpt>
      <trkpt lat="44.67228" lon="5.15003">
        <ele>536</ele>
        <time>2026-09-02T18:04:57.618Z</time>
      </trkpt>
      <trkpt lat="44.67228" lon="5.15005">
        <ele>536</ele>
        <time>2026-09-02T18:04:58.618Z</time>
      </trkpt>
      <trkpt lat="44.67227" lon="5.15007">
        <ele>536</ele>
        <time>2026-09-02T18:04:59.618Z</time>
      </trkpt>
      <trkpt lat="44.67226" lon="5.15008">
        <ele>536</ele>
        <time>2026-09-02T18:05:00.618Z</time>
      </trkpt>
      <trkpt lat="44.67226" lon="5.1501">
        <ele>536</ele>
        <time>2026-09-02T18:05:01.618Z</time>
      </trkpt>
      <trkpt lat="44.67225" lon="5.15012">
        <ele>536</ele>
        <time>2026-09-02T18:05:02.618Z</time>
      </trkpt>
      <trkpt lat="44.67225" lon="5.15014">
        <ele>536</ele>
        <time>2026-09-02T18:05:03.618Z</time>
      </trkpt>
      <trkpt lat="44.67224" lon="5.15015">
        <ele>536</ele>
        <time>2026-09-02T18:05:04.618Z</time>
      </trkpt>
      <trkpt lat="44.67224" lon="5.15017">
        <ele>536</ele>
        <time>2026-09-02T18:05:05.618Z</time>
      </trkpt>
      <trkpt lat="44.67223" lon="5.15018">
        <ele>536</ele>
        <time>2026-09-02T18:05:06.618Z</time>
      </trkpt>
      <trkpt lat="44.67223" lon="5.1502">
        <ele>536</ele>
        <time>2026-09-02T18:05:07.618Z</time>
      </trkpt>
      <trkpt lat="44.67223" lon="5.15021">
        <ele>536</ele>
        <time>2026-09-02T18:05:08.618Z</time>
      </trkpt>
      <trkpt lat="44.67223" lon="5.15023">
        <ele>536</ele>
        <time>2026-09-02T18:05:09.618Z</time>
      </trkpt>
      <trkpt lat="44.67223" lon="5.15024">
        <ele>536</ele>
        <time>2026-09-02T18:05:10.618Z</time>
      </trkpt>
      <trkpt lat="44.67223" lon="5.15026">
        <ele>536</ele>
        <time>2026-09-02T18:05:11.618Z</time>
      </trkpt>
      <trkpt lat="44.67222" lon="5.15027">
        <ele>536</ele>
        <time>2026-09-02T18:05:12.618Z</time>
      </trkpt>
      <trkpt lat="44.67222" lon="5.15028">
        <ele>536</ele>
        <time>2026-09-02T18:05:13.618Z</time>
      </trkpt>
      <trkpt lat="44.67222" lon="5.1503">
        <ele>536</ele>
        <time>2026-09-02T18:05:14.618Z</time>
      </trkpt>
      <trkpt lat="44.67222" lon="5.15031">
        <ele>536</ele>
        <time>2026-09-02T18:05:15.618Z</time>
      </trkpt>
      <trkpt lat="44.67222" lon="5.15032">
        <ele>535</ele>
        <time>2026-09-02T18:05:16.618Z</time>
      </trkpt>
      <trkpt lat="44.67222" lon="5.15034">
        <ele>535</ele>
        <time>2026-09-02T18:05:17.618Z</time>
      </trkpt>
      <trkpt lat="44.67222" lon="5.15034">
        <ele>535</ele>
        <time>2026-09-02T18:05:18.618Z</time>
      </trkpt>
      <trkpt lat="44.67222" lon="5.15035">
        <ele>535</ele>
        <time>2026-09-02T18:05:19.618Z</time>
      </trkpt>
      <trkpt lat="44.67223" lon="5.15036">
        <ele>535</ele>
        <time>2026-09-02T18:05:20.618Z</time>
      </trkpt>
      <trkpt lat="44.67223" lon="5.15038">
        <ele>535</ele>
        <time>2026-09-02T18:05:21.618Z</time>
      </trkpt>
      <trkpt lat="44.67223" lon="5.15039">
        <ele>535</ele>
        <time>2026-09-02T18:05:22.618Z</time>
      </trkpt>
      <trkpt lat="44.67222" lon="5.1504">
        <ele>535</ele>
        <time>2026-09-02T18:05:23.618Z</time>
      </trkpt>
      <trkpt lat="44.67223" lon="5.15041">
        <ele>535</ele>
        <time>2026-09-02T18:05:24.618Z</time>
      </trkpt>
      <trkpt lat="44.67222" lon="5.15042">
        <ele>535</ele>
        <time>2026-09-02T18:05:25.618Z</time>
      </trkpt>
      <trkpt lat="44.67222" lon="5.15044">
        <ele>535</ele>
        <time>2026-09-02T18:05:26.618Z</time>
      </trkpt>
      <trkpt lat="44.67222" lon="5.15045">
        <ele>535</ele>
        <time>2026-09-02T18:05:27.618Z</time>
      </trkpt>
      <trkpt lat="44.67222" lon="5.15045">
        <ele>535</ele>
        <time>2026-09-02T18:05:28.618Z</time>
      </trkpt>
      <trkpt lat="44.67222" lon="5.15046">
        <ele>535</ele>
        <time>2026-09-02T18:05:29.618Z</time>
      </trkpt>
      <trkpt lat="44.67222" lon="5.15048">
        <ele>535</ele>
        <time>2026-09-02T18:05:30.618Z</time>
      </trkpt>
      <trkpt lat="44.67222" lon="5.15049">
        <ele>535</ele>
        <time>2026-09-02T18:05:31.618Z</time>
      </trkpt>
      <trkpt lat="44.67222" lon="5.15051">
        <ele>535</ele>
        <time>2026-09-02T18:05:32.618Z</time>
      </trkpt>
      <trkpt lat="44.67222" lon="5.15052">
        <ele>535</ele>
        <time>2026-09-02T18:05:33.618Z</time>
      </trkpt>
      <trkpt lat="44.67222" lon="5.15054">
        <ele>535</ele>
        <time>2026-09-02T18:05:34.618Z</time>
      </trkpt>
      <trkpt lat="44.67222" lon="5.15055">
        <ele>535</ele>
        <time>2026-09-02T18:05:35.618Z</time>
      </trkpt>
      <trkpt lat="44.67222" lon="5.15057">
        <ele>534</ele>
        <time>2026-09-02T18:05:36.618Z</time>
      </trkpt>
      <trkpt lat="44.67221" lon="5.15058">
        <ele>534</ele>
        <time>2026-09-02T18:05:37.618Z</time>
      </trkpt>
      <trkpt lat="44.67221" lon="5.1506">
        <ele>534</ele>
        <time>2026-09-02T18:05:38.618Z</time>
      </trkpt>
      <trkpt lat="44.67221" lon="5.15062">
        <ele>534</ele>
        <time>2026-09-02T18:05:39.618Z</time>
      </trkpt>
      <trkpt lat="44.67221" lon="5.15064">
        <ele>534</ele>
        <time>2026-09-02T18:05:40.618Z</time>
      </trkpt>
      <trkpt lat="44.67221" lon="5.15065">
        <ele>534</ele>
        <time>2026-09-02T18:05:41.618Z</time>
      </trkpt>
      <trkpt lat="44.67221" lon="5.15067">
        <ele>534</ele>
        <time>2026-09-02T18:05:42.618Z</time>
      </trkpt>
      <trkpt lat="44.6722" lon="5.15068">
        <ele>534</ele>
        <time>2026-09-02T18:05:43.618Z</time>
      </trkpt>
      <trkpt lat="44.6722" lon="5.1507">
        <ele>534</ele>
        <time>2026-09-02T18:05:44.618Z</time>
      </trkpt>
      <trkpt lat="44.6722" lon="5.15071">
        <ele>534</ele>
        <time>2026-09-02T18:05:45.618Z</time>
      </trkpt>
      <trkpt lat="44.6722" lon="5.15073">
        <ele>534</ele>
        <time>2026-09-02T18:05:46.618Z</time>
      </trkpt>
      <trkpt lat="44.6722" lon="5.15074">
        <ele>534</ele>
        <time>2026-09-02T18:05:47.618Z</time>
      </trkpt>
      <trkpt lat="44.6722" lon="5.15075">
        <ele>534</ele>
        <time>2026-09-02T18:05:48.618Z</time>
      </trkpt>
      <trkpt lat="44.6722" lon="5.15076">
        <ele>534</ele>
        <time>2026-09-02T18:05:49.618Z</time>
      </trkpt>
      <trkpt lat="44.67219" lon="5.15078">
        <ele>534</ele>
        <time>2026-09-02T18:05:50.618Z</time>
      </trkpt>
      <trkpt lat="44.67219" lon="5.15079">
        <ele>534</ele>
        <time>2026-09-02T18:05:51.618Z</time>
      </trkpt>
      <trkpt lat="44.67219" lon="5.15081">
        <ele>534</ele>
        <time>2026-09-02T18:05:52.618Z</time>
      </trkpt>
      <trkpt lat="44.67219" lon="5.15082">
        <ele>534</ele>
        <time>2026-09-02T18:05:53.618Z</time>
      </trkpt>
      <trkpt lat="44.67219" lon="5.15083">
        <ele>534</ele>
        <time>2026-09-02T18:05:54.618Z</time>
      </trkpt>
      <trkpt lat="44.67219" lon="5.15085">
        <ele>534</ele>
        <time>2026-09-02T18:05:55.618Z</time>
      </trkpt>
      <trkpt lat="44.67219" lon="5.15086">
        <ele>534</ele>
        <time>2026-09-02T18:05:56.618Z</time>
      </trkpt>
      <trkpt lat="44.67219" lon="5.15088">
        <ele>534</ele>
        <time>2026-09-02T18:05:57.618Z</time>
      </trkpt>
      <trkpt lat="44.67218" lon="5.15089">
        <ele>534</ele>
        <time>2026-09-02T18:05:58.618Z</time>
      </trkpt>
      <trkpt lat="44.67218" lon="5.15091">
        <ele>534</ele>
        <time>2026-09-02T18:05:59.618Z</time>
      </trkpt>
      <trkpt lat="44.67218" lon="5.15092">
        <ele>534</ele>
        <time>2026-09-02T18:06:00.618Z</time>
      </trkpt>
      <trkpt lat="44.67217" lon="5.15094">
        <ele>534</ele>
        <time>2026-09-02T18:06:01.618Z</time>
      </trkpt>
      <trkpt lat="44.67217" lon="5.15095">
        <ele>534</ele>
        <time>2026-09-02T18:06:02.618Z</time>
      </trkpt>
      <trkpt lat="44.67217" lon="5.15096">
        <ele>534</ele>
        <time>2026-09-02T18:06:03.618Z</time>
      </trkpt>
      <trkpt lat="44.67217" lon="5.15097">
        <ele>534</ele>
        <time>2026-09-02T18:06:04.618Z</time>
      </trkpt>
      <trkpt lat="44.67216" lon="5.15099">
        <ele>534</ele>
        <time>2026-09-02T18:06:05.618Z</time>
      </trkpt>
      <trkpt lat="44.67216" lon="5.151">
        <ele>533</ele>
        <time>2026-09-02T18:06:06.618Z</time>
      </trkpt>
      <trkpt lat="44.67216" lon="5.15102">
        <ele>533</ele>
        <time>2026-09-02T18:06:07.618Z</time>
      </trkpt>
      <trkpt lat="44.67216" lon="5.15103">
        <ele>533</ele>
        <time>2026-09-02T18:06:08.618Z</time>
      </trkpt>
      <trkpt lat="44.67216" lon="5.15104">
        <ele>533</ele>
        <time>2026-09-02T18:06:09.618Z</time>
      </trkpt>
      <trkpt lat="44.67216" lon="5.15105">
        <ele>533</ele>
        <time>2026-09-02T18:06:10.618Z</time>
      </trkpt>
      <trkpt lat="44.67216" lon="5.15106">
        <ele>533</ele>
        <time>2026-09-02T18:06:11.618Z</time>
      </trkpt>
      <trkpt lat="44.67217" lon="5.15108">
        <ele>533</ele>
        <time>2026-09-02T18:06:12.618Z</time>
      </trkpt>
      <trkpt lat="44.67216" lon="5.15109">
        <ele>533</ele>
        <time>2026-09-02T18:06:13.618Z</time>
      </trkpt>
      <trkpt lat="44.67216" lon="5.1511">
        <ele>533</ele>
        <time>2026-09-02T18:06:14.618Z</time>
      </trkpt>
      <trkpt lat="44.67216" lon="5.15111">
        <ele>533</ele>
        <time>2026-09-02T18:06:15.618Z</time>
      </trkpt>
      <trkpt lat="44.67215" lon="5.15113">
        <ele>533</ele>
        <time>2026-09-02T18:06:16.618Z</time>
      </trkpt>
      <trkpt lat="44.67215" lon="5.15114">
        <ele>533</ele>
        <time>2026-09-02T18:06:17.618Z</time>
      </trkpt>
      <trkpt lat="44.67215" lon="5.15115">
        <ele>533</ele>
        <time>2026-09-02T18:06:18.618Z</time>
      </trkpt>
      <trkpt lat="44.67214" lon="5.15117">
        <ele>532</ele>
        <time>2026-09-02T18:06:19.618Z</time>
      </trkpt>
      <trkpt lat="44.67214" lon="5.15118">
        <ele>532</ele>
        <time>2026-09-02T18:06:20.618Z</time>
      </trkpt>
      <trkpt lat="44.67214" lon="5.15119">
        <ele>532</ele>
        <time>2026-09-02T18:06:21.618Z</time>
      </trkpt>
      <trkpt lat="44.67214" lon="5.15121">
        <ele>532</ele>
        <time>2026-09-02T18:06:22.618Z</time>
      </trkpt>
      <trkpt lat="44.67213" lon="5.15122">
        <ele>532</ele>
        <time>2026-09-02T18:06:23.618Z</time>
      </trkpt>
      <trkpt lat="44.67213" lon="5.15124">
        <ele>533</ele>
        <time>2026-09-02T18:06:24.618Z</time>
      </trkpt>
      <trkpt lat="44.67213" lon="5.15125">
        <ele>533</ele>
        <time>2026-09-02T18:06:25.618Z</time>
      </trkpt>
      <trkpt lat="44.67214" lon="5.15127">
        <ele>532</ele>
        <time>2026-09-02T18:06:26.618Z</time>
      </trkpt>
      <trkpt lat="44.67214" lon="5.15128">
        <ele>532</ele>
        <time>2026-09-02T18:06:27.618Z</time>
      </trkpt>
      <trkpt lat="44.67214" lon="5.15129">
        <ele>532</ele>
        <time>2026-09-02T18:06:28.618Z</time>
      </trkpt>
      <trkpt lat="44.67214" lon="5.15131">
        <ele>532</ele>
        <time>2026-09-02T18:06:29.618Z</time>
      </trkpt>
      <trkpt lat="44.67214" lon="5.15132">
        <ele>532</ele>
        <time>2026-09-02T18:06:30.618Z</time>
      </trkpt>
      <trkpt lat="44.67215" lon="5.15133">
        <ele>532</ele>
        <time>2026-09-02T18:06:31.618Z</time>
      </trkpt>
      <trkpt lat="44.67215" lon="5.15135">
        <ele>532</ele>
        <time>2026-09-02T18:06:32.618Z</time>
      </trkpt>
      <trkpt lat="44.67216" lon="5.15136">
        <ele>532</ele>
        <time>2026-09-02T18:06:33.618Z</time>
      </trkpt>
      <trkpt lat="44.67216" lon="5.15137">
        <ele>532</ele>
        <time>2026-09-02T18:06:34.618Z</time>
      </trkpt>
      <trkpt lat="44.67217" lon="5.15139">
        <ele>532</ele>
        <time>2026-09-02T18:06:35.618Z</time>
      </trkpt>
      <trkpt lat="44.67217" lon="5.1514">
        <ele>532</ele>
        <time>2026-09-02T18:06:36.618Z</time>
      </trkpt>
      <trkpt lat="44.67218" lon="5.15141">
        <ele>532</ele>
        <time>2026-09-02T18:06:37.618Z</time>
      </trkpt>
      <trkpt lat="44.67219" lon="5.15142">
        <ele>532</ele>
        <time>2026-09-02T18:06:38.618Z</time>
      </trkpt>
      <trkpt lat="44.67219" lon="5.15143">
        <ele>532</ele>
        <time>2026-09-02T18:06:39.618Z</time>
      </trkpt>
      <trkpt lat="44.67219" lon="5.15144">
        <ele>532</ele>
        <time>2026-09-02T18:06:40.618Z</time>
      </trkpt>
      <trkpt lat="44.6722" lon="5.15145">
        <ele>532</ele>
        <time>2026-09-02T18:06:41.618Z</time>
      </trkpt>
      <trkpt lat="44.6722" lon="5.15146">
        <ele>532</ele>
        <time>2026-09-02T18:06:42.618Z</time>
      </trkpt>
      <trkpt lat="44.67221" lon="5.15147">
        <ele>532</ele>
        <time>2026-09-02T18:06:43.618Z</time>
      </trkpt>
      <trkpt lat="44.67222" lon="5.15148">
        <ele>532</ele>
        <time>2026-09-02T18:06:44.618Z</time>
      </trkpt>
      <trkpt lat="44.67222" lon="5.1515">
        <ele>532</ele>
        <time>2026-09-02T18:06:45.618Z</time>
      </trkpt>
      <trkpt lat="44.67223" lon="5.15151">
        <ele>532</ele>
        <time>2026-09-02T18:06:46.618Z</time>
      </trkpt>
      <trkpt lat="44.67223" lon="5.15152">
        <ele>532</ele>
        <time>2026-09-02T18:06:47.618Z</time>
      </trkpt>
      <trkpt lat="44.67223" lon="5.15153">
        <ele>532</ele>
        <time>2026-09-02T18:06:48.618Z</time>
      </trkpt>
      <trkpt lat="44.67223" lon="5.15154">
        <ele>532</ele>
        <time>2026-09-02T18:06:49.618Z</time>
      </trkpt>
      <trkpt lat="44.67223" lon="5.15155">
        <ele>531</ele>
        <time>2026-09-02T18:06:50.618Z</time>
      </trkpt>
      <trkpt lat="44.67223" lon="5.15156">
        <ele>531</ele>
        <time>2026-09-02T18:06:51.618Z</time>
      </trkpt>
      <trkpt lat="44.67224" lon="5.15156">
        <ele>531</ele>
        <time>2026-09-02T18:06:52.618Z</time>
      </trkpt>
      <trkpt lat="44.67224" lon="5.15157">
        <ele>531</ele>
        <time>2026-09-02T18:06:53.618Z</time>
      </trkpt>
      <trkpt lat="44.67225" lon="5.15158">
        <ele>531</ele>
        <time>2026-09-02T18:06:54.618Z</time>
      </trkpt>
      <trkpt lat="44.67226" lon="5.15159">
        <ele>531</ele>
        <time>2026-09-02T18:06:55.618Z</time>
      </trkpt>
      <trkpt lat="44.67227" lon="5.1516">
        <ele>531</ele>
        <time>2026-09-02T18:06:56.618Z</time>
      </trkpt>
      <trkpt lat="44.67228" lon="5.15161">
        <ele>531</ele>
        <time>2026-09-02T18:06:57.618Z</time>
      </trkpt>
      <trkpt lat="44.67229" lon="5.15163">
        <ele>531</ele>
        <time>2026-09-02T18:06:58.618Z</time>
      </trkpt>
      <trkpt lat="44.6723" lon="5.15163">
        <ele>531</ele>
        <time>2026-09-02T18:06:59.618Z</time>
      </trkpt>
      <trkpt lat="44.67231" lon="5.15164">
        <ele>531</ele>
        <time>2026-09-02T18:07:00.618Z</time>
      </trkpt>
      <trkpt lat="44.67232" lon="5.15165">
        <ele>531</ele>
        <time>2026-09-02T18:07:01.618Z</time>
      </trkpt>
      <trkpt lat="44.67233" lon="5.15165">
        <ele>531</ele>
        <time>2026-09-02T18:07:02.618Z</time>
      </trkpt>
      <trkpt lat="44.67233" lon="5.15165">
        <ele>531</ele>
        <time>2026-09-02T18:07:03.618Z</time>
      </trkpt>
      <trkpt lat="44.67234" lon="5.15166">
        <ele>531</ele>
        <time>2026-09-02T18:07:04.618Z</time>
      </trkpt>
      <trkpt lat="44.67235" lon="5.15166">
        <ele>531</ele>
        <time>2026-09-02T18:07:05.618Z</time>
      </trkpt>
      <trkpt lat="44.67236" lon="5.15166">
        <ele>530</ele>
        <time>2026-09-02T18:07:06.618Z</time>
      </trkpt>
      <trkpt lat="44.67238" lon="5.15166">
        <ele>530</ele>
        <time>2026-09-02T18:07:07.618Z</time>
      </trkpt>
      <trkpt lat="44.67239" lon="5.15166">
        <ele>530</ele>
        <time>2026-09-02T18:07:08.618Z</time>
      </trkpt>
      <trkpt lat="44.6724" lon="5.15166">
        <ele>530</ele>
        <time>2026-09-02T18:07:09.618Z</time>
      </trkpt>
      <trkpt lat="44.67241" lon="5.15165">
        <ele>530</ele>
        <time>2026-09-02T18:07:10.618Z</time>
      </trkpt>
      <trkpt lat="44.67243" lon="5.15165">
        <ele>530</ele>
        <time>2026-09-02T18:07:11.618Z</time>
      </trkpt>
      <trkpt lat="44.67244" lon="5.15166">
        <ele>530</ele>
        <time>2026-09-02T18:07:12.618Z</time>
      </trkpt>
      <trkpt lat="44.67246" lon="5.15166">
        <ele>530</ele>
        <time>2026-09-02T18:07:13.618Z</time>
      </trkpt>
      <trkpt lat="44.67247" lon="5.15166">
        <ele>530</ele>
        <time>2026-09-02T18:07:14.618Z</time>
      </trkpt>
      <trkpt lat="44.67248" lon="5.15166">
        <ele>529</ele>
        <time>2026-09-02T18:07:15.618Z</time>
      </trkpt>
      <trkpt lat="44.67249" lon="5.15166">
        <ele>529</ele>
        <time>2026-09-02T18:07:16.618Z</time>
      </trkpt>
      <trkpt lat="44.6725" lon="5.15166">
        <ele>529</ele>
        <time>2026-09-02T18:07:17.618Z</time>
      </trkpt>
      <trkpt lat="44.67251" lon="5.15166">
        <ele>529</ele>
        <time>2026-09-02T18:07:18.618Z</time>
      </trkpt>
      <trkpt lat="44.67252" lon="5.15166">
        <ele>529</ele>
        <time>2026-09-02T18:07:19.618Z</time>
      </trkpt>
      <trkpt lat="44.67252" lon="5.15167">
        <ele>528</ele>
        <time>2026-09-02T18:07:20.618Z</time>
      </trkpt>
      <trkpt lat="44.67253" lon="5.15167">
        <ele>528</ele>
        <time>2026-09-02T18:07:21.618Z</time>
      </trkpt>
      <trkpt lat="44.67254" lon="5.15168">
        <ele>528</ele>
        <time>2026-09-02T18:07:22.618Z</time>
      </trkpt>
      <trkpt lat="44.67255" lon="5.15168">
        <ele>527</ele>
        <time>2026-09-02T18:07:23.618Z</time>
      </trkpt>
      <trkpt lat="44.67256" lon="5.15169">
        <ele>527</ele>
        <time>2026-09-02T18:07:24.618Z</time>
      </trkpt>
      <trkpt lat="44.67257" lon="5.1517">
        <ele>526</ele>
        <time>2026-09-02T18:07:25.618Z</time>
      </trkpt>
      <trkpt lat="44.67257" lon="5.15171">
        <ele>526</ele>
        <time>2026-09-02T18:07:26.618Z</time>
      </trkpt>
      <trkpt lat="44.67258" lon="5.15173">
        <ele>526</ele>
        <time>2026-09-02T18:07:27.618Z</time>
      </trkpt>
      <trkpt lat="44.67259" lon="5.15174">
        <ele>525</ele>
        <time>2026-09-02T18:07:28.618Z</time>
      </trkpt>
      <trkpt lat="44.6726" lon="5.15175">
        <ele>525</ele>
        <time>2026-09-02T18:07:29.618Z</time>
      </trkpt>
      <trkpt lat="44.6726" lon="5.15177">
        <ele>524</ele>
        <time>2026-09-02T18:07:30.618Z</time>
      </trkpt>
      <trkpt lat="44.67261" lon="5.15178">
        <ele>524</ele>
        <time>2026-09-02T18:07:31.618Z</time>
      </trkpt>
      <trkpt lat="44.67262" lon="5.15179">
        <ele>523</ele>
        <time>2026-09-02T18:07:32.618Z</time>
      </trkpt>
      <trkpt lat="44.67262" lon="5.15181">
        <ele>523</ele>
        <time>2026-09-02T18:07:33.618Z</time>
      </trkpt>
      <trkpt lat="44.67263" lon="5.15182">
        <ele>522</ele>
        <time>2026-09-02T18:07:34.618Z</time>
      </trkpt>
      <trkpt lat="44.67264" lon="5.15184">
        <ele>522</ele>
        <time>2026-09-02T18:07:35.618Z</time>
      </trkpt>
      <trkpt lat="44.67264" lon="5.15185">
        <ele>522</ele>
        <time>2026-09-02T18:07:36.618Z</time>
      </trkpt>
      <trkpt lat="44.67265" lon="5.15186">
        <ele>521</ele>
        <time>2026-09-02T18:07:37.618Z</time>
      </trkpt>
      <trkpt lat="44.67265" lon="5.15188">
        <ele>521</ele>
        <time>2026-09-02T18:07:38.618Z</time>
      </trkpt>
      <trkpt lat="44.67265" lon="5.15189">
        <ele>521</ele>
        <time>2026-09-02T18:07:39.618Z</time>
      </trkpt>
      <trkpt lat="44.67266" lon="5.15191">
        <ele>520</ele>
        <time>2026-09-02T18:07:40.618Z</time>
      </trkpt>
      <trkpt lat="44.67266" lon="5.15192">
        <ele>520</ele>
        <time>2026-09-02T18:07:41.618Z</time>
      </trkpt>
      <trkpt lat="44.67267" lon="5.15194">
        <ele>520</ele>
        <time>2026-09-02T18:07:42.618Z</time>
      </trkpt>
      <trkpt lat="44.67267" lon="5.15195">
        <ele>520</ele>
        <time>2026-09-02T18:07:43.618Z</time>
      </trkpt>
      <trkpt lat="44.67268" lon="5.15196">
        <ele>519</ele>
        <time>2026-09-02T18:07:44.618Z</time>
      </trkpt>
      <trkpt lat="44.67269" lon="5.15197">
        <ele>519</ele>
        <time>2026-09-02T18:07:45.618Z</time>
      </trkpt>
      <trkpt lat="44.67269" lon="5.15198">
        <ele>519</ele>
        <time>2026-09-02T18:07:46.618Z</time>
      </trkpt>
      <trkpt lat="44.6727" lon="5.15199">
        <ele>519</ele>
        <time>2026-09-02T18:07:47.618Z</time>
      </trkpt>
      <trkpt lat="44.6727" lon="5.15201">
        <ele>518</ele>
        <time>2026-09-02T18:07:48.618Z</time>
      </trkpt>
      <trkpt lat="44.67271" lon="5.15202">
        <ele>518</ele>
        <time>2026-09-02T18:07:49.618Z</time>
      </trkpt>
      <trkpt lat="44.67272" lon="5.15203">
        <ele>518</ele>
        <time>2026-09-02T18:07:50.618Z</time>
      </trkpt>
      <trkpt lat="44.67272" lon="5.15204">
        <ele>518</ele>
        <time>2026-09-02T18:07:51.618Z</time>
      </trkpt>
      <trkpt lat="44.67273" lon="5.15206">
        <ele>518</ele>
        <time>2026-09-02T18:07:52.618Z</time>
      </trkpt>
      <trkpt lat="44.67273" lon="5.15207">
        <ele>518</ele>
        <time>2026-09-02T18:07:53.618Z</time>
      </trkpt>
      <trkpt lat="44.67274" lon="5.15208">
        <ele>518</ele>
        <time>2026-09-02T18:07:54.618Z</time>
      </trkpt>
      <trkpt lat="44.67274" lon="5.1521">
        <ele>517</ele>
        <time>2026-09-02T18:07:55.618Z</time>
      </trkpt>
      <trkpt lat="44.67275" lon="5.15211">
        <ele>517</ele>
        <time>2026-09-02T18:07:56.618Z</time>
      </trkpt>
      <trkpt lat="44.67275" lon="5.15213">
        <ele>517</ele>
        <time>2026-09-02T18:07:57.618Z</time>
      </trkpt>
      <trkpt lat="44.67276" lon="5.15214">
        <ele>517</ele>
        <time>2026-09-02T18:07:58.618Z</time>
      </trkpt>
      <trkpt lat="44.67276" lon="5.15216">
        <ele>517</ele>
        <time>2026-09-02T18:07:59.618Z</time>
      </trkpt>
      <trkpt lat="44.67277" lon="5.15217">
        <ele>517</ele>
        <time>2026-09-02T18:08:00.618Z</time>
      </trkpt>
      <trkpt lat="44.67277" lon="5.15219">
        <ele>517</ele>
        <time>2026-09-02T18:08:01.618Z</time>
      </trkpt>
      <trkpt lat="44.67278" lon="5.1522">
        <ele>517</ele>
        <time>2026-09-02T18:08:02.618Z</time>
      </trkpt>
      <trkpt lat="44.67279" lon="5.15222">
        <ele>517</ele>
        <time>2026-09-02T18:08:03.618Z</time>
      </trkpt>
      <trkpt lat="44.67279" lon="5.15224">
        <ele>517</ele>
        <time>2026-09-02T18:08:04.618Z</time>
      </trkpt>
      <trkpt lat="44.6728" lon="5.15225">
        <ele>517</ele>
        <time>2026-09-02T18:08:05.618Z</time>
      </trkpt>
      <trkpt lat="44.6728" lon="5.15226">
        <ele>517</ele>
        <time>2026-09-02T18:08:06.618Z</time>
      </trkpt>
      <trkpt lat="44.67281" lon="5.15228">
        <ele>516</ele>
        <time>2026-09-02T18:08:07.618Z</time>
      </trkpt>
      <trkpt lat="44.67281" lon="5.15229">
        <ele>516</ele>
        <time>2026-09-02T18:08:08.618Z</time>
      </trkpt>
      <trkpt lat="44.67282" lon="5.1523">
        <ele>516</ele>
        <time>2026-09-02T18:08:09.618Z</time>
      </trkpt>
      <trkpt lat="44.67282" lon="5.15232">
        <ele>516</ele>
        <time>2026-09-02T18:08:10.618Z</time>
      </trkpt>
      <trkpt lat="44.67283" lon="5.15233">
        <ele>516</ele>
        <time>2026-09-02T18:08:11.618Z</time>
      </trkpt>
      <trkpt lat="44.67283" lon="5.15235">
        <ele>516</ele>
        <time>2026-09-02T18:08:12.618Z</time>
      </trkpt>
      <trkpt lat="44.67284" lon="5.15236">
        <ele>516</ele>
        <time>2026-09-02T18:08:13.618Z</time>
      </trkpt>
      <trkpt lat="44.67284" lon="5.15238">
        <ele>516</ele>
        <time>2026-09-02T18:08:14.618Z</time>
      </trkpt>
      <trkpt lat="44.67284" lon="5.15239">
        <ele>516</ele>
        <time>2026-09-02T18:08:15.618Z</time>
      </trkpt>
      <trkpt lat="44.67285" lon="5.1524">
        <ele>516</ele>
        <time>2026-09-02T18:08:16.618Z</time>
      </trkpt>
      <trkpt lat="44.67285" lon="5.15241">
        <ele>516</ele>
        <time>2026-09-02T18:08:17.618Z</time>
      </trkpt>
      <trkpt lat="44.67286" lon="5.15243">
        <ele>516</ele>
        <time>2026-09-02T18:08:18.618Z</time>
      </trkpt>
      <trkpt lat="44.67286" lon="5.15244">
        <ele>515</ele>
        <time>2026-09-02T18:08:19.618Z</time>
      </trkpt>
      <trkpt lat="44.67286" lon="5.15245">
        <ele>515</ele>
        <time>2026-09-02T18:08:20.618Z</time>
      </trkpt>
      <trkpt lat="44.67286" lon="5.15247">
        <ele>515</ele>
        <time>2026-09-02T18:08:21.618Z</time>
      </trkpt>
      <trkpt lat="44.67286" lon="5.15248">
        <ele>515</ele>
        <time>2026-09-02T18:08:22.618Z</time>
      </trkpt>
      <trkpt lat="44.67287" lon="5.15249">
        <ele>514</ele>
        <time>2026-09-02T18:08:23.618Z</time>
      </trkpt>
      <trkpt lat="44.67287" lon="5.1525">
        <ele>514</ele>
        <time>2026-09-02T18:08:24.618Z</time>
      </trkpt>
      <trkpt lat="44.67287" lon="5.15252">
        <ele>514</ele>
        <time>2026-09-02T18:08:25.618Z</time>
      </trkpt>
      <trkpt lat="44.67287" lon="5.15253">
        <ele>514</ele>
        <time>2026-09-02T18:08:26.618Z</time>
      </trkpt>
      <trkpt lat="44.67287" lon="5.15254">
        <ele>514</ele>
        <time>2026-09-02T18:08:27.618Z</time>
      </trkpt>
      <trkpt lat="44.67287" lon="5.15256">
        <ele>514</ele>
        <time>2026-09-02T18:08:28.618Z</time>
      </trkpt>
      <trkpt lat="44.67287" lon="5.15257">
        <ele>514</ele>
        <time>2026-09-02T18:08:29.618Z</time>
      </trkpt>
      <trkpt lat="44.67287" lon="5.15258">
        <ele>514</ele>
        <time>2026-09-02T18:08:30.618Z</time>
      </trkpt>
      <trkpt lat="44.67288" lon="5.1526">
        <ele>514</ele>
        <time>2026-09-02T18:08:31.618Z</time>
      </trkpt>
      <trkpt lat="44.67288" lon="5.15261">
        <ele>514</ele>
        <time>2026-09-02T18:08:32.618Z</time>
      </trkpt>
      <trkpt lat="44.67288" lon="5.15263">
        <ele>514</ele>
        <time>2026-09-02T18:08:33.618Z</time>
      </trkpt>
      <trkpt lat="44.67288" lon="5.15264">
        <ele>514</ele>
        <time>2026-09-02T18:08:34.618Z</time>
      </trkpt>
      <trkpt lat="44.67287" lon="5.15266">
        <ele>513</ele>
        <time>2026-09-02T18:08:35.618Z</time>
      </trkpt>
      <trkpt lat="44.67287" lon="5.15267">
        <ele>513</ele>
        <time>2026-09-02T18:08:36.618Z</time>
      </trkpt>
      <trkpt lat="44.67287" lon="5.15268">
        <ele>513</ele>
        <time>2026-09-02T18:08:37.618Z</time>
      </trkpt>
      <trkpt lat="44.67287" lon="5.1527">
        <ele>513</ele>
        <time>2026-09-02T18:08:38.618Z</time>
      </trkpt>
      <trkpt lat="44.67287" lon="5.15271">
        <ele>513</ele>
        <time>2026-09-02T18:08:39.618Z</time>
      </trkpt>
      <trkpt lat="44.67287" lon="5.15273">
        <ele>513</ele>
        <time>2026-09-02T18:08:40.618Z</time>
      </trkpt>
      <trkpt lat="44.67287" lon="5.15274">
        <ele>513</ele>
        <time>2026-09-02T18:08:41.618Z</time>
      </trkpt>
      <trkpt lat="44.67287" lon="5.15276">
        <ele>513</ele>
        <time>2026-09-02T18:08:42.618Z</time>
      </trkpt>
      <trkpt lat="44.67287" lon="5.15277">
        <ele>513</ele>
        <time>2026-09-02T18:08:43.618Z</time>
      </trkpt>
      <trkpt lat="44.67287" lon="5.15279">
        <ele>513</ele>
        <time>2026-09-02T18:08:44.618Z</time>
      </trkpt>
      <trkpt lat="44.67287" lon="5.1528">
        <ele>513</ele>
        <time>2026-09-02T18:08:45.618Z</time>
      </trkpt>
      <trkpt lat="44.67287" lon="5.15281">
        <ele>513</ele>
        <time>2026-09-02T18:08:46.618Z</time>
      </trkpt>
      <trkpt lat="44.67287" lon="5.15283">
        <ele>513</ele>
        <time>2026-09-02T18:08:47.618Z</time>
      </trkpt>
      <trkpt lat="44.67287" lon="5.15284">
        <ele>513</ele>
        <time>2026-09-02T18:08:48.618Z</time>
      </trkpt>
      <trkpt lat="44.67286" lon="5.15286">
        <ele>513</ele>
        <time>2026-09-02T18:08:49.618Z</time>
      </trkpt>
      <trkpt lat="44.67286" lon="5.15288">
        <ele>513</ele>
        <time>2026-09-02T18:08:50.618Z</time>
      </trkpt>
      <trkpt lat="44.67286" lon="5.1529">
        <ele>513</ele>
        <time>2026-09-02T18:08:51.618Z</time>
      </trkpt>
      <trkpt lat="44.67286" lon="5.15291">
        <ele>513</ele>
        <time>2026-09-02T18:08:52.618Z</time>
      </trkpt>
      <trkpt lat="44.67285" lon="5.15293">
        <ele>513</ele>
        <time>2026-09-02T18:08:53.618Z</time>
      </trkpt>
      <trkpt lat="44.67285" lon="5.15295">
        <ele>513</ele>
        <time>2026-09-02T18:08:54.618Z</time>
      </trkpt>
      <trkpt lat="44.67285" lon="5.15296">
        <ele>513</ele>
        <time>2026-09-02T18:08:55.618Z</time>
      </trkpt>
      <trkpt lat="44.67285" lon="5.15298">
        <ele>513</ele>
        <time>2026-09-02T18:08:56.618Z</time>
      </trkpt>
      <trkpt lat="44.67285" lon="5.15299">
        <ele>513</ele>
        <time>2026-09-02T18:08:57.618Z</time>
      </trkpt>
      <trkpt lat="44.67285" lon="5.15301">
        <ele>513</ele>
        <time>2026-09-02T18:08:58.618Z</time>
      </trkpt>
      <trkpt lat="44.67285" lon="5.15302">
        <ele>514</ele>
        <time>2026-09-02T18:08:59.618Z</time>
      </trkpt>
      <trkpt lat="44.67285" lon="5.15303">
        <ele>514</ele>
        <time>2026-09-02T18:09:00.618Z</time>
      </trkpt>
      <trkpt lat="44.67285" lon="5.15305">
        <ele>514</ele>
        <time>2026-09-02T18:09:01.618Z</time>
      </trkpt>
      <trkpt lat="44.67285" lon="5.15306">
        <ele>514</ele>
        <time>2026-09-02T18:09:02.618Z</time>
      </trkpt>
      <trkpt lat="44.67285" lon="5.15308">
        <ele>514</ele>
        <time>2026-09-02T18:09:03.618Z</time>
      </trkpt>
      <trkpt lat="44.67285" lon="5.15309">
        <ele>514</ele>
        <time>2026-09-02T18:09:04.618Z</time>
      </trkpt>
      <trkpt lat="44.67285" lon="5.1531">
        <ele>515</ele>
        <time>2026-09-02T18:09:05.618Z</time>
      </trkpt>
      <trkpt lat="44.67285" lon="5.15312">
        <ele>515</ele>
        <time>2026-09-02T18:09:06.618Z</time>
      </trkpt>
      <trkpt lat="44.67285" lon="5.15313">
        <ele>515</ele>
        <time>2026-09-02T18:09:07.618Z</time>
      </trkpt>
      <trkpt lat="44.67285" lon="5.15315">
        <ele>515</ele>
        <time>2026-09-02T18:09:08.618Z</time>
      </trkpt>
      <trkpt lat="44.67284" lon="5.15317">
        <ele>515</ele>
        <time>2026-09-02T18:09:09.618Z</time>
      </trkpt>
      <trkpt lat="44.67284" lon="5.15318">
        <ele>515</ele>
        <time>2026-09-02T18:09:10.618Z</time>
      </trkpt>
      <trkpt lat="44.67283" lon="5.1532">
        <ele>515</ele>
        <time>2026-09-02T18:09:11.618Z</time>
      </trkpt>
      <trkpt lat="44.67283" lon="5.15321">
        <ele>515</ele>
        <time>2026-09-02T18:09:12.618Z</time>
      </trkpt>
      <trkpt lat="44.67283" lon="5.15323">
        <ele>515</ele>
        <time>2026-09-02T18:09:13.618Z</time>
      </trkpt>
      <trkpt lat="44.67283" lon="5.15325">
        <ele>515</ele>
        <time>2026-09-02T18:09:14.618Z</time>
      </trkpt>
      <trkpt lat="44.67282" lon="5.15326">
        <ele>515</ele>
        <time>2026-09-02T18:09:15.618Z</time>
      </trkpt>
      <trkpt lat="44.67282" lon="5.15328">
        <ele>515</ele>
        <time>2026-09-02T18:09:16.618Z</time>
      </trkpt>
      <trkpt lat="44.67282" lon="5.15329">
        <ele>515</ele>
        <time>2026-09-02T18:09:17.618Z</time>
      </trkpt>
      <trkpt lat="44.67282" lon="5.1533">
        <ele>515</ele>
        <time>2026-09-02T18:09:18.618Z</time>
      </trkpt>
      <trkpt lat="44.67282" lon="5.15332">
        <ele>515</ele>
        <time>2026-09-02T18:09:19.618Z</time>
      </trkpt>
      <trkpt lat="44.67282" lon="5.15333">
        <ele>515</ele>
        <time>2026-09-02T18:09:20.618Z</time>
      </trkpt>
      <trkpt lat="44.67283" lon="5.15335">
        <ele>515</ele>
        <time>2026-09-02T18:09:21.618Z</time>
      </trkpt>
      <trkpt lat="44.67282" lon="5.15336">
        <ele>515</ele>
        <time>2026-09-02T18:09:22.618Z</time>
      </trkpt>
      <trkpt lat="44.67282" lon="5.15337">
        <ele>515</ele>
        <time>2026-09-02T18:09:23.618Z</time>
      </trkpt>
      <trkpt lat="44.67282" lon="5.15339">
        <ele>515</ele>
        <time>2026-09-02T18:09:24.618Z</time>
      </trkpt>
      <trkpt lat="44.67282" lon="5.1534">
        <ele>515</ele>
        <time>2026-09-02T18:09:25.618Z</time>
      </trkpt>
      <trkpt lat="44.67282" lon="5.15341">
        <ele>514</ele>
        <time>2026-09-02T18:09:26.618Z</time>
      </trkpt>
      <trkpt lat="44.67282" lon="5.15343">
        <ele>514</ele>
        <time>2026-09-02T18:09:27.618Z</time>
      </trkpt>
      <trkpt lat="44.67282" lon="5.15345">
        <ele>514</ele>
        <time>2026-09-02T18:09:28.618Z</time>
      </trkpt>
      <trkpt lat="44.67282" lon="5.15346">
        <ele>514</ele>
        <time>2026-09-02T18:09:29.618Z</time>
      </trkpt>
      <trkpt lat="44.67282" lon="5.15348">
        <ele>514</ele>
        <time>2026-09-02T18:09:30.618Z</time>
      </trkpt>
      <trkpt lat="44.67282" lon="5.15349">
        <ele>514</ele>
        <time>2026-09-02T18:09:31.618Z</time>
      </trkpt>
      <trkpt lat="44.67282" lon="5.1535">
        <ele>514</ele>
        <time>2026-09-02T18:09:32.618Z</time>
      </trkpt>
      <trkpt lat="44.67281" lon="5.15352">
        <ele>514</ele>
        <time>2026-09-02T18:09:33.618Z</time>
      </trkpt>
      <trkpt lat="44.67281" lon="5.15353">
        <ele>514</ele>
        <time>2026-09-02T18:09:34.618Z</time>
      </trkpt>
      <trkpt lat="44.67281" lon="5.15354">
        <ele>514</ele>
        <time>2026-09-02T18:09:35.618Z</time>
      </trkpt>
      <trkpt lat="44.67282" lon="5.15356">
        <ele>514</ele>
        <time>2026-09-02T18:09:36.618Z</time>
      </trkpt>
      <trkpt lat="44.67281" lon="5.15357">
        <ele>514</ele>
        <time>2026-09-02T18:09:37.618Z</time>
      </trkpt>
      <trkpt lat="44.67281" lon="5.15358">
        <ele>514</ele>
        <time>2026-09-02T18:09:38.618Z</time>
      </trkpt>
      <trkpt lat="44.6728" lon="5.1536">
        <ele>515</ele>
        <time>2026-09-02T18:09:39.618Z</time>
      </trkpt>
      <trkpt lat="44.67279" lon="5.15361">
        <ele>515</ele>
        <time>2026-09-02T18:09:40.618Z</time>
      </trkpt>
      <trkpt lat="44.67279" lon="5.15363">
        <ele>515</ele>
        <time>2026-09-02T18:09:41.618Z</time>
      </trkpt>
      <trkpt lat="44.67279" lon="5.15364">
        <ele>515</ele>
        <time>2026-09-02T18:09:42.618Z</time>
      </trkpt>
      <trkpt lat="44.67278" lon="5.15365">
        <ele>514</ele>
        <time>2026-09-02T18:09:43.618Z</time>
      </trkpt>
      <trkpt lat="44.67278" lon="5.15367">
        <ele>514</ele>
        <time>2026-09-02T18:09:44.618Z</time>
      </trkpt>
      <trkpt lat="44.67278" lon="5.15368">
        <ele>514</ele>
        <time>2026-09-02T18:09:45.618Z</time>
      </trkpt>
      <trkpt lat="44.67278" lon="5.1537">
        <ele>514</ele>
        <time>2026-09-02T18:09:46.618Z</time>
      </trkpt>
      <trkpt lat="44.67277" lon="5.15371">
        <ele>514</ele>
        <time>2026-09-02T18:09:47.618Z</time>
      </trkpt>
      <trkpt lat="44.67277" lon="5.15372">
        <ele>514</ele>
        <time>2026-09-02T18:09:48.618Z</time>
      </trkpt>
      <trkpt lat="44.67276" lon="5.15373">
        <ele>514</ele>
        <time>2026-09-02T18:09:49.618Z</time>
      </trkpt>
      <trkpt lat="44.67276" lon="5.15374">
        <ele>514</ele>
        <time>2026-09-02T18:09:50.618Z</time>
      </trkpt>
      <trkpt lat="44.67275" lon="5.15376">
        <ele>514</ele>
        <time>2026-09-02T18:09:51.618Z</time>
      </trkpt>
      <trkpt lat="44.67274" lon="5.15378">
        <ele>514</ele>
        <time>2026-09-02T18:09:52.618Z</time>
      </trkpt>
      <trkpt lat="44.67274" lon="5.15379">
        <ele>514</ele>
        <time>2026-09-02T18:09:53.618Z</time>
      </trkpt>
      <trkpt lat="44.67274" lon="5.1538">
        <ele>514</ele>
        <time>2026-09-02T18:09:54.618Z</time>
      </trkpt>
      <trkpt lat="44.67273" lon="5.15382">
        <ele>514</ele>
        <time>2026-09-02T18:09:55.618Z</time>
      </trkpt>
      <trkpt lat="44.67273" lon="5.15383">
        <ele>514</ele>
        <time>2026-09-02T18:09:56.618Z</time>
      </trkpt>
      <trkpt lat="44.67272" lon="5.15384">
        <ele>514</ele>
        <time>2026-09-02T18:09:57.618Z</time>
      </trkpt>
      <trkpt lat="44.67272" lon="5.15386">
        <ele>514</ele>
        <time>2026-09-02T18:09:58.618Z</time>
      </trkpt>
      <trkpt lat="44.67271" lon="5.15388">
        <ele>514</ele>
        <time>2026-09-02T18:09:59.618Z</time>
      </trkpt>
      <trkpt lat="44.67271" lon="5.15389">
        <ele>514</ele>
        <time>2026-09-02T18:10:00.618Z</time>
      </trkpt>
      <trkpt lat="44.67271" lon="5.15391">
        <ele>513</ele>
        <time>2026-09-02T18:10:01.618Z</time>
      </trkpt>
      <trkpt lat="44.67271" lon="5.15393">
        <ele>513</ele>
        <time>2026-09-02T18:10:02.618Z</time>
      </trkpt>
      <trkpt lat="44.67271" lon="5.15394">
        <ele>513</ele>
        <time>2026-09-02T18:10:03.618Z</time>
      </trkpt>
      <trkpt lat="44.6727" lon="5.15396">
        <ele>513</ele>
        <time>2026-09-02T18:10:04.618Z</time>
      </trkpt>
      <trkpt lat="44.6727" lon="5.15397">
        <ele>513</ele>
        <time>2026-09-02T18:10:05.618Z</time>
      </trkpt>
      <trkpt lat="44.6727" lon="5.15399">
        <ele>513</ele>
        <time>2026-09-02T18:10:06.618Z</time>
      </trkpt>
      <trkpt lat="44.67269" lon="5.15401">
        <ele>513</ele>
        <time>2026-09-02T18:10:07.618Z</time>
      </trkpt>
      <trkpt lat="44.67269" lon="5.15402">
        <ele>513</ele>
        <time>2026-09-02T18:10:08.618Z</time>
      </trkpt>
      <trkpt lat="44.67268" lon="5.15404">
        <ele>513</ele>
        <time>2026-09-02T18:10:09.618Z</time>
      </trkpt>
      <trkpt lat="44.67268" lon="5.15406">
        <ele>512</ele>
        <time>2026-09-02T18:10:10.618Z</time>
      </trkpt>
      <trkpt lat="44.67268" lon="5.15408">
        <ele>512</ele>
        <time>2026-09-02T18:10:11.618Z</time>
      </trkpt>
      <trkpt lat="44.67267" lon="5.15409">
        <ele>512</ele>
        <time>2026-09-02T18:10:12.618Z</time>
      </trkpt>
      <trkpt lat="44.67267" lon="5.15411">
        <ele>512</ele>
        <time>2026-09-02T18:10:13.618Z</time>
      </trkpt>
      <trkpt lat="44.67267" lon="5.15412">
        <ele>512</ele>
        <time>2026-09-02T18:10:14.618Z</time>
      </trkpt>
      <trkpt lat="44.67267" lon="5.15413">
        <ele>512</ele>
        <time>2026-09-02T18:10:15.618Z</time>
      </trkpt>
      <trkpt lat="44.67267" lon="5.15415">
        <ele>512</ele>
        <time>2026-09-02T18:10:16.618Z</time>
      </trkpt>
      <trkpt lat="44.67267" lon="5.15416">
        <ele>512</ele>
        <time>2026-09-02T18:10:17.618Z</time>
      </trkpt>
      <trkpt lat="44.67267" lon="5.15417">
        <ele>512</ele>
        <time>2026-09-02T18:10:18.618Z</time>
      </trkpt>
      <trkpt lat="44.67266" lon="5.15419">
        <ele>512</ele>
        <time>2026-09-02T18:10:19.618Z</time>
      </trkpt>
      <trkpt lat="44.67266" lon="5.1542">
        <ele>511</ele>
        <time>2026-09-02T18:10:20.618Z</time>
      </trkpt>
      <trkpt lat="44.67266" lon="5.15422">
        <ele>511</ele>
        <time>2026-09-02T18:10:21.618Z</time>
      </trkpt>
      <trkpt lat="44.67266" lon="5.15423">
        <ele>511</ele>
        <time>2026-09-02T18:10:22.618Z</time>
      </trkpt>
      <trkpt lat="44.67265" lon="5.15425">
        <ele>511</ele>
        <time>2026-09-02T18:10:23.618Z</time>
      </trkpt>
      <trkpt lat="44.67265" lon="5.15426">
        <ele>511</ele>
        <time>2026-09-02T18:10:24.618Z</time>
      </trkpt>
      <trkpt lat="44.67265" lon="5.15428">
        <ele>511</ele>
        <time>2026-09-02T18:10:25.618Z</time>
      </trkpt>
      <trkpt lat="44.67264" lon="5.15429">
        <ele>511</ele>
        <time>2026-09-02T18:10:26.618Z</time>
      </trkpt>
      <trkpt lat="44.67264" lon="5.15431">
        <ele>510</ele>
        <time>2026-09-02T18:10:27.618Z</time>
      </trkpt>
      <trkpt lat="44.67263" lon="5.15432">
        <ele>510</ele>
        <time>2026-09-02T18:10:28.618Z</time>
      </trkpt>
      <trkpt lat="44.67262" lon="5.15434">
        <ele>510</ele>
        <time>2026-09-02T18:10:29.618Z</time>
      </trkpt>
      <trkpt lat="44.67262" lon="5.15435">
        <ele>510</ele>
        <time>2026-09-02T18:10:30.618Z</time>
      </trkpt>
      <trkpt lat="44.67262" lon="5.15436">
        <ele>509</ele>
        <time>2026-09-02T18:10:31.618Z</time>
      </trkpt>
      <trkpt lat="44.67262" lon="5.15438">
        <ele>509</ele>
        <time>2026-09-02T18:10:32.618Z</time>
      </trkpt>
      <trkpt lat="44.67261" lon="5.15439">
        <ele>509</ele>
        <time>2026-09-02T18:10:33.618Z</time>
      </trkpt>
      <trkpt lat="44.67261" lon="5.1544">
        <ele>509</ele>
        <time>2026-09-02T18:10:34.618Z</time>
      </trkpt>
      <trkpt lat="44.6726" lon="5.15441">
        <ele>509</ele>
        <time>2026-09-02T18:10:35.618Z</time>
      </trkpt>
      <trkpt lat="44.6726" lon="5.15442">
        <ele>508</ele>
        <time>2026-09-02T18:10:36.618Z</time>
      </trkpt>
      <trkpt lat="44.6726" lon="5.15444">
        <ele>508</ele>
        <time>2026-09-02T18:10:37.618Z</time>
      </trkpt>
      <trkpt lat="44.67259" lon="5.15445">
        <ele>508</ele>
        <time>2026-09-02T18:10:38.618Z</time>
      </trkpt>
      <trkpt lat="44.67259" lon="5.15446">
        <ele>508</ele>
        <time>2026-09-02T18:10:39.618Z</time>
      </trkpt>
      <trkpt lat="44.67258" lon="5.15448">
        <ele>508</ele>
        <time>2026-09-02T18:10:40.618Z</time>
      </trkpt>
      <trkpt lat="44.67258" lon="5.15449">
        <ele>508</ele>
        <time>2026-09-02T18:10:41.618Z</time>
      </trkpt>
      <trkpt lat="44.67258" lon="5.1545">
        <ele>508</ele>
        <time>2026-09-02T18:10:42.618Z</time>
      </trkpt>
      <trkpt lat="44.67258" lon="5.15452">
        <ele>508</ele>
        <time>2026-09-02T18:10:43.618Z</time>
      </trkpt>
      <trkpt lat="44.67258" lon="5.15453">
        <ele>508</ele>
        <time>2026-09-02T18:10:44.618Z</time>
      </trkpt>
      <trkpt lat="44.67257" lon="5.15455">
        <ele>508</ele>
        <time>2026-09-02T18:10:45.618Z</time>
      </trkpt>
      <trkpt lat="44.67257" lon="5.15456">
        <ele>507</ele>
        <time>2026-09-02T18:10:46.618Z</time>
      </trkpt>
      <trkpt lat="44.67256" lon="5.15457">
        <ele>507</ele>
        <time>2026-09-02T18:10:47.618Z</time>
      </trkpt>
      <trkpt lat="44.67256" lon="5.15458">
        <ele>507</ele>
        <time>2026-09-02T18:10:48.618Z</time>
      </trkpt>
      <trkpt lat="44.67255" lon="5.15459">
        <ele>507</ele>
        <time>2026-09-02T18:10:49.618Z</time>
      </trkpt>
      <trkpt lat="44.67255" lon="5.1546">
        <ele>507</ele>
        <time>2026-09-02T18:10:50.618Z</time>
      </trkpt>
      <trkpt lat="44.67254" lon="5.15461">
        <ele>507</ele>
        <time>2026-09-02T18:10:51.618Z</time>
      </trkpt>
      <trkpt lat="44.67253" lon="5.15462">
        <ele>507</ele>
        <time>2026-09-02T18:10:52.618Z</time>
      </trkpt>
      <trkpt lat="44.67253" lon="5.15463">
        <ele>507</ele>
        <time>2026-09-02T18:10:53.618Z</time>
      </trkpt>
      <trkpt lat="44.67252" lon="5.15464">
        <ele>506</ele>
        <time>2026-09-02T18:10:54.618Z</time>
      </trkpt>
      <trkpt lat="44.67251" lon="5.15465">
        <ele>506</ele>
        <time>2026-09-02T18:10:55.618Z</time>
      </trkpt>
      <trkpt lat="44.6725" lon="5.15466">
        <ele>506</ele>
        <time>2026-09-02T18:10:56.618Z</time>
      </trkpt>
      <trkpt lat="44.6725" lon="5.15467">
        <ele>506</ele>
        <time>2026-09-02T18:10:57.618Z</time>
      </trkpt>
      <trkpt lat="44.67249" lon="5.15468">
        <ele>506</ele>
        <time>2026-09-02T18:10:58.618Z</time>
      </trkpt>
      <trkpt lat="44.67248" lon="5.15469">
        <ele>505</ele>
        <time>2026-09-02T18:10:59.618Z</time>
      </trkpt>
      <trkpt lat="44.67247" lon="5.1547">
        <ele>505</ele>
        <time>2026-09-02T18:11:00.618Z</time>
      </trkpt>
      <trkpt lat="44.67246" lon="5.15471">
        <ele>505</ele>
        <time>2026-09-02T18:11:01.618Z</time>
      </trkpt>
      <trkpt lat="44.67245" lon="5.15472">
        <ele>505</ele>
        <time>2026-09-02T18:11:02.618Z</time>
      </trkpt>
      <trkpt lat="44.67243" lon="5.15473">
        <ele>504</ele>
        <time>2026-09-02T18:11:03.618Z</time>
      </trkpt>
      <trkpt lat="44.67242" lon="5.15474">
        <ele>504</ele>
        <time>2026-09-02T18:11:04.618Z</time>
      </trkpt>
      <trkpt lat="44.67242" lon="5.15475">
        <ele>504</ele>
        <time>2026-09-02T18:11:05.618Z</time>
      </trkpt>
      <trkpt lat="44.67241" lon="5.15476">
        <ele>504</ele>
        <time>2026-09-02T18:11:06.618Z</time>
      </trkpt>
      <trkpt lat="44.6724" lon="5.15476">
        <ele>503</ele>
        <time>2026-09-02T18:11:07.618Z</time>
      </trkpt>
      <trkpt lat="44.67239" lon="5.15476">
        <ele>503</ele>
        <time>2026-09-02T18:11:08.618Z</time>
      </trkpt>
      <trkpt lat="44.67238" lon="5.15477">
        <ele>503</ele>
        <time>2026-09-02T18:11:09.618Z</time>
      </trkpt>
      <trkpt lat="44.67237" lon="5.15478">
        <ele>503</ele>
        <time>2026-09-02T18:11:10.618Z</time>
      </trkpt>
      <trkpt lat="44.67236" lon="5.15479">
        <ele>503</ele>
        <time>2026-09-02T18:11:11.618Z</time>
      </trkpt>
      <trkpt lat="44.67235" lon="5.1548">
        <ele>503</ele>
        <time>2026-09-02T18:11:12.618Z</time>
      </trkpt>
      <trkpt lat="44.67234" lon="5.15481">
        <ele>502</ele>
        <time>2026-09-02T18:11:13.618Z</time>
      </trkpt>
      <trkpt lat="44.67233" lon="5.15482">
        <ele>502</ele>
        <time>2026-09-02T18:11:14.618Z</time>
      </trkpt>
      <trkpt lat="44.67232" lon="5.15482">
        <ele>502</ele>
        <time>2026-09-02T18:11:15.618Z</time>
      </trkpt>
      <trkpt lat="44.67231" lon="5.15483">
        <ele>502</ele>
        <time>2026-09-02T18:11:16.618Z</time>
      </trkpt>
      <trkpt lat="44.67231" lon="5.15484">
        <ele>502</ele>
        <time>2026-09-02T18:11:17.618Z</time>
      </trkpt>
      <trkpt lat="44.6723" lon="5.15485">
        <ele>502</ele>
        <time>2026-09-02T18:11:18.618Z</time>
      </trkpt>
      <trkpt lat="44.67229" lon="5.15487">
        <ele>502</ele>
        <time>2026-09-02T18:11:19.618Z</time>
      </trkpt>
      <trkpt lat="44.67228" lon="5.15488">
        <ele>501</ele>
        <time>2026-09-02T18:11:20.618Z</time>
      </trkpt>
      <trkpt lat="44.67228" lon="5.15489">
        <ele>501</ele>
        <time>2026-09-02T18:11:21.618Z</time>
      </trkpt>
      <trkpt lat="44.67227" lon="5.15491">
        <ele>501</ele>
        <time>2026-09-02T18:11:22.618Z</time>
      </trkpt>
      <trkpt lat="44.67226" lon="5.15492">
        <ele>501</ele>
        <time>2026-09-02T18:11:23.618Z</time>
      </trkpt>
      <trkpt lat="44.67226" lon="5.15494">
        <ele>501</ele>
        <time>2026-09-02T18:11:24.618Z</time>
      </trkpt>
      <trkpt lat="44.67225" lon="5.15495">
        <ele>501</ele>
        <time>2026-09-02T18:11:25.618Z</time>
      </trkpt>
      <trkpt lat="44.67225" lon="5.15497">
        <ele>501</ele>
        <time>2026-09-02T18:11:26.618Z</time>
      </trkpt>
      <trkpt lat="44.67225" lon="5.15498">
        <ele>500</ele>
        <time>2026-09-02T18:11:27.618Z</time>
      </trkpt>
      <trkpt lat="44.67224" lon="5.155">
        <ele>500</ele>
        <time>2026-09-02T18:11:28.618Z</time>
      </trkpt>
      <trkpt lat="44.67224" lon="5.15501">
        <ele>500</ele>
        <time>2026-09-02T18:11:29.618Z</time>
      </trkpt>
      <trkpt lat="44.67224" lon="5.15502">
        <ele>500</ele>
        <time>2026-09-02T18:11:30.618Z</time>
      </trkpt>
      <trkpt lat="44.67224" lon="5.15503">
        <ele>500</ele>
        <time>2026-09-02T18:11:31.618Z</time>
      </trkpt>
      <trkpt lat="44.67224" lon="5.15505">
        <ele>499</ele>
        <time>2026-09-02T18:11:32.618Z</time>
      </trkpt>
      <trkpt lat="44.67224" lon="5.15506">
        <ele>499</ele>
        <time>2026-09-02T18:11:33.618Z</time>
      </trkpt>
      <trkpt lat="44.67223" lon="5.15507">
        <ele>499</ele>
        <time>2026-09-02T18:11:34.618Z</time>
      </trkpt>
      <trkpt lat="44.67223" lon="5.15509">
        <ele>499</ele>
        <time>2026-09-02T18:11:35.618Z</time>
      </trkpt>
      <trkpt lat="44.67223" lon="5.1551">
        <ele>499</ele>
        <time>2026-09-02T18:11:36.618Z</time>
      </trkpt>
      <trkpt lat="44.67224" lon="5.15512">
        <ele>499</ele>
        <time>2026-09-02T18:11:37.618Z</time>
      </trkpt>
      <trkpt lat="44.67224" lon="5.15514">
        <ele>498</ele>
        <time>2026-09-02T18:11:38.618Z</time>
      </trkpt>
      <trkpt lat="44.67224" lon="5.15515">
        <ele>498</ele>
        <time>2026-09-02T18:11:39.618Z</time>
      </trkpt>
      <trkpt lat="44.67224" lon="5.15517">
        <ele>498</ele>
        <time>2026-09-02T18:11:40.618Z</time>
      </trkpt>
      <trkpt lat="44.67225" lon="5.15518">
        <ele>498</ele>
        <time>2026-09-02T18:11:41.618Z</time>
      </trkpt>
      <trkpt lat="44.67226" lon="5.15519">
        <ele>498</ele>
        <time>2026-09-02T18:11:42.618Z</time>
      </trkpt>
      <trkpt lat="44.67226" lon="5.15521">
        <ele>498</ele>
        <time>2026-09-02T18:11:43.618Z</time>
      </trkpt>
      <trkpt lat="44.67227" lon="5.15522">
        <ele>498</ele>
        <time>2026-09-02T18:11:44.618Z</time>
      </trkpt>
      <trkpt lat="44.67228" lon="5.15523">
        <ele>497</ele>
        <time>2026-09-02T18:11:45.618Z</time>
      </trkpt>
      <trkpt lat="44.67228" lon="5.15524">
        <ele>497</ele>
        <time>2026-09-02T18:11:46.618Z</time>
      </trkpt>
      <trkpt lat="44.67229" lon="5.15524">
        <ele>497</ele>
        <time>2026-09-02T18:11:47.618Z</time>
      </trkpt>
      <trkpt lat="44.6723" lon="5.15525">
        <ele>497</ele>
        <time>2026-09-02T18:11:48.618Z</time>
      </trkpt>
      <trkpt lat="44.67231" lon="5.15525">
        <ele>497</ele>
        <time>2026-09-02T18:11:49.618Z</time>
      </trkpt>
      <trkpt lat="44.67231" lon="5.15526">
        <ele>497</ele>
        <time>2026-09-02T18:11:50.618Z</time>
      </trkpt>
      <trkpt lat="44.67232" lon="5.15526">
        <ele>497</ele>
        <time>2026-09-02T18:11:51.618Z</time>
      </trkpt>
      <trkpt lat="44.67233" lon="5.15527">
        <ele>497</ele>
        <time>2026-09-02T18:11:52.618Z</time>
      </trkpt>
      <trkpt lat="44.67234" lon="5.15528">
        <ele>496</ele>
        <time>2026-09-02T18:11:53.618Z</time>
      </trkpt>
      <trkpt lat="44.67235" lon="5.15529">
        <ele>496</ele>
        <time>2026-09-02T18:11:54.618Z</time>
      </trkpt>
      <trkpt lat="44.67235" lon="5.15529">
        <ele>496</ele>
        <time>2026-09-02T18:11:55.618Z</time>
      </trkpt>
      <trkpt lat="44.67236" lon="5.1553">
        <ele>496</ele>
        <time>2026-09-02T18:11:56.618Z</time>
      </trkpt>
      <trkpt lat="44.67237" lon="5.15531">
        <ele>496</ele>
        <time>2026-09-02T18:11:57.618Z</time>
      </trkpt>
      <trkpt lat="44.67238" lon="5.15532">
        <ele>495</ele>
        <time>2026-09-02T18:11:58.618Z</time>
      </trkpt>
      <trkpt lat="44.67239" lon="5.15533">
        <ele>495</ele>
        <time>2026-09-02T18:11:59.618Z</time>
      </trkpt>
      <trkpt lat="44.67239" lon="5.15534">
        <ele>495</ele>
        <time>2026-09-02T18:12:00.618Z</time>
      </trkpt>
      <trkpt lat="44.6724" lon="5.15535">
        <ele>495</ele>
        <time>2026-09-02T18:12:01.618Z</time>
      </trkpt>
      <trkpt lat="44.67241" lon="5.15536">
        <ele>495</ele>
        <time>2026-09-02T18:12:02.618Z</time>
      </trkpt>
      <trkpt lat="44.67241" lon="5.15537">
        <ele>494</ele>
        <time>2026-09-02T18:12:03.618Z</time>
      </trkpt>
      <trkpt lat="44.67242" lon="5.15538">
        <ele>494</ele>
        <time>2026-09-02T18:12:04.618Z</time>
      </trkpt>
      <trkpt lat="44.67242" lon="5.15539">
        <ele>494</ele>
        <time>2026-09-02T18:12:05.618Z</time>
      </trkpt>
      <trkpt lat="44.67243" lon="5.1554">
        <ele>494</ele>
        <time>2026-09-02T18:12:06.618Z</time>
      </trkpt>
      <trkpt lat="44.67243" lon="5.15541">
        <ele>494</ele>
        <time>2026-09-02T18:12:07.618Z</time>
      </trkpt>
      <trkpt lat="44.67244" lon="5.15542">
        <ele>494</ele>
        <time>2026-09-02T18:12:08.618Z</time>
      </trkpt>
      <trkpt lat="44.67244" lon="5.15544">
        <ele>493</ele>
        <time>2026-09-02T18:12:09.618Z</time>
      </trkpt>
      <trkpt lat="44.67245" lon="5.15545">
        <ele>493</ele>
        <time>2026-09-02T18:12:10.618Z</time>
      </trkpt>
      <trkpt lat="44.67245" lon="5.15546">
        <ele>493</ele>
        <time>2026-09-02T18:12:11.618Z</time>
      </trkpt>
      <trkpt lat="44.67246" lon="5.15547">
        <ele>493</ele>
        <time>2026-09-02T18:12:12.618Z</time>
      </trkpt>
      <trkpt lat="44.67246" lon="5.15548">
        <ele>493</ele>
        <time>2026-09-02T18:12:13.618Z</time>
      </trkpt>
      <trkpt lat="44.67247" lon="5.15549">
        <ele>493</ele>
        <time>2026-09-02T18:12:14.618Z</time>
      </trkpt>
      <trkpt lat="44.67247" lon="5.15551">
        <ele>493</ele>
        <time>2026-09-02T18:12:15.618Z</time>
      </trkpt>
      <trkpt lat="44.67248" lon="5.15552">
        <ele>493</ele>
        <time>2026-09-02T18:12:16.618Z</time>
      </trkpt>
      <trkpt lat="44.67248" lon="5.15554">
        <ele>493</ele>
        <time>2026-09-02T18:12:17.618Z</time>
      </trkpt>
      <trkpt lat="44.67249" lon="5.15555">
        <ele>493</ele>
        <time>2026-09-02T18:12:18.618Z</time>
      </trkpt>
      <trkpt lat="44.6725" lon="5.15556">
        <ele>493</ele>
        <time>2026-09-02T18:12:19.618Z</time>
      </trkpt>
      <trkpt lat="44.6725" lon="5.15558">
        <ele>493</ele>
        <time>2026-09-02T18:12:20.618Z</time>
      </trkpt>
      <trkpt lat="44.6725" lon="5.15559">
        <ele>493</ele>
        <time>2026-09-02T18:12:21.618Z</time>
      </trkpt>
      <trkpt lat="44.6725" lon="5.1556">
        <ele>493</ele>
        <time>2026-09-02T18:12:22.618Z</time>
      </trkpt>
      <trkpt lat="44.6725" lon="5.15561">
        <ele>493</ele>
        <time>2026-09-02T18:12:23.618Z</time>
      </trkpt>
      <trkpt lat="44.6725" lon="5.15561">
        <ele>493</ele>
        <time>2026-09-02T18:12:24.618Z</time>
      </trkpt>
      <trkpt lat="44.6725" lon="5.15561">
        <ele>493</ele>
        <time>2026-09-02T18:12:25.618Z</time>
      </trkpt>
      <trkpt lat="44.6725" lon="5.15562">
        <ele>493</ele>
        <time>2026-09-02T18:12:26.618Z</time>
      </trkpt>
      <trkpt lat="44.6725" lon="5.15562">
        <ele>493</ele>
        <time>2026-09-02T18:12:27.618Z</time>
      </trkpt>
      <trkpt lat="44.67252" lon="5.15564">
        <ele>493</ele>
        <time>2026-09-02T18:12:36.624Z</time>
      </trkpt>
      <trkpt lat="44.67252" lon="5.15565">
        <ele>493</ele>
        <time>2026-09-02T18:12:37.624Z</time>
      </trkpt>
      <trkpt lat="44.67252" lon="5.15565">
        <ele>493</ele>
        <time>2026-09-02T18:12:38.624Z</time>
      </trkpt>
      <trkpt lat="44.67252" lon="5.15567">
        <ele>493</ele>
        <time>2026-09-02T18:12:41.946Z</time>
      </trkpt>
      <trkpt lat="44.67252" lon="5.15569">
        <ele>493</ele>
        <time>2026-09-02T18:12:42.946Z</time>
      </trkpt>
      <trkpt lat="44.67252" lon="5.15571">
        <ele>493</ele>
        <time>2026-09-02T18:12:43.946Z</time>
      </trkpt>
      <trkpt lat="44.67252" lon="5.15574">
        <ele>493</ele>
        <time>2026-09-02T18:12:44.946Z</time>
      </trkpt>
      <trkpt lat="44.67252" lon="5.15576">
        <ele>493</ele>
        <time>2026-09-02T18:12:45.946Z</time>
      </trkpt>
      <trkpt lat="44.67252" lon="5.15577">
        <ele>494</ele>
        <time>2026-09-02T18:12:46.946Z</time>
      </trkpt>
      <trkpt lat="44.67253" lon="5.15579">
        <ele>494</ele>
        <time>2026-09-02T18:12:47.946Z</time>
      </trkpt>
      <trkpt lat="44.67253" lon="5.1558">
        <ele>494</ele>
        <time>2026-09-02T18:12:48.946Z</time>
      </trkpt>
      <trkpt lat="44.67254" lon="5.15581">
        <ele>494</ele>
        <time>2026-09-02T18:12:49.946Z</time>
      </trkpt>
      <trkpt lat="44.67255" lon="5.15583">
        <ele>494</ele>
        <time>2026-09-02T18:12:50.946Z</time>
      </trkpt>
      <trkpt lat="44.67255" lon="5.15584">
        <ele>494</ele>
        <time>2026-09-02T18:12:51.946Z</time>
      </trkpt>
      <trkpt lat="44.67256" lon="5.15586">
        <ele>494</ele>
        <time>2026-09-02T18:12:52.946Z</time>
      </trkpt>
      <trkpt lat="44.67256" lon="5.15587">
        <ele>494</ele>
        <time>2026-09-02T18:12:53.946Z</time>
      </trkpt>
      <trkpt lat="44.67256" lon="5.15589">
        <ele>494</ele>
        <time>2026-09-02T18:12:54.946Z</time>
      </trkpt>
      <trkpt lat="44.67256" lon="5.15591">
        <ele>494</ele>
        <time>2026-09-02T18:12:55.946Z</time>
      </trkpt>
      <trkpt lat="44.67256" lon="5.15592">
        <ele>494</ele>
        <time>2026-09-02T18:12:56.946Z</time>
      </trkpt>
      <trkpt lat="44.67256" lon="5.15594">
        <ele>494</ele>
        <time>2026-09-02T18:12:57.946Z</time>
      </trkpt>
      <trkpt lat="44.67257" lon="5.15595">
        <ele>494</ele>
        <time>2026-09-02T18:12:58.946Z</time>
      </trkpt>
      <trkpt lat="44.67257" lon="5.15597">
        <ele>494</ele>
        <time>2026-09-02T18:12:59.946Z</time>
      </trkpt>
      <trkpt lat="44.67257" lon="5.15598">
        <ele>494</ele>
        <time>2026-09-02T18:13:00.946Z</time>
      </trkpt>
      <trkpt lat="44.67257" lon="5.156">
        <ele>494</ele>
        <time>2026-09-02T18:13:01.946Z</time>
      </trkpt>
      <trkpt lat="44.67257" lon="5.15601">
        <ele>494</ele>
        <time>2026-09-02T18:13:02.946Z</time>
      </trkpt>
      <trkpt lat="44.67257" lon="5.15602">
        <ele>494</ele>
        <time>2026-09-02T18:13:03.946Z</time>
      </trkpt>
      <trkpt lat="44.67257" lon="5.15604">
        <ele>494</ele>
        <time>2026-09-02T18:13:04.946Z</time>
      </trkpt>
      <trkpt lat="44.67257" lon="5.15605">
        <ele>494</ele>
        <time>2026-09-02T18:13:05.946Z</time>
      </trkpt>
      <trkpt lat="44.67257" lon="5.15607">
        <ele>494</ele>
        <time>2026-09-02T18:13:06.946Z</time>
      </trkpt>
      <trkpt lat="44.67257" lon="5.15609">
        <ele>494</ele>
        <time>2026-09-02T18:13:07.946Z</time>
      </trkpt>
      <trkpt lat="44.67257" lon="5.1561">
        <ele>494</ele>
        <time>2026-09-02T18:13:08.946Z</time>
      </trkpt>
      <trkpt lat="44.67257" lon="5.15612">
        <ele>494</ele>
        <time>2026-09-02T18:13:09.946Z</time>
      </trkpt>
      <trkpt lat="44.67257" lon="5.15614">
        <ele>494</ele>
        <time>2026-09-02T18:13:10.946Z</time>
      </trkpt>
      <trkpt lat="44.67257" lon="5.15617">
        <ele>494</ele>
        <time>2026-09-02T18:13:11.946Z</time>
      </trkpt>
      <trkpt lat="44.67257" lon="5.15619">
        <ele>494</ele>
        <time>2026-09-02T18:13:12.946Z</time>
      </trkpt>
      <trkpt lat="44.67257" lon="5.15621">
        <ele>494</ele>
        <time>2026-09-02T18:13:13.946Z</time>
      </trkpt>
      <trkpt lat="44.67257" lon="5.15622">
        <ele>494</ele>
        <time>2026-09-02T18:13:14.946Z</time>
      </trkpt>
      <trkpt lat="44.67258" lon="5.15624">
        <ele>494</ele>
        <time>2026-09-02T18:13:15.946Z</time>
      </trkpt>
      <trkpt lat="44.67258" lon="5.15625">
        <ele>494</ele>
        <time>2026-09-02T18:13:16.946Z</time>
      </trkpt>
      <trkpt lat="44.67259" lon="5.15626">
        <ele>494</ele>
        <time>2026-09-02T18:13:17.946Z</time>
      </trkpt>
      <trkpt lat="44.6726" lon="5.15628">
        <ele>493</ele>
        <time>2026-09-02T18:13:18.946Z</time>
      </trkpt>
      <trkpt lat="44.6726" lon="5.15629">
        <ele>493</ele>
        <time>2026-09-02T18:13:19.946Z</time>
      </trkpt>
      <trkpt lat="44.67261" lon="5.1563">
        <ele>493</ele>
        <time>2026-09-02T18:13:20.946Z</time>
      </trkpt>
      <trkpt lat="44.67262" lon="5.15631">
        <ele>493</ele>
        <time>2026-09-02T18:13:21.946Z</time>
      </trkpt>
      <trkpt lat="44.67263" lon="5.15632">
        <ele>493</ele>
        <time>2026-09-02T18:13:22.946Z</time>
      </trkpt>
      <trkpt lat="44.67264" lon="5.15633">
        <ele>493</ele>
        <time>2026-09-02T18:13:23.946Z</time>
      </trkpt>
      <trkpt lat="44.67266" lon="5.15633">
        <ele>493</ele>
        <time>2026-09-02T18:13:24.946Z</time>
      </trkpt>
      <trkpt lat="44.67267" lon="5.15634">
        <ele>493</ele>
        <time>2026-09-02T18:13:25.946Z</time>
      </trkpt>
      <trkpt lat="44.67267" lon="5.15635">
        <ele>493</ele>
        <time>2026-09-02T18:13:26.946Z</time>
      </trkpt>
      <trkpt lat="44.67268" lon="5.15635">
        <ele>493</ele>
        <time>2026-09-02T18:13:27.946Z</time>
      </trkpt>
      <trkpt lat="44.67269" lon="5.15636">
        <ele>493</ele>
        <time>2026-09-02T18:13:28.946Z</time>
      </trkpt>
      <trkpt lat="44.6727" lon="5.15637">
        <ele>493</ele>
        <time>2026-09-02T18:13:29.946Z</time>
      </trkpt>
      <trkpt lat="44.67271" lon="5.15638">
        <ele>493</ele>
        <time>2026-09-02T18:13:30.946Z</time>
      </trkpt>
      <trkpt lat="44.67272" lon="5.15639">
        <ele>493</ele>
        <time>2026-09-02T18:13:31.946Z</time>
      </trkpt>
      <trkpt lat="44.67273" lon="5.1564">
        <ele>493</ele>
        <time>2026-09-02T18:13:32.946Z</time>
      </trkpt>
      <trkpt lat="44.67274" lon="5.1564">
        <ele>493</ele>
        <time>2026-09-02T18:13:33.946Z</time>
      </trkpt>
      <trkpt lat="44.67275" lon="5.1564">
        <ele>493</ele>
        <time>2026-09-02T18:13:34.946Z</time>
      </trkpt>
      <trkpt lat="44.67276" lon="5.15641">
        <ele>493</ele>
        <time>2026-09-02T18:13:35.946Z</time>
      </trkpt>
      <trkpt lat="44.67277" lon="5.15641">
        <ele>493</ele>
        <time>2026-09-02T18:13:36.946Z</time>
      </trkpt>
      <trkpt lat="44.67278" lon="5.15642">
        <ele>493</ele>
        <time>2026-09-02T18:13:37.946Z</time>
      </trkpt>
      <trkpt lat="44.67279" lon="5.15642">
        <ele>493</ele>
        <time>2026-09-02T18:13:38.946Z</time>
      </trkpt>
      <trkpt lat="44.67281" lon="5.15642">
        <ele>493</ele>
        <time>2026-09-02T18:13:39.946Z</time>
      </trkpt>
      <trkpt lat="44.67282" lon="5.15642">
        <ele>493</ele>
        <time>2026-09-02T18:13:40.946Z</time>
      </trkpt>
      <trkpt lat="44.67282" lon="5.15643">
        <ele>493</ele>
        <time>2026-09-02T18:13:41.946Z</time>
      </trkpt>
      <trkpt lat="44.67283" lon="5.15644">
        <ele>493</ele>
        <time>2026-09-02T18:13:42.946Z</time>
      </trkpt>
      <trkpt lat="44.67284" lon="5.15645">
        <ele>493</ele>
        <time>2026-09-02T18:13:43.946Z</time>
      </trkpt>
      <trkpt lat="44.67284" lon="5.15645">
        <ele>493</ele>
        <time>2026-09-02T18:13:44.946Z</time>
      </trkpt>
      <trkpt lat="44.67285" lon="5.15645">
        <ele>493</ele>
        <time>2026-09-02T18:13:45.946Z</time>
      </trkpt>
      <trkpt lat="44.67286" lon="5.15646">
        <ele>493</ele>
        <time>2026-09-02T18:13:46.946Z</time>
      </trkpt>
      <trkpt lat="44.67287" lon="5.15646">
        <ele>493</ele>
        <time>2026-09-02T18:13:47.946Z</time>
      </trkpt>
      <trkpt lat="44.67288" lon="5.15647">
        <ele>493</ele>
        <time>2026-09-02T18:13:48.946Z</time>
      </trkpt>
      <trkpt lat="44.67288" lon="5.15648">
        <ele>493</ele>
        <time>2026-09-02T18:13:49.946Z</time>
      </trkpt>
      <trkpt lat="44.67289" lon="5.15649">
        <ele>492</ele>
        <time>2026-09-02T18:13:50.946Z</time>
      </trkpt>
      <trkpt lat="44.67289" lon="5.1565">
        <ele>492</ele>
        <time>2026-09-02T18:13:51.946Z</time>
      </trkpt>
      <trkpt lat="44.6729" lon="5.1565">
        <ele>492</ele>
        <time>2026-09-02T18:13:52.946Z</time>
      </trkpt>
      <trkpt lat="44.67292" lon="5.15651">
        <ele>492</ele>
        <time>2026-09-02T18:13:53.946Z</time>
      </trkpt>
      <trkpt lat="44.67292" lon="5.15651">
        <ele>492</ele>
        <time>2026-09-02T18:13:54.946Z</time>
      </trkpt>
      <trkpt lat="44.67293" lon="5.15652">
        <ele>492</ele>
        <time>2026-09-02T18:13:55.946Z</time>
      </trkpt>
      <trkpt lat="44.67294" lon="5.15653">
        <ele>492</ele>
        <time>2026-09-02T18:13:56.946Z</time>
      </trkpt>
      <trkpt lat="44.67294" lon="5.15654">
        <ele>492</ele>
        <time>2026-09-02T18:13:57.946Z</time>
      </trkpt>
      <trkpt lat="44.67295" lon="5.15654">
        <ele>492</ele>
        <time>2026-09-02T18:13:58.946Z</time>
      </trkpt>
      <trkpt lat="44.67296" lon="5.15654">
        <ele>492</ele>
        <time>2026-09-02T18:13:59.946Z</time>
      </trkpt>
      <trkpt lat="44.67296" lon="5.15654">
        <ele>492</ele>
        <time>2026-09-02T18:14:00.946Z</time>
      </trkpt>
      <trkpt lat="44.67297" lon="5.15654">
        <ele>492</ele>
        <time>2026-09-02T18:14:01.946Z</time>
      </trkpt>
      <trkpt lat="44.67298" lon="5.15654">
        <ele>491</ele>
        <time>2026-09-02T18:14:02.946Z</time>
      </trkpt>
      <trkpt lat="44.67299" lon="5.15653">
        <ele>491</ele>
        <time>2026-09-02T18:14:03.946Z</time>
      </trkpt>
      <trkpt lat="44.67299" lon="5.15653">
        <ele>491</ele>
        <time>2026-09-02T18:14:04.946Z</time>
      </trkpt>
      <trkpt lat="44.67303" lon="5.15654">
        <ele>491</ele>
        <time>2026-09-02T18:14:08.273Z</time>
      </trkpt>
      <trkpt lat="44.67304" lon="5.15655">
        <ele>491</ele>
        <time>2026-09-02T18:14:09.273Z</time>
      </trkpt>
      <trkpt lat="44.67305" lon="5.15655">
        <ele>490</ele>
        <time>2026-09-02T18:14:10.273Z</time>
      </trkpt>
      <trkpt lat="44.67306" lon="5.15655">
        <ele>490</ele>
        <time>2026-09-02T18:14:11.273Z</time>
      </trkpt>
      <trkpt lat="44.67306" lon="5.15656">
        <ele>490</ele>
        <time>2026-09-02T18:14:12.273Z</time>
      </trkpt>
      <trkpt lat="44.67307" lon="5.15657">
        <ele>490</ele>
        <time>2026-09-02T18:14:13.273Z</time>
      </trkpt>
      <trkpt lat="44.67307" lon="5.15658">
        <ele>490</ele>
        <time>2026-09-02T18:14:14.273Z</time>
      </trkpt>
      <trkpt lat="44.67307" lon="5.15659">
        <ele>490</ele>
        <time>2026-09-02T18:14:15.273Z</time>
      </trkpt>
      <trkpt lat="44.67308" lon="5.1566">
        <ele>490</ele>
        <time>2026-09-02T18:14:16.273Z</time>
      </trkpt>
      <trkpt lat="44.67309" lon="5.15661">
        <ele>490</ele>
        <time>2026-09-02T18:14:17.273Z</time>
      </trkpt>
      <trkpt lat="44.67309" lon="5.15662">
        <ele>490</ele>
        <time>2026-09-02T18:14:18.273Z</time>
      </trkpt>
      <trkpt lat="44.6731" lon="5.15663">
        <ele>489</ele>
        <time>2026-09-02T18:14:19.273Z</time>
      </trkpt>
      <trkpt lat="44.67311" lon="5.15664">
        <ele>489</ele>
        <time>2026-09-02T18:14:20.273Z</time>
      </trkpt>
      <trkpt lat="44.67312" lon="5.15664">
        <ele>489</ele>
        <time>2026-09-02T18:14:21.273Z</time>
      </trkpt>
      <trkpt lat="44.67313" lon="5.15664">
        <ele>489</ele>
        <time>2026-09-02T18:14:22.273Z</time>
      </trkpt>
      <trkpt lat="44.67314" lon="5.15664">
        <ele>489</ele>
        <time>2026-09-02T18:14:23.273Z</time>
      </trkpt>
      <trkpt lat="44.67315" lon="5.15665">
        <ele>488</ele>
        <time>2026-09-02T18:14:24.273Z</time>
      </trkpt>
      <trkpt lat="44.67317" lon="5.15665">
        <ele>488</ele>
        <time>2026-09-02T18:14:25.273Z</time>
      </trkpt>
      <trkpt lat="44.67318" lon="5.15665">
        <ele>488</ele>
        <time>2026-09-02T18:14:26.273Z</time>
      </trkpt>
      <trkpt lat="44.67319" lon="5.15666">
        <ele>488</ele>
        <time>2026-09-02T18:14:27.273Z</time>
      </trkpt>
      <trkpt lat="44.6732" lon="5.15668">
        <ele>488</ele>
        <time>2026-09-02T18:14:28.273Z</time>
      </trkpt>
      <trkpt lat="44.6732" lon="5.15669">
        <ele>487</ele>
        <time>2026-09-02T18:14:29.273Z</time>
      </trkpt>
      <trkpt lat="44.67321" lon="5.15671">
        <ele>487</ele>
        <time>2026-09-02T18:14:30.273Z</time>
      </trkpt>
      <trkpt lat="44.67321" lon="5.15672">
        <ele>487</ele>
        <time>2026-09-02T18:14:31.273Z</time>
      </trkpt>
      <trkpt lat="44.67321" lon="5.15674">
        <ele>487</ele>
        <time>2026-09-02T18:14:32.273Z</time>
      </trkpt>
      <trkpt lat="44.67322" lon="5.15676">
        <ele>486</ele>
        <time>2026-09-02T18:14:33.273Z</time>
      </trkpt>
      <trkpt lat="44.67322" lon="5.15678">
        <ele>486</ele>
        <time>2026-09-02T18:14:34.273Z</time>
      </trkpt>
      <trkpt lat="44.67322" lon="5.1568">
        <ele>486</ele>
        <time>2026-09-02T18:14:35.273Z</time>
      </trkpt>
      <trkpt lat="44.67322" lon="5.15682">
        <ele>486</ele>
        <time>2026-09-02T18:14:36.273Z</time>
      </trkpt>
      <trkpt lat="44.67323" lon="5.15683">
        <ele>485</ele>
        <time>2026-09-02T18:14:37.273Z</time>
      </trkpt>
      <trkpt lat="44.67323" lon="5.15685">
        <ele>485</ele>
        <time>2026-09-02T18:14:38.273Z</time>
      </trkpt>
      <trkpt lat="44.67323" lon="5.15687">
        <ele>485</ele>
        <time>2026-09-02T18:14:39.273Z</time>
      </trkpt>
      <trkpt lat="44.67324" lon="5.15688">
        <ele>485</ele>
        <time>2026-09-02T18:14:40.273Z</time>
      </trkpt>
      <trkpt lat="44.67324" lon="5.1569">
        <ele>485</ele>
        <time>2026-09-02T18:14:41.273Z</time>
      </trkpt>
      <trkpt lat="44.67325" lon="5.15692">
        <ele>485</ele>
        <time>2026-09-02T18:14:42.273Z</time>
      </trkpt>
      <trkpt lat="44.67325" lon="5.15694">
        <ele>484</ele>
        <time>2026-09-02T18:14:43.273Z</time>
      </trkpt>
      <trkpt lat="44.67326" lon="5.15695">
        <ele>484</ele>
        <time>2026-09-02T18:14:44.273Z</time>
      </trkpt>
      <trkpt lat="44.67326" lon="5.15696">
        <ele>484</ele>
        <time>2026-09-02T18:14:45.273Z</time>
      </trkpt>
      <trkpt lat="44.67327" lon="5.15697">
        <ele>484</ele>
        <time>2026-09-02T18:14:46.273Z</time>
      </trkpt>
      <trkpt lat="44.67328" lon="5.15699">
        <ele>484</ele>
        <time>2026-09-02T18:14:47.273Z</time>
      </trkpt>
      <trkpt lat="44.67328" lon="5.157">
        <ele>484</ele>
        <time>2026-09-02T18:14:48.273Z</time>
      </trkpt>
      <trkpt lat="44.67329" lon="5.15702">
        <ele>484</ele>
        <time>2026-09-02T18:14:49.273Z</time>
      </trkpt>
      <trkpt lat="44.6733" lon="5.15703">
        <ele>483</ele>
        <time>2026-09-02T18:14:50.273Z</time>
      </trkpt>
      <trkpt lat="44.6733" lon="5.15704">
        <ele>483</ele>
        <time>2026-09-02T18:14:51.273Z</time>
      </trkpt>
      <trkpt lat="44.67331" lon="5.15705">
        <ele>483</ele>
        <time>2026-09-02T18:14:52.273Z</time>
      </trkpt>
      <trkpt lat="44.67331" lon="5.15707">
        <ele>483</ele>
        <time>2026-09-02T18:14:53.273Z</time>
      </trkpt>
      <trkpt lat="44.67332" lon="5.15708">
        <ele>483</ele>
        <time>2026-09-02T18:14:54.273Z</time>
      </trkpt>
      <trkpt lat="44.67332" lon="5.15709">
        <ele>482</ele>
        <time>2026-09-02T18:14:55.273Z</time>
      </trkpt>
      <trkpt lat="44.67333" lon="5.15711">
        <ele>482</ele>
        <time>2026-09-02T18:14:56.273Z</time>
      </trkpt>
      <trkpt lat="44.67333" lon="5.15712">
        <ele>482</ele>
        <time>2026-09-02T18:14:57.273Z</time>
      </trkpt>
      <trkpt lat="44.67334" lon="5.15713">
        <ele>482</ele>
        <time>2026-09-02T18:14:58.273Z</time>
      </trkpt>
      <trkpt lat="44.67334" lon="5.15713">
        <ele>482</ele>
        <time>2026-09-02T18:14:59.273Z</time>
      </trkpt>
      <trkpt lat="44.67335" lon="5.15715">
        <ele>482</ele>
        <time>2026-09-02T18:15:00.273Z</time>
      </trkpt>
      <trkpt lat="44.67335" lon="5.15716">
        <ele>482</ele>
        <time>2026-09-02T18:15:01.273Z</time>
      </trkpt>
      <trkpt lat="44.67336" lon="5.15717">
        <ele>481</ele>
        <time>2026-09-02T18:15:02.273Z</time>
      </trkpt>
      <trkpt lat="44.67336" lon="5.15718">
        <ele>481</ele>
        <time>2026-09-02T18:15:03.273Z</time>
      </trkpt>
      <trkpt lat="44.67337" lon="5.15719">
        <ele>481</ele>
        <time>2026-09-02T18:15:04.273Z</time>
      </trkpt>
      <trkpt lat="44.67338" lon="5.1572">
        <ele>481</ele>
        <time>2026-09-02T18:15:05.273Z</time>
      </trkpt>
      <trkpt lat="44.67338" lon="5.15722">
        <ele>481</ele>
        <time>2026-09-02T18:15:06.273Z</time>
      </trkpt>
      <trkpt lat="44.67339" lon="5.15723">
        <ele>480</ele>
        <time>2026-09-02T18:15:07.273Z</time>
      </trkpt>
      <trkpt lat="44.67339" lon="5.15724">
        <ele>480</ele>
        <time>2026-09-02T18:15:08.273Z</time>
      </trkpt>
      <trkpt lat="44.6734" lon="5.15725">
        <ele>480</ele>
        <time>2026-09-02T18:15:09.273Z</time>
      </trkpt>
      <trkpt lat="44.6734" lon="5.15726">
        <ele>480</ele>
        <time>2026-09-02T18:15:10.273Z</time>
      </trkpt>
      <trkpt lat="44.67341" lon="5.15726">
        <ele>480</ele>
        <time>2026-09-02T18:15:11.273Z</time>
      </trkpt>
      <trkpt lat="44.67341" lon="5.15728">
        <ele>480</ele>
        <time>2026-09-02T18:15:12.273Z</time>
      </trkpt>
      <trkpt lat="44.67342" lon="5.15729">
        <ele>479</ele>
        <time>2026-09-02T18:15:13.273Z</time>
      </trkpt>
      <trkpt lat="44.67342" lon="5.1573">
        <ele>479</ele>
        <time>2026-09-02T18:15:14.273Z</time>
      </trkpt>
      <trkpt lat="44.67343" lon="5.15731">
        <ele>479</ele>
        <time>2026-09-02T18:15:15.273Z</time>
      </trkpt>
      <trkpt lat="44.67343" lon="5.15733">
        <ele>479</ele>
        <time>2026-09-02T18:15:16.273Z</time>
      </trkpt>
      <trkpt lat="44.67344" lon="5.15734">
        <ele>479</ele>
        <time>2026-09-02T18:15:17.273Z</time>
      </trkpt>
      <trkpt lat="44.67344" lon="5.15736">
        <ele>479</ele>
        <time>2026-09-02T18:15:18.273Z</time>
      </trkpt>
      <trkpt lat="44.67345" lon="5.15737">
        <ele>479</ele>
        <time>2026-09-02T18:15:19.273Z</time>
      </trkpt>
      <trkpt lat="44.67345" lon="5.15738">
        <ele>479</ele>
        <time>2026-09-02T18:15:20.273Z</time>
      </trkpt>
      <trkpt lat="44.67346" lon="5.1574">
        <ele>478</ele>
        <time>2026-09-02T18:15:21.273Z</time>
      </trkpt>
      <trkpt lat="44.67347" lon="5.15741">
        <ele>478</ele>
        <time>2026-09-02T18:15:22.273Z</time>
      </trkpt>
      <trkpt lat="44.67348" lon="5.15741">
        <ele>478</ele>
        <time>2026-09-02T18:15:23.273Z</time>
      </trkpt>
      <trkpt lat="44.67349" lon="5.15742">
        <ele>478</ele>
        <time>2026-09-02T18:15:24.273Z</time>
      </trkpt>
      <trkpt lat="44.67349" lon="5.15742">
        <ele>478</ele>
        <time>2026-09-02T18:15:25.273Z</time>
      </trkpt>
      <trkpt lat="44.6735" lon="5.15742">
        <ele>478</ele>
        <time>2026-09-02T18:15:26.273Z</time>
      </trkpt>
      <trkpt lat="44.67351" lon="5.15742">
        <ele>478</ele>
        <time>2026-09-02T18:15:27.273Z</time>
      </trkpt>
      <trkpt lat="44.67351" lon="5.15741">
        <ele>478</ele>
        <time>2026-09-02T18:15:28.273Z</time>
      </trkpt>
      <trkpt lat="44.67352" lon="5.1574">
        <ele>477</ele>
        <time>2026-09-02T18:15:29.273Z</time>
      </trkpt>
      <trkpt lat="44.67353" lon="5.15739">
        <ele>477</ele>
        <time>2026-09-02T18:15:30.273Z</time>
      </trkpt>
      <trkpt lat="44.67353" lon="5.15738">
        <ele>477</ele>
        <time>2026-09-02T18:15:31.273Z</time>
      </trkpt>
      <trkpt lat="44.67353" lon="5.15736">
        <ele>477</ele>
        <time>2026-09-02T18:15:32.273Z</time>
      </trkpt>
      <trkpt lat="44.67354" lon="5.15735">
        <ele>476</ele>
        <time>2026-09-02T18:15:33.273Z</time>
      </trkpt>
      <trkpt lat="44.67354" lon="5.15733">
        <ele>476</ele>
        <time>2026-09-02T18:15:34.273Z</time>
      </trkpt>
      <trkpt lat="44.67354" lon="5.15731">
        <ele>476</ele>
        <time>2026-09-02T18:15:35.273Z</time>
      </trkpt>
      <trkpt lat="44.67354" lon="5.1573">
        <ele>476</ele>
        <time>2026-09-02T18:15:36.273Z</time>
      </trkpt>
      <trkpt lat="44.67354" lon="5.15728">
        <ele>476</ele>
        <time>2026-09-02T18:15:37.273Z</time>
      </trkpt>
      <trkpt lat="44.67354" lon="5.15726">
        <ele>476</ele>
        <time>2026-09-02T18:15:38.273Z</time>
      </trkpt>
      <trkpt lat="44.67354" lon="5.15725">
        <ele>475</ele>
        <time>2026-09-02T18:15:39.273Z</time>
      </trkpt>
      <trkpt lat="44.67354" lon="5.15723">
        <ele>475</ele>
        <time>2026-09-02T18:15:40.273Z</time>
      </trkpt>
      <trkpt lat="44.67354" lon="5.15722">
        <ele>475</ele>
        <time>2026-09-02T18:15:41.273Z</time>
      </trkpt>
      <trkpt lat="44.67354" lon="5.15721">
        <ele>475</ele>
        <time>2026-09-02T18:15:42.273Z</time>
      </trkpt>
      <trkpt lat="44.67353" lon="5.15719">
        <ele>475</ele>
        <time>2026-09-02T18:15:43.273Z</time>
      </trkpt>
      <trkpt lat="44.67353" lon="5.15717">
        <ele>475</ele>
        <time>2026-09-02T18:15:44.273Z</time>
      </trkpt>
      <trkpt lat="44.67353" lon="5.15716">
        <ele>475</ele>
        <time>2026-09-02T18:15:45.273Z</time>
      </trkpt>
      <trkpt lat="44.67353" lon="5.15714">
        <ele>474</ele>
        <time>2026-09-02T18:15:46.273Z</time>
      </trkpt>
      <trkpt lat="44.67352" lon="5.15713">
        <ele>474</ele>
        <time>2026-09-02T18:15:47.273Z</time>
      </trkpt>
      <trkpt lat="44.67352" lon="5.15711">
        <ele>474</ele>
        <time>2026-09-02T18:15:48.273Z</time>
      </trkpt>
      <trkpt lat="44.67352" lon="5.1571">
        <ele>474</ele>
        <time>2026-09-02T18:15:49.273Z</time>
      </trkpt>
      <trkpt lat="44.67351" lon="5.15708">
        <ele>474</ele>
        <time>2026-09-02T18:15:50.273Z</time>
      </trkpt>
      <trkpt lat="44.67351" lon="5.15707">
        <ele>474</ele>
        <time>2026-09-02T18:15:51.273Z</time>
      </trkpt>
      <trkpt lat="44.67351" lon="5.15705">
        <ele>474</ele>
        <time>2026-09-02T18:15:52.273Z</time>
      </trkpt>
      <trkpt lat="44.67351" lon="5.15704">
        <ele>474</ele>
        <time>2026-09-02T18:15:53.273Z</time>
      </trkpt>
      <trkpt lat="44.6735" lon="5.15703">
        <ele>474</ele>
        <time>2026-09-02T18:15:54.273Z</time>
      </trkpt>
      <trkpt lat="44.6735" lon="5.15701">
        <ele>474</ele>
        <time>2026-09-02T18:15:55.273Z</time>
      </trkpt>
      <trkpt lat="44.6735" lon="5.157">
        <ele>474</ele>
        <time>2026-09-02T18:15:56.273Z</time>
      </trkpt>
      <trkpt lat="44.6735" lon="5.15698">
        <ele>474</ele>
        <time>2026-09-02T18:15:57.273Z</time>
      </trkpt>
      <trkpt lat="44.67349" lon="5.15697">
        <ele>474</ele>
        <time>2026-09-02T18:15:58.273Z</time>
      </trkpt>
      <trkpt lat="44.67349" lon="5.15696">
        <ele>474</ele>
        <time>2026-09-02T18:15:59.273Z</time>
      </trkpt>
      <trkpt lat="44.67349" lon="5.15695">
        <ele>474</ele>
        <time>2026-09-02T18:16:00.273Z</time>
      </trkpt>
      <trkpt lat="44.67349" lon="5.15694">
        <ele>474</ele>
        <time>2026-09-02T18:16:01.273Z</time>
      </trkpt>
      <trkpt lat="44.67349" lon="5.15693">
        <ele>474</ele>
        <time>2026-09-02T18:16:02.273Z</time>
      </trkpt>
      <trkpt lat="44.67348" lon="5.15692">
        <ele>474</ele>
        <time>2026-09-02T18:16:03.273Z</time>
      </trkpt>
      <trkpt lat="44.67348" lon="5.1569">
        <ele>474</ele>
        <time>2026-09-02T18:16:04.273Z</time>
      </trkpt>
      <trkpt lat="44.67348" lon="5.15689">
        <ele>474</ele>
        <time>2026-09-02T18:16:05.273Z</time>
      </trkpt>
      <trkpt lat="44.67348" lon="5.15688">
        <ele>474</ele>
        <time>2026-09-02T18:16:06.273Z</time>
      </trkpt>
      <trkpt lat="44.67348" lon="5.15687">
        <ele>474</ele>
        <time>2026-09-02T18:16:07.273Z</time>
      </trkpt>
      <trkpt lat="44.67348" lon="5.15686">
        <ele>474</ele>
        <time>2026-09-02T18:16:08.273Z</time>
      </trkpt>
      <trkpt lat="44.67348" lon="5.15685">
        <ele>474</ele>
        <time>2026-09-02T18:16:09.273Z</time>
      </trkpt>
      <trkpt lat="44.67348" lon="5.15685">
        <ele>474</ele>
        <time>2026-09-02T18:16:10.273Z</time>
      </trkpt>
      <trkpt lat="44.67348" lon="5.15684">
        <ele>474</ele>
        <time>2026-09-02T18:16:11.273Z</time>
      </trkpt>
      <trkpt lat="44.67347" lon="5.15683">
        <ele>474</ele>
        <time>2026-09-02T18:16:12.273Z</time>
      </trkpt>
      <trkpt lat="44.67347" lon="5.15683">
        <ele>474</ele>
        <time>2026-09-02T18:16:13.273Z</time>
      </trkpt>
      <trkpt lat="44.67347" lon="5.15681">
        <ele>474</ele>
        <time>2026-09-02T18:16:14.273Z</time>
      </trkpt>
      <trkpt lat="44.67347" lon="5.15679">
        <ele>474</ele>
        <time>2026-09-02T18:16:15.273Z</time>
      </trkpt>
      <trkpt lat="44.67347" lon="5.15678">
        <ele>474</ele>
        <time>2026-09-02T18:16:16.273Z</time>
      </trkpt>
      <trkpt lat="44.67347" lon="5.15676">
        <ele>474</ele>
        <time>2026-09-02T18:16:17.273Z</time>
      </trkpt>
      <trkpt lat="44.67346" lon="5.15674">
        <ele>474</ele>
        <time>2026-09-02T18:16:18.273Z</time>
      </trkpt>
      <trkpt lat="44.67346" lon="5.15672">
        <ele>474</ele>
        <time>2026-09-02T18:16:19.273Z</time>
      </trkpt>
      <trkpt lat="44.67346" lon="5.1567">
        <ele>474</ele>
        <time>2026-09-02T18:16:20.273Z</time>
      </trkpt>
      <trkpt lat="44.67345" lon="5.15668">
        <ele>474</ele>
        <time>2026-09-02T18:16:21.273Z</time>
      </trkpt>
      <trkpt lat="44.67345" lon="5.15667">
        <ele>474</ele>
        <time>2026-09-02T18:16:22.273Z</time>
      </trkpt>
      <trkpt lat="44.67345" lon="5.15665">
        <ele>474</ele>
        <time>2026-09-02T18:16:23.273Z</time>
      </trkpt>
      <trkpt lat="44.67345" lon="5.15663">
        <ele>475</ele>
        <time>2026-09-02T18:16:24.273Z</time>
      </trkpt>
      <trkpt lat="44.67344" lon="5.15661">
        <ele>475</ele>
        <time>2026-09-02T18:16:25.273Z</time>
      </trkpt>
      <trkpt lat="44.67344" lon="5.1566">
        <ele>475</ele>
        <time>2026-09-02T18:16:26.273Z</time>
      </trkpt>
      <trkpt lat="44.67344" lon="5.15658">
        <ele>475</ele>
        <time>2026-09-02T18:16:27.273Z</time>
      </trkpt>
      <trkpt lat="44.67343" lon="5.15656">
        <ele>475</ele>
        <time>2026-09-02T18:16:28.273Z</time>
      </trkpt>
      <trkpt lat="44.67343" lon="5.15655">
        <ele>475</ele>
        <time>2026-09-02T18:16:29.273Z</time>
      </trkpt>
      <trkpt lat="44.67343" lon="5.15654">
        <ele>475</ele>
        <time>2026-09-02T18:16:30.273Z</time>
      </trkpt>
      <trkpt lat="44.67342" lon="5.15652">
        <ele>475</ele>
        <time>2026-09-02T18:16:31.273Z</time>
      </trkpt>
      <trkpt lat="44.67342" lon="5.15651">
        <ele>475</ele>
        <time>2026-09-02T18:16:32.273Z</time>
      </trkpt>
      <trkpt lat="44.67341" lon="5.15649">
        <ele>475</ele>
        <time>2026-09-02T18:16:33.273Z</time>
      </trkpt>
      <trkpt lat="44.6734" lon="5.15648">
        <ele>475</ele>
        <time>2026-09-02T18:16:34.273Z</time>
      </trkpt>
      <trkpt lat="44.6734" lon="5.15647">
        <ele>475</ele>
        <time>2026-09-02T18:16:35.273Z</time>
      </trkpt>
      <trkpt lat="44.67339" lon="5.15646">
        <ele>475</ele>
        <time>2026-09-02T18:16:36.273Z</time>
      </trkpt>
      <trkpt lat="44.67339" lon="5.15645">
        <ele>475</ele>
        <time>2026-09-02T18:16:37.273Z</time>
      </trkpt>
      <trkpt lat="44.67338" lon="5.15644">
        <ele>475</ele>
        <time>2026-09-02T18:16:38.273Z</time>
      </trkpt>
      <trkpt lat="44.67337" lon="5.15643">
        <ele>475</ele>
        <time>2026-09-02T18:16:39.273Z</time>
      </trkpt>
      <trkpt lat="44.67336" lon="5.15642">
        <ele>475</ele>
        <time>2026-09-02T18:16:40.273Z</time>
      </trkpt>
      <trkpt lat="44.67336" lon="5.15642">
        <ele>475</ele>
        <time>2026-09-02T18:16:41.273Z</time>
      </trkpt>
      <trkpt lat="44.67335" lon="5.15641">
        <ele>475</ele>
        <time>2026-09-02T18:16:42.273Z</time>
      </trkpt>
      <trkpt lat="44.67335" lon="5.1564">
        <ele>475</ele>
        <time>2026-09-02T18:16:43.273Z</time>
      </trkpt>
      <trkpt lat="44.67334" lon="5.15639">
        <ele>475</ele>
        <time>2026-09-02T18:16:44.273Z</time>
      </trkpt>
      <trkpt lat="44.67334" lon="5.15638">
        <ele>475</ele>
        <time>2026-09-02T18:16:45.273Z</time>
      </trkpt>
      <trkpt lat="44.67333" lon="5.15637">
        <ele>475</ele>
        <time>2026-09-02T18:16:46.273Z</time>
      </trkpt>
      <trkpt lat="44.67333" lon="5.15636">
        <ele>475</ele>
        <time>2026-09-02T18:16:47.273Z</time>
      </trkpt>
      <trkpt lat="44.67332" lon="5.15635">
        <ele>475</ele>
        <time>2026-09-02T18:16:48.273Z</time>
      </trkpt>
      <trkpt lat="44.67332" lon="5.15635">
        <ele>475</ele>
        <time>2026-09-02T18:16:49.273Z</time>
      </trkpt>
      <trkpt lat="44.67332" lon="5.15634">
        <ele>475</ele>
        <time>2026-09-02T18:16:50.273Z</time>
      </trkpt>
      <trkpt lat="44.67331" lon="5.15633">
        <ele>476</ele>
        <time>2026-09-02T18:16:51.273Z</time>
      </trkpt>
      <trkpt lat="44.67331" lon="5.15631">
        <ele>476</ele>
        <time>2026-09-02T18:16:52.273Z</time>
      </trkpt>
      <trkpt lat="44.67331" lon="5.1563">
        <ele>476</ele>
        <time>2026-09-02T18:16:53.273Z</time>
      </trkpt>
      <trkpt lat="44.6733" lon="5.15629">
        <ele>476</ele>
        <time>2026-09-02T18:16:54.273Z</time>
      </trkpt>
      <trkpt lat="44.6733" lon="5.15628">
        <ele>476</ele>
        <time>2026-09-02T18:16:55.273Z</time>
      </trkpt>
      <trkpt lat="44.67329" lon="5.15627">
        <ele>476</ele>
        <time>2026-09-02T18:16:56.273Z</time>
      </trkpt>
      <trkpt lat="44.67329" lon="5.15627">
        <ele>476</ele>
        <time>2026-09-02T18:16:57.273Z</time>
      </trkpt>
      <trkpt lat="44.67329" lon="5.15625">
        <ele>476</ele>
        <time>2026-09-02T18:16:58.273Z</time>
      </trkpt>
      <trkpt lat="44.6733" lon="5.15624">
        <ele>476</ele>
        <time>2026-09-02T18:16:59.273Z</time>
      </trkpt>
      <trkpt lat="44.6733" lon="5.15623">
        <ele>476</ele>
        <time>2026-09-02T18:17:00.273Z</time>
      </trkpt>
      <trkpt lat="44.6733" lon="5.15622">
        <ele>476</ele>
        <time>2026-09-02T18:17:01.273Z</time>
      </trkpt>
      <trkpt lat="44.67331" lon="5.15622">
        <ele>476</ele>
        <time>2026-09-02T18:17:02.273Z</time>
      </trkpt>
      <trkpt lat="44.67331" lon="5.15621">
        <ele>476</ele>
        <time>2026-09-02T18:17:03.273Z</time>
      </trkpt>
      <trkpt lat="44.6733" lon="5.1562">
        <ele>476</ele>
        <time>2026-09-02T18:17:04.273Z</time>
      </trkpt>
      <trkpt lat="44.6733" lon="5.1562">
        <ele>476</ele>
        <time>2026-09-02T18:17:05.273Z</time>
      </trkpt>
      <trkpt lat="44.67329" lon="5.1562">
        <ele>476</ele>
        <time>2026-09-02T18:17:06.273Z</time>
      </trkpt>
      <trkpt lat="44.67328" lon="5.15619">
        <ele>476</ele>
        <time>2026-09-02T18:17:07.273Z</time>
      </trkpt>
      <trkpt lat="44.67328" lon="5.15619">
        <ele>476</ele>
        <time>2026-09-02T18:17:08.273Z</time>
      </trkpt>
      <trkpt lat="44.67327" lon="5.15618">
        <ele>476</ele>
        <time>2026-09-02T18:17:09.273Z</time>
      </trkpt>
      <trkpt lat="44.67326" lon="5.15618">
        <ele>476</ele>
        <time>2026-09-02T18:17:10.273Z</time>
      </trkpt>
      <trkpt lat="44.67326" lon="5.15617">
        <ele>477</ele>
        <time>2026-09-02T18:17:11.273Z</time>
      </trkpt>
      <trkpt lat="44.67325" lon="5.15615">
        <ele>477</ele>
        <time>2026-09-02T18:17:12.273Z</time>
      </trkpt>
      <trkpt lat="44.67325" lon="5.15613">
        <ele>477</ele>
        <time>2026-09-02T18:17:13.273Z</time>
      </trkpt>
      <trkpt lat="44.67325" lon="5.15612">
        <ele>477</ele>
        <time>2026-09-02T18:17:14.273Z</time>
      </trkpt>
      <trkpt lat="44.67325" lon="5.15611">
        <ele>477</ele>
        <time>2026-09-02T18:17:15.273Z</time>
      </trkpt>
      <trkpt lat="44.67324" lon="5.1561">
        <ele>477</ele>
        <time>2026-09-02T18:17:16.273Z</time>
      </trkpt>
      <trkpt lat="44.67324" lon="5.15609">
        <ele>477</ele>
        <time>2026-09-02T18:17:17.273Z</time>
      </trkpt>
      <trkpt lat="44.67323" lon="5.15608">
        <ele>477</ele>
        <time>2026-09-02T18:17:18.273Z</time>
      </trkpt>
      <trkpt lat="44.67323" lon="5.15607">
        <ele>477</ele>
        <time>2026-09-02T18:17:19.273Z</time>
      </trkpt>
      <trkpt lat="44.67319" lon="5.15604">
        <ele>478</ele>
        <time>2026-09-02T18:17:28.289Z</time>
      </trkpt>
      <trkpt lat="44.67318" lon="5.15604">
        <ele>479</ele>
        <time>2026-09-02T18:17:29.289Z</time>
      </trkpt>
      <trkpt lat="44.67318" lon="5.15605">
        <ele>479</ele>
        <time>2026-09-02T18:17:30.289Z</time>
      </trkpt>
      <trkpt lat="44.67317" lon="5.15605">
        <ele>479</ele>
        <time>2026-09-02T18:17:31.289Z</time>
      </trkpt>
      <trkpt lat="44.67316" lon="5.15606">
        <ele>479</ele>
        <time>2026-09-02T18:17:32.289Z</time>
      </trkpt>
      <trkpt lat="44.67315" lon="5.15606">
        <ele>479</ele>
        <time>2026-09-02T18:17:33.289Z</time>
      </trkpt>
      <trkpt lat="44.67315" lon="5.15607">
        <ele>479</ele>
        <time>2026-09-02T18:17:34.289Z</time>
      </trkpt>
      <trkpt lat="44.67314" lon="5.15608">
        <ele>479</ele>
        <time>2026-09-02T18:17:35.289Z</time>
      </trkpt>
      <trkpt lat="44.67314" lon="5.15608">
        <ele>479</ele>
        <time>2026-09-02T18:17:36.289Z</time>
      </trkpt>
      <trkpt lat="44.67314" lon="5.15608">
        <ele>479</ele>
        <time>2026-09-02T18:17:37.289Z</time>
      </trkpt>
      <trkpt lat="44.67314" lon="5.15607">
        <ele>479</ele>
        <time>2026-09-02T18:17:38.289Z</time>
      </trkpt>
      <trkpt lat="44.67315" lon="5.15604">
        <ele>479</ele>
        <time>2026-09-02T18:17:39.289Z</time>
      </trkpt>
      <trkpt lat="44.67316" lon="5.156">
        <ele>478</ele>
        <time>2026-09-02T18:17:40.289Z</time>
      </trkpt>
      <trkpt lat="44.67317" lon="5.15596">
        <ele>478</ele>
        <time>2026-09-02T18:17:41.289Z</time>
      </trkpt>
      <trkpt lat="44.67319" lon="5.15593">
        <ele>478</ele>
        <time>2026-09-02T18:17:42.289Z</time>
      </trkpt>
      <trkpt lat="44.6732" lon="5.15589">
        <ele>478</ele>
        <time>2026-09-02T18:17:43.289Z</time>
      </trkpt>
      <trkpt lat="44.67321" lon="5.15586">
        <ele>477</ele>
        <time>2026-09-02T18:17:44.289Z</time>
      </trkpt>
      <trkpt lat="44.67322" lon="5.15584">
        <ele>477</ele>
        <time>2026-09-02T18:17:45.289Z</time>
      </trkpt>
      <trkpt lat="44.67324" lon="5.15581">
        <ele>477</ele>
        <time>2026-09-02T18:17:46.289Z</time>
      </trkpt>
      <trkpt lat="44.67325" lon="5.15579">
        <ele>476</ele>
        <time>2026-09-02T18:17:47.289Z</time>
      </trkpt>
      <trkpt lat="44.67326" lon="5.15577">
        <ele>476</ele>
        <time>2026-09-02T18:17:48.289Z</time>
      </trkpt>
      <trkpt lat="44.67328" lon="5.15575">
        <ele>476</ele>
        <time>2026-09-02T18:17:49.289Z</time>
      </trkpt>
      <trkpt lat="44.67329" lon="5.15573">
        <ele>476</ele>
        <time>2026-09-02T18:17:50.289Z</time>
      </trkpt>
      <trkpt lat="44.6733" lon="5.15571">
        <ele>476</ele>
        <time>2026-09-02T18:17:51.289Z</time>
      </trkpt>
      <trkpt lat="44.67331" lon="5.15569">
        <ele>475</ele>
        <time>2026-09-02T18:17:52.289Z</time>
      </trkpt>
      <trkpt lat="44.67332" lon="5.15567">
        <ele>475</ele>
        <time>2026-09-02T18:17:53.289Z</time>
      </trkpt>
      <trkpt lat="44.67333" lon="5.15566">
        <ele>475</ele>
        <time>2026-09-02T18:17:54.289Z</time>
      </trkpt>
      <trkpt lat="44.67334" lon="5.15564">
        <ele>475</ele>
        <time>2026-09-02T18:17:55.289Z</time>
      </trkpt>
      <trkpt lat="44.67335" lon="5.15562">
        <ele>475</ele>
        <time>2026-09-02T18:17:56.289Z</time>
      </trkpt>
      <trkpt lat="44.67336" lon="5.1556">
        <ele>475</ele>
        <time>2026-09-02T18:17:57.289Z</time>
      </trkpt>
      <trkpt lat="44.67337" lon="5.15559">
        <ele>475</ele>
        <time>2026-09-02T18:17:58.289Z</time>
      </trkpt>
      <trkpt lat="44.67337" lon="5.15557">
        <ele>474</ele>
        <time>2026-09-02T18:17:59.289Z</time>
      </trkpt>
      <trkpt lat="44.67339" lon="5.15556">
        <ele>474</ele>
        <time>2026-09-02T18:18:00.289Z</time>
      </trkpt>
      <trkpt lat="44.6734" lon="5.15554">
        <ele>474</ele>
        <time>2026-09-02T18:18:01.289Z</time>
      </trkpt>
      <trkpt lat="44.67341" lon="5.15554">
        <ele>474</ele>
        <time>2026-09-02T18:18:02.289Z</time>
      </trkpt>
      <trkpt lat="44.67343" lon="5.15552">
        <ele>474</ele>
        <time>2026-09-02T18:18:03.289Z</time>
      </trkpt>
      <trkpt lat="44.67344" lon="5.15552">
        <ele>473</ele>
        <time>2026-09-02T18:18:04.289Z</time>
      </trkpt>
      <trkpt lat="44.67345" lon="5.15551">
        <ele>473</ele>
        <time>2026-09-02T18:18:05.289Z</time>
      </trkpt>
      <trkpt lat="44.67347" lon="5.1555">
        <ele>473</ele>
        <time>2026-09-02T18:18:06.289Z</time>
      </trkpt>
      <trkpt lat="44.67349" lon="5.15549">
        <ele>472</ele>
        <time>2026-09-02T18:18:07.289Z</time>
      </trkpt>
      <trkpt lat="44.6735" lon="5.15548">
        <ele>472</ele>
        <time>2026-09-02T18:18:08.289Z</time>
      </trkpt>
      <trkpt lat="44.67351" lon="5.15547">
        <ele>472</ele>
        <time>2026-09-02T18:18:09.289Z</time>
      </trkpt>
      <trkpt lat="44.67352" lon="5.15547">
        <ele>472</ele>
        <time>2026-09-02T18:18:10.289Z</time>
      </trkpt>
      <trkpt lat="44.67353" lon="5.15546">
        <ele>472</ele>
        <time>2026-09-02T18:18:11.289Z</time>
      </trkpt>
      <trkpt lat="44.67355" lon="5.15545">
        <ele>472</ele>
        <time>2026-09-02T18:18:12.289Z</time>
      </trkpt>
      <trkpt lat="44.67355" lon="5.15545">
        <ele>471</ele>
        <time>2026-09-02T18:18:13.289Z</time>
      </trkpt>
      <trkpt lat="44.67356" lon="5.15544">
        <ele>471</ele>
        <time>2026-09-02T18:18:14.289Z</time>
      </trkpt>
      <trkpt lat="44.67356" lon="5.15544">
        <ele>471</ele>
        <time>2026-09-02T18:18:15.289Z</time>
      </trkpt>
      <trkpt lat="44.67356" lon="5.15543">
        <ele>471</ele>
        <time>2026-09-02T18:18:16.289Z</time>
      </trkpt>
      <trkpt lat="44.67358" lon="5.15541">
        <ele>471</ele>
        <time>2026-09-02T18:18:19.618Z</time>
      </trkpt>
      <trkpt lat="44.67358" lon="5.1554">
        <ele>471</ele>
        <time>2026-09-02T18:18:20.618Z</time>
      </trkpt>
      <trkpt lat="44.67359" lon="5.15539">
        <ele>471</ele>
        <time>2026-09-02T18:18:21.618Z</time>
      </trkpt>
      <trkpt lat="44.6736" lon="5.15538">
        <ele>471</ele>
        <time>2026-09-02T18:18:22.618Z</time>
      </trkpt>
      <trkpt lat="44.67361" lon="5.15537">
        <ele>471</ele>
        <time>2026-09-02T18:18:23.618Z</time>
      </trkpt>
      <trkpt lat="44.67362" lon="5.15536">
        <ele>471</ele>
        <time>2026-09-02T18:18:24.618Z</time>
      </trkpt>
      <trkpt lat="44.67363" lon="5.15536">
        <ele>471</ele>
        <time>2026-09-02T18:18:25.618Z</time>
      </trkpt>
      <trkpt lat="44.67364" lon="5.15535">
        <ele>471</ele>
        <time>2026-09-02T18:18:26.618Z</time>
      </trkpt>
      <trkpt lat="44.67365" lon="5.15534">
        <ele>470</ele>
        <time>2026-09-02T18:18:27.618Z</time>
      </trkpt>
      <trkpt lat="44.67366" lon="5.15533">
        <ele>470</ele>
        <time>2026-09-02T18:18:28.618Z</time>
      </trkpt>
      <trkpt lat="44.67367" lon="5.15533">
        <ele>470</ele>
        <time>2026-09-02T18:18:29.618Z</time>
      </trkpt>
      <trkpt lat="44.67368" lon="5.15532">
        <ele>470</ele>
        <time>2026-09-02T18:18:30.618Z</time>
      </trkpt>
      <trkpt lat="44.67369" lon="5.15531">
        <ele>470</ele>
        <time>2026-09-02T18:18:31.618Z</time>
      </trkpt>
      <trkpt lat="44.6737" lon="5.15531">
        <ele>470</ele>
        <time>2026-09-02T18:18:32.618Z</time>
      </trkpt>
      <trkpt lat="44.6737" lon="5.1553">
        <ele>470</ele>
        <time>2026-09-02T18:18:33.618Z</time>
      </trkpt>
      <trkpt lat="44.6737" lon="5.1553">
        <ele>470</ele>
        <time>2026-09-02T18:18:34.618Z</time>
      </trkpt>
      <trkpt lat="44.67371" lon="5.1553">
        <ele>470</ele>
        <time>2026-09-02T18:18:35.618Z</time>
      </trkpt>
      <trkpt lat="44.67374" lon="5.15527">
        <ele>470</ele>
        <time>2026-09-02T18:18:38.919Z</time>
      </trkpt>
      <trkpt lat="44.67374" lon="5.15527">
        <ele>470</ele>
        <time>2026-09-02T18:18:39.919Z</time>
      </trkpt>
      <trkpt lat="44.67375" lon="5.15526">
        <ele>470</ele>
        <time>2026-09-02T18:18:40.919Z</time>
      </trkpt>
      <trkpt lat="44.67376" lon="5.15525">
        <ele>470</ele>
        <time>2026-09-02T18:18:41.919Z</time>
      </trkpt>
      <trkpt lat="44.67377" lon="5.15525">
        <ele>469</ele>
        <time>2026-09-02T18:18:42.919Z</time>
      </trkpt>
      <trkpt lat="44.67378" lon="5.15524">
        <ele>469</ele>
        <time>2026-09-02T18:18:43.919Z</time>
      </trkpt>
      <trkpt lat="44.67379" lon="5.15523">
        <ele>469</ele>
        <time>2026-09-02T18:18:44.919Z</time>
      </trkpt>
      <trkpt lat="44.6738" lon="5.15522">
        <ele>469</ele>
        <time>2026-09-02T18:18:45.919Z</time>
      </trkpt>
      <trkpt lat="44.67381" lon="5.15522">
        <ele>469</ele>
        <time>2026-09-02T18:18:46.919Z</time>
      </trkpt>
      <trkpt lat="44.67382" lon="5.15521">
        <ele>468</ele>
        <time>2026-09-02T18:18:47.919Z</time>
      </trkpt>
      <trkpt lat="44.67383" lon="5.15521">
        <ele>468</ele>
        <time>2026-09-02T18:18:48.919Z</time>
      </trkpt>
      <trkpt lat="44.67384" lon="5.1552">
        <ele>468</ele>
        <time>2026-09-02T18:18:49.919Z</time>
      </trkpt>
      <trkpt lat="44.67385" lon="5.1552">
        <ele>468</ele>
        <time>2026-09-02T18:18:50.919Z</time>
      </trkpt>
      <trkpt lat="44.67386" lon="5.15519">
        <ele>467</ele>
        <time>2026-09-02T18:18:51.919Z</time>
      </trkpt>
      <trkpt lat="44.67387" lon="5.15518">
        <ele>467</ele>
        <time>2026-09-02T18:18:52.919Z</time>
      </trkpt>
      <trkpt lat="44.67388" lon="5.15518">
        <ele>467</ele>
        <time>2026-09-02T18:18:53.919Z</time>
      </trkpt>
      <trkpt lat="44.67389" lon="5.15517">
        <ele>467</ele>
        <time>2026-09-02T18:18:54.919Z</time>
      </trkpt>
      <trkpt lat="44.6739" lon="5.15517">
        <ele>467</ele>
        <time>2026-09-02T18:18:55.919Z</time>
      </trkpt>
      <trkpt lat="44.67391" lon="5.15517">
        <ele>467</ele>
        <time>2026-09-02T18:18:56.919Z</time>
      </trkpt>
      <trkpt lat="44.67391" lon="5.15516">
        <ele>466</ele>
        <time>2026-09-02T18:18:57.919Z</time>
      </trkpt>
      <trkpt lat="44.67392" lon="5.15515">
        <ele>466</ele>
        <time>2026-09-02T18:18:58.919Z</time>
      </trkpt>
      <trkpt lat="44.67393" lon="5.15515">
        <ele>466</ele>
        <time>2026-09-02T18:18:59.919Z</time>
      </trkpt>
      <trkpt lat="44.67394" lon="5.15514">
        <ele>466</ele>
        <time>2026-09-02T18:19:00.919Z</time>
      </trkpt>
      <trkpt lat="44.67395" lon="5.15514">
        <ele>466</ele>
        <time>2026-09-02T18:19:01.919Z</time>
      </trkpt>
      <trkpt lat="44.67396" lon="5.15514">
        <ele>466</ele>
        <time>2026-09-02T18:19:02.919Z</time>
      </trkpt>
      <trkpt lat="44.67396" lon="5.15513">
        <ele>466</ele>
        <time>2026-09-02T18:19:03.919Z</time>
      </trkpt>
      <trkpt lat="44.67397" lon="5.15513">
        <ele>466</ele>
        <time>2026-09-02T18:19:04.919Z</time>
      </trkpt>
      <trkpt lat="44.67399" lon="5.15513">
        <ele>465</ele>
        <time>2026-09-02T18:19:05.919Z</time>
      </trkpt>
      <trkpt lat="44.67399" lon="5.15513">
        <ele>465</ele>
        <time>2026-09-02T18:19:06.919Z</time>
      </trkpt>
      <trkpt lat="44.674" lon="5.15512">
        <ele>465</ele>
        <time>2026-09-02T18:19:07.919Z</time>
      </trkpt>
      <trkpt lat="44.67401" lon="5.15512">
        <ele>465</ele>
        <time>2026-09-02T18:19:08.919Z</time>
      </trkpt>
      <trkpt lat="44.67402" lon="5.15512">
        <ele>465</ele>
        <time>2026-09-02T18:19:09.919Z</time>
      </trkpt>
      <trkpt lat="44.67403" lon="5.15512">
        <ele>465</ele>
        <time>2026-09-02T18:19:10.919Z</time>
      </trkpt>
      <trkpt lat="44.67405" lon="5.15513">
        <ele>465</ele>
        <time>2026-09-02T18:19:11.919Z</time>
      </trkpt>
      <trkpt lat="44.67405" lon="5.15513">
        <ele>465</ele>
        <time>2026-09-02T18:19:12.919Z</time>
      </trkpt>
      <trkpt lat="44.67406" lon="5.15513">
        <ele>465</ele>
        <time>2026-09-02T18:19:13.919Z</time>
      </trkpt>
      <trkpt lat="44.67407" lon="5.15513">
        <ele>465</ele>
        <time>2026-09-02T18:19:14.919Z</time>
      </trkpt>
      <trkpt lat="44.67408" lon="5.15513">
        <ele>464</ele>
        <time>2026-09-02T18:19:15.919Z</time>
      </trkpt>
      <trkpt lat="44.6741" lon="5.15513">
        <ele>464</ele>
        <time>2026-09-02T18:19:16.919Z</time>
      </trkpt>
      <trkpt lat="44.67411" lon="5.15514">
        <ele>464</ele>
        <time>2026-09-02T18:19:17.919Z</time>
      </trkpt>
      <trkpt lat="44.67412" lon="5.15514">
        <ele>464</ele>
        <time>2026-09-02T18:19:18.919Z</time>
      </trkpt>
      <trkpt lat="44.67413" lon="5.15514">
        <ele>464</ele>
        <time>2026-09-02T18:19:19.919Z</time>
      </trkpt>
      <trkpt lat="44.67414" lon="5.15514">
        <ele>464</ele>
        <time>2026-09-02T18:19:20.919Z</time>
      </trkpt>
      <trkpt lat="44.67415" lon="5.15515">
        <ele>464</ele>
        <time>2026-09-02T18:19:21.919Z</time>
      </trkpt>
      <trkpt lat="44.67416" lon="5.15516">
        <ele>463</ele>
        <time>2026-09-02T18:19:22.919Z</time>
      </trkpt>
      <trkpt lat="44.67417" lon="5.15516">
        <ele>463</ele>
        <time>2026-09-02T18:19:23.919Z</time>
      </trkpt>
      <trkpt lat="44.67418" lon="5.15517">
        <ele>463</ele>
        <time>2026-09-02T18:19:24.919Z</time>
      </trkpt>
      <trkpt lat="44.6742" lon="5.15517">
        <ele>463</ele>
        <time>2026-09-02T18:19:25.919Z</time>
      </trkpt>
      <trkpt lat="44.67421" lon="5.15518">
        <ele>463</ele>
        <time>2026-09-02T18:19:26.919Z</time>
      </trkpt>
      <trkpt lat="44.67422" lon="5.15518">
        <ele>462</ele>
        <time>2026-09-02T18:19:27.919Z</time>
      </trkpt>
      <trkpt lat="44.67423" lon="5.15519">
        <ele>462</ele>
        <time>2026-09-02T18:19:28.919Z</time>
      </trkpt>
      <trkpt lat="44.67424" lon="5.1552">
        <ele>462</ele>
        <time>2026-09-02T18:19:29.919Z</time>
      </trkpt>
      <trkpt lat="44.67425" lon="5.1552">
        <ele>462</ele>
        <time>2026-09-02T18:19:30.919Z</time>
      </trkpt>
      <trkpt lat="44.67426" lon="5.15521">
        <ele>462</ele>
        <time>2026-09-02T18:19:31.919Z</time>
      </trkpt>
      <trkpt lat="44.67427" lon="5.15521">
        <ele>461</ele>
        <time>2026-09-02T18:19:32.919Z</time>
      </trkpt>
      <trkpt lat="44.67428" lon="5.15522">
        <ele>461</ele>
        <time>2026-09-02T18:19:33.919Z</time>
      </trkpt>
      <trkpt lat="44.67429" lon="5.15523">
        <ele>461</ele>
        <time>2026-09-02T18:19:34.919Z</time>
      </trkpt>
      <trkpt lat="44.6743" lon="5.15524">
        <ele>461</ele>
        <time>2026-09-02T18:19:35.919Z</time>
      </trkpt>
      <trkpt lat="44.67432" lon="5.15524">
        <ele>461</ele>
        <time>2026-09-02T18:19:36.919Z</time>
      </trkpt>
      <trkpt lat="44.67433" lon="5.15525">
        <ele>461</ele>
        <time>2026-09-02T18:19:37.919Z</time>
      </trkpt>
      <trkpt lat="44.67434" lon="5.15525">
        <ele>461</ele>
        <time>2026-09-02T18:19:38.919Z</time>
      </trkpt>
      <trkpt lat="44.67435" lon="5.15526">
        <ele>460</ele>
        <time>2026-09-02T18:19:39.919Z</time>
      </trkpt>
      <trkpt lat="44.67436" lon="5.15526">
        <ele>460</ele>
        <time>2026-09-02T18:19:40.919Z</time>
      </trkpt>
      <trkpt lat="44.67437" lon="5.15527">
        <ele>460</ele>
        <time>2026-09-02T18:19:41.919Z</time>
      </trkpt>
      <trkpt lat="44.67438" lon="5.15527">
        <ele>460</ele>
        <time>2026-09-02T18:19:42.919Z</time>
      </trkpt>
      <trkpt lat="44.67438" lon="5.15528">
        <ele>460</ele>
        <time>2026-09-02T18:19:43.919Z</time>
      </trkpt>
      <trkpt lat="44.67439" lon="5.15529">
        <ele>460</ele>
        <time>2026-09-02T18:19:44.919Z</time>
      </trkpt>
      <trkpt lat="44.6744" lon="5.15529">
        <ele>459</ele>
        <time>2026-09-02T18:19:45.919Z</time>
      </trkpt>
      <trkpt lat="44.67441" lon="5.15529">
        <ele>459</ele>
        <time>2026-09-02T18:19:46.919Z</time>
      </trkpt>
      <trkpt lat="44.67442" lon="5.1553">
        <ele>459</ele>
        <time>2026-09-02T18:19:47.919Z</time>
      </trkpt>
      <trkpt lat="44.67443" lon="5.1553">
        <ele>459</ele>
        <time>2026-09-02T18:19:48.919Z</time>
      </trkpt>
      <trkpt lat="44.67444" lon="5.15531">
        <ele>459</ele>
        <time>2026-09-02T18:19:49.919Z</time>
      </trkpt>
      <trkpt lat="44.67444" lon="5.15531">
        <ele>459</ele>
        <time>2026-09-02T18:19:50.919Z</time>
      </trkpt>
      <trkpt lat="44.67445" lon="5.15532">
        <ele>458</ele>
        <time>2026-09-02T18:19:51.919Z</time>
      </trkpt>
      <trkpt lat="44.67446" lon="5.15532">
        <ele>458</ele>
        <time>2026-09-02T18:19:52.919Z</time>
      </trkpt>
      <trkpt lat="44.67447" lon="5.15533">
        <ele>458</ele>
        <time>2026-09-02T18:19:53.919Z</time>
      </trkpt>
      <trkpt lat="44.67448" lon="5.15534">
        <ele>458</ele>
        <time>2026-09-02T18:19:54.919Z</time>
      </trkpt>
      <trkpt lat="44.67449" lon="5.15534">
        <ele>458</ele>
        <time>2026-09-02T18:19:55.919Z</time>
      </trkpt>
      <trkpt lat="44.6745" lon="5.15535">
        <ele>458</ele>
        <time>2026-09-02T18:19:56.919Z</time>
      </trkpt>
      <trkpt lat="44.67451" lon="5.15536">
        <ele>458</ele>
        <time>2026-09-02T18:19:57.919Z</time>
      </trkpt>
      <trkpt lat="44.67452" lon="5.15537">
        <ele>458</ele>
        <time>2026-09-02T18:19:58.919Z</time>
      </trkpt>
      <trkpt lat="44.67453" lon="5.15537">
        <ele>458</ele>
        <time>2026-09-02T18:19:59.919Z</time>
      </trkpt>
      <trkpt lat="44.67454" lon="5.15538">
        <ele>458</ele>
        <time>2026-09-02T18:20:00.919Z</time>
      </trkpt>
      <trkpt lat="44.67455" lon="5.15539">
        <ele>458</ele>
        <time>2026-09-02T18:20:01.919Z</time>
      </trkpt>
      <trkpt lat="44.67456" lon="5.1554">
        <ele>458</ele>
        <time>2026-09-02T18:20:02.919Z</time>
      </trkpt>
      <trkpt lat="44.67457" lon="5.1554">
        <ele>458</ele>
        <time>2026-09-02T18:20:03.919Z</time>
      </trkpt>
      <trkpt lat="44.67458" lon="5.15541">
        <ele>458</ele>
        <time>2026-09-02T18:20:04.919Z</time>
      </trkpt>
      <trkpt lat="44.67459" lon="5.15542">
        <ele>458</ele>
        <time>2026-09-02T18:20:05.919Z</time>
      </trkpt>
      <trkpt lat="44.6746" lon="5.15543">
        <ele>458</ele>
        <time>2026-09-02T18:20:06.919Z</time>
      </trkpt>
      <trkpt lat="44.6746" lon="5.15543">
        <ele>457</ele>
        <time>2026-09-02T18:20:07.919Z</time>
      </trkpt>
      <trkpt lat="44.67461" lon="5.15544">
        <ele>457</ele>
        <time>2026-09-02T18:20:08.919Z</time>
      </trkpt>
      <trkpt lat="44.67462" lon="5.15545">
        <ele>457</ele>
        <time>2026-09-02T18:20:09.919Z</time>
      </trkpt>
      <trkpt lat="44.67463" lon="5.15546">
        <ele>457</ele>
        <time>2026-09-02T18:20:10.919Z</time>
      </trkpt>
      <trkpt lat="44.67464" lon="5.15546">
        <ele>457</ele>
        <time>2026-09-02T18:20:11.919Z</time>
      </trkpt>
      <trkpt lat="44.67465" lon="5.15547">
        <ele>457</ele>
        <time>2026-09-02T18:20:12.919Z</time>
      </trkpt>
      <trkpt lat="44.67466" lon="5.15547">
        <ele>457</ele>
        <time>2026-09-02T18:20:13.919Z</time>
      </trkpt>
      <trkpt lat="44.67467" lon="5.15548">
        <ele>457</ele>
        <time>2026-09-02T18:20:14.919Z</time>
      </trkpt>
      <trkpt lat="44.67468" lon="5.15548">
        <ele>457</ele>
        <time>2026-09-02T18:20:15.919Z</time>
      </trkpt>
      <trkpt lat="44.67468" lon="5.15548">
        <ele>457</ele>
        <time>2026-09-02T18:20:16.919Z</time>
      </trkpt>
      <trkpt lat="44.67468" lon="5.15548">
        <ele>457</ele>
        <time>2026-09-02T18:20:17.919Z</time>
      </trkpt>
      <trkpt lat="44.67469" lon="5.15549">
        <ele>457</ele>
        <time>2026-09-02T18:20:21.919Z</time>
      </trkpt>
      <trkpt lat="44.6747" lon="5.15549">
        <ele>457</ele>
        <time>2026-09-02T18:20:22.919Z</time>
      </trkpt>
      <trkpt lat="44.6747" lon="5.15549">
        <ele>457</ele>
        <time>2026-09-02T18:20:23.919Z</time>
      </trkpt>
      <trkpt lat="44.67471" lon="5.15549">
        <ele>457</ele>
        <time>2026-09-02T18:20:24.919Z</time>
      </trkpt>
      <trkpt lat="44.67471" lon="5.15549">
        <ele>457</ele>
        <time>2026-09-02T18:20:25.919Z</time>
      </trkpt>
      <trkpt lat="44.67472" lon="5.15549">
        <ele>457</ele>
        <time>2026-09-02T18:20:26.919Z</time>
      </trkpt>
      <trkpt lat="44.67472" lon="5.15549">
        <ele>457</ele>
        <time>2026-09-02T18:20:27.919Z</time>
      </trkpt>
      <trkpt lat="44.67473" lon="5.15549">
        <ele>457</ele>
        <time>2026-09-02T18:20:28.919Z</time>
      </trkpt>
      <trkpt lat="44.67474" lon="5.15549">
        <ele>457</ele>
        <time>2026-09-02T18:20:29.919Z</time>
      </trkpt>
      <trkpt lat="44.67474" lon="5.15549">
        <ele>457</ele>
        <time>2026-09-02T18:20:30.919Z</time>
      </trkpt>
      <trkpt lat="44.67475" lon="5.15549">
        <ele>457</ele>
        <time>2026-09-02T18:20:31.919Z</time>
      </trkpt>
      <trkpt lat="44.67476" lon="5.15548">
        <ele>457</ele>
        <time>2026-09-02T18:20:32.919Z</time>
      </trkpt>
      <trkpt lat="44.67476" lon="5.15548">
        <ele>457</ele>
        <time>2026-09-02T18:20:33.919Z</time>
      </trkpt>
      <trkpt lat="44.67477" lon="5.15547">
        <ele>457</ele>
        <time>2026-09-02T18:20:34.919Z</time>
      </trkpt>
      <trkpt lat="44.67478" lon="5.15547">
        <ele>457</ele>
        <time>2026-09-02T18:20:35.919Z</time>
      </trkpt>
      <trkpt lat="44.67478" lon="5.15546">
        <ele>457</ele>
        <time>2026-09-02T18:20:36.919Z</time>
      </trkpt>
      <trkpt lat="44.67479" lon="5.15546">
        <ele>457</ele>
        <time>2026-09-02T18:20:37.919Z</time>
      </trkpt>
      <trkpt lat="44.6748" lon="5.15545">
        <ele>457</ele>
        <time>2026-09-02T18:20:38.919Z</time>
      </trkpt>
      <trkpt lat="44.67481" lon="5.15545">
        <ele>457</ele>
        <time>2026-09-02T18:20:39.919Z</time>
      </trkpt>
      <trkpt lat="44.67481" lon="5.15544">
        <ele>457</ele>
        <time>2026-09-02T18:20:40.919Z</time>
      </trkpt>
      <trkpt lat="44.67482" lon="5.15543">
        <ele>456</ele>
        <time>2026-09-02T18:20:41.919Z</time>
      </trkpt>
      <trkpt lat="44.67483" lon="5.15543">
        <ele>456</ele>
        <time>2026-09-02T18:20:42.919Z</time>
      </trkpt>
      <trkpt lat="44.67483" lon="5.15542">
        <ele>456</ele>
        <time>2026-09-02T18:20:43.919Z</time>
      </trkpt>
      <trkpt lat="44.67484" lon="5.15541">
        <ele>456</ele>
        <time>2026-09-02T18:20:44.919Z</time>
      </trkpt>
      <trkpt lat="44.67485" lon="5.1554">
        <ele>456</ele>
        <time>2026-09-02T18:20:45.919Z</time>
      </trkpt>
      <trkpt lat="44.67485" lon="5.15539">
        <ele>456</ele>
        <time>2026-09-02T18:20:46.919Z</time>
      </trkpt>
      <trkpt lat="44.67485" lon="5.15539">
        <ele>456</ele>
        <time>2026-09-02T18:20:47.919Z</time>
      </trkpt>
      <trkpt lat="44.67485" lon="5.15539">
        <ele>456</ele>
        <time>2026-09-02T18:20:48.919Z</time>
      </trkpt>
      <trkpt lat="44.67485" lon="5.15539">
        <ele>456</ele>
        <time>2026-09-02T18:20:49.919Z</time>
      </trkpt>
      <trkpt lat="44.67485" lon="5.15539">
        <ele>456</ele>
        <time>2026-09-02T18:20:50.919Z</time>
      </trkpt>
      <trkpt lat="44.67486" lon="5.15537">
        <ele>456</ele>
        <time>2026-09-02T18:20:57.918Z</time>
      </trkpt>
      <trkpt lat="44.67487" lon="5.15536">
        <ele>456</ele>
        <time>2026-09-02T18:20:58.918Z</time>
      </trkpt>
      <trkpt lat="44.67487" lon="5.15535">
        <ele>456</ele>
        <time>2026-09-02T18:20:59.918Z</time>
      </trkpt>
      <trkpt lat="44.67488" lon="5.15534">
        <ele>456</ele>
        <time>2026-09-02T18:21:00.918Z</time>
      </trkpt>
      <trkpt lat="44.67488" lon="5.15533">
        <ele>456</ele>
        <time>2026-09-02T18:21:01.918Z</time>
      </trkpt>
      <trkpt lat="44.67489" lon="5.15533">
        <ele>456</ele>
        <time>2026-09-02T18:21:02.918Z</time>
      </trkpt>
      <trkpt lat="44.67489" lon="5.15532">
        <ele>456</ele>
        <time>2026-09-02T18:21:03.918Z</time>
      </trkpt>
      <trkpt lat="44.67489" lon="5.15531">
        <ele>455</ele>
        <time>2026-09-02T18:21:04.918Z</time>
      </trkpt>
      <trkpt lat="44.6749" lon="5.15531">
        <ele>456</ele>
        <time>2026-09-02T18:21:05.918Z</time>
      </trkpt>
      <trkpt lat="44.6749" lon="5.1553">
        <ele>456</ele>
        <time>2026-09-02T18:21:06.918Z</time>
      </trkpt>
      <trkpt lat="44.67491" lon="5.15529">
        <ele>456</ele>
        <time>2026-09-02T18:21:07.918Z</time>
      </trkpt>
      <trkpt lat="44.67491" lon="5.15528">
        <ele>456</ele>
        <time>2026-09-02T18:21:08.918Z</time>
      </trkpt>
      <trkpt lat="44.67491" lon="5.15527">
        <ele>456</ele>
        <time>2026-09-02T18:21:09.918Z</time>
      </trkpt>
      <trkpt lat="44.67491" lon="5.15527">
        <ele>456</ele>
        <time>2026-09-02T18:21:10.918Z</time>
      </trkpt>
      <trkpt lat="44.67491" lon="5.15527">
        <ele>456</ele>
        <time>2026-09-02T18:21:11.918Z</time>
      </trkpt>
      <trkpt lat="44.67491" lon="5.15527">
        <ele>455</ele>
        <time>2026-09-02T18:21:12.918Z</time>
      </trkpt>
      <trkpt lat="44.67491" lon="5.15527">
        <ele>455</ele>
        <time>2026-09-02T18:21:13.918Z</time>
      </trkpt>
      <trkpt lat="44.67494" lon="5.15525">
        <ele>455</ele>
        <time>2026-09-02T18:21:23.918Z</time>
      </trkpt>
      <trkpt lat="44.67494" lon="5.15524">
        <ele>455</ele>
        <time>2026-09-02T18:21:24.918Z</time>
      </trkpt>
      <trkpt lat="44.67495" lon="5.15524">
        <ele>455</ele>
        <time>2026-09-02T18:21:25.918Z</time>
      </trkpt>
      <trkpt lat="44.67495" lon="5.15524">
        <ele>455</ele>
        <time>2026-09-02T18:21:26.918Z</time>
      </trkpt>
      <trkpt lat="44.67495" lon="5.15524">
        <ele>455</ele>
        <time>2026-09-02T18:21:27.918Z</time>
      </trkpt>
      <trkpt lat="44.67496" lon="5.15524">
        <ele>455</ele>
        <time>2026-09-02T18:21:28.918Z</time>
      </trkpt>
      <trkpt lat="44.67496" lon="5.15524">
        <ele>455</ele>
        <time>2026-09-02T18:21:29.918Z</time>
      </trkpt>
      <trkpt lat="44.67497" lon="5.15524">
        <ele>454</ele>
        <time>2026-09-02T18:21:30.918Z</time>
      </trkpt>
      <trkpt lat="44.67497" lon="5.15524">
        <ele>454</ele>
        <time>2026-09-02T18:21:31.918Z</time>
      </trkpt>
      <trkpt lat="44.67497" lon="5.15524">
        <ele>454</ele>
        <time>2026-09-02T18:21:32.918Z</time>
      </trkpt>
      <trkpt lat="44.67497" lon="5.15526">
        <ele>454</ele>
        <time>2026-09-02T18:21:38.936Z</time>
      </trkpt>
      <trkpt lat="44.67497" lon="5.15527">
        <ele>454</ele>
        <time>2026-09-02T18:21:39.936Z</time>
      </trkpt>
      <trkpt lat="44.67497" lon="5.15528">
        <ele>454</ele>
        <time>2026-09-02T18:21:40.936Z</time>
      </trkpt>
      <trkpt lat="44.67497" lon="5.15529">
        <ele>454</ele>
        <time>2026-09-02T18:21:41.936Z</time>
      </trkpt>
      <trkpt lat="44.67497" lon="5.1553">
        <ele>454</ele>
        <time>2026-09-02T18:21:42.936Z</time>
      </trkpt>
      <trkpt lat="44.67497" lon="5.1553">
        <ele>454</ele>
        <time>2026-09-02T18:21:43.936Z</time>
      </trkpt>
      <trkpt lat="44.67497" lon="5.1553">
        <ele>454</ele>
        <time>2026-09-02T18:21:44.936Z</time>
      </trkpt>
      <trkpt lat="44.67497" lon="5.1553">
        <ele>454</ele>
        <time>2026-09-02T18:21:45.936Z</time>
      </trkpt>
      <trkpt lat="44.67497" lon="5.15531">
        <ele>453</ele>
        <time>2026-09-02T18:21:58.952Z</time>
      </trkpt>
      <trkpt lat="44.67497" lon="5.15532">
        <ele>453</ele>
        <time>2026-09-02T18:21:59.952Z</time>
      </trkpt>
      <trkpt lat="44.67497" lon="5.15533">
        <ele>453</ele>
        <time>2026-09-02T18:22:00.952Z</time>
      </trkpt>
      <trkpt lat="44.67496" lon="5.15534">
        <ele>453</ele>
        <time>2026-09-02T18:22:01.952Z</time>
      </trkpt>
      <trkpt lat="44.67496" lon="5.15534">
        <ele>453</ele>
        <time>2026-09-02T18:22:02.952Z</time>
      </trkpt>
      <trkpt lat="44.67496" lon="5.15535">
        <ele>452</ele>
        <time>2026-09-02T18:22:03.952Z</time>
      </trkpt>
      <trkpt lat="44.67495" lon="5.15536">
        <ele>452</ele>
        <time>2026-09-02T18:22:04.952Z</time>
      </trkpt>
      <trkpt lat="44.67495" lon="5.15537">
        <ele>452</ele>
        <time>2026-09-02T18:22:05.952Z</time>
      </trkpt>
      <trkpt lat="44.67495" lon="5.15537">
        <ele>452</ele>
        <time>2026-09-02T18:22:06.952Z</time>
      </trkpt>
      <trkpt lat="44.67495" lon="5.15538">
        <ele>452</ele>
        <time>2026-09-02T18:22:07.952Z</time>
      </trkpt>
      <trkpt lat="44.67495" lon="5.15538">
        <ele>452</ele>
        <time>2026-09-02T18:22:08.952Z</time>
      </trkpt>
      <trkpt lat="44.67495" lon="5.15538">
        <ele>452</ele>
        <time>2026-09-02T18:22:09.952Z</time>
      </trkpt>
      <trkpt lat="44.67495" lon="5.1554">
        <ele>452</ele>
        <time>2026-09-02T18:22:17.954Z</time>
      </trkpt>
      <trkpt lat="44.67495" lon="5.1554">
        <ele>452</ele>
        <time>2026-09-02T18:22:18.954Z</time>
      </trkpt>
      <trkpt lat="44.67494" lon="5.15541">
        <ele>452</ele>
        <time>2026-09-02T18:22:19.954Z</time>
      </trkpt>
      <trkpt lat="44.67494" lon="5.15542">
        <ele>452</ele>
        <time>2026-09-02T18:22:20.954Z</time>
      </trkpt>
      <trkpt lat="44.67493" lon="5.15543">
        <ele>452</ele>
        <time>2026-09-02T18:22:21.954Z</time>
      </trkpt>
      <trkpt lat="44.67493" lon="5.15544">
        <ele>452</ele>
        <time>2026-09-02T18:22:22.954Z</time>
      </trkpt>
      <trkpt lat="44.67492" lon="5.15545">
        <ele>452</ele>
        <time>2026-09-02T18:22:23.954Z</time>
      </trkpt>
      <trkpt lat="44.67491" lon="5.15546">
        <ele>452</ele>
        <time>2026-09-02T18:22:24.954Z</time>
      </trkpt>
      <trkpt lat="44.67491" lon="5.15546">
        <ele>452</ele>
        <time>2026-09-02T18:22:25.954Z</time>
      </trkpt>
      <trkpt lat="44.67491" lon="5.15546">
        <ele>452</ele>
        <time>2026-09-02T18:22:26.954Z</time>
      </trkpt>
      <trkpt lat="44.67491" lon="5.15546">
        <ele>451</ele>
        <time>2026-09-02T18:22:27.954Z</time>
      </trkpt>
      <trkpt lat="44.6749" lon="5.15547">
        <ele>451</ele>
        <time>2026-09-02T18:22:28.954Z</time>
      </trkpt>
      <trkpt lat="44.67489" lon="5.15548">
        <ele>451</ele>
        <time>2026-09-02T18:22:29.954Z</time>
      </trkpt>
      <trkpt lat="44.67489" lon="5.15549">
        <ele>451</ele>
        <time>2026-09-02T18:22:30.954Z</time>
      </trkpt>
      <trkpt lat="44.67488" lon="5.15549">
        <ele>451</ele>
        <time>2026-09-02T18:22:31.954Z</time>
      </trkpt>
      <trkpt lat="44.67488" lon="5.1555">
        <ele>451</ele>
        <time>2026-09-02T18:22:32.954Z</time>
      </trkpt>
      <trkpt lat="44.67487" lon="5.15551">
        <ele>451</ele>
        <time>2026-09-02T18:22:33.954Z</time>
      </trkpt>
      <trkpt lat="44.67486" lon="5.15552">
        <ele>451</ele>
        <time>2026-09-02T18:22:34.954Z</time>
      </trkpt>
      <trkpt lat="44.67485" lon="5.15553">
        <ele>451</ele>
        <time>2026-09-02T18:22:35.954Z</time>
      </trkpt>
      <trkpt lat="44.67484" lon="5.15554">
        <ele>451</ele>
        <time>2026-09-02T18:22:36.954Z</time>
      </trkpt>
      <trkpt lat="44.67483" lon="5.15555">
        <ele>451</ele>
        <time>2026-09-02T18:22:37.954Z</time>
      </trkpt>
      <trkpt lat="44.67482" lon="5.15555">
        <ele>451</ele>
        <time>2026-09-02T18:22:38.954Z</time>
      </trkpt>
      <trkpt lat="44.67481" lon="5.15556">
        <ele>451</ele>
        <time>2026-09-02T18:22:39.954Z</time>
      </trkpt>
      <trkpt lat="44.6748" lon="5.15557">
        <ele>450</ele>
        <time>2026-09-02T18:22:40.954Z</time>
      </trkpt>
      <trkpt lat="44.67479" lon="5.15557">
        <ele>450</ele>
        <time>2026-09-02T18:22:41.954Z</time>
      </trkpt>
      <trkpt lat="44.67478" lon="5.15557">
        <ele>450</ele>
        <time>2026-09-02T18:22:42.954Z</time>
      </trkpt>
      <trkpt lat="44.67477" lon="5.15558">
        <ele>450</ele>
        <time>2026-09-02T18:22:43.954Z</time>
      </trkpt>
      <trkpt lat="44.67475" lon="5.15558">
        <ele>450</ele>
        <time>2026-09-02T18:22:44.954Z</time>
      </trkpt>
      <trkpt lat="44.67474" lon="5.15558">
        <ele>449</ele>
        <time>2026-09-02T18:22:45.954Z</time>
      </trkpt>
      <trkpt lat="44.67473" lon="5.15558">
        <ele>449</ele>
        <time>2026-09-02T18:22:46.954Z</time>
      </trkpt>
      <trkpt lat="44.67472" lon="5.15557">
        <ele>449</ele>
        <time>2026-09-02T18:22:47.954Z</time>
      </trkpt>
      <trkpt lat="44.67472" lon="5.15557">
        <ele>449</ele>
        <time>2026-09-02T18:22:48.954Z</time>
      </trkpt>
      <trkpt lat="44.67471" lon="5.15557">
        <ele>449</ele>
        <time>2026-09-02T18:22:49.954Z</time>
      </trkpt>
      <trkpt lat="44.67471" lon="5.15557">
        <ele>449</ele>
        <time>2026-09-02T18:22:50.954Z</time>
      </trkpt>
      <trkpt lat="44.67471" lon="5.15558">
        <ele>449</ele>
        <time>2026-09-02T18:22:51.954Z</time>
      </trkpt>
      <trkpt lat="44.67471" lon="5.15558">
        <ele>449</ele>
        <time>2026-09-02T18:22:52.954Z</time>
      </trkpt>
      <trkpt lat="44.67469" lon="5.15558">
        <ele>448</ele>
        <time>2026-09-02T18:22:56.255Z</time>
      </trkpt>
      <trkpt lat="44.67468" lon="5.15558">
        <ele>448</ele>
        <time>2026-09-02T18:22:57.255Z</time>
      </trkpt>
      <trkpt lat="44.67467" lon="5.15558">
        <ele>448</ele>
        <time>2026-09-02T18:22:58.255Z</time>
      </trkpt>
      <trkpt lat="44.67466" lon="5.15557">
        <ele>448</ele>
        <time>2026-09-02T18:22:59.255Z</time>
      </trkpt>
      <trkpt lat="44.67465" lon="5.15556">
        <ele>448</ele>
        <time>2026-09-02T18:23:00.255Z</time>
      </trkpt>
      <trkpt lat="44.67464" lon="5.15556">
        <ele>448</ele>
        <time>2026-09-02T18:23:01.255Z</time>
      </trkpt>
      <trkpt lat="44.67463" lon="5.15555">
        <ele>448</ele>
        <time>2026-09-02T18:23:02.255Z</time>
      </trkpt>
      <trkpt lat="44.67462" lon="5.15555">
        <ele>448</ele>
        <time>2026-09-02T18:23:03.255Z</time>
      </trkpt>
      <trkpt lat="44.67461" lon="5.15554">
        <ele>447</ele>
        <time>2026-09-02T18:23:04.255Z</time>
      </trkpt>
      <trkpt lat="44.6746" lon="5.15554">
        <ele>447</ele>
        <time>2026-09-02T18:23:05.255Z</time>
      </trkpt>
      <trkpt lat="44.67459" lon="5.15553">
        <ele>447</ele>
        <time>2026-09-02T18:23:06.255Z</time>
      </trkpt>
      <trkpt lat="44.67459" lon="5.15553">
        <ele>447</ele>
        <time>2026-09-02T18:23:07.255Z</time>
      </trkpt>
      <trkpt lat="44.67458" lon="5.15552">
        <ele>447</ele>
        <time>2026-09-02T18:23:08.255Z</time>
      </trkpt>
      <trkpt lat="44.67457" lon="5.15551">
        <ele>447</ele>
        <time>2026-09-02T18:23:09.255Z</time>
      </trkpt>
      <trkpt lat="44.67457" lon="5.15551">
        <ele>446</ele>
        <time>2026-09-02T18:23:12.255Z</time>
      </trkpt>
      <trkpt lat="44.67457" lon="5.15551">
        <ele>446</ele>
        <time>2026-09-02T18:23:13.255Z</time>
      </trkpt>
      <trkpt lat="44.67452" lon="5.15549">
        <ele>446</ele>
        <time>2026-09-02T18:23:14.255Z</time>
      </trkpt>
      <trkpt lat="44.67451" lon="5.15549">
        <ele>446</ele>
        <time>2026-09-02T18:23:15.255Z</time>
      </trkpt>
      <trkpt lat="44.67451" lon="5.15549">
        <ele>446</ele>
        <time>2026-09-02T18:23:16.255Z</time>
      </trkpt>
      <trkpt lat="44.6745" lon="5.1555">
        <ele>446</ele>
        <time>2026-09-02T18:23:17.255Z</time>
      </trkpt>
      <trkpt lat="44.67449" lon="5.15551">
        <ele>446</ele>
        <time>2026-09-02T18:23:18.255Z</time>
      </trkpt>
      <trkpt lat="44.67448" lon="5.15552">
        <ele>446</ele>
        <time>2026-09-02T18:23:19.255Z</time>
      </trkpt>
      <trkpt lat="44.67447" lon="5.15553">
        <ele>446</ele>
        <time>2026-09-02T18:23:20.255Z</time>
      </trkpt>
      <trkpt lat="44.67447" lon="5.15555">
        <ele>446</ele>
        <time>2026-09-02T18:23:21.255Z</time>
      </trkpt>
      <trkpt lat="44.67447" lon="5.15556">
        <ele>447</ele>
        <time>2026-09-02T18:23:22.255Z</time>
      </trkpt>
      <trkpt lat="44.67447" lon="5.15558">
        <ele>447</ele>
        <time>2026-09-02T18:23:23.255Z</time>
      </trkpt>
      <trkpt lat="44.67447" lon="5.15559">
        <ele>447</ele>
        <time>2026-09-02T18:23:24.255Z</time>
      </trkpt>
      <trkpt lat="44.67447" lon="5.1556">
        <ele>447</ele>
        <time>2026-09-02T18:23:25.255Z</time>
      </trkpt>
      <trkpt lat="44.67447" lon="5.15561">
        <ele>447</ele>
        <time>2026-09-02T18:23:26.255Z</time>
      </trkpt>
      <trkpt lat="44.67447" lon="5.15561">
        <ele>447</ele>
        <time>2026-09-02T18:23:27.255Z</time>
      </trkpt>
      <trkpt lat="44.67447" lon="5.15562">
        <ele>447</ele>
        <time>2026-09-02T18:23:28.255Z</time>
      </trkpt>
      <trkpt lat="44.67447" lon="5.15562">
        <ele>447</ele>
        <time>2026-09-02T18:23:29.255Z</time>
      </trkpt>
      <trkpt lat="44.67447" lon="5.15565">
        <ele>448</ele>
        <time>2026-09-02T18:23:42.256Z</time>
      </trkpt>
      <trkpt lat="44.67447" lon="5.15566">
        <ele>448</ele>
        <time>2026-09-02T18:23:43.256Z</time>
      </trkpt>
      <trkpt lat="44.67448" lon="5.15567">
        <ele>448</ele>
        <time>2026-09-02T18:23:44.256Z</time>
      </trkpt>
      <trkpt lat="44.67448" lon="5.15567">
        <ele>448</ele>
        <time>2026-09-02T18:23:45.256Z</time>
      </trkpt>
      <trkpt lat="44.67449" lon="5.15568">
        <ele>448</ele>
        <time>2026-09-02T18:23:46.256Z</time>
      </trkpt>
      <trkpt lat="44.67449" lon="5.15569">
        <ele>448</ele>
        <time>2026-09-02T18:23:47.256Z</time>
      </trkpt>
      <trkpt lat="44.6745" lon="5.15569">
        <ele>448</ele>
        <time>2026-09-02T18:23:48.256Z</time>
      </trkpt>
      <trkpt lat="44.67451" lon="5.1557">
        <ele>448</ele>
        <time>2026-09-02T18:23:49.256Z</time>
      </trkpt>
      <trkpt lat="44.67451" lon="5.1557">
        <ele>448</ele>
        <time>2026-09-02T18:23:50.256Z</time>
      </trkpt>
      <trkpt lat="44.67452" lon="5.1557">
        <ele>447</ele>
        <time>2026-09-02T18:23:51.256Z</time>
      </trkpt>
      <trkpt lat="44.67453" lon="5.1557">
        <ele>447</ele>
        <time>2026-09-02T18:23:52.256Z</time>
      </trkpt>
      <trkpt lat="44.67454" lon="5.15571">
        <ele>447</ele>
        <time>2026-09-02T18:23:53.256Z</time>
      </trkpt>
      <trkpt lat="44.67455" lon="5.15571">
        <ele>447</ele>
        <time>2026-09-02T18:23:54.256Z</time>
      </trkpt>
      <trkpt lat="44.67456" lon="5.15571">
        <ele>447</ele>
        <time>2026-09-02T18:23:55.256Z</time>
      </trkpt>
      <trkpt lat="44.67457" lon="5.15572">
        <ele>447</ele>
        <time>2026-09-02T18:23:56.256Z</time>
      </trkpt>
      <trkpt lat="44.67458" lon="5.15572">
        <ele>447</ele>
        <time>2026-09-02T18:23:57.256Z</time>
      </trkpt>
      <trkpt lat="44.67459" lon="5.15572">
        <ele>447</ele>
        <time>2026-09-02T18:23:58.256Z</time>
      </trkpt>
      <trkpt lat="44.6746" lon="5.15573">
        <ele>447</ele>
        <time>2026-09-02T18:23:59.256Z</time>
      </trkpt>
      <trkpt lat="44.67461" lon="5.15573">
        <ele>447</ele>
        <time>2026-09-02T18:24:00.256Z</time>
      </trkpt>
      <trkpt lat="44.67462" lon="5.15573">
        <ele>447</ele>
        <time>2026-09-02T18:24:01.256Z</time>
      </trkpt>
      <trkpt lat="44.67463" lon="5.15573">
        <ele>447</ele>
        <time>2026-09-02T18:24:02.256Z</time>
      </trkpt>
      <trkpt lat="44.67463" lon="5.15573">
        <ele>447</ele>
        <time>2026-09-02T18:24:03.256Z</time>
      </trkpt>
      <trkpt lat="44.67464" lon="5.15574">
        <ele>447</ele>
        <time>2026-09-02T18:24:04.256Z</time>
      </trkpt>
      <trkpt lat="44.67465" lon="5.15574">
        <ele>447</ele>
        <time>2026-09-02T18:24:05.256Z</time>
      </trkpt>
      <trkpt lat="44.67466" lon="5.15574">
        <ele>447</ele>
        <time>2026-09-02T18:24:06.256Z</time>
      </trkpt>
      <trkpt lat="44.67467" lon="5.15574">
        <ele>447</ele>
        <time>2026-09-02T18:24:07.256Z</time>
      </trkpt>
      <trkpt lat="44.67468" lon="5.15574">
        <ele>447</ele>
        <time>2026-09-02T18:24:08.256Z</time>
      </trkpt>
      <trkpt lat="44.67469" lon="5.15575">
        <ele>447</ele>
        <time>2026-09-02T18:24:09.256Z</time>
      </trkpt>
      <trkpt lat="44.6747" lon="5.15575">
        <ele>447</ele>
        <time>2026-09-02T18:24:10.256Z</time>
      </trkpt>
      <trkpt lat="44.67471" lon="5.15575">
        <ele>447</ele>
        <time>2026-09-02T18:24:11.256Z</time>
      </trkpt>
      <trkpt lat="44.67472" lon="5.15575">
        <ele>447</ele>
        <time>2026-09-02T18:24:12.256Z</time>
      </trkpt>
      <trkpt lat="44.67473" lon="5.15575">
        <ele>447</ele>
        <time>2026-09-02T18:24:13.256Z</time>
      </trkpt>
      <trkpt lat="44.67474" lon="5.15576">
        <ele>447</ele>
        <time>2026-09-02T18:24:14.256Z</time>
      </trkpt>
      <trkpt lat="44.67475" lon="5.15575">
        <ele>447</ele>
        <time>2026-09-02T18:24:15.256Z</time>
      </trkpt>
      <trkpt lat="44.67476" lon="5.15575">
        <ele>446</ele>
        <time>2026-09-02T18:24:16.256Z</time>
      </trkpt>
      <trkpt lat="44.67476" lon="5.15575">
        <ele>446</ele>
        <time>2026-09-02T18:24:17.256Z</time>
      </trkpt>
      <trkpt lat="44.67477" lon="5.15575">
        <ele>446</ele>
        <time>2026-09-02T18:24:18.256Z</time>
      </trkpt>
      <trkpt lat="44.67478" lon="5.15575">
        <ele>446</ele>
        <time>2026-09-02T18:24:19.256Z</time>
      </trkpt>
      <trkpt lat="44.67479" lon="5.15575">
        <ele>446</ele>
        <time>2026-09-02T18:24:20.256Z</time>
      </trkpt>
      <trkpt lat="44.6748" lon="5.15574">
        <ele>446</ele>
        <time>2026-09-02T18:24:21.256Z</time>
      </trkpt>
      <trkpt lat="44.67481" lon="5.15574">
        <ele>446</ele>
        <time>2026-09-02T18:24:22.256Z</time>
      </trkpt>
      <trkpt lat="44.67482" lon="5.15574">
        <ele>446</ele>
        <time>2026-09-02T18:24:23.256Z</time>
      </trkpt>
      <trkpt lat="44.67483" lon="5.15574">
        <ele>446</ele>
        <time>2026-09-02T18:24:24.256Z</time>
      </trkpt>
      <trkpt lat="44.67485" lon="5.15573">
        <ele>446</ele>
        <time>2026-09-02T18:24:25.256Z</time>
      </trkpt>
      <trkpt lat="44.67486" lon="5.15573">
        <ele>446</ele>
        <time>2026-09-02T18:24:26.256Z</time>
      </trkpt>
      <trkpt lat="44.67487" lon="5.15573">
        <ele>446</ele>
        <time>2026-09-02T18:24:27.256Z</time>
      </trkpt>
      <trkpt lat="44.67488" lon="5.15572">
        <ele>446</ele>
        <time>2026-09-02T18:24:28.256Z</time>
      </trkpt>
      <trkpt lat="44.67489" lon="5.15572">
        <ele>446</ele>
        <time>2026-09-02T18:24:29.256Z</time>
      </trkpt>
      <trkpt lat="44.6749" lon="5.15571">
        <ele>446</ele>
        <time>2026-09-02T18:24:30.256Z</time>
      </trkpt>
      <trkpt lat="44.67491" lon="5.15571">
        <ele>446</ele>
        <time>2026-09-02T18:24:31.256Z</time>
      </trkpt>
      <trkpt lat="44.67492" lon="5.1557">
        <ele>446</ele>
        <time>2026-09-02T18:24:32.256Z</time>
      </trkpt>
      <trkpt lat="44.67493" lon="5.15569">
        <ele>446</ele>
        <time>2026-09-02T18:24:33.256Z</time>
      </trkpt>
      <trkpt lat="44.67494" lon="5.15568">
        <ele>446</ele>
        <time>2026-09-02T18:24:34.256Z</time>
      </trkpt>
      <trkpt lat="44.67495" lon="5.15568">
        <ele>446</ele>
        <time>2026-09-02T18:24:35.256Z</time>
      </trkpt>
      <trkpt lat="44.67496" lon="5.15567">
        <ele>446</ele>
        <time>2026-09-02T18:24:36.256Z</time>
      </trkpt>
      <trkpt lat="44.67497" lon="5.15566">
        <ele>446</ele>
        <time>2026-09-02T18:24:37.256Z</time>
      </trkpt>
      <trkpt lat="44.67498" lon="5.15566">
        <ele>446</ele>
        <time>2026-09-02T18:24:38.256Z</time>
      </trkpt>
      <trkpt lat="44.67499" lon="5.15565">
        <ele>446</ele>
        <time>2026-09-02T18:24:39.256Z</time>
      </trkpt>
      <trkpt lat="44.675" lon="5.15564">
        <ele>446</ele>
        <time>2026-09-02T18:24:40.256Z</time>
      </trkpt>
      <trkpt lat="44.67501" lon="5.15563">
        <ele>446</ele>
        <time>2026-09-02T18:24:41.256Z</time>
      </trkpt>
      <trkpt lat="44.67502" lon="5.15562">
        <ele>446</ele>
        <time>2026-09-02T18:24:42.256Z</time>
      </trkpt>
      <trkpt lat="44.67503" lon="5.15562">
        <ele>446</ele>
        <time>2026-09-02T18:24:43.256Z</time>
      </trkpt>
      <trkpt lat="44.67504" lon="5.15561">
        <ele>446</ele>
        <time>2026-09-02T18:24:44.256Z</time>
      </trkpt>
      <trkpt lat="44.67505" lon="5.1556">
        <ele>446</ele>
        <time>2026-09-02T18:24:45.256Z</time>
      </trkpt>
      <trkpt lat="44.67505" lon="5.1556">
        <ele>446</ele>
        <time>2026-09-02T18:24:46.256Z</time>
      </trkpt>
      <trkpt lat="44.67506" lon="5.15559">
        <ele>445</ele>
        <time>2026-09-02T18:24:47.256Z</time>
      </trkpt>
      <trkpt lat="44.67507" lon="5.15558">
        <ele>445</ele>
        <time>2026-09-02T18:24:48.256Z</time>
      </trkpt>
      <trkpt lat="44.67508" lon="5.15558">
        <ele>445</ele>
        <time>2026-09-02T18:24:49.256Z</time>
      </trkpt>
      <trkpt lat="44.67509" lon="5.15557">
        <ele>445</ele>
        <time>2026-09-02T18:24:50.256Z</time>
      </trkpt>
      <trkpt lat="44.6751" lon="5.15556">
        <ele>445</ele>
        <time>2026-09-02T18:24:51.256Z</time>
      </trkpt>
      <trkpt lat="44.67511" lon="5.15555">
        <ele>445</ele>
        <time>2026-09-02T18:24:52.256Z</time>
      </trkpt>
      <trkpt lat="44.67512" lon="5.15555">
        <ele>445</ele>
        <time>2026-09-02T18:24:53.256Z</time>
      </trkpt>
      <trkpt lat="44.67513" lon="5.15554">
        <ele>445</ele>
        <time>2026-09-02T18:24:54.256Z</time>
      </trkpt>
      <trkpt lat="44.67514" lon="5.15553">
        <ele>445</ele>
        <time>2026-09-02T18:24:55.256Z</time>
      </trkpt>
      <trkpt lat="44.67515" lon="5.15552">
        <ele>445</ele>
        <time>2026-09-02T18:24:56.256Z</time>
      </trkpt>
      <trkpt lat="44.67516" lon="5.15551">
        <ele>445</ele>
        <time>2026-09-02T18:24:57.256Z</time>
      </trkpt>
      <trkpt lat="44.67517" lon="5.1555">
        <ele>445</ele>
        <time>2026-09-02T18:24:58.256Z</time>
      </trkpt>
      <trkpt lat="44.67517" lon="5.15549">
        <ele>445</ele>
        <time>2026-09-02T18:24:59.256Z</time>
      </trkpt>
      <trkpt lat="44.67518" lon="5.15548">
        <ele>445</ele>
        <time>2026-09-02T18:25:00.256Z</time>
      </trkpt>
      <trkpt lat="44.67519" lon="5.15547">
        <ele>445</ele>
        <time>2026-09-02T18:25:01.256Z</time>
      </trkpt>
      <trkpt lat="44.6752" lon="5.15546">
        <ele>445</ele>
        <time>2026-09-02T18:25:02.256Z</time>
      </trkpt>
      <trkpt lat="44.6752" lon="5.15545">
        <ele>445</ele>
        <time>2026-09-02T18:25:03.256Z</time>
      </trkpt>
      <trkpt lat="44.67521" lon="5.15544">
        <ele>445</ele>
        <time>2026-09-02T18:25:04.256Z</time>
      </trkpt>
      <trkpt lat="44.67521" lon="5.15542">
        <ele>444</ele>
        <time>2026-09-02T18:25:05.256Z</time>
      </trkpt>
      <trkpt lat="44.67522" lon="5.15541">
        <ele>444</ele>
        <time>2026-09-02T18:25:06.256Z</time>
      </trkpt>
      <trkpt lat="44.67523" lon="5.1554">
        <ele>444</ele>
        <time>2026-09-02T18:25:07.256Z</time>
      </trkpt>
      <trkpt lat="44.67523" lon="5.15539">
        <ele>444</ele>
        <time>2026-09-02T18:25:08.256Z</time>
      </trkpt>
      <trkpt lat="44.67524" lon="5.15538">
        <ele>444</ele>
        <time>2026-09-02T18:25:09.256Z</time>
      </trkpt>
      <trkpt lat="44.67524" lon="5.15537">
        <ele>444</ele>
        <time>2026-09-02T18:25:10.256Z</time>
      </trkpt>
      <trkpt lat="44.67525" lon="5.15536">
        <ele>444</ele>
        <time>2026-09-02T18:25:11.256Z</time>
      </trkpt>
      <trkpt lat="44.67526" lon="5.15534">
        <ele>444</ele>
        <time>2026-09-02T18:25:12.256Z</time>
      </trkpt>
      <trkpt lat="44.67526" lon="5.15533">
        <ele>444</ele>
        <time>2026-09-02T18:25:13.256Z</time>
      </trkpt>
      <trkpt lat="44.67526" lon="5.15531">
        <ele>443</ele>
        <time>2026-09-02T18:25:14.256Z</time>
      </trkpt>
      <trkpt lat="44.67527" lon="5.1553">
        <ele>443</ele>
        <time>2026-09-02T18:25:15.256Z</time>
      </trkpt>
      <trkpt lat="44.67527" lon="5.15529">
        <ele>443</ele>
        <time>2026-09-02T18:25:16.256Z</time>
      </trkpt>
      <trkpt lat="44.67528" lon="5.15527">
        <ele>443</ele>
        <time>2026-09-02T18:25:17.256Z</time>
      </trkpt>
      <trkpt lat="44.67528" lon="5.15526">
        <ele>443</ele>
        <time>2026-09-02T18:25:18.256Z</time>
      </trkpt>
      <trkpt lat="44.67529" lon="5.15524">
        <ele>443</ele>
        <time>2026-09-02T18:25:19.256Z</time>
      </trkpt>
      <trkpt lat="44.67529" lon="5.15523">
        <ele>443</ele>
        <time>2026-09-02T18:25:20.256Z</time>
      </trkpt>
      <trkpt lat="44.67529" lon="5.15522">
        <ele>443</ele>
        <time>2026-09-02T18:25:21.256Z</time>
      </trkpt>
      <trkpt lat="44.6753" lon="5.1552">
        <ele>442</ele>
        <time>2026-09-02T18:25:22.256Z</time>
      </trkpt>
      <trkpt lat="44.6753" lon="5.15519">
        <ele>442</ele>
        <time>2026-09-02T18:25:23.256Z</time>
      </trkpt>
      <trkpt lat="44.67531" lon="5.15518">
        <ele>442</ele>
        <time>2026-09-02T18:25:24.256Z</time>
      </trkpt>
      <trkpt lat="44.67531" lon="5.15516">
        <ele>442</ele>
        <time>2026-09-02T18:25:25.256Z</time>
      </trkpt>
      <trkpt lat="44.67531" lon="5.15515">
        <ele>442</ele>
        <time>2026-09-02T18:25:26.256Z</time>
      </trkpt>
      <trkpt lat="44.67531" lon="5.15514">
        <ele>442</ele>
        <time>2026-09-02T18:25:27.256Z</time>
      </trkpt>
      <trkpt lat="44.67532" lon="5.15512">
        <ele>442</ele>
        <time>2026-09-02T18:25:28.256Z</time>
      </trkpt>
      <trkpt lat="44.67532" lon="5.15511">
        <ele>442</ele>
        <time>2026-09-02T18:25:29.256Z</time>
      </trkpt>
      <trkpt lat="44.67532" lon="5.1551">
        <ele>442</ele>
        <time>2026-09-02T18:25:30.256Z</time>
      </trkpt>
      <trkpt lat="44.67533" lon="5.15508">
        <ele>442</ele>
        <time>2026-09-02T18:25:31.256Z</time>
      </trkpt>
      <trkpt lat="44.67533" lon="5.15507">
        <ele>442</ele>
        <time>2026-09-02T18:25:32.256Z</time>
      </trkpt>
      <trkpt lat="44.67533" lon="5.15506">
        <ele>441</ele>
        <time>2026-09-02T18:25:33.256Z</time>
      </trkpt>
      <trkpt lat="44.67534" lon="5.15505">
        <ele>441</ele>
        <time>2026-09-02T18:25:34.256Z</time>
      </trkpt>
      <trkpt lat="44.67534" lon="5.15504">
        <ele>441</ele>
        <time>2026-09-02T18:25:35.256Z</time>
      </trkpt>
      <trkpt lat="44.67534" lon="5.15502">
        <ele>441</ele>
        <time>2026-09-02T18:25:36.256Z</time>
      </trkpt>
      <trkpt lat="44.67534" lon="5.15501">
        <ele>441</ele>
        <time>2026-09-02T18:25:37.256Z</time>
      </trkpt>
      <trkpt lat="44.67535" lon="5.15499">
        <ele>441</ele>
        <time>2026-09-02T18:25:38.256Z</time>
      </trkpt>
      <trkpt lat="44.67535" lon="5.15498">
        <ele>441</ele>
        <time>2026-09-02T18:25:39.256Z</time>
      </trkpt>
      <trkpt lat="44.67535" lon="5.15496">
        <ele>441</ele>
        <time>2026-09-02T18:25:40.256Z</time>
      </trkpt>
      <trkpt lat="44.67536" lon="5.15495">
        <ele>441</ele>
        <time>2026-09-02T18:25:41.256Z</time>
      </trkpt>
      <trkpt lat="44.67536" lon="5.15494">
        <ele>441</ele>
        <time>2026-09-02T18:25:42.256Z</time>
      </trkpt>
      <trkpt lat="44.67536" lon="5.15492">
        <ele>441</ele>
        <time>2026-09-02T18:25:43.256Z</time>
      </trkpt>
      <trkpt lat="44.67536" lon="5.15491">
        <ele>441</ele>
        <time>2026-09-02T18:25:44.256Z</time>
      </trkpt>
      <trkpt lat="44.67536" lon="5.15489">
        <ele>441</ele>
        <time>2026-09-02T18:25:45.256Z</time>
      </trkpt>
      <trkpt lat="44.67536" lon="5.15488">
        <ele>441</ele>
        <time>2026-09-02T18:25:46.256Z</time>
      </trkpt>
      <trkpt lat="44.67537" lon="5.15487">
        <ele>441</ele>
        <time>2026-09-02T18:25:47.256Z</time>
      </trkpt>
      <trkpt lat="44.67537" lon="5.15487">
        <ele>440</ele>
        <time>2026-09-02T18:25:48.256Z</time>
      </trkpt>
      <trkpt lat="44.67537" lon="5.15486">
        <ele>440</ele>
        <time>2026-09-02T18:25:49.256Z</time>
      </trkpt>
      <trkpt lat="44.67537" lon="5.15485">
        <ele>440</ele>
        <time>2026-09-02T18:25:50.256Z</time>
      </trkpt>
      <trkpt lat="44.67538" lon="5.15485">
        <ele>440</ele>
        <time>2026-09-02T18:25:51.256Z</time>
      </trkpt>
      <trkpt lat="44.67538" lon="5.15484">
        <ele>440</ele>
        <time>2026-09-02T18:25:52.256Z</time>
      </trkpt>
      <trkpt lat="44.67538" lon="5.15483">
        <ele>440</ele>
        <time>2026-09-02T18:25:53.256Z</time>
      </trkpt>
      <trkpt lat="44.6754" lon="5.15481">
        <ele>437</ele>
        <time>2026-09-02T18:27:23.260Z</time>
      </trkpt>
      <trkpt lat="44.6754" lon="5.1548">
        <ele>437</ele>
        <time>2026-09-02T18:27:24.260Z</time>
      </trkpt>
      <trkpt lat="44.6754" lon="5.15479">
        <ele>437</ele>
        <time>2026-09-02T18:27:25.260Z</time>
      </trkpt>
      <trkpt lat="44.6754" lon="5.15478">
        <ele>437</ele>
        <time>2026-09-02T18:27:26.260Z</time>
      </trkpt>
      <trkpt lat="44.67539" lon="5.15477">
        <ele>437</ele>
        <time>2026-09-02T18:27:27.260Z</time>
      </trkpt>
      <trkpt lat="44.67539" lon="5.15476">
        <ele>437</ele>
        <time>2026-09-02T18:27:28.260Z</time>
      </trkpt>
      <trkpt lat="44.67539" lon="5.15475">
        <ele>437</ele>
        <time>2026-09-02T18:27:29.260Z</time>
      </trkpt>
      <trkpt lat="44.67539" lon="5.15474">
        <ele>437</ele>
        <time>2026-09-02T18:27:30.260Z</time>
      </trkpt>
      <trkpt lat="44.67539" lon="5.15473">
        <ele>437</ele>
        <time>2026-09-02T18:27:31.260Z</time>
      </trkpt>
      <trkpt lat="44.67539" lon="5.15472">
        <ele>437</ele>
        <time>2026-09-02T18:27:32.260Z</time>
      </trkpt>
      <trkpt lat="44.6754" lon="5.15471">
        <ele>437</ele>
        <time>2026-09-02T18:27:33.260Z</time>
      </trkpt>
      <trkpt lat="44.6754" lon="5.1547">
        <ele>437</ele>
        <time>2026-09-02T18:27:34.260Z</time>
      </trkpt>
      <trkpt lat="44.67541" lon="5.15469">
        <ele>437</ele>
        <time>2026-09-02T18:27:35.260Z</time>
      </trkpt>
      <trkpt lat="44.67541" lon="5.15468">
        <ele>437</ele>
        <time>2026-09-02T18:27:36.260Z</time>
      </trkpt>
      <trkpt lat="44.67542" lon="5.15468">
        <ele>436</ele>
        <time>2026-09-02T18:27:37.260Z</time>
      </trkpt>
      <trkpt lat="44.67542" lon="5.15467">
        <ele>436</ele>
        <time>2026-09-02T18:27:38.260Z</time>
      </trkpt>
      <trkpt lat="44.67542" lon="5.15467">
        <ele>436</ele>
        <time>2026-09-02T18:27:39.260Z</time>
      </trkpt>
      <trkpt lat="44.67542" lon="5.15467">
        <ele>436</ele>
        <time>2026-09-02T18:27:40.260Z</time>
      </trkpt>
      <trkpt lat="44.67542" lon="5.15467">
        <ele>436</ele>
        <time>2026-09-02T18:27:41.260Z</time>
      </trkpt>
      <trkpt lat="44.67542" lon="5.15467">
        <ele>436</ele>
        <time>2026-09-02T18:27:51.269Z</time>
      </trkpt>
      <trkpt lat="44.67543" lon="5.15467">
        <ele>436</ele>
        <time>2026-09-02T18:27:52.269Z</time>
      </trkpt>
      <trkpt lat="44.67543" lon="5.15468">
        <ele>436</ele>
        <time>2026-09-02T18:27:53.269Z</time>
      </trkpt>
      <trkpt lat="44.67543" lon="5.15469">
        <ele>436</ele>
        <time>2026-09-02T18:27:54.269Z</time>
      </trkpt>
      <trkpt lat="44.67543" lon="5.1547">
        <ele>435</ele>
        <time>2026-09-02T18:27:55.269Z</time>
      </trkpt>
      <trkpt lat="44.67543" lon="5.15471">
        <ele>435</ele>
        <time>2026-09-02T18:27:56.269Z</time>
      </trkpt>
      <trkpt lat="44.67543" lon="5.15472">
        <ele>435</ele>
        <time>2026-09-02T18:27:57.269Z</time>
      </trkpt>
      <trkpt lat="44.67543" lon="5.15473">
        <ele>435</ele>
        <time>2026-09-02T18:27:58.269Z</time>
      </trkpt>
      <trkpt lat="44.67543" lon="5.15474">
        <ele>435</ele>
        <time>2026-09-02T18:27:59.269Z</time>
      </trkpt>
      <trkpt lat="44.67543" lon="5.15476">
        <ele>435</ele>
        <time>2026-09-02T18:28:00.269Z</time>
      </trkpt>
      <trkpt lat="44.67543" lon="5.15477">
        <ele>435</ele>
        <time>2026-09-02T18:28:01.269Z</time>
      </trkpt>
      <trkpt lat="44.67543" lon="5.15478">
        <ele>435</ele>
        <time>2026-09-02T18:28:02.269Z</time>
      </trkpt>
      <trkpt lat="44.67543" lon="5.1548">
        <ele>435</ele>
        <time>2026-09-02T18:28:03.269Z</time>
      </trkpt>
      <trkpt lat="44.67543" lon="5.15481">
        <ele>435</ele>
        <time>2026-09-02T18:28:04.269Z</time>
      </trkpt>
      <trkpt lat="44.67543" lon="5.15483">
        <ele>435</ele>
        <time>2026-09-02T18:28:05.269Z</time>
      </trkpt>
      <trkpt lat="44.67543" lon="5.15485">
        <ele>435</ele>
        <time>2026-09-02T18:28:06.269Z</time>
      </trkpt>
      <trkpt lat="44.67543" lon="5.15486">
        <ele>435</ele>
        <time>2026-09-02T18:28:07.269Z</time>
      </trkpt>
      <trkpt lat="44.67543" lon="5.15488">
        <ele>435</ele>
        <time>2026-09-02T18:28:08.269Z</time>
      </trkpt>
      <trkpt lat="44.67543" lon="5.1549">
        <ele>435</ele>
        <time>2026-09-02T18:28:09.269Z</time>
      </trkpt>
      <trkpt lat="44.67543" lon="5.15491">
        <ele>435</ele>
        <time>2026-09-02T18:28:10.269Z</time>
      </trkpt>
      <trkpt lat="44.67543" lon="5.15493">
        <ele>435</ele>
        <time>2026-09-02T18:28:11.269Z</time>
      </trkpt>
      <trkpt lat="44.67543" lon="5.15494">
        <ele>434</ele>
        <time>2026-09-02T18:28:12.269Z</time>
      </trkpt>
      <trkpt lat="44.67543" lon="5.15496">
        <ele>434</ele>
        <time>2026-09-02T18:28:13.269Z</time>
      </trkpt>
      <trkpt lat="44.67543" lon="5.15498">
        <ele>434</ele>
        <time>2026-09-02T18:28:14.269Z</time>
      </trkpt>
      <trkpt lat="44.67543" lon="5.15499">
        <ele>434</ele>
        <time>2026-09-02T18:28:15.269Z</time>
      </trkpt>
      <trkpt lat="44.67543" lon="5.15501">
        <ele>434</ele>
        <time>2026-09-02T18:28:16.269Z</time>
      </trkpt>
      <trkpt lat="44.67543" lon="5.15502">
        <ele>434</ele>
        <time>2026-09-02T18:28:17.269Z</time>
      </trkpt>
      <trkpt lat="44.67543" lon="5.15504">
        <ele>434</ele>
        <time>2026-09-02T18:28:18.269Z</time>
      </trkpt>
      <trkpt lat="44.67543" lon="5.15505">
        <ele>434</ele>
        <time>2026-09-02T18:28:19.269Z</time>
      </trkpt>
      <trkpt lat="44.67544" lon="5.15507">
        <ele>434</ele>
        <time>2026-09-02T18:28:20.269Z</time>
      </trkpt>
      <trkpt lat="44.67544" lon="5.15508">
        <ele>434</ele>
        <time>2026-09-02T18:28:21.269Z</time>
      </trkpt>
      <trkpt lat="44.67544" lon="5.15509">
        <ele>434</ele>
        <time>2026-09-02T18:28:22.269Z</time>
      </trkpt>
      <trkpt lat="44.67544" lon="5.15511">
        <ele>434</ele>
        <time>2026-09-02T18:28:23.269Z</time>
      </trkpt>
      <trkpt lat="44.67545" lon="5.15512">
        <ele>434</ele>
        <time>2026-09-02T18:28:24.269Z</time>
      </trkpt>
      <trkpt lat="44.67545" lon="5.15513">
        <ele>434</ele>
        <time>2026-09-02T18:28:25.269Z</time>
      </trkpt>
      <trkpt lat="44.67546" lon="5.15515">
        <ele>434</ele>
        <time>2026-09-02T18:28:26.269Z</time>
      </trkpt>
      <trkpt lat="44.67546" lon="5.15516">
        <ele>434</ele>
        <time>2026-09-02T18:28:27.269Z</time>
      </trkpt>
      <trkpt lat="44.67546" lon="5.15517">
        <ele>434</ele>
        <time>2026-09-02T18:28:28.269Z</time>
      </trkpt>
      <trkpt lat="44.67547" lon="5.15519">
        <ele>434</ele>
        <time>2026-09-02T18:28:29.269Z</time>
      </trkpt>
      <trkpt lat="44.67547" lon="5.1552">
        <ele>434</ele>
        <time>2026-09-02T18:28:30.269Z</time>
      </trkpt>
      <trkpt lat="44.67547" lon="5.15521">
        <ele>434</ele>
        <time>2026-09-02T18:28:31.269Z</time>
      </trkpt>
      <trkpt lat="44.67547" lon="5.15523">
        <ele>434</ele>
        <time>2026-09-02T18:28:32.269Z</time>
      </trkpt>
      <trkpt lat="44.67547" lon="5.15524">
        <ele>434</ele>
        <time>2026-09-02T18:28:33.269Z</time>
      </trkpt>
      <trkpt lat="44.67548" lon="5.15526">
        <ele>434</ele>
        <time>2026-09-02T18:28:34.269Z</time>
      </trkpt>
      <trkpt lat="44.67548" lon="5.15527">
        <ele>434</ele>
        <time>2026-09-02T18:28:35.269Z</time>
      </trkpt>
      <trkpt lat="44.67548" lon="5.15528">
        <ele>434</ele>
        <time>2026-09-02T18:28:36.269Z</time>
      </trkpt>
      <trkpt lat="44.67548" lon="5.1553">
        <ele>434</ele>
        <time>2026-09-02T18:28:37.269Z</time>
      </trkpt>
      <trkpt lat="44.67548" lon="5.15531">
        <ele>434</ele>
        <time>2026-09-02T18:28:38.269Z</time>
      </trkpt>
      <trkpt lat="44.67548" lon="5.15531">
        <ele>434</ele>
        <time>2026-09-02T18:28:39.269Z</time>
      </trkpt>
      <trkpt lat="44.67548" lon="5.15531">
        <ele>434</ele>
        <time>2026-09-02T18:28:40.269Z</time>
      </trkpt>
      <trkpt lat="44.67548" lon="5.15531">
        <ele>434</ele>
        <time>2026-09-02T18:28:41.269Z</time>
      </trkpt>
      <trkpt lat="44.67548" lon="5.15531">
        <ele>434</ele>
        <time>2026-09-02T18:28:42.269Z</time>
      </trkpt>
      <trkpt lat="44.6755" lon="5.15533">
        <ele>434</ele>
        <time>2026-09-02T18:29:18.278Z</time>
      </trkpt>
      <trkpt lat="44.6755" lon="5.15534">
        <ele>434</ele>
        <time>2026-09-02T18:29:19.278Z</time>
      </trkpt>
      <trkpt lat="44.6755" lon="5.15536">
        <ele>434</ele>
        <time>2026-09-02T18:29:20.278Z</time>
      </trkpt>
      <trkpt lat="44.6755" lon="5.15537">
        <ele>434</ele>
        <time>2026-09-02T18:29:21.278Z</time>
      </trkpt>
      <trkpt lat="44.67549" lon="5.15538">
        <ele>434</ele>
        <time>2026-09-02T18:29:22.278Z</time>
      </trkpt>
      <trkpt lat="44.67549" lon="5.15538">
        <ele>434</ele>
        <time>2026-09-02T18:29:23.278Z</time>
      </trkpt>
      <trkpt lat="44.67549" lon="5.15538">
        <ele>434</ele>
        <time>2026-09-02T18:29:24.278Z</time>
      </trkpt>
      <trkpt lat="44.67549" lon="5.15538">
        <ele>434</ele>
        <time>2026-09-02T18:29:25.278Z</time>
      </trkpt>
      <trkpt lat="44.67549" lon="5.15537">
        <ele>434</ele>
        <time>2026-09-02T18:29:26.278Z</time>
      </trkpt>
      <trkpt lat="44.67549" lon="5.15536">
        <ele>434</ele>
        <time>2026-09-02T18:29:27.278Z</time>
      </trkpt>
      <trkpt lat="44.6755" lon="5.15535">
        <ele>434</ele>
        <time>2026-09-02T18:29:28.278Z</time>
      </trkpt>
      <trkpt lat="44.6755" lon="5.15535">
        <ele>434</ele>
        <time>2026-09-02T18:29:29.278Z</time>
      </trkpt>
      <trkpt lat="44.6755" lon="5.15534">
        <ele>434</ele>
        <time>2026-09-02T18:29:30.278Z</time>
      </trkpt>
      <trkpt lat="44.6755" lon="5.15534">
        <ele>434</ele>
        <time>2026-09-02T18:29:31.278Z</time>
      </trkpt>
      <trkpt lat="44.6755" lon="5.15534">
        <ele>434</ele>
        <time>2026-09-02T18:29:32.278Z</time>
      </trkpt>
      <trkpt lat="44.67548" lon="5.15537">
        <ele>432</ele>
        <time>2026-09-02T18:30:52.281Z</time>
      </trkpt>
      <trkpt lat="44.67548" lon="5.15538">
        <ele>432</ele>
        <time>2026-09-02T18:30:53.281Z</time>
      </trkpt>
      <trkpt lat="44.67548" lon="5.15538">
        <ele>432</ele>
        <time>2026-09-02T18:30:54.281Z</time>
      </trkpt>
      <trkpt lat="44.67548" lon="5.15538">
        <ele>432</ele>
        <time>2026-09-02T18:30:55.281Z</time>
      </trkpt>
      <trkpt lat="44.67548" lon="5.15537">
        <ele>432</ele>
        <time>2026-09-02T18:30:56.281Z</time>
      </trkpt>
      <trkpt lat="44.67548" lon="5.15536">
        <ele>432</ele>
        <time>2026-09-02T18:31:46.291Z</time>
      </trkpt>
      <trkpt lat="44.67548" lon="5.15537">
        <ele>432</ele>
        <time>2026-09-02T18:31:47.291Z</time>
      </trkpt>
      <trkpt lat="44.67548" lon="5.15537">
        <ele>432</ele>
        <time>2026-09-02T18:31:48.291Z</time>
      </trkpt>
      <trkpt lat="44.67548" lon="5.15537">
        <ele>432</ele>
        <time>2026-09-02T18:31:49.291Z</time>
      </trkpt>
      <trkpt lat="44.67548" lon="5.15537">
        <ele>432</ele>
        <time>2026-09-02T18:31:50.291Z</time>
      </trkpt>
      <trkpt lat="44.67548" lon="5.15537">
        <ele>432</ele>
        <time>2026-09-02T18:31:51.291Z</time>
      </trkpt>
      <trkpt lat="44.6755" lon="5.15536">
        <ele>431</ele>
        <time>2026-09-02T18:31:54.594Z</time>
      </trkpt>
      <trkpt lat="44.6755" lon="5.15535">
        <ele>431</ele>
        <time>2026-09-02T18:31:55.594Z</time>
      </trkpt>
      <trkpt lat="44.67548" lon="5.15532">
        <ele>431</ele>
        <time>2026-09-02T18:33:45.070Z</time>
      </trkpt>
      <trkpt lat="44.67547" lon="5.15531">
        <ele>431</ele>
        <time>2026-09-02T18:33:46.070Z</time>
      </trkpt>
      <trkpt lat="44.67547" lon="5.15531">
        <ele>431</ele>
        <time>2026-09-02T18:33:47.070Z</time>
      </trkpt>
      <trkpt lat="44.67547" lon="5.15531">
        <ele>431</ele>
        <time>2026-09-02T18:33:48.070Z</time>
      </trkpt>
      <trkpt lat="44.67547" lon="5.15531">
        <ele>431</ele>
        <time>2026-09-02T18:33:49.070Z</time>
      </trkpt>
      <trkpt lat="44.67545" lon="5.15532">
        <ele>430</ele>
        <time>2026-09-02T18:38:02.084Z</time>
      </trkpt>
      <trkpt lat="44.67545" lon="5.15531">
        <ele>430</ele>
        <time>2026-09-02T18:38:03.084Z</time>
      </trkpt>
      <trkpt lat="44.67545" lon="5.15531">
        <ele>430</ele>
        <time>2026-09-02T18:38:04.084Z</time>
      </trkpt>
      <trkpt lat="44.67545" lon="5.15532">
        <ele>430</ele>
        <time>2026-09-02T18:38:05.084Z</time>
      </trkpt>
      <trkpt lat="44.67548" lon="5.15532">
        <ele>433</ele>
        <time>2026-09-02T18:44:01.100Z</time>
      </trkpt>
      <trkpt lat="44.67548" lon="5.15533">
        <ele>433</ele>
        <time>2026-09-02T18:44:02.100Z</time>
      </trkpt>
      <trkpt lat="44.67548" lon="5.15534">
        <ele>433</ele>
        <time>2026-09-02T18:44:03.100Z</time>
      </trkpt>
      <trkpt lat="44.67548" lon="5.15535">
        <ele>433</ele>
        <time>2026-09-02T18:44:04.100Z</time>
      </trkpt>
      <trkpt lat="44.67548" lon="5.15536">
        <ele>433</ele>
        <time>2026-09-02T18:44:05.100Z</time>
      </trkpt>
      <trkpt lat="44.67548" lon="5.15537">
        <ele>433</ele>
        <time>2026-09-02T18:44:06.100Z</time>
      </trkpt>
      <trkpt lat="44.67548" lon="5.15538">
        <ele>433</ele>
        <time>2026-09-02T18:44:07.100Z</time>
      </trkpt>
      <trkpt lat="44.67548" lon="5.1554">
        <ele>433</ele>
        <time>2026-09-02T18:44:08.100Z</time>
      </trkpt>
      <trkpt lat="44.67548" lon="5.15541">
        <ele>433</ele>
        <time>2026-09-02T18:44:09.100Z</time>
      </trkpt>
      <trkpt lat="44.67548" lon="5.15543">
        <ele>433</ele>
        <time>2026-09-02T18:44:10.100Z</time>
      </trkpt>
      <trkpt lat="44.67548" lon="5.15544">
        <ele>433</ele>
        <time>2026-09-02T18:44:11.100Z</time>
      </trkpt>
      <trkpt lat="44.67548" lon="5.15545">
        <ele>433</ele>
        <time>2026-09-02T18:44:12.100Z</time>
      </trkpt>
      <trkpt lat="44.67548" lon="5.15547">
        <ele>433</ele>
        <time>2026-09-02T18:44:13.100Z</time>
      </trkpt>
      <trkpt lat="44.67548" lon="5.15548">
        <ele>433</ele>
        <time>2026-09-02T18:44:14.100Z</time>
      </trkpt>
      <trkpt lat="44.67548" lon="5.15549">
        <ele>433</ele>
        <time>2026-09-02T18:44:15.100Z</time>
      </trkpt>
      <trkpt lat="44.67548" lon="5.15551">
        <ele>433</ele>
        <time>2026-09-02T18:44:16.100Z</time>
      </trkpt>
      <trkpt lat="44.67548" lon="5.15552">
        <ele>433</ele>
        <time>2026-09-02T18:44:17.100Z</time>
      </trkpt>
      <trkpt lat="44.67548" lon="5.15554">
        <ele>433</ele>
        <time>2026-09-02T18:44:18.100Z</time>
      </trkpt>
      <trkpt lat="44.67547" lon="5.15555">
        <ele>433</ele>
        <time>2026-09-02T18:44:19.100Z</time>
      </trkpt>
      <trkpt lat="44.67547" lon="5.15556">
        <ele>433</ele>
        <time>2026-09-02T18:44:20.100Z</time>
      </trkpt>
      <trkpt lat="44.67547" lon="5.15557">
        <ele>433</ele>
        <time>2026-09-02T18:44:21.100Z</time>
      </trkpt>
      <trkpt lat="44.67547" lon="5.15558">
        <ele>433</ele>
        <time>2026-09-02T18:44:22.100Z</time>
      </trkpt>
      <trkpt lat="44.67547" lon="5.1556">
        <ele>433</ele>
        <time>2026-09-02T18:44:23.100Z</time>
      </trkpt>
      <trkpt lat="44.67547" lon="5.15561">
        <ele>433</ele>
        <time>2026-09-02T18:44:24.100Z</time>
      </trkpt>
      <trkpt lat="44.67547" lon="5.15563">
        <ele>433</ele>
        <time>2026-09-02T18:44:25.100Z</time>
      </trkpt>
      <trkpt lat="44.67547" lon="5.15565">
        <ele>433</ele>
        <time>2026-09-02T18:44:26.100Z</time>
      </trkpt>
      <trkpt lat="44.67546" lon="5.15566">
        <ele>433</ele>
        <time>2026-09-02T18:44:27.100Z</time>
      </trkpt>
      <trkpt lat="44.67546" lon="5.15567">
        <ele>433</ele>
        <time>2026-09-02T18:44:28.100Z</time>
      </trkpt>
      <trkpt lat="44.67546" lon="5.15569">
        <ele>433</ele>
        <time>2026-09-02T18:44:29.100Z</time>
      </trkpt>
      <trkpt lat="44.67546" lon="5.15569">
        <ele>432</ele>
        <time>2026-09-02T18:44:32.100Z</time>
      </trkpt>
      <trkpt lat="44.67546" lon="5.15569">
        <ele>432</ele>
        <time>2026-09-02T18:44:33.100Z</time>
      </trkpt>
      <trkpt lat="44.67545" lon="5.15576">
        <ele>432</ele>
        <time>2026-09-02T18:44:34.100Z</time>
      </trkpt>
      <trkpt lat="44.67545" lon="5.15578">
        <ele>432</ele>
        <time>2026-09-02T18:44:35.100Z</time>
      </trkpt>
      <trkpt lat="44.67545" lon="5.15579">
        <ele>432</ele>
        <time>2026-09-02T18:44:36.100Z</time>
      </trkpt>
      <trkpt lat="44.67545" lon="5.15581">
        <ele>432</ele>
        <time>2026-09-02T18:44:37.100Z</time>
      </trkpt>
      <trkpt lat="44.67545" lon="5.15583">
        <ele>432</ele>
        <time>2026-09-02T18:44:38.100Z</time>
      </trkpt>
      <trkpt lat="44.67545" lon="5.15584">
        <ele>432</ele>
        <time>2026-09-02T18:44:39.100Z</time>
      </trkpt>
      <trkpt lat="44.67545" lon="5.15586">
        <ele>432</ele>
        <time>2026-09-02T18:44:40.100Z</time>
      </trkpt>
      <trkpt lat="44.67545" lon="5.15587">
        <ele>432</ele>
        <time>2026-09-02T18:44:41.100Z</time>
      </trkpt>
      <trkpt lat="44.67545" lon="5.15589">
        <ele>432</ele>
        <time>2026-09-02T18:44:42.100Z</time>
      </trkpt>
      <trkpt lat="44.67545" lon="5.15591">
        <ele>432</ele>
        <time>2026-09-02T18:44:43.100Z</time>
      </trkpt>
      <trkpt lat="44.67545" lon="5.15592">
        <ele>433</ele>
        <time>2026-09-02T18:44:44.100Z</time>
      </trkpt>
      <trkpt lat="44.67545" lon="5.15594">
        <ele>433</ele>
        <time>2026-09-02T18:44:45.100Z</time>
      </trkpt>
      <trkpt lat="44.67545" lon="5.15596">
        <ele>433</ele>
        <time>2026-09-02T18:44:46.100Z</time>
      </trkpt>
      <trkpt lat="44.67545" lon="5.15597">
        <ele>433</ele>
        <time>2026-09-02T18:44:47.100Z</time>
      </trkpt>
      <trkpt lat="44.67545" lon="5.15599">
        <ele>433</ele>
        <time>2026-09-02T18:44:48.100Z</time>
      </trkpt>
      <trkpt lat="44.67545" lon="5.15599">
        <ele>434</ele>
        <time>2026-09-02T18:44:49.100Z</time>
      </trkpt>
      <trkpt lat="44.67545" lon="5.156">
        <ele>434</ele>
        <time>2026-09-02T18:44:50.100Z</time>
      </trkpt>
      <trkpt lat="44.67545" lon="5.156">
        <ele>434</ele>
        <time>2026-09-02T18:44:51.100Z</time>
      </trkpt>
      <trkpt lat="44.67545" lon="5.156">
        <ele>434</ele>
        <time>2026-09-02T18:44:52.100Z</time>
      </trkpt>
      <trkpt lat="44.67545" lon="5.15601">
        <ele>434</ele>
        <time>2026-09-02T18:44:53.100Z</time>
      </trkpt>
      <trkpt lat="44.67545" lon="5.15603">
        <ele>434</ele>
        <time>2026-09-02T18:44:54.100Z</time>
      </trkpt>
      <trkpt lat="44.67545" lon="5.15604">
        <ele>434</ele>
        <time>2026-09-02T18:44:55.100Z</time>
      </trkpt>
      <trkpt lat="44.67545" lon="5.15605">
        <ele>434</ele>
        <time>2026-09-02T18:44:56.100Z</time>
      </trkpt>
      <trkpt lat="44.67545" lon="5.15606">
        <ele>434</ele>
        <time>2026-09-02T18:44:57.100Z</time>
      </trkpt>
      <trkpt lat="44.67545" lon="5.15608">
        <ele>434</ele>
        <time>2026-09-02T18:44:58.100Z</time>
      </trkpt>
      <trkpt lat="44.67545" lon="5.15609">
        <ele>434</ele>
        <time>2026-09-02T18:44:59.100Z</time>
      </trkpt>
      <trkpt lat="44.67545" lon="5.1561">
        <ele>434</ele>
        <time>2026-09-02T18:45:00.100Z</time>
      </trkpt>
      <trkpt lat="44.67545" lon="5.15612">
        <ele>434</ele>
        <time>2026-09-02T18:45:01.100Z</time>
      </trkpt>
      <trkpt lat="44.67545" lon="5.15613">
        <ele>434</ele>
        <time>2026-09-02T18:45:02.100Z</time>
      </trkpt>
      <trkpt lat="44.67546" lon="5.15615">
        <ele>434</ele>
        <time>2026-09-02T18:45:03.100Z</time>
      </trkpt>
      <trkpt lat="44.67546" lon="5.15616">
        <ele>434</ele>
        <time>2026-09-02T18:45:04.100Z</time>
      </trkpt>
      <trkpt lat="44.67546" lon="5.15618">
        <ele>434</ele>
        <time>2026-09-02T18:45:05.100Z</time>
      </trkpt>
      <trkpt lat="44.67547" lon="5.15619">
        <ele>434</ele>
        <time>2026-09-02T18:45:06.100Z</time>
      </trkpt>
      <trkpt lat="44.67547" lon="5.1562">
        <ele>434</ele>
        <time>2026-09-02T18:45:07.100Z</time>
      </trkpt>
      <trkpt lat="44.67548" lon="5.15622">
        <ele>434</ele>
        <time>2026-09-02T18:45:08.100Z</time>
      </trkpt>
      <trkpt lat="44.67548" lon="5.15623">
        <ele>434</ele>
        <time>2026-09-02T18:45:09.100Z</time>
      </trkpt>
      <trkpt lat="44.67548" lon="5.15625">
        <ele>434</ele>
        <time>2026-09-02T18:45:10.100Z</time>
      </trkpt>
      <trkpt lat="44.67548" lon="5.15626">
        <ele>434</ele>
        <time>2026-09-02T18:45:11.100Z</time>
      </trkpt>
      <trkpt lat="44.67549" lon="5.15628">
        <ele>434</ele>
        <time>2026-09-02T18:45:12.100Z</time>
      </trkpt>
      <trkpt lat="44.67549" lon="5.15629">
        <ele>434</ele>
        <time>2026-09-02T18:45:13.100Z</time>
      </trkpt>
      <trkpt lat="44.67549" lon="5.1563">
        <ele>434</ele>
        <time>2026-09-02T18:45:14.100Z</time>
      </trkpt>
      <trkpt lat="44.6755" lon="5.15631">
        <ele>434</ele>
        <time>2026-09-02T18:45:15.100Z</time>
      </trkpt>
      <trkpt lat="44.67551" lon="5.15632">
        <ele>433</ele>
        <time>2026-09-02T18:45:16.100Z</time>
      </trkpt>
      <trkpt lat="44.67552" lon="5.15634">
        <ele>433</ele>
        <time>2026-09-02T18:45:17.100Z</time>
      </trkpt>
      <trkpt lat="44.67552" lon="5.15635">
        <ele>433</ele>
        <time>2026-09-02T18:45:18.100Z</time>
      </trkpt>
      <trkpt lat="44.67553" lon="5.15636">
        <ele>433</ele>
        <time>2026-09-02T18:45:19.100Z</time>
      </trkpt>
      <trkpt lat="44.67554" lon="5.15636">
        <ele>433</ele>
        <time>2026-09-02T18:45:20.100Z</time>
      </trkpt>
      <trkpt lat="44.67555" lon="5.15637">
        <ele>433</ele>
        <time>2026-09-02T18:45:21.100Z</time>
      </trkpt>
      <trkpt lat="44.67556" lon="5.15637">
        <ele>433</ele>
        <time>2026-09-02T18:45:22.100Z</time>
      </trkpt>
      <trkpt lat="44.67556" lon="5.15638">
        <ele>432</ele>
        <time>2026-09-02T18:45:23.100Z</time>
      </trkpt>
      <trkpt lat="44.67557" lon="5.15638">
        <ele>432</ele>
        <time>2026-09-02T18:45:24.100Z</time>
      </trkpt>
      <trkpt lat="44.67558" lon="5.15638">
        <ele>432</ele>
        <time>2026-09-02T18:45:25.100Z</time>
      </trkpt>
      <trkpt lat="44.67558" lon="5.15638">
        <ele>432</ele>
        <time>2026-09-02T18:45:26.100Z</time>
      </trkpt>
      <trkpt lat="44.67559" lon="5.15638">
        <ele>431</ele>
        <time>2026-09-02T18:45:27.100Z</time>
      </trkpt>
      <trkpt lat="44.6756" lon="5.15638">
        <ele>431</ele>
        <time>2026-09-02T18:45:28.100Z</time>
      </trkpt>
      <trkpt lat="44.6756" lon="5.15639">
        <ele>431</ele>
        <time>2026-09-02T18:45:29.100Z</time>
      </trkpt>
      <trkpt lat="44.67561" lon="5.15639">
        <ele>431</ele>
        <time>2026-09-02T18:45:30.100Z</time>
      </trkpt>
      <trkpt lat="44.67562" lon="5.15639">
        <ele>431</ele>
        <time>2026-09-02T18:45:31.100Z</time>
      </trkpt>
      <trkpt lat="44.67562" lon="5.15639">
        <ele>430</ele>
        <time>2026-09-02T18:45:32.100Z</time>
      </trkpt>
      <trkpt lat="44.67563" lon="5.15639">
        <ele>430</ele>
        <time>2026-09-02T18:45:33.100Z</time>
      </trkpt>
      <trkpt lat="44.67564" lon="5.15639">
        <ele>430</ele>
        <time>2026-09-02T18:45:34.100Z</time>
      </trkpt>
      <trkpt lat="44.67565" lon="5.15639">
        <ele>430</ele>
        <time>2026-09-02T18:45:35.100Z</time>
      </trkpt>
      <trkpt lat="44.67566" lon="5.15639">
        <ele>430</ele>
        <time>2026-09-02T18:45:36.100Z</time>
      </trkpt>
      <trkpt lat="44.67567" lon="5.15639">
        <ele>429</ele>
        <time>2026-09-02T18:45:37.100Z</time>
      </trkpt>
      <trkpt lat="44.67568" lon="5.15639">
        <ele>429</ele>
        <time>2026-09-02T18:45:38.100Z</time>
      </trkpt>
      <trkpt lat="44.67569" lon="5.1564">
        <ele>429</ele>
        <time>2026-09-02T18:45:39.100Z</time>
      </trkpt>
      <trkpt lat="44.6757" lon="5.1564">
        <ele>429</ele>
        <time>2026-09-02T18:45:40.100Z</time>
      </trkpt>
      <trkpt lat="44.67571" lon="5.15641">
        <ele>428</ele>
        <time>2026-09-02T18:45:41.100Z</time>
      </trkpt>
      <trkpt lat="44.67571" lon="5.15641">
        <ele>428</ele>
        <time>2026-09-02T18:45:42.100Z</time>
      </trkpt>
      <trkpt lat="44.67572" lon="5.15641">
        <ele>428</ele>
        <time>2026-09-02T18:45:43.100Z</time>
      </trkpt>
      <trkpt lat="44.67573" lon="5.15641">
        <ele>428</ele>
        <time>2026-09-02T18:45:44.100Z</time>
      </trkpt>
      <trkpt lat="44.67574" lon="5.15641">
        <ele>428</ele>
        <time>2026-09-02T18:45:45.100Z</time>
      </trkpt>
      <trkpt lat="44.67574" lon="5.15641">
        <ele>427</ele>
        <time>2026-09-02T18:45:46.100Z</time>
      </trkpt>
      <trkpt lat="44.67574" lon="5.15641">
        <ele>427</ele>
        <time>2026-09-02T18:45:47.100Z</time>
      </trkpt>
      <trkpt lat="44.67573" lon="5.15641">
        <ele>427</ele>
        <time>2026-09-02T18:45:48.100Z</time>
      </trkpt>
      <trkpt lat="44.67573" lon="5.15641">
        <ele>427</ele>
        <time>2026-09-02T18:45:49.100Z</time>
      </trkpt>
      <trkpt lat="44.67574" lon="5.15641">
        <ele>426</ele>
        <time>2026-09-02T18:45:54.112Z</time>
      </trkpt>
      <trkpt lat="44.67575" lon="5.15641">
        <ele>426</ele>
        <time>2026-09-02T18:45:55.112Z</time>
      </trkpt>
      <trkpt lat="44.67575" lon="5.15641">
        <ele>426</ele>
        <time>2026-09-02T18:45:56.112Z</time>
      </trkpt>
      <trkpt lat="44.67576" lon="5.15641">
        <ele>425</ele>
        <time>2026-09-02T18:45:57.112Z</time>
      </trkpt>
      <trkpt lat="44.67577" lon="5.15641">
        <ele>425</ele>
        <time>2026-09-02T18:45:58.112Z</time>
      </trkpt>
      <trkpt lat="44.67579" lon="5.15641">
        <ele>425</ele>
        <time>2026-09-02T18:45:59.112Z</time>
      </trkpt>
      <trkpt lat="44.67579" lon="5.15641">
        <ele>425</ele>
        <time>2026-09-02T18:46:00.112Z</time>
      </trkpt>
      <trkpt lat="44.6758" lon="5.15641">
        <ele>425</ele>
        <time>2026-09-02T18:46:01.112Z</time>
      </trkpt>
      <trkpt lat="44.67581" lon="5.15641">
        <ele>424</ele>
        <time>2026-09-02T18:46:02.112Z</time>
      </trkpt>
      <trkpt lat="44.67582" lon="5.15641">
        <ele>424</ele>
        <time>2026-09-02T18:46:03.112Z</time>
      </trkpt>
      <trkpt lat="44.67583" lon="5.15641">
        <ele>424</ele>
        <time>2026-09-02T18:46:04.112Z</time>
      </trkpt>
      <trkpt lat="44.67585" lon="5.15641">
        <ele>424</ele>
        <time>2026-09-02T18:46:05.112Z</time>
      </trkpt>
      <trkpt lat="44.67586" lon="5.15641">
        <ele>424</ele>
        <time>2026-09-02T18:46:06.112Z</time>
      </trkpt>
      <trkpt lat="44.67587" lon="5.15641">
        <ele>424</ele>
        <time>2026-09-02T18:46:07.112Z</time>
      </trkpt>
      <trkpt lat="44.67588" lon="5.15641">
        <ele>424</ele>
        <time>2026-09-02T18:46:08.112Z</time>
      </trkpt>
      <trkpt lat="44.67589" lon="5.15641">
        <ele>424</ele>
        <time>2026-09-02T18:46:09.112Z</time>
      </trkpt>
      <trkpt lat="44.67591" lon="5.15641">
        <ele>424</ele>
        <time>2026-09-02T18:46:10.112Z</time>
      </trkpt>
      <trkpt lat="44.67592" lon="5.15641">
        <ele>424</ele>
        <time>2026-09-02T18:46:11.112Z</time>
      </trkpt>
      <trkpt lat="44.67593" lon="5.15641">
        <ele>424</ele>
        <time>2026-09-02T18:46:12.112Z</time>
      </trkpt>
      <trkpt lat="44.67594" lon="5.15641">
        <ele>423</ele>
        <time>2026-09-02T18:46:13.112Z</time>
      </trkpt>
      <trkpt lat="44.67595" lon="5.15641">
        <ele>423</ele>
        <time>2026-09-02T18:46:14.112Z</time>
      </trkpt>
      <trkpt lat="44.67596" lon="5.15641">
        <ele>423</ele>
        <time>2026-09-02T18:46:15.112Z</time>
      </trkpt>
      <trkpt lat="44.67597" lon="5.15641">
        <ele>423</ele>
        <time>2026-09-02T18:46:16.112Z</time>
      </trkpt>
      <trkpt lat="44.67599" lon="5.15641">
        <ele>423</ele>
        <time>2026-09-02T18:46:17.112Z</time>
      </trkpt>
      <trkpt lat="44.676" lon="5.15641">
        <ele>423</ele>
        <time>2026-09-02T18:46:18.112Z</time>
      </trkpt>
      <trkpt lat="44.67601" lon="5.15641">
        <ele>423</ele>
        <time>2026-09-02T18:46:19.112Z</time>
      </trkpt>
      <trkpt lat="44.67602" lon="5.1564">
        <ele>423</ele>
        <time>2026-09-02T18:46:20.112Z</time>
      </trkpt>
      <trkpt lat="44.67603" lon="5.1564">
        <ele>422</ele>
        <time>2026-09-02T18:46:21.112Z</time>
      </trkpt>
      <trkpt lat="44.67604" lon="5.1564">
        <ele>422</ele>
        <time>2026-09-02T18:46:22.112Z</time>
      </trkpt>
      <trkpt lat="44.67605" lon="5.1564">
        <ele>422</ele>
        <time>2026-09-02T18:46:23.112Z</time>
      </trkpt>
      <trkpt lat="44.67606" lon="5.15639">
        <ele>422</ele>
        <time>2026-09-02T18:46:24.112Z</time>
      </trkpt>
      <trkpt lat="44.67607" lon="5.15639">
        <ele>422</ele>
        <time>2026-09-02T18:46:25.112Z</time>
      </trkpt>
      <trkpt lat="44.67608" lon="5.15639">
        <ele>422</ele>
        <time>2026-09-02T18:46:26.112Z</time>
      </trkpt>
      <trkpt lat="44.67609" lon="5.15639">
        <ele>422</ele>
        <time>2026-09-02T18:46:27.112Z</time>
      </trkpt>
      <trkpt lat="44.6761" lon="5.15639">
        <ele>422</ele>
        <time>2026-09-02T18:46:28.112Z</time>
      </trkpt>
      <trkpt lat="44.67611" lon="5.15639">
        <ele>422</ele>
        <time>2026-09-02T18:46:29.112Z</time>
      </trkpt>
      <trkpt lat="44.67612" lon="5.15638">
        <ele>421</ele>
        <time>2026-09-02T18:46:30.112Z</time>
      </trkpt>
      <trkpt lat="44.67613" lon="5.15638">
        <ele>421</ele>
        <time>2026-09-02T18:46:31.112Z</time>
      </trkpt>
      <trkpt lat="44.67614" lon="5.15638">
        <ele>421</ele>
        <time>2026-09-02T18:46:32.112Z</time>
      </trkpt>
      <trkpt lat="44.67615" lon="5.15638">
        <ele>421</ele>
        <time>2026-09-02T18:46:33.112Z</time>
      </trkpt>
      <trkpt lat="44.67616" lon="5.15637">
        <ele>421</ele>
        <time>2026-09-02T18:46:34.112Z</time>
      </trkpt>
      <trkpt lat="44.67618" lon="5.15637">
        <ele>421</ele>
        <time>2026-09-02T18:46:35.112Z</time>
      </trkpt>
      <trkpt lat="44.67619" lon="5.15637">
        <ele>421</ele>
        <time>2026-09-02T18:46:36.112Z</time>
      </trkpt>
      <trkpt lat="44.6762" lon="5.15636">
        <ele>420</ele>
        <time>2026-09-02T18:46:37.112Z</time>
      </trkpt>
      <trkpt lat="44.67621" lon="5.15636">
        <ele>420</ele>
        <time>2026-09-02T18:46:38.112Z</time>
      </trkpt>
      <trkpt lat="44.67622" lon="5.15636">
        <ele>420</ele>
        <time>2026-09-02T18:46:39.112Z</time>
      </trkpt>
      <trkpt lat="44.67623" lon="5.15636">
        <ele>420</ele>
        <time>2026-09-02T18:46:40.112Z</time>
      </trkpt>
      <trkpt lat="44.67624" lon="5.15636">
        <ele>420</ele>
        <time>2026-09-02T18:46:41.112Z</time>
      </trkpt>
      <trkpt lat="44.67625" lon="5.15635">
        <ele>420</ele>
        <time>2026-09-02T18:46:42.112Z</time>
      </trkpt>
      <trkpt lat="44.67626" lon="5.15635">
        <ele>420</ele>
        <time>2026-09-02T18:46:43.112Z</time>
      </trkpt>
      <trkpt lat="44.67628" lon="5.15635">
        <ele>420</ele>
        <time>2026-09-02T18:46:44.112Z</time>
      </trkpt>
      <trkpt lat="44.67629" lon="5.15635">
        <ele>420</ele>
        <time>2026-09-02T18:46:45.112Z</time>
      </trkpt>
      <trkpt lat="44.6763" lon="5.15635">
        <ele>420</ele>
        <time>2026-09-02T18:46:46.112Z</time>
      </trkpt>
      <trkpt lat="44.67631" lon="5.15635">
        <ele>420</ele>
        <time>2026-09-02T18:46:47.112Z</time>
      </trkpt>
      <trkpt lat="44.67632" lon="5.15634">
        <ele>420</ele>
        <time>2026-09-02T18:46:48.112Z</time>
      </trkpt>
      <trkpt lat="44.67633" lon="5.15634">
        <ele>420</ele>
        <time>2026-09-02T18:46:49.112Z</time>
      </trkpt>
      <trkpt lat="44.67634" lon="5.15634">
        <ele>420</ele>
        <time>2026-09-02T18:46:50.112Z</time>
      </trkpt>
      <trkpt lat="44.67635" lon="5.15634">
        <ele>420</ele>
        <time>2026-09-02T18:46:51.112Z</time>
      </trkpt>
      <trkpt lat="44.67637" lon="5.15634">
        <ele>420</ele>
        <time>2026-09-02T18:46:52.112Z</time>
      </trkpt>
      <trkpt lat="44.67638" lon="5.15634">
        <ele>420</ele>
        <time>2026-09-02T18:46:53.112Z</time>
      </trkpt>
      <trkpt lat="44.67639" lon="5.15634">
        <ele>420</ele>
        <time>2026-09-02T18:46:54.112Z</time>
      </trkpt>
      <trkpt lat="44.6764" lon="5.15633">
        <ele>420</ele>
        <time>2026-09-02T18:46:55.112Z</time>
      </trkpt>
      <trkpt lat="44.67641" lon="5.15633">
        <ele>420</ele>
        <time>2026-09-02T18:46:56.112Z</time>
      </trkpt>
      <trkpt lat="44.67642" lon="5.15633">
        <ele>420</ele>
        <time>2026-09-02T18:46:57.112Z</time>
      </trkpt>
      <trkpt lat="44.67644" lon="5.15633">
        <ele>419</ele>
        <time>2026-09-02T18:46:58.112Z</time>
      </trkpt>
      <trkpt lat="44.67645" lon="5.15633">
        <ele>419</ele>
        <time>2026-09-02T18:46:59.112Z</time>
      </trkpt>
      <trkpt lat="44.67646" lon="5.15633">
        <ele>419</ele>
        <time>2026-09-02T18:47:00.112Z</time>
      </trkpt>
      <trkpt lat="44.67647" lon="5.15633">
        <ele>419</ele>
        <time>2026-09-02T18:47:01.112Z</time>
      </trkpt>
      <trkpt lat="44.67648" lon="5.15633">
        <ele>419</ele>
        <time>2026-09-02T18:47:02.112Z</time>
      </trkpt>
      <trkpt lat="44.67649" lon="5.15632">
        <ele>419</ele>
        <time>2026-09-02T18:47:03.112Z</time>
      </trkpt>
      <trkpt lat="44.6765" lon="5.15632">
        <ele>419</ele>
        <time>2026-09-02T18:47:04.112Z</time>
      </trkpt>
      <trkpt lat="44.67651" lon="5.15632">
        <ele>419</ele>
        <time>2026-09-02T18:47:05.112Z</time>
      </trkpt>
      <trkpt lat="44.67652" lon="5.15632">
        <ele>419</ele>
        <time>2026-09-02T18:47:06.112Z</time>
      </trkpt>
      <trkpt lat="44.67653" lon="5.15632">
        <ele>419</ele>
        <time>2026-09-02T18:47:07.112Z</time>
      </trkpt>
      <trkpt lat="44.67654" lon="5.15631">
        <ele>419</ele>
        <time>2026-09-02T18:47:08.112Z</time>
      </trkpt>
      <trkpt lat="44.67655" lon="5.15631">
        <ele>419</ele>
        <time>2026-09-02T18:47:09.112Z</time>
      </trkpt>
      <trkpt lat="44.67656" lon="5.15631">
        <ele>419</ele>
        <time>2026-09-02T18:47:10.112Z</time>
      </trkpt>
      <trkpt lat="44.67657" lon="5.15631">
        <ele>419</ele>
        <time>2026-09-02T18:47:11.112Z</time>
      </trkpt>
      <trkpt lat="44.67659" lon="5.15631">
        <ele>419</ele>
        <time>2026-09-02T18:47:12.112Z</time>
      </trkpt>
      <trkpt lat="44.6766" lon="5.15631">
        <ele>419</ele>
        <time>2026-09-02T18:47:13.112Z</time>
      </trkpt>
      <trkpt lat="44.67661" lon="5.15631">
        <ele>419</ele>
        <time>2026-09-02T18:47:14.112Z</time>
      </trkpt>
      <trkpt lat="44.67662" lon="5.15631">
        <ele>418</ele>
        <time>2026-09-02T18:47:15.112Z</time>
      </trkpt>
      <trkpt lat="44.67663" lon="5.1563">
        <ele>418</ele>
        <time>2026-09-02T18:47:16.112Z</time>
      </trkpt>
      <trkpt lat="44.67664" lon="5.1563">
        <ele>418</ele>
        <time>2026-09-02T18:47:17.112Z</time>
      </trkpt>
      <trkpt lat="44.67666" lon="5.1563">
        <ele>418</ele>
        <time>2026-09-02T18:47:18.112Z</time>
      </trkpt>
      <trkpt lat="44.67667" lon="5.15631">
        <ele>418</ele>
        <time>2026-09-02T18:47:19.112Z</time>
      </trkpt>
      <trkpt lat="44.67668" lon="5.1563">
        <ele>418</ele>
        <time>2026-09-02T18:47:20.112Z</time>
      </trkpt>
      <trkpt lat="44.67669" lon="5.1563">
        <ele>418</ele>
        <time>2026-09-02T18:47:21.112Z</time>
      </trkpt>
      <trkpt lat="44.6767" lon="5.1563">
        <ele>418</ele>
        <time>2026-09-02T18:47:22.112Z</time>
      </trkpt>
      <trkpt lat="44.67672" lon="5.1563">
        <ele>418</ele>
        <time>2026-09-02T18:47:23.112Z</time>
      </trkpt>
      <trkpt lat="44.67673" lon="5.1563">
        <ele>418</ele>
        <time>2026-09-02T18:47:24.112Z</time>
      </trkpt>
      <trkpt lat="44.67674" lon="5.1563">
        <ele>418</ele>
        <time>2026-09-02T18:47:25.112Z</time>
      </trkpt>
      <trkpt lat="44.67675" lon="5.1563">
        <ele>418</ele>
        <time>2026-09-02T18:47:26.112Z</time>
      </trkpt>
      <trkpt lat="44.67677" lon="5.1563">
        <ele>418</ele>
        <time>2026-09-02T18:47:27.112Z</time>
      </trkpt>
      <trkpt lat="44.67678" lon="5.1563">
        <ele>418</ele>
        <time>2026-09-02T18:47:28.112Z</time>
      </trkpt>
      <trkpt lat="44.67679" lon="5.1563">
        <ele>418</ele>
        <time>2026-09-02T18:47:29.112Z</time>
      </trkpt>
      <trkpt lat="44.6768" lon="5.15631">
        <ele>418</ele>
        <time>2026-09-02T18:47:30.112Z</time>
      </trkpt>
      <trkpt lat="44.67681" lon="5.15631">
        <ele>418</ele>
        <time>2026-09-02T18:47:31.112Z</time>
      </trkpt>
      <trkpt lat="44.67682" lon="5.15631">
        <ele>418</ele>
        <time>2026-09-02T18:47:32.112Z</time>
      </trkpt>
      <trkpt lat="44.67684" lon="5.15631">
        <ele>419</ele>
        <time>2026-09-02T18:47:33.112Z</time>
      </trkpt>
      <trkpt lat="44.67685" lon="5.15632">
        <ele>419</ele>
        <time>2026-09-02T18:47:34.112Z</time>
      </trkpt>
      <trkpt lat="44.67686" lon="5.15632">
        <ele>419</ele>
        <time>2026-09-02T18:47:35.112Z</time>
      </trkpt>
      <trkpt lat="44.67687" lon="5.15633">
        <ele>419</ele>
        <time>2026-09-02T18:47:36.112Z</time>
      </trkpt>
      <trkpt lat="44.67688" lon="5.15633">
        <ele>419</ele>
        <time>2026-09-02T18:47:37.112Z</time>
      </trkpt>
      <trkpt lat="44.67689" lon="5.15633">
        <ele>418</ele>
        <time>2026-09-02T18:47:38.112Z</time>
      </trkpt>
      <trkpt lat="44.6769" lon="5.15634">
        <ele>418</ele>
        <time>2026-09-02T18:47:39.112Z</time>
      </trkpt>
      <trkpt lat="44.67691" lon="5.15634">
        <ele>418</ele>
        <time>2026-09-02T18:47:40.112Z</time>
      </trkpt>
      <trkpt lat="44.67692" lon="5.15635">
        <ele>418</ele>
        <time>2026-09-02T18:47:41.112Z</time>
      </trkpt>
      <trkpt lat="44.67692" lon="5.15635">
        <ele>418</ele>
        <time>2026-09-02T18:47:42.112Z</time>
      </trkpt>
      <trkpt lat="44.67693" lon="5.15636">
        <ele>418</ele>
        <time>2026-09-02T18:47:43.112Z</time>
      </trkpt>
      <trkpt lat="44.67694" lon="5.15637">
        <ele>418</ele>
        <time>2026-09-02T18:47:44.112Z</time>
      </trkpt>
      <trkpt lat="44.67695" lon="5.15638">
        <ele>418</ele>
        <time>2026-09-02T18:47:45.112Z</time>
      </trkpt>
      <trkpt lat="44.67696" lon="5.15638">
        <ele>418</ele>
        <time>2026-09-02T18:47:46.112Z</time>
      </trkpt>
      <trkpt lat="44.67697" lon="5.15639">
        <ele>418</ele>
        <time>2026-09-02T18:47:47.112Z</time>
      </trkpt>
      <trkpt lat="44.67698" lon="5.1564">
        <ele>418</ele>
        <time>2026-09-02T18:47:48.112Z</time>
      </trkpt>
      <trkpt lat="44.67699" lon="5.15641">
        <ele>418</ele>
        <time>2026-09-02T18:47:49.112Z</time>
      </trkpt>
      <trkpt lat="44.677" lon="5.15641">
        <ele>418</ele>
        <time>2026-09-02T18:47:50.112Z</time>
      </trkpt>
      <trkpt lat="44.67701" lon="5.15642">
        <ele>418</ele>
        <time>2026-09-02T18:47:51.112Z</time>
      </trkpt>
      <trkpt lat="44.67702" lon="5.15643">
        <ele>418</ele>
        <time>2026-09-02T18:47:52.112Z</time>
      </trkpt>
      <trkpt lat="44.67703" lon="5.15643">
        <ele>418</ele>
        <time>2026-09-02T18:47:53.112Z</time>
      </trkpt>
      <trkpt lat="44.67704" lon="5.15644">
        <ele>418</ele>
        <time>2026-09-02T18:47:54.112Z</time>
      </trkpt>
      <trkpt lat="44.67705" lon="5.15645">
        <ele>418</ele>
        <time>2026-09-02T18:47:55.112Z</time>
      </trkpt>
      <trkpt lat="44.67706" lon="5.15646">
        <ele>418</ele>
        <time>2026-09-02T18:47:56.112Z</time>
      </trkpt>
      <trkpt lat="44.67707" lon="5.15646">
        <ele>418</ele>
        <time>2026-09-02T18:47:57.112Z</time>
      </trkpt>
      <trkpt lat="44.67707" lon="5.15647">
        <ele>418</ele>
        <time>2026-09-02T18:47:58.112Z</time>
      </trkpt>
      <trkpt lat="44.67708" lon="5.15648">
        <ele>418</ele>
        <time>2026-09-02T18:47:59.112Z</time>
      </trkpt>
      <trkpt lat="44.67709" lon="5.15649">
        <ele>418</ele>
        <time>2026-09-02T18:48:00.112Z</time>
      </trkpt>
      <trkpt lat="44.6771" lon="5.1565">
        <ele>418</ele>
        <time>2026-09-02T18:48:01.112Z</time>
      </trkpt>
      <trkpt lat="44.67711" lon="5.1565">
        <ele>418</ele>
        <time>2026-09-02T18:48:02.112Z</time>
      </trkpt>
      <trkpt lat="44.67712" lon="5.15651">
        <ele>418</ele>
        <time>2026-09-02T18:48:03.112Z</time>
      </trkpt>
      <trkpt lat="44.67713" lon="5.15652">
        <ele>418</ele>
        <time>2026-09-02T18:48:04.112Z</time>
      </trkpt>
      <trkpt lat="44.67714" lon="5.15653">
        <ele>418</ele>
        <time>2026-09-02T18:48:05.112Z</time>
      </trkpt>
      <trkpt lat="44.67715" lon="5.15654">
        <ele>418</ele>
        <time>2026-09-02T18:48:06.112Z</time>
      </trkpt>
      <trkpt lat="44.67716" lon="5.15654">
        <ele>418</ele>
        <time>2026-09-02T18:48:07.112Z</time>
      </trkpt>
      <trkpt lat="44.67717" lon="5.15655">
        <ele>418</ele>
        <time>2026-09-02T18:48:08.112Z</time>
      </trkpt>
      <trkpt lat="44.67718" lon="5.15656">
        <ele>418</ele>
        <time>2026-09-02T18:48:09.112Z</time>
      </trkpt>
      <trkpt lat="44.67719" lon="5.15657">
        <ele>418</ele>
        <time>2026-09-02T18:48:10.112Z</time>
      </trkpt>
      <trkpt lat="44.6772" lon="5.15658">
        <ele>418</ele>
        <time>2026-09-02T18:48:11.112Z</time>
      </trkpt>
      <trkpt lat="44.67721" lon="5.15659">
        <ele>418</ele>
        <time>2026-09-02T18:48:12.112Z</time>
      </trkpt>
      <trkpt lat="44.67722" lon="5.1566">
        <ele>418</ele>
        <time>2026-09-02T18:48:13.112Z</time>
      </trkpt>
      <trkpt lat="44.67723" lon="5.15661">
        <ele>418</ele>
        <time>2026-09-02T18:48:14.112Z</time>
      </trkpt>
      <trkpt lat="44.67724" lon="5.15661">
        <ele>418</ele>
        <time>2026-09-02T18:48:15.112Z</time>
      </trkpt>
      <trkpt lat="44.67725" lon="5.15662">
        <ele>418</ele>
        <time>2026-09-02T18:48:16.112Z</time>
      </trkpt>
      <trkpt lat="44.67726" lon="5.15663">
        <ele>417</ele>
        <time>2026-09-02T18:48:17.112Z</time>
      </trkpt>
      <trkpt lat="44.67727" lon="5.15664">
        <ele>417</ele>
        <time>2026-09-02T18:48:18.112Z</time>
      </trkpt>
      <trkpt lat="44.67728" lon="5.15665">
        <ele>417</ele>
        <time>2026-09-02T18:48:19.112Z</time>
      </trkpt>
      <trkpt lat="44.67729" lon="5.15665">
        <ele>417</ele>
        <time>2026-09-02T18:48:20.112Z</time>
      </trkpt>
      <trkpt lat="44.6773" lon="5.15666">
        <ele>417</ele>
        <time>2026-09-02T18:48:21.112Z</time>
      </trkpt>
      <trkpt lat="44.67731" lon="5.15667">
        <ele>417</ele>
        <time>2026-09-02T18:48:22.112Z</time>
      </trkpt>
      <trkpt lat="44.67732" lon="5.15668">
        <ele>417</ele>
        <time>2026-09-02T18:48:23.112Z</time>
      </trkpt>
      <trkpt lat="44.67733" lon="5.15669">
        <ele>417</ele>
        <time>2026-09-02T18:48:24.112Z</time>
      </trkpt>
      <trkpt lat="44.67734" lon="5.1567">
        <ele>417</ele>
        <time>2026-09-02T18:48:25.112Z</time>
      </trkpt>
      <trkpt lat="44.67735" lon="5.1567">
        <ele>417</ele>
        <time>2026-09-02T18:48:26.112Z</time>
      </trkpt>
      <trkpt lat="44.67736" lon="5.15671">
        <ele>417</ele>
        <time>2026-09-02T18:48:27.112Z</time>
      </trkpt>
      <trkpt lat="44.67737" lon="5.15672">
        <ele>417</ele>
        <time>2026-09-02T18:48:28.112Z</time>
      </trkpt>
      <trkpt lat="44.67738" lon="5.15673">
        <ele>417</ele>
        <time>2026-09-02T18:48:29.112Z</time>
      </trkpt>
      <trkpt lat="44.67739" lon="5.15674">
        <ele>417</ele>
        <time>2026-09-02T18:48:30.112Z</time>
      </trkpt>
      <trkpt lat="44.6774" lon="5.15675">
        <ele>417</ele>
        <time>2026-09-02T18:48:31.112Z</time>
      </trkpt>
      <trkpt lat="44.67741" lon="5.15676">
        <ele>417</ele>
        <time>2026-09-02T18:48:32.112Z</time>
      </trkpt>
      <trkpt lat="44.67742" lon="5.15677">
        <ele>417</ele>
        <time>2026-09-02T18:48:33.112Z</time>
      </trkpt>
      <trkpt lat="44.67743" lon="5.15678">
        <ele>417</ele>
        <time>2026-09-02T18:48:34.112Z</time>
      </trkpt>
      <trkpt lat="44.67744" lon="5.15679">
        <ele>417</ele>
        <time>2026-09-02T18:48:35.112Z</time>
      </trkpt>
      <trkpt lat="44.67745" lon="5.1568">
        <ele>417</ele>
        <time>2026-09-02T18:48:36.112Z</time>
      </trkpt>
      <trkpt lat="44.67746" lon="5.15681">
        <ele>417</ele>
        <time>2026-09-02T18:48:37.112Z</time>
      </trkpt>
      <trkpt lat="44.67747" lon="5.15682">
        <ele>417</ele>
        <time>2026-09-02T18:48:38.112Z</time>
      </trkpt>
      <trkpt lat="44.67748" lon="5.15683">
        <ele>417</ele>
        <time>2026-09-02T18:48:39.112Z</time>
      </trkpt>
      <trkpt lat="44.67749" lon="5.15684">
        <ele>417</ele>
        <time>2026-09-02T18:48:40.112Z</time>
      </trkpt>
      <trkpt lat="44.6775" lon="5.15685">
        <ele>417</ele>
        <time>2026-09-02T18:48:41.112Z</time>
      </trkpt>
      <trkpt lat="44.67751" lon="5.15685">
        <ele>417</ele>
        <time>2026-09-02T18:48:42.112Z</time>
      </trkpt>
      <trkpt lat="44.67752" lon="5.15686">
        <ele>417</ele>
        <time>2026-09-02T18:48:43.112Z</time>
      </trkpt>
      <trkpt lat="44.67753" lon="5.15687">
        <ele>417</ele>
        <time>2026-09-02T18:48:44.112Z</time>
      </trkpt>
      <trkpt lat="44.67754" lon="5.15688">
        <ele>417</ele>
        <time>2026-09-02T18:48:45.112Z</time>
      </trkpt>
      <trkpt lat="44.67755" lon="5.15689">
        <ele>417</ele>
        <time>2026-09-02T18:48:46.112Z</time>
      </trkpt>
      <trkpt lat="44.67755" lon="5.1569">
        <ele>417</ele>
        <time>2026-09-02T18:48:47.112Z</time>
      </trkpt>
      <trkpt lat="44.67756" lon="5.15691">
        <ele>417</ele>
        <time>2026-09-02T18:48:48.112Z</time>
      </trkpt>
      <trkpt lat="44.67757" lon="5.15692">
        <ele>417</ele>
        <time>2026-09-02T18:48:49.112Z</time>
      </trkpt>
      <trkpt lat="44.67758" lon="5.15693">
        <ele>417</ele>
        <time>2026-09-02T18:48:50.112Z</time>
      </trkpt>
      <trkpt lat="44.67759" lon="5.15693">
        <ele>417</ele>
        <time>2026-09-02T18:48:51.112Z</time>
      </trkpt>
      <trkpt lat="44.67759" lon="5.15694">
        <ele>417</ele>
        <time>2026-09-02T18:48:52.112Z</time>
      </trkpt>
      <trkpt lat="44.6776" lon="5.15695">
        <ele>417</ele>
        <time>2026-09-02T18:48:53.112Z</time>
      </trkpt>
      <trkpt lat="44.67761" lon="5.15696">
        <ele>417</ele>
        <time>2026-09-02T18:48:54.112Z</time>
      </trkpt>
      <trkpt lat="44.67762" lon="5.15697">
        <ele>417</ele>
        <time>2026-09-02T18:48:55.112Z</time>
      </trkpt>
      <trkpt lat="44.67763" lon="5.15698">
        <ele>417</ele>
        <time>2026-09-02T18:48:56.112Z</time>
      </trkpt>
      <trkpt lat="44.67764" lon="5.15699">
        <ele>417</ele>
        <time>2026-09-02T18:48:57.112Z</time>
      </trkpt>
      <trkpt lat="44.67764" lon="5.157">
        <ele>417</ele>
        <time>2026-09-02T18:48:58.112Z</time>
      </trkpt>
      <trkpt lat="44.67765" lon="5.157">
        <ele>417</ele>
        <time>2026-09-02T18:48:59.112Z</time>
      </trkpt>
      <trkpt lat="44.67766" lon="5.15701">
        <ele>417</ele>
        <time>2026-09-02T18:49:00.112Z</time>
      </trkpt>
      <trkpt lat="44.67767" lon="5.15702">
        <ele>417</ele>
        <time>2026-09-02T18:49:01.112Z</time>
      </trkpt>
      <trkpt lat="44.67768" lon="5.15703">
        <ele>416</ele>
        <time>2026-09-02T18:49:02.112Z</time>
      </trkpt>
      <trkpt lat="44.67769" lon="5.15704">
        <ele>416</ele>
        <time>2026-09-02T18:49:03.112Z</time>
      </trkpt>
      <trkpt lat="44.6777" lon="5.15705">
        <ele>416</ele>
        <time>2026-09-02T18:49:04.112Z</time>
      </trkpt>
      <trkpt lat="44.67771" lon="5.15706">
        <ele>416</ele>
        <time>2026-09-02T18:49:05.112Z</time>
      </trkpt>
      <trkpt lat="44.67771" lon="5.15707">
        <ele>416</ele>
        <time>2026-09-02T18:49:06.112Z</time>
      </trkpt>
      <trkpt lat="44.67772" lon="5.15707">
        <ele>416</ele>
        <time>2026-09-02T18:49:07.112Z</time>
      </trkpt>
      <trkpt lat="44.67773" lon="5.15708">
        <ele>416</ele>
        <time>2026-09-02T18:49:08.112Z</time>
      </trkpt>
      <trkpt lat="44.67774" lon="5.15709">
        <ele>416</ele>
        <time>2026-09-02T18:49:09.112Z</time>
      </trkpt>
      <trkpt lat="44.67775" lon="5.15709">
        <ele>415</ele>
        <time>2026-09-02T18:49:10.112Z</time>
      </trkpt>
      <trkpt lat="44.67775" lon="5.15709">
        <ele>415</ele>
        <time>2026-09-02T18:49:11.112Z</time>
      </trkpt>
      <trkpt lat="44.67775" lon="5.15709">
        <ele>415</ele>
        <time>2026-09-02T18:49:12.112Z</time>
      </trkpt>
      <trkpt lat="44.67775" lon="5.15709">
        <ele>415</ele>
        <time>2026-09-02T18:49:13.112Z</time>
      </trkpt>
      <trkpt lat="44.67775" lon="5.1571">
        <ele>415</ele>
        <time>2026-09-02T18:49:14.112Z</time>
      </trkpt>
      <trkpt lat="44.67777" lon="5.15711">
        <ele>415</ele>
        <time>2026-09-02T18:49:17.439Z</time>
      </trkpt>
      <trkpt lat="44.67778" lon="5.15712">
        <ele>415</ele>
        <time>2026-09-02T18:49:18.439Z</time>
      </trkpt>
      <trkpt lat="44.67778" lon="5.15712">
        <ele>415</ele>
        <time>2026-09-02T18:49:19.439Z</time>
      </trkpt>
      <trkpt lat="44.67778" lon="5.15712">
        <ele>415</ele>
        <time>2026-09-02T18:49:20.439Z</time>
      </trkpt>
      <trkpt lat="44.67779" lon="5.15713">
        <ele>415</ele>
        <time>2026-09-02T18:49:21.439Z</time>
      </trkpt>
      <trkpt lat="44.6778" lon="5.15713">
        <ele>415</ele>
        <time>2026-09-02T18:49:22.439Z</time>
      </trkpt>
      <trkpt lat="44.67781" lon="5.15713">
        <ele>415</ele>
        <time>2026-09-02T18:49:23.439Z</time>
      </trkpt>
      <trkpt lat="44.67782" lon="5.15714">
        <ele>415</ele>
        <time>2026-09-02T18:49:24.439Z</time>
      </trkpt>
      <trkpt lat="44.67783" lon="5.15714">
        <ele>414</ele>
        <time>2026-09-02T18:49:25.439Z</time>
      </trkpt>
      <trkpt lat="44.67784" lon="5.15714">
        <ele>414</ele>
        <time>2026-09-02T18:49:26.439Z</time>
      </trkpt>
      <trkpt lat="44.67786" lon="5.15715">
        <ele>414</ele>
        <time>2026-09-02T18:49:27.439Z</time>
      </trkpt>
      <trkpt lat="44.67787" lon="5.15715">
        <ele>414</ele>
        <time>2026-09-02T18:49:28.439Z</time>
      </trkpt>
      <trkpt lat="44.67788" lon="5.15715">
        <ele>414</ele>
        <time>2026-09-02T18:49:29.439Z</time>
      </trkpt>
      <trkpt lat="44.6779" lon="5.15715">
        <ele>414</ele>
        <time>2026-09-02T18:49:30.439Z</time>
      </trkpt>
      <trkpt lat="44.67791" lon="5.15715">
        <ele>414</ele>
        <time>2026-09-02T18:49:31.439Z</time>
      </trkpt>
      <trkpt lat="44.67792" lon="5.15716">
        <ele>414</ele>
        <time>2026-09-02T18:49:32.439Z</time>
      </trkpt>
      <trkpt lat="44.67794" lon="5.15716">
        <ele>414</ele>
        <time>2026-09-02T18:49:33.439Z</time>
      </trkpt>
      <trkpt lat="44.67795" lon="5.15716">
        <ele>414</ele>
        <time>2026-09-02T18:49:34.439Z</time>
      </trkpt>
      <trkpt lat="44.67797" lon="5.15716">
        <ele>414</ele>
        <time>2026-09-02T18:49:35.439Z</time>
      </trkpt>
      <trkpt lat="44.67798" lon="5.15716">
        <ele>414</ele>
        <time>2026-09-02T18:49:36.439Z</time>
      </trkpt>
      <trkpt lat="44.678" lon="5.15716">
        <ele>414</ele>
        <time>2026-09-02T18:49:37.439Z</time>
      </trkpt>
      <trkpt lat="44.67801" lon="5.15716">
        <ele>414</ele>
        <time>2026-09-02T18:49:38.439Z</time>
      </trkpt>
      <trkpt lat="44.67803" lon="5.15716">
        <ele>414</ele>
        <time>2026-09-02T18:49:39.439Z</time>
      </trkpt>
      <trkpt lat="44.67804" lon="5.15716">
        <ele>414</ele>
        <time>2026-09-02T18:49:40.439Z</time>
      </trkpt>
      <trkpt lat="44.67806" lon="5.15716">
        <ele>414</ele>
        <time>2026-09-02T18:49:41.439Z</time>
      </trkpt>
      <trkpt lat="44.67807" lon="5.15716">
        <ele>414</ele>
        <time>2026-09-02T18:49:42.439Z</time>
      </trkpt>
      <trkpt lat="44.67809" lon="5.15715">
        <ele>414</ele>
        <time>2026-09-02T18:49:43.439Z</time>
      </trkpt>
      <trkpt lat="44.6781" lon="5.15715">
        <ele>414</ele>
        <time>2026-09-02T18:49:44.439Z</time>
      </trkpt>
      <trkpt lat="44.67811" lon="5.15715">
        <ele>414</ele>
        <time>2026-09-02T18:49:45.439Z</time>
      </trkpt>
      <trkpt lat="44.67812" lon="5.15715">
        <ele>414</ele>
        <time>2026-09-02T18:49:46.439Z</time>
      </trkpt>
      <trkpt lat="44.67813" lon="5.15715">
        <ele>414</ele>
        <time>2026-09-02T18:49:47.439Z</time>
      </trkpt>
      <trkpt lat="44.67815" lon="5.15715">
        <ele>414</ele>
        <time>2026-09-02T18:49:48.439Z</time>
      </trkpt>
      <trkpt lat="44.67815" lon="5.15715">
        <ele>414</ele>
        <time>2026-09-02T18:49:49.439Z</time>
      </trkpt>
      <trkpt lat="44.67816" lon="5.15715">
        <ele>413</ele>
        <time>2026-09-02T18:49:50.439Z</time>
      </trkpt>
      <trkpt lat="44.67817" lon="5.15715">
        <ele>413</ele>
        <time>2026-09-02T18:49:51.439Z</time>
      </trkpt>
      <trkpt lat="44.67818" lon="5.15715">
        <ele>413</ele>
        <time>2026-09-02T18:49:52.439Z</time>
      </trkpt>
      <trkpt lat="44.6782" lon="5.15715">
        <ele>413</ele>
        <time>2026-09-02T18:49:53.439Z</time>
      </trkpt>
      <trkpt lat="44.67821" lon="5.15716">
        <ele>413</ele>
        <time>2026-09-02T18:49:54.439Z</time>
      </trkpt>
      <trkpt lat="44.67822" lon="5.15716">
        <ele>413</ele>
        <time>2026-09-02T18:49:55.439Z</time>
      </trkpt>
      <trkpt lat="44.67823" lon="5.15716">
        <ele>412</ele>
        <time>2026-09-02T18:49:56.439Z</time>
      </trkpt>
      <trkpt lat="44.67824" lon="5.15717">
        <ele>412</ele>
        <time>2026-09-02T18:49:57.439Z</time>
      </trkpt>
      <trkpt lat="44.67826" lon="5.15718">
        <ele>412</ele>
        <time>2026-09-02T18:49:58.439Z</time>
      </trkpt>
      <trkpt lat="44.67827" lon="5.15718">
        <ele>412</ele>
        <time>2026-09-02T18:49:59.439Z</time>
      </trkpt>
      <trkpt lat="44.67828" lon="5.15719">
        <ele>412</ele>
        <time>2026-09-02T18:50:00.439Z</time>
      </trkpt>
      <trkpt lat="44.67829" lon="5.1572">
        <ele>412</ele>
        <time>2026-09-02T18:50:01.439Z</time>
      </trkpt>
      <trkpt lat="44.6783" lon="5.15721">
        <ele>412</ele>
        <time>2026-09-02T18:50:02.439Z</time>
      </trkpt>
      <trkpt lat="44.67831" lon="5.15722">
        <ele>412</ele>
        <time>2026-09-02T18:50:03.439Z</time>
      </trkpt>
      <trkpt lat="44.67832" lon="5.15723">
        <ele>412</ele>
        <time>2026-09-02T18:50:04.439Z</time>
      </trkpt>
      <trkpt lat="44.67833" lon="5.15724">
        <ele>411</ele>
        <time>2026-09-02T18:50:05.439Z</time>
      </trkpt>
      <trkpt lat="44.67833" lon="5.15725">
        <ele>411</ele>
        <time>2026-09-02T18:50:06.439Z</time>
      </trkpt>
      <trkpt lat="44.67834" lon="5.15726">
        <ele>411</ele>
        <time>2026-09-02T18:50:07.439Z</time>
      </trkpt>
      <trkpt lat="44.67835" lon="5.15727">
        <ele>411</ele>
        <time>2026-09-02T18:50:08.439Z</time>
      </trkpt>
      <trkpt lat="44.67836" lon="5.15728">
        <ele>411</ele>
        <time>2026-09-02T18:50:09.439Z</time>
      </trkpt>
      <trkpt lat="44.67837" lon="5.15729">
        <ele>411</ele>
        <time>2026-09-02T18:50:10.439Z</time>
      </trkpt>
      <trkpt lat="44.67838" lon="5.1573">
        <ele>411</ele>
        <time>2026-09-02T18:50:11.439Z</time>
      </trkpt>
      <trkpt lat="44.67838" lon="5.15731">
        <ele>411</ele>
        <time>2026-09-02T18:50:12.439Z</time>
      </trkpt>
      <trkpt lat="44.67839" lon="5.15732">
        <ele>411</ele>
        <time>2026-09-02T18:50:13.439Z</time>
      </trkpt>
      <trkpt lat="44.6784" lon="5.15733">
        <ele>410</ele>
        <time>2026-09-02T18:50:14.439Z</time>
      </trkpt>
      <trkpt lat="44.6784" lon="5.15734">
        <ele>410</ele>
        <time>2026-09-02T18:50:15.439Z</time>
      </trkpt>
      <trkpt lat="44.67841" lon="5.15735">
        <ele>410</ele>
        <time>2026-09-02T18:50:16.439Z</time>
      </trkpt>
      <trkpt lat="44.67842" lon="5.15737">
        <ele>410</ele>
        <time>2026-09-02T18:50:17.439Z</time>
      </trkpt>
      <trkpt lat="44.67843" lon="5.15738">
        <ele>410</ele>
        <time>2026-09-02T18:50:18.439Z</time>
      </trkpt>
      <trkpt lat="44.67843" lon="5.15739">
        <ele>410</ele>
        <time>2026-09-02T18:50:19.439Z</time>
      </trkpt>
      <trkpt lat="44.67844" lon="5.1574">
        <ele>409</ele>
        <time>2026-09-02T18:50:20.439Z</time>
      </trkpt>
      <trkpt lat="44.67845" lon="5.15741">
        <ele>409</ele>
        <time>2026-09-02T18:50:21.439Z</time>
      </trkpt>
      <trkpt lat="44.67846" lon="5.15742">
        <ele>409</ele>
        <time>2026-09-02T18:50:22.439Z</time>
      </trkpt>
      <trkpt lat="44.67847" lon="5.15743">
        <ele>409</ele>
        <time>2026-09-02T18:50:23.439Z</time>
      </trkpt>
      <trkpt lat="44.67848" lon="5.15744">
        <ele>409</ele>
        <time>2026-09-02T18:50:24.439Z</time>
      </trkpt>
      <trkpt lat="44.67849" lon="5.15745">
        <ele>409</ele>
        <time>2026-09-02T18:50:25.439Z</time>
      </trkpt>
      <trkpt lat="44.6785" lon="5.15746">
        <ele>409</ele>
        <time>2026-09-02T18:50:26.439Z</time>
      </trkpt>
      <trkpt lat="44.67851" lon="5.15746">
        <ele>409</ele>
        <time>2026-09-02T18:50:27.439Z</time>
      </trkpt>
      <trkpt lat="44.67852" lon="5.15747">
        <ele>409</ele>
        <time>2026-09-02T18:50:28.439Z</time>
      </trkpt>
      <trkpt lat="44.67853" lon="5.15747">
        <ele>409</ele>
        <time>2026-09-02T18:50:29.439Z</time>
      </trkpt>
      <trkpt lat="44.67854" lon="5.15748">
        <ele>409</ele>
        <time>2026-09-02T18:50:30.439Z</time>
      </trkpt>
      <trkpt lat="44.67855" lon="5.15748">
        <ele>409</ele>
        <time>2026-09-02T18:50:31.439Z</time>
      </trkpt>
      <trkpt lat="44.67856" lon="5.15748">
        <ele>408</ele>
        <time>2026-09-02T18:50:32.439Z</time>
      </trkpt>
      <trkpt lat="44.67857" lon="5.15749">
        <ele>408</ele>
        <time>2026-09-02T18:50:33.439Z</time>
      </trkpt>
      <trkpt lat="44.67858" lon="5.15749">
        <ele>408</ele>
        <time>2026-09-02T18:50:34.439Z</time>
      </trkpt>
      <trkpt lat="44.67859" lon="5.15749">
        <ele>408</ele>
        <time>2026-09-02T18:50:35.439Z</time>
      </trkpt>
      <trkpt lat="44.6786" lon="5.1575">
        <ele>408</ele>
        <time>2026-09-02T18:50:36.439Z</time>
      </trkpt>
      <trkpt lat="44.67861" lon="5.1575">
        <ele>408</ele>
        <time>2026-09-02T18:50:37.439Z</time>
      </trkpt>
      <trkpt lat="44.67862" lon="5.1575">
        <ele>408</ele>
        <time>2026-09-02T18:50:38.439Z</time>
      </trkpt>
      <trkpt lat="44.67863" lon="5.15749">
        <ele>408</ele>
        <time>2026-09-02T18:50:39.439Z</time>
      </trkpt>
      <trkpt lat="44.67864" lon="5.1575">
        <ele>408</ele>
        <time>2026-09-02T18:50:40.439Z</time>
      </trkpt>
      <trkpt lat="44.67864" lon="5.1575">
        <ele>407</ele>
        <time>2026-09-02T18:50:41.439Z</time>
      </trkpt>
      <trkpt lat="44.67864" lon="5.1575">
        <ele>407</ele>
        <time>2026-09-02T18:50:42.439Z</time>
      </trkpt>
      <trkpt lat="44.67864" lon="5.1575">
        <ele>407</ele>
        <time>2026-09-02T18:50:43.439Z</time>
      </trkpt>
      <trkpt lat="44.67864" lon="5.1575">
        <ele>407</ele>
        <time>2026-09-02T18:50:44.439Z</time>
      </trkpt>
      <trkpt lat="44.67864" lon="5.15752">
        <ele>408</ele>
        <time>2026-09-02T18:51:20.446Z</time>
      </trkpt>
      <trkpt lat="44.67864" lon="5.15753">
        <ele>408</ele>
        <time>2026-09-02T18:51:21.446Z</time>
      </trkpt>
      <trkpt lat="44.67865" lon="5.15753">
        <ele>408</ele>
        <time>2026-09-02T18:51:22.446Z</time>
      </trkpt>
      <trkpt lat="44.67866" lon="5.15753">
        <ele>408</ele>
        <time>2026-09-02T18:51:23.446Z</time>
      </trkpt>
      <trkpt lat="44.67867" lon="5.15754">
        <ele>408</ele>
        <time>2026-09-02T18:51:24.446Z</time>
      </trkpt>
      <trkpt lat="44.67867" lon="5.15754">
        <ele>408</ele>
        <time>2026-09-02T18:51:25.446Z</time>
      </trkpt>
      <trkpt lat="44.67868" lon="5.15754">
        <ele>408</ele>
        <time>2026-09-02T18:51:26.446Z</time>
      </trkpt>
      <trkpt lat="44.67869" lon="5.15754">
        <ele>408</ele>
        <time>2026-09-02T18:51:27.446Z</time>
      </trkpt>
      <trkpt lat="44.67869" lon="5.15754">
        <ele>408</ele>
        <time>2026-09-02T18:51:28.446Z</time>
      </trkpt>
      <trkpt lat="44.6787" lon="5.15754">
        <ele>408</ele>
        <time>2026-09-02T18:51:29.446Z</time>
      </trkpt>
      <trkpt lat="44.6787" lon="5.15754">
        <ele>408</ele>
        <time>2026-09-02T18:51:30.446Z</time>
      </trkpt>
      <trkpt lat="44.6787" lon="5.15754">
        <ele>408</ele>
        <time>2026-09-02T18:51:31.446Z</time>
      </trkpt>
      <trkpt lat="44.6787" lon="5.15754">
        <ele>408</ele>
        <time>2026-09-02T18:51:32.446Z</time>
      </trkpt>
      <trkpt lat="44.6787" lon="5.15754">
        <ele>408</ele>
        <time>2026-09-02T18:51:33.446Z</time>
      </trkpt>
      <trkpt lat="44.67871" lon="5.15753">
        <ele>408</ele>
        <time>2026-09-02T18:51:34.446Z</time>
      </trkpt>
      <trkpt lat="44.67871" lon="5.15752">
        <ele>408</ele>
        <time>2026-09-02T18:51:35.446Z</time>
      </trkpt>
      <trkpt lat="44.67872" lon="5.15752">
        <ele>408</ele>
        <time>2026-09-02T18:51:36.446Z</time>
      </trkpt>
      <trkpt lat="44.67872" lon="5.15752">
        <ele>408</ele>
        <time>2026-09-02T18:51:37.446Z</time>
      </trkpt>
      <trkpt lat="44.67873" lon="5.15752">
        <ele>408</ele>
        <time>2026-09-02T18:51:38.446Z</time>
      </trkpt>
      <trkpt lat="44.67874" lon="5.15751">
        <ele>408</ele>
        <time>2026-09-02T18:51:39.446Z</time>
      </trkpt>
      <trkpt lat="44.67875" lon="5.15751">
        <ele>408</ele>
        <time>2026-09-02T18:51:40.446Z</time>
      </trkpt>
      <trkpt lat="44.67875" lon="5.1575">
        <ele>408</ele>
        <time>2026-09-02T18:51:41.446Z</time>
      </trkpt>
      <trkpt lat="44.67876" lon="5.1575">
        <ele>407</ele>
        <time>2026-09-02T18:51:42.446Z</time>
      </trkpt>
      <trkpt lat="44.67877" lon="5.1575">
        <ele>407</ele>
        <time>2026-09-02T18:51:43.446Z</time>
      </trkpt>
      <trkpt lat="44.67878" lon="5.1575">
        <ele>407</ele>
        <time>2026-09-02T18:51:44.446Z</time>
      </trkpt>
      <trkpt lat="44.67879" lon="5.15749">
        <ele>407</ele>
        <time>2026-09-02T18:51:45.446Z</time>
      </trkpt>
      <trkpt lat="44.67879" lon="5.15749">
        <ele>407</ele>
        <time>2026-09-02T18:51:46.446Z</time>
      </trkpt>
      <trkpt lat="44.6788" lon="5.15749">
        <ele>407</ele>
        <time>2026-09-02T18:51:47.446Z</time>
      </trkpt>
      <trkpt lat="44.67882" lon="5.15748">
        <ele>407</ele>
        <time>2026-09-02T18:51:48.446Z</time>
      </trkpt>
      <trkpt lat="44.67883" lon="5.15748">
        <ele>407</ele>
        <time>2026-09-02T18:51:49.446Z</time>
      </trkpt>
      <trkpt lat="44.67884" lon="5.15747">
        <ele>407</ele>
        <time>2026-09-02T18:51:50.446Z</time>
      </trkpt>
      <trkpt lat="44.67885" lon="5.15747">
        <ele>407</ele>
        <time>2026-09-02T18:51:51.446Z</time>
      </trkpt>
      <trkpt lat="44.67886" lon="5.15747">
        <ele>407</ele>
        <time>2026-09-02T18:51:52.446Z</time>
      </trkpt>
      <trkpt lat="44.67887" lon="5.15747">
        <ele>407</ele>
        <time>2026-09-02T18:51:53.446Z</time>
      </trkpt>
      <trkpt lat="44.67888" lon="5.15747">
        <ele>406</ele>
        <time>2026-09-02T18:51:54.446Z</time>
      </trkpt>
      <trkpt lat="44.67889" lon="5.15747">
        <ele>406</ele>
        <time>2026-09-02T18:51:55.446Z</time>
      </trkpt>
      <trkpt lat="44.67889" lon="5.15747">
        <ele>406</ele>
        <time>2026-09-02T18:51:56.446Z</time>
      </trkpt>
      <trkpt lat="44.67889" lon="5.15747">
        <ele>406</ele>
        <time>2026-09-02T18:51:57.446Z</time>
      </trkpt>
      <trkpt lat="44.67889" lon="5.15747">
        <ele>406</ele>
        <time>2026-09-02T18:51:58.446Z</time>
      </trkpt>
      <trkpt lat="44.67889" lon="5.15747">
        <ele>406</ele>
        <time>2026-09-02T18:51:59.446Z</time>
      </trkpt>
      <trkpt lat="44.67891" lon="5.15747">
        <ele>405</ele>
        <time>2026-09-02T18:52:11.454Z</time>
      </trkpt>
      <trkpt lat="44.67892" lon="5.15747">
        <ele>405</ele>
        <time>2026-09-02T18:52:12.454Z</time>
      </trkpt>
      <trkpt lat="44.67892" lon="5.15747">
        <ele>405</ele>
        <time>2026-09-02T18:52:13.454Z</time>
      </trkpt>
      <trkpt lat="44.67893" lon="5.15747">
        <ele>405</ele>
        <time>2026-09-02T18:52:14.454Z</time>
      </trkpt>
      <trkpt lat="44.67894" lon="5.15747">
        <ele>405</ele>
        <time>2026-09-02T18:52:15.454Z</time>
      </trkpt>
      <trkpt lat="44.67894" lon="5.15747">
        <ele>405</ele>
        <time>2026-09-02T18:52:16.454Z</time>
      </trkpt>
      <trkpt lat="44.67894" lon="5.15747">
        <ele>405</ele>
        <time>2026-09-02T18:52:17.454Z</time>
      </trkpt>
      <trkpt lat="44.67894" lon="5.15747">
        <ele>405</ele>
        <time>2026-09-02T18:52:18.454Z</time>
      </trkpt>
      <trkpt lat="44.67896" lon="5.15748">
        <ele>404</ele>
        <time>2026-09-02T18:53:08.465Z</time>
      </trkpt>
      <trkpt lat="44.67897" lon="5.15748">
        <ele>404</ele>
        <time>2026-09-02T18:53:09.465Z</time>
      </trkpt>
      <trkpt lat="44.67897" lon="5.15748">
        <ele>404</ele>
        <time>2026-09-02T18:53:10.465Z</time>
      </trkpt>
      <trkpt lat="44.67898" lon="5.15748">
        <ele>404</ele>
        <time>2026-09-02T18:53:11.465Z</time>
      </trkpt>
      <trkpt lat="44.67898" lon="5.15747">
        <ele>404</ele>
        <time>2026-09-02T18:53:12.465Z</time>
      </trkpt>
      <trkpt lat="44.67899" lon="5.15748">
        <ele>404</ele>
        <time>2026-09-02T18:53:13.465Z</time>
      </trkpt>
      <trkpt lat="44.679" lon="5.15747">
        <ele>403</ele>
        <time>2026-09-02T18:53:14.465Z</time>
      </trkpt>
      <trkpt lat="44.679" lon="5.15747">
        <ele>403</ele>
        <time>2026-09-02T18:53:15.465Z</time>
      </trkpt>
      <trkpt lat="44.67901" lon="5.15748">
        <ele>403</ele>
        <time>2026-09-02T18:53:16.465Z</time>
      </trkpt>
      <trkpt lat="44.67902" lon="5.15748">
        <ele>403</ele>
        <time>2026-09-02T18:53:17.465Z</time>
      </trkpt>
      <trkpt lat="44.67903" lon="5.15747">
        <ele>403</ele>
        <time>2026-09-02T18:53:18.465Z</time>
      </trkpt>
      <trkpt lat="44.67904" lon="5.15747">
        <ele>402</ele>
        <time>2026-09-02T18:53:19.465Z</time>
      </trkpt>
      <trkpt lat="44.67905" lon="5.15747">
        <ele>402</ele>
        <time>2026-09-02T18:53:20.465Z</time>
      </trkpt>
      <trkpt lat="44.67906" lon="5.15747">
        <ele>402</ele>
        <time>2026-09-02T18:53:21.465Z</time>
      </trkpt>
      <trkpt lat="44.67908" lon="5.15747">
        <ele>402</ele>
        <time>2026-09-02T18:53:22.465Z</time>
      </trkpt>
      <trkpt lat="44.67909" lon="5.15747">
        <ele>402</ele>
        <time>2026-09-02T18:53:23.465Z</time>
      </trkpt>
      <trkpt lat="44.67909" lon="5.15747">
        <ele>402</ele>
        <time>2026-09-02T18:53:24.465Z</time>
      </trkpt>
      <trkpt lat="44.67909" lon="5.15747">
        <ele>402</ele>
        <time>2026-09-02T18:53:25.465Z</time>
      </trkpt>
      <trkpt lat="44.67909" lon="5.15747">
        <ele>402</ele>
        <time>2026-09-02T18:53:26.465Z</time>
      </trkpt>
      <trkpt lat="44.67909" lon="5.15747">
        <ele>402</ele>
        <time>2026-09-02T18:53:27.465Z</time>
      </trkpt>
      <trkpt lat="44.6791" lon="5.15747">
        <ele>402</ele>
        <time>2026-09-02T18:53:28.465Z</time>
      </trkpt>
      <trkpt lat="44.67911" lon="5.15746">
        <ele>402</ele>
        <time>2026-09-02T18:53:31.767Z</time>
      </trkpt>
      <trkpt lat="44.67912" lon="5.15746">
        <ele>402</ele>
        <time>2026-09-02T18:53:32.767Z</time>
      </trkpt>
      <trkpt lat="44.67913" lon="5.15745">
        <ele>402</ele>
        <time>2026-09-02T18:53:33.767Z</time>
      </trkpt>
      <trkpt lat="44.67914" lon="5.15745">
        <ele>402</ele>
        <time>2026-09-02T18:53:34.767Z</time>
      </trkpt>
      <trkpt lat="44.67915" lon="5.15745">
        <ele>402</ele>
        <time>2026-09-02T18:53:35.767Z</time>
      </trkpt>
      <trkpt lat="44.67916" lon="5.15745">
        <ele>402</ele>
        <time>2026-09-02T18:53:36.767Z</time>
      </trkpt>
      <trkpt lat="44.67917" lon="5.15744">
        <ele>402</ele>
        <time>2026-09-02T18:53:37.767Z</time>
      </trkpt>
      <trkpt lat="44.67918" lon="5.15744">
        <ele>401</ele>
        <time>2026-09-02T18:53:38.767Z</time>
      </trkpt>
      <trkpt lat="44.67919" lon="5.15743">
        <ele>401</ele>
        <time>2026-09-02T18:53:39.767Z</time>
      </trkpt>
      <trkpt lat="44.6792" lon="5.15743">
        <ele>401</ele>
        <time>2026-09-02T18:53:40.767Z</time>
      </trkpt>
      <trkpt lat="44.67921" lon="5.15742">
        <ele>401</ele>
        <time>2026-09-02T18:53:41.767Z</time>
      </trkpt>
      <trkpt lat="44.67922" lon="5.15741">
        <ele>401</ele>
        <time>2026-09-02T18:53:42.767Z</time>
      </trkpt>
      <trkpt lat="44.67923" lon="5.15741">
        <ele>401</ele>
        <time>2026-09-02T18:53:43.767Z</time>
      </trkpt>
      <trkpt lat="44.67924" lon="5.15741">
        <ele>401</ele>
        <time>2026-09-02T18:53:44.767Z</time>
      </trkpt>
      <trkpt lat="44.67925" lon="5.1574">
        <ele>401</ele>
        <time>2026-09-02T18:53:45.767Z</time>
      </trkpt>
      <trkpt lat="44.67925" lon="5.1574">
        <ele>401</ele>
        <time>2026-09-02T18:53:46.767Z</time>
      </trkpt>
      <trkpt lat="44.67926" lon="5.1574">
        <ele>400</ele>
        <time>2026-09-02T18:53:47.767Z</time>
      </trkpt>
      <trkpt lat="44.67927" lon="5.15739">
        <ele>400</ele>
        <time>2026-09-02T18:53:48.767Z</time>
      </trkpt>
      <trkpt lat="44.67928" lon="5.15738">
        <ele>400</ele>
        <time>2026-09-02T18:53:49.767Z</time>
      </trkpt>
      <trkpt lat="44.6793" lon="5.15738">
        <ele>400</ele>
        <time>2026-09-02T18:53:50.767Z</time>
      </trkpt>
      <trkpt lat="44.67931" lon="5.15738">
        <ele>400</ele>
        <time>2026-09-02T18:53:51.767Z</time>
      </trkpt>
      <trkpt lat="44.67932" lon="5.15737">
        <ele>400</ele>
        <time>2026-09-02T18:53:52.767Z</time>
      </trkpt>
      <trkpt lat="44.67933" lon="5.15737">
        <ele>400</ele>
        <time>2026-09-02T18:53:53.767Z</time>
      </trkpt>
      <trkpt lat="44.67934" lon="5.15737">
        <ele>400</ele>
        <time>2026-09-02T18:53:54.767Z</time>
      </trkpt>
      <trkpt lat="44.67935" lon="5.15736">
        <ele>400</ele>
        <time>2026-09-02T18:53:55.767Z</time>
      </trkpt>
      <trkpt lat="44.67936" lon="5.15736">
        <ele>400</ele>
        <time>2026-09-02T18:53:56.767Z</time>
      </trkpt>
      <trkpt lat="44.67937" lon="5.15736">
        <ele>400</ele>
        <time>2026-09-02T18:53:57.767Z</time>
      </trkpt>
      <trkpt lat="44.67938" lon="5.15736">
        <ele>400</ele>
        <time>2026-09-02T18:53:58.767Z</time>
      </trkpt>
      <trkpt lat="44.6794" lon="5.15735">
        <ele>400</ele>
        <time>2026-09-02T18:53:59.767Z</time>
      </trkpt>
      <trkpt lat="44.67941" lon="5.15735">
        <ele>400</ele>
        <time>2026-09-02T18:54:00.767Z</time>
      </trkpt>
      <trkpt lat="44.67942" lon="5.15734">
        <ele>400</ele>
        <time>2026-09-02T18:54:01.767Z</time>
      </trkpt>
      <trkpt lat="44.67942" lon="5.15734">
        <ele>399</ele>
        <time>2026-09-02T18:54:02.767Z</time>
      </trkpt>
      <trkpt lat="44.67943" lon="5.15733">
        <ele>399</ele>
        <time>2026-09-02T18:54:03.767Z</time>
      </trkpt>
      <trkpt lat="44.67944" lon="5.15732">
        <ele>399</ele>
        <time>2026-09-02T18:54:04.767Z</time>
      </trkpt>
      <trkpt lat="44.67946" lon="5.15732">
        <ele>399</ele>
        <time>2026-09-02T18:54:05.767Z</time>
      </trkpt>
      <trkpt lat="44.67947" lon="5.15731">
        <ele>399</ele>
        <time>2026-09-02T18:54:06.767Z</time>
      </trkpt>
      <trkpt lat="44.67948" lon="5.1573">
        <ele>399</ele>
        <time>2026-09-02T18:54:07.767Z</time>
      </trkpt>
      <trkpt lat="44.67949" lon="5.1573">
        <ele>398</ele>
        <time>2026-09-02T18:54:08.767Z</time>
      </trkpt>
      <trkpt lat="44.6795" lon="5.15729">
        <ele>398</ele>
        <time>2026-09-02T18:54:09.767Z</time>
      </trkpt>
      <trkpt lat="44.67951" lon="5.15729">
        <ele>398</ele>
        <time>2026-09-02T18:54:10.767Z</time>
      </trkpt>
      <trkpt lat="44.67952" lon="5.15728">
        <ele>398</ele>
        <time>2026-09-02T18:54:11.767Z</time>
      </trkpt>
      <trkpt lat="44.67953" lon="5.15728">
        <ele>398</ele>
        <time>2026-09-02T18:54:12.767Z</time>
      </trkpt>
      <trkpt lat="44.67955" lon="5.15727">
        <ele>397</ele>
        <time>2026-09-02T18:54:13.767Z</time>
      </trkpt>
      <trkpt lat="44.67956" lon="5.15726">
        <ele>397</ele>
        <time>2026-09-02T18:54:14.767Z</time>
      </trkpt>
      <trkpt lat="44.67957" lon="5.15726">
        <ele>397</ele>
        <time>2026-09-02T18:54:15.767Z</time>
      </trkpt>
      <trkpt lat="44.67958" lon="5.15725">
        <ele>397</ele>
        <time>2026-09-02T18:54:16.767Z</time>
      </trkpt>
      <trkpt lat="44.67959" lon="5.15725">
        <ele>397</ele>
        <time>2026-09-02T18:54:17.767Z</time>
      </trkpt>
      <trkpt lat="44.6796" lon="5.15724">
        <ele>397</ele>
        <time>2026-09-02T18:54:18.767Z</time>
      </trkpt>
      <trkpt lat="44.6796" lon="5.15723">
        <ele>397</ele>
        <time>2026-09-02T18:54:19.767Z</time>
      </trkpt>
      <trkpt lat="44.67961" lon="5.15723">
        <ele>397</ele>
        <time>2026-09-02T18:54:20.767Z</time>
      </trkpt>
      <trkpt lat="44.67963" lon="5.15722">
        <ele>397</ele>
        <time>2026-09-02T18:54:21.767Z</time>
      </trkpt>
      <trkpt lat="44.67964" lon="5.15722">
        <ele>396</ele>
        <time>2026-09-02T18:54:22.767Z</time>
      </trkpt>
      <trkpt lat="44.67965" lon="5.15721">
        <ele>396</ele>
        <time>2026-09-02T18:54:23.767Z</time>
      </trkpt>
      <trkpt lat="44.67966" lon="5.1572">
        <ele>396</ele>
        <time>2026-09-02T18:54:24.767Z</time>
      </trkpt>
      <trkpt lat="44.67967" lon="5.1572">
        <ele>396</ele>
        <time>2026-09-02T18:54:25.767Z</time>
      </trkpt>
      <trkpt lat="44.67968" lon="5.15719">
        <ele>396</ele>
        <time>2026-09-02T18:54:26.767Z</time>
      </trkpt>
      <trkpt lat="44.67969" lon="5.15718">
        <ele>396</ele>
        <time>2026-09-02T18:54:27.767Z</time>
      </trkpt>
      <trkpt lat="44.6797" lon="5.15718">
        <ele>395</ele>
        <time>2026-09-02T18:54:28.767Z</time>
      </trkpt>
      <trkpt lat="44.67971" lon="5.15717">
        <ele>395</ele>
        <time>2026-09-02T18:54:29.767Z</time>
      </trkpt>
      <trkpt lat="44.67972" lon="5.15716">
        <ele>395</ele>
        <time>2026-09-02T18:54:30.767Z</time>
      </trkpt>
      <trkpt lat="44.67973" lon="5.15716">
        <ele>395</ele>
        <time>2026-09-02T18:54:31.767Z</time>
      </trkpt>
      <trkpt lat="44.67974" lon="5.15715">
        <ele>395</ele>
        <time>2026-09-02T18:54:32.767Z</time>
      </trkpt>
      <trkpt lat="44.67975" lon="5.15714">
        <ele>395</ele>
        <time>2026-09-02T18:54:33.767Z</time>
      </trkpt>
      <trkpt lat="44.67976" lon="5.15714">
        <ele>395</ele>
        <time>2026-09-02T18:54:34.767Z</time>
      </trkpt>
      <trkpt lat="44.67977" lon="5.15713">
        <ele>395</ele>
        <time>2026-09-02T18:54:35.767Z</time>
      </trkpt>
      <trkpt lat="44.67978" lon="5.15712">
        <ele>395</ele>
        <time>2026-09-02T18:54:36.767Z</time>
      </trkpt>
      <trkpt lat="44.67979" lon="5.15712">
        <ele>395</ele>
        <time>2026-09-02T18:54:37.767Z</time>
      </trkpt>
      <trkpt lat="44.6798" lon="5.15712">
        <ele>395</ele>
        <time>2026-09-02T18:54:38.767Z</time>
      </trkpt>
      <trkpt lat="44.67981" lon="5.15712">
        <ele>395</ele>
        <time>2026-09-02T18:54:39.767Z</time>
      </trkpt>
      <trkpt lat="44.67982" lon="5.15712">
        <ele>395</ele>
        <time>2026-09-02T18:54:40.767Z</time>
      </trkpt>
      <trkpt lat="44.67983" lon="5.15711">
        <ele>395</ele>
        <time>2026-09-02T18:54:41.767Z</time>
      </trkpt>
      <trkpt lat="44.67984" lon="5.15711">
        <ele>395</ele>
        <time>2026-09-02T18:54:42.767Z</time>
      </trkpt>
      <trkpt lat="44.67985" lon="5.15711">
        <ele>395</ele>
        <time>2026-09-02T18:54:43.767Z</time>
      </trkpt>
      <trkpt lat="44.67986" lon="5.1571">
        <ele>395</ele>
        <time>2026-09-02T18:54:44.767Z</time>
      </trkpt>
      <trkpt lat="44.67987" lon="5.1571">
        <ele>395</ele>
        <time>2026-09-02T18:54:45.767Z</time>
      </trkpt>
      <trkpt lat="44.67988" lon="5.15709">
        <ele>395</ele>
        <time>2026-09-02T18:54:46.767Z</time>
      </trkpt>
      <trkpt lat="44.67989" lon="5.15709">
        <ele>395</ele>
        <time>2026-09-02T18:54:47.767Z</time>
      </trkpt>
      <trkpt lat="44.6799" lon="5.15708">
        <ele>395</ele>
        <time>2026-09-02T18:54:48.767Z</time>
      </trkpt>
      <trkpt lat="44.6799" lon="5.15708">
        <ele>395</ele>
        <time>2026-09-02T18:54:49.767Z</time>
      </trkpt>
      <trkpt lat="44.67991" lon="5.15708">
        <ele>395</ele>
        <time>2026-09-02T18:54:50.767Z</time>
      </trkpt>
      <trkpt lat="44.67992" lon="5.15707">
        <ele>395</ele>
        <time>2026-09-02T18:54:51.767Z</time>
      </trkpt>
      <trkpt lat="44.67993" lon="5.15707">
        <ele>395</ele>
        <time>2026-09-02T18:54:52.767Z</time>
      </trkpt>
      <trkpt lat="44.67993" lon="5.15706">
        <ele>395</ele>
        <time>2026-09-02T18:54:53.767Z</time>
      </trkpt>
      <trkpt lat="44.67994" lon="5.15706">
        <ele>395</ele>
        <time>2026-09-02T18:54:54.767Z</time>
      </trkpt>
      <trkpt lat="44.67995" lon="5.15706">
        <ele>395</ele>
        <time>2026-09-02T18:54:55.767Z</time>
      </trkpt>
      <trkpt lat="44.67995" lon="5.15705">
        <ele>395</ele>
        <time>2026-09-02T18:54:56.767Z</time>
      </trkpt>
      <trkpt lat="44.67996" lon="5.15705">
        <ele>395</ele>
        <time>2026-09-02T18:54:57.767Z</time>
      </trkpt>
      <trkpt lat="44.67997" lon="5.15704">
        <ele>395</ele>
        <time>2026-09-02T18:54:58.767Z</time>
      </trkpt>
      <trkpt lat="44.67998" lon="5.15704">
        <ele>395</ele>
        <time>2026-09-02T18:54:59.767Z</time>
      </trkpt>
      <trkpt lat="44.67999" lon="5.15703">
        <ele>395</ele>
        <time>2026-09-02T18:55:00.767Z</time>
      </trkpt>
      <trkpt lat="44.68" lon="5.15703">
        <ele>395</ele>
        <time>2026-09-02T18:55:01.767Z</time>
      </trkpt>
      <trkpt lat="44.68" lon="5.15703">
        <ele>395</ele>
        <time>2026-09-02T18:55:02.767Z</time>
      </trkpt>
      <trkpt lat="44.68001" lon="5.15703">
        <ele>395</ele>
        <time>2026-09-02T18:55:03.767Z</time>
      </trkpt>
      <trkpt lat="44.68001" lon="5.15703">
        <ele>395</ele>
        <time>2026-09-02T18:55:04.767Z</time>
      </trkpt>
      <trkpt lat="44.68001" lon="5.15702">
        <ele>395</ele>
        <time>2026-09-02T18:55:05.767Z</time>
      </trkpt>
      <trkpt lat="44.68002" lon="5.15701">
        <ele>394</ele>
        <time>2026-09-02T18:55:19.763Z</time>
      </trkpt>
      <trkpt lat="44.68003" lon="5.15701">
        <ele>394</ele>
        <time>2026-09-02T18:55:20.763Z</time>
      </trkpt>
    </trkseg>
  </trk>
</gpx>